# Wetter Temperatur Luftdruck Luftfeuchtigkeit Sichtweite Windgeschwindigkeit Windrichtung Zeit
1 Clouds 14 1028 64 10000 4.63 240 14:22 01.02.2023
2 Clouds 14 1029 62 10000 3.09 240 13:20 01.02.2023
3 Clouds 14 1028 61 10000 3.09 250 12:47 01.02.2023
4 Clouds 14 1028 63 10000 1.54 250 11:56 01.02.2023
5 Clouds 14 1028 62 10000 1.54 250 11:56 01.02.2023
6 Clouds 0 1028 93 10000 1.03 50 08:43 01.02.2023
7 Clear 5 1027 81 10000 1.54 30 00:43 01.02.2023
8 Clouds 7 1027 70 10000 2.06 10 21:36 31.01.2023
9 Clouds 9 1026 61 10000 2.06 50 19:48 31.01.2023
10 Clouds 12 1026 45 10000 2.57 80 18:37 31.01.2023
11 Clouds 16 1026 50 10000 1.03 310 15:36 31.01.2023
12 Clouds 16 1026 48 10000 1.54 40 15:18 31.01.2023
13 Clear 16 1027 45 10000 1.03 0 14:18 31.01.2023
14 Clouds 14 1026 51 10000 1.79 33 12:19 31.01.2023
15 Clouds 12 1026 62 10000 1.03 0 10:47 31.01.2023
16 Clouds 9 1025 80 10000 2.06 70 09:51 31.01.2023
17 Clouds 4 1025 82 10000 1.03 0 08:59 31.01.2023
18 Clouds 4 1025 86 10000 1.54 180 08:35 31.01.2023
19 Clouds 3 1026 86 10000 1.54 70 05:36 31.01.2023
20 Clear 5 1026 77 10000 0.51 0 23:55 30.01.2023
21 Clear 5 1026 77 10000 0.45 314 22:51 30.01.2023
22 Clear 5 1026 72 10000 1.03 0 22:30 30.01.2023
23 Clear 7 1026 66 10000 2.57 280 20:48 30.01.2023
24 Clear 8 1026 62 10000 3.09 310 19:53 30.01.2023
25 Clouds 10 1025 55 10000 3.09 340 17:50 30.01.2023
26 Clouds 12 1025 54 10000 5.14 340 16:32 30.01.2023
27 Clouds 13 1026 58 10000 2.57 290 14:27 30.01.2023
28 Clouds 13 1027 55 10000 1.79 344 12:26 30.01.2023
29 Clouds 12 1027 60 10000 1.54 70 11:27 30.01.2023
30 Clouds 7 1027 87 10000 0 0 09:54 30.01.2023
31 Clouds 3 1027 89 10000 0 0 08:54 30.01.2023
32 Clouds 4 1025 88 10000 0.45 59 06:46 30.01.2023
33 Clouds 5 1026 86 10000 1.54 60 01:39 30.01.2023
34 Clouds 6 1026 77 10000 2.57 70 23:35 29.01.2023
35 Clouds 7 1025 77 10000 3.09 30 22:37 29.01.2023
36 Clouds 7 1024 74 10000 4.12 30 21:40 29.01.2023
37 Clouds 7 1024 73 10000 3.09 30 20:36 29.01.2023
38 Clouds 7 1024 71 10000 3.09 10 19:48 29.01.2023
39 Clouds 8 1023 70 10000 2.57 30 19:27 29.01.2023
40 Clouds 10 1022 62 10000 6.69 60 17:35 29.01.2023
41 Clouds 11 1022 59 10000 7.72 50 16:21 29.01.2023
42 Clouds 11 1022 60 10000 8.75 40 14:48 29.01.2023
43 Clouds 11 1023 65 10000 8.23 50 13:30 29.01.2023
44 Clouds 10 1023 64 10000 8.23 30 12:42 29.01.2023
45 Clouds 11 1023 59 10000 8.23 50 12:22 29.01.2023
46 Clouds 11 1023 62 10000 7.72 50 11:48 29.01.2023
47 Clouds 10 1023 68 10000 7.72 30 11:26 29.01.2023
48 Clouds 7 1022 85 10000 7.72 60 09:57 29.01.2023
49 Rain 7 1020 83 10000 4.12 30 07:19 29.01.2023
50 Clouds 6 1020 88 10000 2.57 60 03:39 29.01.2023
51 Clouds 6 1020 84 10000 2.57 20 23:27 28.01.2023
52 Clouds 6 1019 85 10000 3.09 350 20:38 28.01.2023
53 Clouds 6 1019 86 10000 3.6 350 19:52 28.01.2023
54 Clouds 7 1018 82 10000 4.12 340 18:32 28.01.2023
55 Clouds 8 1017 76 10000 4.63 20 17:20 28.01.2023
56 Rain 8 1017 74 10000 5.14 40 16:20 28.01.2023
57 Clouds 9 1017 74 10000 6.17 50 15:49 28.01.2023
58 Clouds 9 1017 74 10000 7.2 50 14:35 28.01.2023
59 Clouds 9 1019 81 10000 5.14 60 13:30 28.01.2023
60 Clouds 7 1019 87 10000 2.06 40 11:55 28.01.2023
61 Clouds 6 1018 90 10000 1.03 0 10:34 28.01.2023
62 Clouds 6 1015 90 10000 1.03 40 08:39 28.01.2023
63 Drizzle 6 1016 88 10000 2.57 360 01:45 28.01.2023
64 Clouds 6 1016 88 10000 1.54 50 00:26 28.01.2023
65 Clouds 6 1015 85 10000 2.06 360 21:48 27.01.2023
66 Clouds 7 1013 81 10000 3.6 60 18:54 27.01.2023
67 Clouds 8 1012 77 10000 5.14 70 17:58 27.01.2023
68 Clouds 9 1012 78 10000 6.69 70 17:19 27.01.2023
69 Clouds 9 1011 79 10000 5.14 60 16:35 27.01.2023
70 Clouds 9 1011 83 10000 5.14 70 15:24 27.01.2023
71 Drizzle 8 1014 87 10000 4.12 40 14:25 27.01.2023
72 Rain 8 1010 86 10000 4.12 60 13:31 27.01.2023
73 Clouds 3 1012 96 10000 3.09 70 08:48 27.01.2023
74 Clouds 4 1011 93 10000 1.54 30 06:29 27.01.2023
75 Clouds 4 1014 92 10000 1.54 350 00:27 27.01.2023
76 Clouds 6 1013 88 10000 1.54 90 21:52 26.01.2023
77 Clouds 6 1013 88 10000 2.06 360 20:55 26.01.2023
78 Drizzle 8 1013 86 10000 2.06 130 19:57 26.01.2023
79 Clouds 9 1013 75 10000 2.57 330 17:56 26.01.2023
80 Clouds 11 1013 66 10000 2.06 20 16:30 26.01.2023
81 Clouds 11 1013 67 10000 2.06 300 16:00 26.01.2023
82 Clouds 12 1014 64 10000 3.09 270 15:41 26.01.2023
83 Clouds 12 1014 62 10000 3.09 270 15:22 26.01.2023
84 Clouds 12 1015 64 10000 2.06 260 13:50 26.01.2023
85 Clouds 12 1015 62 10000 0.51 20 12:31 26.01.2023
86 Clouds 8 1015 89 10000 0 0 10:35 26.01.2023
87 Clouds 8 1015 89 10000 1.8 110 09:58 26.01.2023
88 Clouds 6 1015 89 10000 1.18 75 09:34 26.01.2023
89 Clouds 3 1016 93 10000 2.06 60 06:55 26.01.2023
90 Clouds 7 1020 73 10000 3.6 40 23:42 25.01.2023
91 Clouds 8 1020 72 10000 1.54 40 22:51 25.01.2023
92 Clouds 8 1020 71 10000 4.63 60 21:41 25.01.2023
93 Clouds 8 1020 72 10000 4.63 60 21:18 25.01.2023
94 Clouds 10 1020 69 10000 5.14 40 18:30 25.01.2023
95 Clouds 12 1020 68 10000 7.72 50 16:22 25.01.2023
96 Clouds 11 1021 79 10000 6.17 40 15:34 25.01.2023
97 Clouds 11 1021 80 10000 7.2 50 12:37 25.01.2023
98 Rain 9 1020 87 6000 3.6 60 09:54 25.01.2023
99 Rain 8 1020 88 4000 6.17 40 09:30 25.01.2023
100 Clouds 7 1020 90 10000 1.03 0 06:53 25.01.2023
101 Rain 8 1022 86 9000 3.09 50 00:42 25.01.2023
102 Clouds 8 1023 80 10000 0.89 72 22:49 24.01.2023
103 Clouds 8 1023 80 10000 1.34 360 21:30 24.01.2023
104 Clouds 8 1022 75 10000 1.54 60 19:53 24.01.2023
105 Clouds 9 1022 69 10000 4.63 60 18:32 24.01.2023
106 Clouds 10 1021 62 10000 2.57 20 17:20 24.01.2023
107 Clouds 10 1021 63 10000 4.12 30 16:52 24.01.2023
108 Clouds 10 1021 64 10000 7.2 50 15:21 24.01.2023
109 Clouds 10 1022 59 10000 8.23 50 13:19 24.01.2023
110 Clouds 10 1022 57 10000 6.69 50 11:20 24.01.2023
111 Clouds 4 1022 82 10000 2.57 330 08:22 24.01.2023
112 Clouds 4 1022 76 10000 3.09 60 07:51 24.01.2023
113 Clouds 3 1020 81 10000 1.03 0 05:32 24.01.2023
114 Clouds 5 1022 78 10000 1.54 60 01:37 24.01.2023
115 Clouds 6 1022 82 10000 1.54 50 23:58 23.01.2023
116 Clouds 6 1020 85 10000 0.51 0 22:27 23.01.2023
117 Clouds 5 1019 84 10000 1.54 350 19:55 23.01.2023
118 Clouds 6 1019 82 10000 2.06 20 18:37 23.01.2023
119 Rain 8 1018 70 10000 7.72 60 16:21 23.01.2023
120 Clouds 10 1019 53 10000 6.69 60 14:50 23.01.2023
121 Clouds 10 1019 54 10000 7.72 50 13:45 23.01.2023
122 Clouds 10 1020 56 10000 8.75 50 12:55 23.01.2023
123 Clouds 8 1020 63 10000 6.17 50 11:45 23.01.2023
124 Clouds 7 1019 80 10000 4.12 40 10:40 23.01.2023
125 Clouds 4 1019 85 10000 5.14 60 08:23 23.01.2023
126 Clouds 6 1020 67 10000 3.09 50 23:53 22.01.2023
127 Clouds 5 1020 59 10000 0.45 22 21:50 22.01.2023
128 Clouds 6 1021 61 10000 1.54 90 20:58 22.01.2023
129 Clouds 7 1020 54 10000 2.06 100 19:54 22.01.2023
130 Clouds 7 1020 54 10000 2.06 100 19:21 22.01.2023
131 Clouds 8 1019 51 10000 1.54 60 18:25 22.01.2023
132 Clouds 9 1019 47 10000 4.63 320 17:55 22.01.2023
133 Clouds 9 1019 46 10000 5.14 310 17:24 22.01.2023
134 Clouds 11 1020 45 10000 3.09 260 15:25 22.01.2023
135 Clouds 10 1020 52 10000 2.57 70 14:25 22.01.2023
136 Clouds 11 1019 45 10000 5.14 70 13:26 22.01.2023
137 Clouds 10 1020 45 10000 1.79 53 12:28 22.01.2023
138 Clouds 10 1020 47 10000 1.34 69 11:26 22.01.2023
139 Clouds 7 1019 50 10000 6.17 50 09:34 22.01.2023
140 Clouds 5 1017 77 10000 1.54 60 02:59 22.01.2023
141 Rain 6 1016 58 10000 3.6 70 23:44 21.01.2023
142 Clouds 6 1016 59 10000 3.09 100 22:55 21.01.2023
143 Rain 9 1015 38 10000 2.68 302 21:29 21.01.2023
144 Clouds 9 1015 36 10000 3.6 310 18:53 21.01.2023
145 Clouds 9 1015 36 10000 3.6 310 18:53 21.01.2023
146 Clouds 12 1015 29 10000 5.14 10 15:57 21.01.2023
147 Clouds 12 1015 27 10000 6.17 10 13:57 21.01.2023
148 Clouds 11 1016 31 10000 4.63 40 12:57 21.01.2023
149 Clouds 10 1017 47 10000 5.66 50 11:40 21.01.2023
150 Clouds 9 1016 58 10000 1.54 110 10:48 21.01.2023
151 Clouds 7 1015 72 10000 2.06 20 08:47 21.01.2023
152 Clouds 4 1018 86 10000 2.06 60 04:30 21.01.2023
153 Clouds 6 1016 79 10000 0.51 0 22:28 20.01.2023
154 Clouds 6 1016 77 10000 0.89 293 21:37 20.01.2023
155 Clouds 6 1016 76 10000 1.54 50 20:55 20.01.2023
156 Clouds 9 1018 68 10000 1.03 0 19:20 20.01.2023
157 Clouds 12 1014 47 10000 0.89 212 16:37 20.01.2023
158 Clouds 13 1015 47 10000 2.57 80 14:46 20.01.2023
159 Clouds 12 1015 50 10000 4.63 70 13:51 20.01.2023
160 Clouds 11 1013 60 10000 6.69 60 10:24 20.01.2023
161 Clouds 10 1010 68 10000 6.17 70 08:51 20.01.2023
162 Clouds 14 1005 48 10000 8.23 330 05:54 20.01.2023
163 Clouds 13 1003 66 10000 13.89 260 02:30 20.01.2023
164 Clouds 13 1006 52 10000 12.35 260 22:33 19.01.2023
165 Clouds 11 1008 51 10000 8.23 250 20:32 19.01.2023
166 Clouds 11 1009 52 10000 5.66 270 19:28 19.01.2023
167 Clouds 13 1012 45 10000 4.12 290 16:51 19.01.2023
168 Clouds 12 1014 54 10000 8.75 320 13:29 19.01.2023
169 Clouds 8 1013 66 10000 3.6 330 09:36 19.01.2023
170 Clouds 9 1011 62 10000 6.17 310 02:59 19.01.2023
171 Clouds 11 1009 42 10000 8.23 340 22:24 18.01.2023
172 Clouds 11 1007 43 10000 8.23 330 20:20 18.01.2023
173 Clouds 11 1006 44 10000 4.92 301 19:38 18.01.2023
174 Clouds 11 1005 49 10000 3.09 290 18:30 18.01.2023
175 Clouds 12 1002 57 10000 6.69 320 15:56 18.01.2023
176 Clouds 13 1000 44 10000 8.23 330 13:49 18.01.2023
177 Clouds 12 1001 48 10000 6.69 330 11:44 18.01.2023
178 Clouds 10 997 49 10000 3.6 320 09:27 18.01.2023
179 Clouds 9 995 63 10000 4.63 340 05:35 18.01.2023
180 Clouds 11 997 60 10000 4.63 290 00:35 18.01.2023
181 Clouds 13 997 64 10000 4.12 250 20:57 17.01.2023
182 Clouds 12 996 59 10000 1.34 229 19:37 17.01.2023
183 Clouds 13 996 61 10000 3.09 320 18:48 17.01.2023
184 Clouds 14 996 59 10000 5.66 320 17:38 17.01.2023
185 Clouds 16 994 58 10000 10.29 330 15:26 17.01.2023
186 Clouds 18 996 56 10000 14.92 260 14:34 17.01.2023
187 Clouds 18 997 57 10000 6.71 250 13:31 17.01.2023
188 Clouds 18 995 51 10000 16.46 260 11:46 17.01.2023
189 Clouds 17 993 53 10000 14.92 260 09:36 17.01.2023
190 Clouds 16 994 58 10000 13.89 250 08:20 17.01.2023
191 Clouds 16 994 56 10000 15.43 250 06:51 17.01.2023
192 Clouds 16 999 58 10000 14.92 260 01:32 17.01.2023
193 Clouds 16 999 58 10000 14.92 260 01:32 17.01.2023
194 Clouds 16 999 60 10000 11.83 270 00:47 17.01.2023
195 Clouds 15 1000 60 10000 14.4 260 22:29 16.01.2023
196 Clouds 15 1001 60 10000 12.86 260 21:39 16.01.2023
197 Clouds 15 1002 59 10000 12.35 270 19:50 16.01.2023
198 Clouds 16 1003 58 10000 10.8 270 18:57 16.01.2023
199 Clouds 15 1003 58 10000 11.83 270 18:37 16.01.2023
200 Clouds 15 1003 58 10000 10.29 260 18:18 16.01.2023
201 Clouds 16 1003 54 10000 11.32 270 17:20 16.01.2023
202 Clouds 16 1006 51 10000 11.83 250 14:18 16.01.2023
203 Clouds 16 1008 51 10000 11.32 260 13:35 16.01.2023
204 Clouds 14 1010 59 10000 9.77 270 10:23 16.01.2023
205 Clouds 12 1010 59 10000 6.69 270 08:20 16.01.2023
206 Clouds 12 1017 67 10000 3.6 20 22:44 15.01.2023
207 Clouds 14 1018 62 10000 4.47 335 21:23 15.01.2023
208 Clouds 14 1018 72 10000 3.09 360 20:28 15.01.2023
209 Clouds 14 1015 70 10000 1.34 45 19:31 15.01.2023
210 Clouds 18 1014 36 10000 3.09 320 17:24 15.01.2023
211 Clouds 18 1018 67 10000 5.14 230 13:46 15.01.2023
212 Clouds 17 1017 66 10000 5.14 250 12:23 15.01.2023
213 Clouds 16 1019 80 10000 3.6 250 11:28 15.01.2023
214 Clouds 14 1016 85 10000 1.54 240 10:21 15.01.2023
215 Clouds 13 1018 86 10000 3.6 240 07:56 15.01.2023
216 Clouds 11 1023 86 10000 3.09 240 23:39 14.01.2023
217 Clouds 11 1022 84 10000 4.12 240 22:44 14.01.2023
218 Clouds 12 1023 83 10000 3.6 240 21:36 14.01.2023
219 Clouds 12 1023 84 10000 3.6 240 21:18 14.01.2023
220 Clouds 13 1023 83 10000 3.6 240 20:56 14.01.2023
221 Clouds 13 1023 82 10000 4.12 240 20:26 14.01.2023
222 Clouds 15 1022 70 10000 3.6 230 17:53 14.01.2023
223 Clear 17 1025 54 10000 6.17 240 15:38 14.01.2023
224 Clouds 18 1025 60 10000 6.17 250 15:19 14.01.2023
225 Clouds 17 1026 65 10000 5.66 230 14:19 14.01.2023
226 Clear 16 1025 68 10000 4.02 211 12:50 14.01.2023
227 Clouds 13 1026 79 10000 0.89 191 10:50 14.01.2023
228 Clouds 8 1026 90 10000 1.34 316 09:23 14.01.2023
229 Clouds 9 1026 75 10000 1.03 320 02:36 14.01.2023
230 Clouds 10 1027 77 10000 1.34 68 23:19 13.01.2023
231 Clouds 10 1027 76 10000 1.54 10 22:41 13.01.2023
232 Clouds 11 1027 74 10000 1.54 90 21:58 13.01.2023
233 Clouds 12 1027 69 10000 2.57 50 20:38 13.01.2023
234 Clouds 13 1026 71 10000 1.34 5 19:27 13.01.2023
235 Clouds 16 1023 55 10000 1.54 230 17:40 13.01.2023
236 Clouds 17 1025 70 10000 3.6 220 15:20 13.01.2023
237 Clouds 17 1025 71 10000 3.6 230 12:25 13.01.2023
238 Clouds 14 1024 86 10000 0.51 0 10:43 13.01.2023
239 Clouds 14 1024 87 10000 0.51 0 10:23 13.01.2023
240 Clouds 11 1024 90 10000 1.03 0 09:44 13.01.2023
241 Clouds 10 1023 90 10000 0.51 10 08:52 13.01.2023
242 Clouds 10 1022 92 10000 1.03 0 06:57 13.01.2023
243 Clouds 10 1022 92 10000 1.54 40 06:30 13.01.2023
244 Clouds 10 1025 88 10000 1.54 60 03:21 13.01.2023
245 Clouds 9 1026 78 10000 0.45 349 22:57 12.01.2023
246 Clouds 9 1027 74 10000 0.89 342 22:00 12.01.2023
247 Clouds 10 1027 66 10000 1.54 50 20:55 12.01.2023
248 Clear 12 1027 53 10000 0.51 0 18:52 12.01.2023
249 Clear 15 1026 42 10000 5.14 260 17:33 12.01.2023
250 Clouds 17 1027 47 10000 4.63 250 15:53 12.01.2023
251 Clouds 17 1028 48 10000 5.14 250 14:44 12.01.2023
252 Clouds 17 1028 53 10000 5.14 260 14:21 12.01.2023
253 Clouds 17 1028 57 10000 4.63 270 12:44 12.01.2023
254 Clear 15 1028 72 10000 0.45 270 10:34 12.01.2023
255 Clouds 9 1027 88 10000 0.51 70 08:21 12.01.2023
256 Clouds 10 1027 79 10000 1.03 360 01:49 12.01.2023
257 Clouds 13 1027 70 10000 2.57 50 23:59 11.01.2023
258 Clouds 12 1025 69 10000 4.12 50 23:40 11.01.2023
259 Clouds 12 1025 67 10000 2.57 50 23:20 11.01.2023
260 Clouds 13 1025 65 10000 3.09 60 21:44 11.01.2023
261 Clouds 14 1023 61 10000 1.34 47 19:47 11.01.2023
262 Clouds 15 1024 68 10000 2.57 330 18:35 11.01.2023
263 Clouds 18 1023 55 10000 6.17 340 16:47 11.01.2023
264 Clouds 19 1025 54 10000 3.58 293 14:47 11.01.2023
265 Clouds 19 1022 60 10000 4.63 230 12:43 11.01.2023
266 Clouds 17 1022 74 10000 4.12 220 11:54 11.01.2023
267 Clouds 13 1022 87 10000 0.45 111 10:20 11.01.2023
268 Clouds 5 1024 88 10000 1.54 30 07:59 11.01.2023
269 Clouds 6 1024 93 10000 0.51 0 07:22 11.01.2023
270 Clouds 6 1024 93 10000 0.51 0 07:22 11.01.2023
271 Clear 6 1027 87 10000 0 0 00:34 11.01.2023
272 Clear 9 1025 76 10000 1.54 20 22:46 10.01.2023
273 Clear 10 1025 67 10000 1.03 120 21:33 10.01.2023
274 Clear 12 1025 62 10000 2.06 260 20:39 10.01.2023
275 Clear 13 1025 56 10000 4.63 260 19:39 10.01.2023
276 Clear 13 1025 54 10000 3.6 240 18:47 10.01.2023
277 Clear 15 1025 44 10000 2.57 220 17:59 10.01.2023
278 Clear 17 1028 41 10000 2.57 290 16:39 10.01.2023
279 Clear 18 1025 36 10000 5.14 320 15:31 10.01.2023
280 Clear 17 1025 38 10000 4.63 300 14:31 10.01.2023
281 Clouds 16 1027 44 10000 4.63 300 12:23 10.01.2023
282 Clouds 13 1026 58 10000 3.09 250 09:25 10.01.2023
283 Clouds 12 1025 57 10000 1.54 170 08:29 10.01.2023
284 Clouds 12 1025 55 10000 0.51 0 07:27 10.01.2023
285 Clouds 14 1025 50 10000 4.12 330 04:54 10.01.2023
286 Clouds 15 1023 44 10000 2.57 50 23:29 09.01.2023
287 Clouds 15 1022 33 10000 9.26 330 21:51 09.01.2023
288 Clouds 16 1021 32 10000 2.57 330 20:45 09.01.2023
289 Clouds 16 1020 30 10000 6.26 288 19:30 09.01.2023
290 Clear 16 1019 34 10000 5.14 310 17:55 09.01.2023
291 Clear 16 1019 34 10000 5.14 310 17:55 09.01.2023
292 Clouds 16 1019 35 10000 5.14 310 17:28 09.01.2023
293 Clouds 18 1019 33 10000 6.17 330 16:32 09.01.2023
294 Clouds 18 1020 43 10000 11.32 340 15:30 09.01.2023
295 Clouds 18 1020 44 10000 13.38 330 14:46 09.01.2023
296 Clouds 18 1018 43 10000 10.8 330 13:39 09.01.2023
297 Clouds 18 1019 49 10000 10.29 330 12:49 09.01.2023
298 Clouds 18 1017 52 10000 6.17 320 11:43 09.01.2023
299 Clouds 18 1015 51 10000 5.14 310 10:35 09.01.2023
300 Clouds 18 1011 64 10000 5.66 280 06:44 09.01.2023
301 Clouds 19 1010 63 10000 6.17 240 02:54 09.01.2023
302 Clouds 18 1011 66 10000 5.14 250 23:53 08.01.2023
303 Clouds 18 1012 76 10000 8.23 250 21:41 08.01.2023
304 Clouds 18 1012 77 10000 8.23 250 21:20 08.01.2023
305 Clouds 17 1012 81 10000 8.23 250 20:29 08.01.2023
306 Clouds 17 1012 85 10000 7.72 230 17:53 08.01.2023
307 Clouds 17 1012 84 10000 7.2 240 17:20 08.01.2023
308 Clouds 17 1013 83 10000 6.17 250 15:47 08.01.2023
309 Clouds 17 1013 82 10000 6.17 250 15:24 08.01.2023
310 Clouds 18 1014 74 10000 8.75 240 13:57 08.01.2023
311 Clouds 18 1014 75 10000 10.29 230 13:29 08.01.2023
312 Clouds 18 1016 75 10000 8.75 240 12:20 08.01.2023
313 Clouds 16 1016 83 10000 8.23 230 09:39 08.01.2023
314 Clouds 16 1015 81 10000 8.75 240 08:45 08.01.2023
315 Clouds 15 1016 84 10000 5.66 240 07:41 08.01.2023
316 Clouds 9 1021 88 10000 2.06 320 23:58 07.01.2023
317 Clouds 10 1021 84 10000 1.54 340 22:46 07.01.2023
318 Clouds 10 1021 84 10000 1.54 340 22:22 07.01.2023
319 Clouds 10 1021 83 10000 1.54 340 21:40 07.01.2023
320 Clouds 11 1018 74 10000 2.06 280 20:31 07.01.2023
321 Clouds 12 1018 72 10000 2.57 260 19:28 07.01.2023
322 Clouds 14 1018 69 10000 4.12 260 18:23 07.01.2023
323 Clouds 15 1019 65 10000 4.12 260 17:43 07.01.2023
324 Clouds 16 1019 63 10000 5.14 240 17:20 07.01.2023
325 Clouds 17 1019 61 10000 5.14 260 16:29 07.01.2023
326 Clouds 18 1019 61 10000 5.66 240 15:46 07.01.2023
327 Clouds 18 1019 61 10000 5.66 240 15:22 07.01.2023
328 Clouds 17 1020 66 10000 6.69 240 14:26 07.01.2023
329 Clouds 18 1021 64 10000 7.2 240 13:43 07.01.2023
330 Clouds 18 1021 65 10000 7.2 240 13:22 07.01.2023
331 Clouds 18 1022 66 10000 7.2 230 12:21 07.01.2023
332 Clouds 16 1022 79 10000 5.66 230 10:57 07.01.2023
333 Clouds 15 1022 79 10000 4.63 230 10:23 07.01.2023
334 Clouds 12 1022 86 10000 3.6 230 08:21 07.01.2023
335 Clouds 11 1021 86 10000 3.6 240 07:43 07.01.2023
336 Clouds 10 1021 91 10000 1.03 30 06:49 07.01.2023
337 Clouds 11 1023 85 10000 1.03 0 23:55 06.01.2023
338 Clouds 11 1023 88 10000 1.03 0 22:22 06.01.2023
339 Clouds 11 1023 86 10000 1.03 0 21:58 06.01.2023
340 Clouds 12 1023 81 10000 2.06 170 20:52 06.01.2023
341 Clouds 12 1023 80 10000 2.06 160 19:57 06.01.2023
342 Clouds 12 1023 78 10000 2.57 220 19:39 06.01.2023
343 Clouds 12 1023 77 10000 2.57 220 19:21 06.01.2023
344 Clouds 13 1023 74 10000 3.6 250 18:25 06.01.2023
345 Clouds 16 1023 64 10000 4.63 250 16:55 06.01.2023
346 Clouds 17 1023 61 10000 5.14 240 16:23 06.01.2023
347 Clouds 17 1023 61 10000 5.14 240 15:53 06.01.2023
348 Clouds 17 1023 63 10000 5.14 240 15:34 06.01.2023
349 Clouds 17 1023 60 10000 5.14 240 13:48 06.01.2023
350 Clouds 17 1024 69 10000 0.89 186 12:21 06.01.2023
351 Clouds 14 1024 84 10000 0.89 215 10:57 06.01.2023
352 Clouds 6 1026 89 10000 0.51 0 08:55 06.01.2023
353 Clouds 4 1025 93 10000 1.03 40 05:31 06.01.2023
354 Clouds 8 1027 87 10000 0.51 0 23:48 05.01.2023
355 Clouds 7 1027 86 10000 0 0 22:54 05.01.2023
356 Clouds 9 1025 78 10000 1.03 0 21:23 05.01.2023
357 Clouds 11 1025 68 10000 1.54 130 19:18 05.01.2023
358 Clouds 15 1025 56 10000 2.57 220 17:27 05.01.2023
359 Clouds 17 1027 57 10000 3.09 230 15:59 05.01.2023
360 Clouds 17 1027 55 10000 3.09 240 15:40 05.01.2023
361 Clouds 17 1028 52 10000 3.09 240 14:34 05.01.2023
362 Clouds 17 1028 46 10000 1.54 260 12:42 05.01.2023
363 Clear 17 1028 53 10000 1.03 0 11:44 05.01.2023
364 Clear 8 1030 85 10000 2.06 60 09:50 05.01.2023
365 Clear 3 1030 100 10000 1.03 0 08:24 05.01.2023
366 Clouds 3 1030 93 10000 1.54 50 06:57 05.01.2023
367 Clouds 5 1031 91 10000 1.03 60 03:34 05.01.2023
368 Clouds 9 1030 75 10000 0.51 0 22:33 04.01.2023
369 Clouds 10 1030 71 10000 1.03 0 21:33 04.01.2023
370 Clouds 11 1030 71 10000 1.03 0 20:26 04.01.2023
371 Clouds 11 1030 67 10000 1.03 60 19:54 04.01.2023
372 Clouds 12 1030 64 10000 0.51 0 19:30 04.01.2023
373 Clouds 14 1030 56 10000 2.06 280 18:19 04.01.2023
374 Clouds 18 1029 55 10000 3.09 220 16:31 04.01.2023
375 Clouds 17 1032 62 10000 3.09 210 15:27 04.01.2023
376 Clouds 17 1031 62 10000 2.06 250 13:36 04.01.2023
377 Fog 15 1032 80 10000 0.45 91 11:40 04.01.2023
378 Fog 14 1032 85 10000 0.51 350 11:18 04.01.2023
379 Fog 12 1031 90 10000 1.03 0 10:42 04.01.2023
380 Fog 10 1031 93 10000 1.03 0 10:21 04.01.2023
381 Fog 5 1032 100 10000 1.03 0 06:18 04.01.2023
382 Fog 8 1030 92 8000 1.03 30 01:43 04.01.2023
383 Clouds 9 1030 91 10000 1.03 30 23:52 03.01.2023
384 Clouds 9 1029 91 10000 0.51 0 23:31 03.01.2023
385 Clouds 11 1029 87 10000 2.57 40 21:43 03.01.2023
386 Clouds 12 1028 84 10000 1.03 30 20:51 03.01.2023
387 Clouds 13 1029 86 10000 1.03 40 18:52 03.01.2023
388 Clouds 17 1028 70 10000 2.06 80 16:46 03.01.2023
389 Clouds 17 1028 71 10000 2.06 60 15:47 03.01.2023
390 Clouds 17 1028 71 10000 0.51 30 13:51 03.01.2023
391 Clouds 17 1028 71 10000 1.03 0 13:29 03.01.2023
392 Clouds 17 1028 74 10000 1.03 0 12:57 03.01.2023
393 Clouds 16 1029 77 10000 1.54 70 12:29 03.01.2023
394 Clouds 12 1028 86 10000 2.06 10 10:25 03.01.2023
395 Clouds 7 1026 88 10000 1.03 0 06:21 03.01.2023
396 Clouds 7 1025 87 8000 1.54 50 03:56 03.01.2023
397 Clouds 6 1025 100 8000 1.54 70 03:35 03.01.2023
398 Clouds 11 1025 85 9000 1.54 150 23:36 02.01.2023
399 Clouds 11 1024 89 8000 0.89 344 22:41 02.01.2023
400 Clouds 11 1024 89 8000 0.89 344 22:41 02.01.2023
401 Clouds 11 1024 90 8000 0.89 317 21:52 02.01.2023
402 Clouds 12 1023 87 6000 1.54 30 20:38 02.01.2023
403 Fog 13 1022 88 900 1.54 70 19:27 02.01.2023
404 Mist 17 1021 74 5000 2.06 210 16:54 02.01.2023
405 Clear 20 1020 63 10000 3.09 210 14:31 02.01.2023
406 Clear 19 1021 60 10000 0.89 182 12:57 02.01.2023
407 Clouds 15 1022 69 10000 0.89 68 11:40 02.01.2023
408 Fog 7 1024 100 10000 1.03 0 09:48 02.01.2023
409 Clouds 7 1023 100 10000 0 0 07:30 02.01.2023
410 Clouds 10 1024 87 10000 2.57 40 00:39 02.01.2023
411 Clouds 12 1023 88 10000 2.57 50 21:55 01.01.2023
412 Clouds 12 1023 85 10000 1.54 50 21:22 01.01.2023
413 Clouds 12 1023 84 10000 1.54 50 20:45 01.01.2023
414 Clouds 13 1023 84 10000 1.03 0 19:42 01.01.2023
415 Clear 17 1022 74 10000 1.54 260 17:53 01.01.2023
416 Clear 18 1022 68 10000 1.54 230 17:20 01.01.2023
417 Clear 22 1024 49 10000 2.06 140 16:31 01.01.2023
418 Clear 22 1025 51 10000 1.54 190 14:47 01.01.2023
419 Clear 22 1024 42 10000 0.45 90 13:29 01.01.2023
420 Clear 19 1027 54 10000 1.03 0 12:32 01.01.2023
421 Clear 18 1027 58 10000 0.51 0 11:36 01.01.2023
422 Clear 14 1027 73 10000 0.89 350 10:23 01.01.2023
423 Clouds 6 1027 91 9000 0 0 08:48 01.01.2023
424 Clouds 6 1027 91 9000 1.54 20 08:18 01.01.2023
425 Clouds 6 1027 91 9000 0 0 08:18 01.01.2023
426 Fog 6 1026 100 7000 0.51 50 06:54 01.01.2023
427 Fog 11 1028 85 100 1.54 350 00:52 01.01.2023
428 Fog 11 1027 85 500 1.03 0 23:41 31.12.2022
429 Fog 12 1027 88 2500 1.03 60 22:32 31.12.2022
430 Fog 12 1027 90 4000 0 0 21:34 31.12.2022
431 Fog 12 1027 90 4000 0 0 21:34 31.12.2022
432 Clouds 13 1025 89 9000 0 0 20:43 31.12.2022
433 Clouds 15 1025 90 10000 1.54 130 19:33 31.12.2022
434 Clouds 16 1025 88 10000 2.57 230 18:42 31.12.2022
435 Clouds 16 1025 88 10000 2.57 230 18:18 31.12.2022
436 Clouds 17 1025 85 10000 3.09 210 17:45 31.12.2022
437 Clouds 18 1024 80 10000 3.09 220 16:40 31.12.2022
438 Clouds 19 1024 77 10000 3.09 220 16:19 31.12.2022
439 Clouds 20 1024 72 10000 3.09 230 14:36 31.12.2022
440 Clouds 19 1025 75 10000 3.6 230 13:33 31.12.2022
441 Clouds 19 1025 77 10000 3.6 220 12:39 31.12.2022
442 Clouds 18 1025 79 10000 1.03 250 12:19 31.12.2022
443 Clouds 18 1025 78 10000 1.03 250 11:50 31.12.2022
444 Clouds 15 1025 88 8000 0.89 90 10:34 31.12.2022
445 Clouds 13 1027 91 6000 0.51 0 09:53 31.12.2022
446 Mist 11 1026 89 3000 0 0 09:18 31.12.2022
447 Mist 10 1026 85 3000 0 0 07:22 31.12.2022
448 Clear 12 1026 84 10000 1.03 0 00:35 31.12.2022
449 Clear 12 1026 84 10000 1.54 190 23:45 30.12.2022
450 Clear 13 1026 83 10000 2.57 190 22:45 30.12.2022
451 Clear 14 1026 77 10000 2.06 180 21:42 30.12.2022
452 Clear 14 1026 76 10000 2.06 180 21:22 30.12.2022
453 Clear 17 1023 68 10000 3.6 250 18:57 30.12.2022
454 Clear 17 1021 58 10000 6.17 260 17:42 30.12.2022
455 Clear 17 1021 58 10000 6.17 260 17:23 30.12.2022
456 Clear 18 1020 58 10000 7.72 250 15:50 30.12.2022
457 Clouds 19 1022 59 10000 9.26 250 13:56 30.12.2022
458 Clouds 18 1021 63 10000 6.69 240 10:24 30.12.2022
459 Clouds 15 1020 72 10000 4.12 240 07:59 30.12.2022
460 Clouds 14 1020 80 10000 4.63 240 02:41 30.12.2022
461 Clouds 14 1020 84 10000 1.54 100 00:53 30.12.2022
462 Clear 14 1020 82 10000 4.12 240 22:50 29.12.2022
463 Clear 14 1019 75 10000 3.09 240 21:31 29.12.2022
464 Clear 14 1019 72 10000 3.6 240 20:54 29.12.2022
465 Clear 14 1019 71 10000 2.57 230 20:21 29.12.2022
466 Clear 17 1021 58 10000 4.63 250 17:57 29.12.2022
467 Clear 17 1021 56 10000 6.69 260 17:29 29.12.2022
468 Clear 18 1021 52 10000 7.72 250 16:55 29.12.2022
469 Clear 19 1021 54 10000 6.17 250 15:59 29.12.2022
470 Clear 19 1021 57 10000 6.17 240 15:18 29.12.2022
471 Clear 19 1022 56 10000 5.66 240 13:33 29.12.2022
472 Clouds 17 1021 79 10000 0.45 158 11:28 29.12.2022
473 Fog 8 1022 89 8000 1.03 0 07:45 29.12.2022
474 Fog 9 1023 90 8000 1.54 340 00:18 29.12.2022
475 Fog 10 1023 86 9000 0.51 0 23:27 28.12.2022
476 Fog 11 1021 90 7000 0 0 21:21 28.12.2022
477 Fog 11 1021 90 9000 0.51 0 20:25 28.12.2022
478 Clouds 12 1021 89 10000 1.03 60 19:23 28.12.2022
479 Clear 16 1024 80 10000 2.57 230 16:56 28.12.2022
480 Clear 19 1023 64 10000 1.34 203 14:42 28.12.2022
481 Clouds 16 1025 82 10000 0.89 96 12:55 28.12.2022
482 Mist 14 1027 93 1500 0 0 11:53 28.12.2022
483 Fog 12 1027 98 100 1.03 0 10:39 28.12.2022
484 Fog 10 1027 100 100 0.51 0 08:43 28.12.2022
485 Fog 9 1027 91 100 1.54 30 06:50 28.12.2022
486 Fog 7 1028 100 7000 1.54 70 03:46 28.12.2022
487 Fog 11 1029 89 50 1.54 30 23:35 27.12.2022
488 Clouds 12 1027 85 10000 0.51 0 19:58 27.12.2022
489 Clouds 13 1027 85 10000 1.03 0 19:27 27.12.2022
490 Clouds 18 1026 65 10000 2.06 230 17:20 27.12.2022
491 Clouds 18 1028 72 10000 2.57 230 16:39 27.12.2022
492 Clouds 19 1028 64 10000 2.57 230 15:25 27.12.2022
493 Clouds 19 1030 62 10000 2.06 60 12:34 27.12.2022
494 Clouds 18 1030 68 10000 1.54 30 11:28 27.12.2022
495 Fog 9 1030 100 10000 2.06 350 09:46 27.12.2022
496 Fog 10 1030 91 10000 2.06 350 09:23 27.12.2022
497 Clouds 10 1029 85 10000 2.57 40 06:49 27.12.2022
498 Clouds 10 1029 80 10000 1.79 5 04:29 27.12.2022
499 Clouds 11 1029 89 10000 1.54 50 22:21 26.12.2022
500 Clouds 11 1027 89 10000 2.06 360 20:51 26.12.2022
501 Clear 11 1027 93 10000 1.03 0 20:29 26.12.2022
502 Clear 15 1024 71 10000 1.03 0 18:43 26.12.2022
503 Clear 17 1024 64 10000 1.03 0 17:44 26.12.2022
504 Clear 20 1023 52 10000 2.57 230 16:20 26.12.2022
505 Clear 22 1023 39 10000 2.57 270 13:46 26.12.2022
506 Clear 20 1026 61 10000 0.45 45 11:56 26.12.2022
507 Fog 10 1025 89 300 1.03 40 07:29 26.12.2022
508 Fog 13 1023 93 300 1.03 170 23:56 25.12.2022
509 Fog 13 1023 93 500 1.03 0 23:35 25.12.2022
510 Fog 13 1023 93 500 0.51 330 22:26 25.12.2022
511 Clouds 13 1024 96 9000 1.03 30 21:37 25.12.2022
512 Clouds 14 1021 90 10000 1.03 170 18:49 25.12.2022
513 Clouds 16 1020 85 10000 0.51 0 17:52 25.12.2022
514 Clouds 17 1020 84 10000 2.06 240 17:33 25.12.2022
515 Clouds 19 1020 76 10000 3.6 220 15:21 25.12.2022
516 Clouds 18 1021 87 10000 2.57 240 12:26 25.12.2022
517 Mist 13 1021 97 3000 0 0 08:39 25.12.2022
518 Fog 13 1020 93 7000 0 0 23:30 24.12.2022
519 Clouds 14 1020 92 9000 2.57 230 21:25 24.12.2022
520 Clouds 17 1018 88 9000 3.6 210 18:18 24.12.2022
521 Clouds 18 1019 81 10000 5.14 220 16:38 24.12.2022
522 Clear 19 1021 80 10000 6.17 210 14:52 24.12.2022
523 Clear 20 1021 75 10000 4.63 220 12:43 24.12.2022
524 Clear 17 1019 89 10000 5.14 220 10:45 24.12.2022
525 Clouds 16 1019 91 10000 3.6 220 10:20 24.12.2022
526 Clouds 16 1021 91 10000 2.57 220 09:36 24.12.2022
527 Clouds 12 1021 100 9000 2.57 200 05:48 24.12.2022
528 Clouds 12 1020 89 10000 3.6 220 02:24 24.12.2022
529 Clouds 14 1023 90 10000 3.09 210 23:37 23.12.2022
530 Clouds 15 1022 86 10000 3.6 220 22:27 23.12.2022
531 Clouds 16 1022 80 10000 3.6 230 20:41 23.12.2022
532 Clouds 16 1021 81 10000 4.12 210 19:39 23.12.2022
533 Clouds 16 1021 82 10000 4.12 210 19:21 23.12.2022
534 Clouds 16 1021 82 10000 3.6 220 18:45 23.12.2022
535 Clouds 17 1021 81 10000 4.12 210 18:19 23.12.2022
536 Clouds 18 1021 79 10000 6.17 230 16:34 23.12.2022
537 Clouds 18 1023 81 10000 6.69 220 15:37 23.12.2022
538 Clouds 20 1023 66 10000 5.66 240 11:57 23.12.2022
539 Fog 11 1023 95 10000 2.57 210 09:37 23.12.2022
540 Fog 10 1023 94 7000 0 0 07:59 23.12.2022
541 Fog 9 1023 94 2000 1.54 330 07:18 23.12.2022
542 Fog 9 1023 94 7000 0.51 0 06:39 23.12.2022
543 Clouds 12 1024 82 10000 2.06 110 23:23 22.12.2022
544 Clouds 13 1024 83 10000 1.54 170 22:57 22.12.2022
545 Clouds 14 1024 79 10000 2.57 170 21:24 22.12.2022
546 Clouds 16 1024 72 10000 2.57 180 19:26 22.12.2022
547 Clouds 16 1024 73 10000 3.09 190 18:51 22.12.2022
548 Clouds 17 1021 68 10000 5.66 250 17:29 22.12.2022
549 Clouds 18 1023 82 10000 4.12 210 16:39 22.12.2022
550 Clouds 19 1023 82 10000 5.14 220 15:35 22.12.2022
551 Clouds 19 1023 71 10000 3.6 220 14:51 22.12.2022
552 Clouds 20 1025 63 10000 3.09 230 13:34 22.12.2022
553 Clouds 20 1024 63 10000 2.24 284 12:59 22.12.2022
554 Clouds 17 1024 75 10000 0.51 0 10:51 22.12.2022
555 Clouds 15 1023 83 10000 0.45 68 10:30 22.12.2022
556 Clouds 12 1024 90 10000 1.03 0 09:21 22.12.2022
557 Clouds 10 1024 90 10000 0.51 0 08:28 22.12.2022
558 Fog 10 1023 89 10000 1.54 50 06:41 22.12.2022
559 Clouds 12 1024 87 10000 0.51 110 04:18 22.12.2022
560 Clear 11 1024 85 10000 1.79 360 23:51 21.12.2022
561 Clear 12 1022 75 10000 1.54 70 22:24 21.12.2022
562 Clear 13 1022 70 10000 1.03 140 21:24 21.12.2022
563 Clear 14 1022 68 10000 1.54 80 20:54 21.12.2022
564 Clear 13 1021 66 10000 1.54 110 20:29 21.12.2022
565 Clouds 15 1020 61 10000 1.54 310 19:44 21.12.2022
566 Clouds 15 1020 60 10000 1.54 310 19:25 21.12.2022
567 Clouds 16 1020 56 10000 0.51 0 18:47 21.12.2022
568 Clouds 17 1020 42 10000 3.09 290 17:49 21.12.2022
569 Clouds 19 1021 64 10000 5.66 250 14:59 21.12.2022
570 Clouds 20 1021 56 10000 6.69 320 13:41 21.12.2022
571 Clear 19 1021 57 10000 4.63 300 11:48 21.12.2022
572 Clear 18 1021 65 10000 1.54 170 11:20 21.12.2022
573 Clouds 17 1020 69 10000 1.34 51 09:50 21.12.2022
574 Clouds 15 1020 85 10000 1.03 0 08:48 21.12.2022
575 Clouds 14 1019 87 10000 2.57 180 06:24 21.12.2022
576 Clouds 16 1022 84 10000 4.63 240 23:21 20.12.2022
577 Clouds 16 1023 82 10000 4.63 240 21:47 20.12.2022
578 Clouds 16 1022 82 10000 4.12 230 20:26 20.12.2022
579 Clouds 16 1023 84 10000 3.6 230 19:42 20.12.2022
580 Clouds 16 1023 84 10000 4.63 240 18:41 20.12.2022
581 Clouds 16 1023 83 10000 4.63 240 18:21 20.12.2022
582 Clouds 16 1022 77 10000 3.13 232 17:46 20.12.2022
583 Clouds 17 1022 72 10000 4.02 197 16:53 20.12.2022
584 Clouds 18 1023 82 10000 4.12 220 15:49 20.12.2022
585 Clouds 19 1022 75 10000 4.63 220 14:50 20.12.2022
586 Clouds 19 1023 75 10000 4.63 220 14:29 20.12.2022
587 Clouds 19 1022 72 10000 2.57 220 13:25 20.12.2022
588 Clouds 19 1023 74 10000 0.89 197 12:32 20.12.2022
589 Clouds 19 1023 74 10000 0.51 0 11:38 20.12.2022
590 Clouds 11 1025 99 10000 1.03 0 09:41 20.12.2022
591 Clouds 12 1025 92 10000 2.57 60 04:41 20.12.2022
592 Clouds 13 1027 89 10000 2.06 80 23:46 19.12.2022
593 Clouds 14 1028 89 10000 1.54 20 22:21 19.12.2022
594 Clouds 14 1028 88 10000 1.54 60 20:42 19.12.2022
595 Clouds 15 1028 87 10000 2.06 50 19:39 19.12.2022
596 Clouds 16 1028 80 10000 1.03 120 18:43 19.12.2022
597 Clouds 17 1027 77 10000 2.06 170 17:36 19.12.2022
598 Clouds 19 1027 68 10000 3.09 180 14:45 19.12.2022
599 Clouds 18 1029 76 10000 2.06 170 12:35 19.12.2022
600 Clouds 17 1030 85 10000 1.03 0 11:30 19.12.2022
601 Clouds 11 1028 93 10000 2.06 70 07:48 19.12.2022
602 Clouds 12 1027 92 10000 2.06 70 06:32 19.12.2022
603 Clouds 12 1029 91 10000 1.54 60 22:59 18.12.2022
604 Clouds 12 1029 90 10000 1.34 337 21:47 18.12.2022
605 Clouds 13 1029 89 10000 1.03 0 21:24 18.12.2022
606 Clouds 13 1029 89 10000 1.03 0 20:53 18.12.2022
607 Clouds 13 1029 88 10000 2.06 70 19:43 18.12.2022
608 Clouds 14 1028 83 10000 1.54 140 18:57 18.12.2022
609 Clouds 16 1028 79 10000 2.06 220 17:52 18.12.2022
610 Clouds 18 1028 78 10000 2.57 230 15:41 18.12.2022
611 Clouds 18 1028 74 10000 2.57 230 15:23 18.12.2022
612 Clouds 18 1028 75 10000 2.57 260 14:29 18.12.2022
613 Clouds 18 1027 71 10000 1.03 0 13:28 18.12.2022
614 Clouds 18 1027 73 10000 0.51 360 12:42 18.12.2022
615 Clouds 18 1027 75 10000 1.03 0 11:49 18.12.2022
616 Clouds 10 1026 91 10000 1.79 327 09:34 18.12.2022
617 Clouds 9 1028 94 10000 1.54 10 08:46 18.12.2022
618 Clouds 9 1024 94 10000 1.03 0 06:36 18.12.2022
619 Clouds 9 1024 92 10000 0.51 0 06:18 18.12.2022
620 Clear 10 1023 93 10000 2.06 340 01:49 18.12.2022
621 Clouds 11 1022 89 10000 1.34 317 22:57 17.12.2022
622 Clouds 12 1021 87 10000 2.06 80 20:46 17.12.2022
623 Clouds 17 1019 74 10000 2.57 240 17:21 17.12.2022
624 Clouds 18 1018 71 10000 2.57 220 15:32 17.12.2022
625 Clouds 18 1018 65 10000 0.51 340 13:20 17.12.2022
626 Clouds 17 1018 66 10000 1.34 69 11:19 17.12.2022
627 Clouds 14 1017 78 10000 0.51 30 10:40 17.12.2022
628 Clouds 9 1018 87 10000 1.54 20 08:37 17.12.2022
629 Clouds 9 1018 87 10000 1.54 20 08:37 17.12.2022
630 Clouds 7 1015 93 10000 0.51 0 07:22 17.12.2022
631 Clouds 9 1013 93 10000 1.03 0 06:44 17.12.2022
632 Clouds 11 1012 87 10000 0.51 10 22:55 16.12.2022
633 Clouds 13 1011 82 10000 1.03 90 20:30 16.12.2022
634 Clouds 14 1009 74 10000 3.6 260 18:41 16.12.2022
635 Clouds 18 1008 66 10000 6.69 240 15:36 16.12.2022
636 Clouds 18 1008 65 10000 6.17 230 14:46 16.12.2022
637 Clouds 18 1008 69 10000 5.14 240 13:22 16.12.2022
638 Clouds 18 1007 61 10000 3.6 260 11:57 16.12.2022
639 Clear 15 1005 68 10000 1.79 299 09:41 16.12.2022
640 Clouds 14 1005 75 10000 1.34 290 08:50 16.12.2022
641 Clouds 13 1002 81 10000 1.54 60 07:55 16.12.2022
642 Clouds 13 1002 82 10000 1.03 0 06:58 16.12.2022
643 Clouds 16 1001 83 10000 5.66 240 23:19 15.12.2022
644 Clouds 16 1001 82 10000 7.72 240 21:58 15.12.2022
645 Clouds 16 1000 82 10000 6.17 240 20:24 15.12.2022
646 Clouds 17 1000 84 10000 6.17 230 19:21 15.12.2022
647 Clouds 17 998 80 10000 7.72 240 17:28 15.12.2022
648 Clouds 17 998 76 10000 8.23 240 16:39 15.12.2022
649 Clouds 19 998 66 10000 7.2 240 14:57 15.12.2022
650 Clouds 19 998 58 10000 8.75 240 13:18 15.12.2022
651 Clouds 19 999 59 10000 8.75 240 12:25 15.12.2022
652 Clouds 17 998 85 10000 8.75 240 09:28 15.12.2022
653 Clouds 17 996 82 10000 7.72 230 08:46 15.12.2022
654 Clouds 18 997 84 10000 6.69 230 05:48 15.12.2022
655 Clouds 17 999 92 8000 4.12 210 02:38 15.12.2022
656 Clouds 17 1003 90 10000 1.54 80 21:25 14.12.2022
657 Clouds 16 1003 89 10000 2.06 60 20:57 14.12.2022
658 Clouds 16 1003 89 10000 1.54 80 20:23 14.12.2022
659 Clouds 18 1003 80 10000 0.51 0 17:56 14.12.2022
660 Clouds 18 1004 75 10000 3.09 210 16:57 14.12.2022
661 Clouds 19 1003 61 10000 3.09 260 15:39 14.12.2022
662 Clouds 20 1004 57 10000 5.66 250 13:41 14.12.2022
663 Clouds 19 1007 62 10000 6.69 320 11:21 14.12.2022
664 Clouds 19 1004 56 10000 8.23 320 10:33 14.12.2022
665 Clouds 18 1002 62 10000 10.29 310 08:51 14.12.2022
666 Clouds 18 1001 91 8000 6.17 240 22:49 13.12.2022
667 Clouds 17 1001 91 7000 2.57 210 21:48 13.12.2022
668 Clouds 17 1003 91 8000 2.06 210 20:48 13.12.2022
669 Clouds 17 1003 91 8000 2.06 210 20:19 13.12.2022
670 Rain 18 1002 87 7000 3.09 230 17:40 13.12.2022
671 Clouds 20 1002 72 10000 3.6 220 15:55 13.12.2022
672 Clouds 21 1004 78 10000 5.66 250 14:44 13.12.2022
673 Clouds 22 1003 62 10000 8.75 260 11:32 13.12.2022
674 Clouds 21 1004 58 10000 9.77 270 10:36 13.12.2022
675 Clouds 21 1003 59 10000 8.75 270 09:23 13.12.2022
676 Clouds 21 1002 60 10000 8.23 260 06:20 13.12.2022
677 Clouds 17 1003 90 10000 4.12 240 22:23 12.12.2022
678 Clouds 17 1003 92 10000 5.14 230 21:27 12.12.2022
679 Rain 17 1004 89 10000 3.6 230 18:34 12.12.2022
680 Clouds 16 1005 88 10000 4.12 210 17:19 12.12.2022
681 Clouds 16 1006 79 10000 3.6 200 15:22 12.12.2022
682 Clouds 16 1006 79 10000 3.6 200 15:22 12.12.2022
683 Clouds 17 1009 65 10000 2.57 210 12:24 12.12.2022
684 Clouds 10 1009 92 10000 2.06 170 09:19 12.12.2022
685 Clouds 11 1007 85 10000 1.54 250 05:42 12.12.2022
686 Clouds 12 1006 87 10000 2.06 210 03:51 12.12.2022
687 Clouds 12 1004 94 10000 0.51 0 22:57 11.12.2022
688 Mist 12 1003 93 4900 0.51 80 20:54 11.12.2022
689 Mist 12 1002 93 1400 0.51 0 19:54 11.12.2022
690 Mist 12 1002 93 1400 0.51 60 19:36 11.12.2022
691 Clouds 12 1002 92 1400 0 0 18:22 11.12.2022
692 Clouds 12 1002 90 1400 1.03 0 17:32 11.12.2022
693 Clouds 12 1002 89 9000 0.51 0 16:52 11.12.2022
694 Clouds 13 1002 87 10000 1.03 0 15:47 11.12.2022
695 Clouds 13 1003 87 10000 1.03 0 14:50 11.12.2022
696 Clouds 12 1005 89 7000 0.51 0 13:21 11.12.2022
697 Rain 11 1005 88 6000 1.54 50 12:40 11.12.2022
698 Clouds 10 1005 82 10000 1.03 70 08:56 11.12.2022
699 Clouds 9 1007 85 10000 1.03 0 00:35 11.12.2022
700 Clouds 9 1007 84 10000 1.03 0 23:56 10.12.2022
701 Clouds 9 1010 90 10000 1.03 0 22:33 10.12.2022
702 Clouds 11 1009 79 10000 1.03 0 21:23 10.12.2022
703 Clouds 11 1009 78 10000 1.03 0 20:39 10.12.2022
704 Clouds 11 1007 70 10000 1.54 130 19:54 10.12.2022
705 Clouds 14 1005 52 10000 4.12 320 17:18 10.12.2022
706 Clouds 15 1005 52 10000 4.63 330 16:36 10.12.2022
707 Clouds 15 1004 64 10000 2.06 50 15:39 10.12.2022
708 Clouds 16 1004 62 10000 3.09 60 14:58 10.12.2022
709 Clouds 16 1005 72 10000 4.12 40 12:55 10.12.2022
710 Clouds 16 1005 72 10000 4.12 40 12:55 10.12.2022
711 Clouds 16 1003 72 10000 4.12 70 11:49 10.12.2022
712 Clouds 15 1002 77 10000 6.17 50 10:46 10.12.2022
713 Clouds 15 1000 79 10000 2.24 68 09:38 10.12.2022
714 Clouds 15 997 76 10000 3.09 270 07:21 10.12.2022
715 Clouds 16 997 70 10000 7.72 260 04:56 10.12.2022
716 Clouds 17 997 88 10000 5.14 240 23:34 09.12.2022
717 Clouds 17 997 86 10000 7.2 240 22:41 09.12.2022
718 Clouds 17 997 87 10000 4.12 240 21:27 09.12.2022
719 Clouds 17 997 85 10000 4.63 230 20:58 09.12.2022
720 Clouds 17 998 88 10000 3.09 220 19:43 09.12.2022
721 Clouds 18 998 86 10000 3.6 240 17:56 09.12.2022
722 Clouds 18 999 80 10000 5.14 220 16:47 09.12.2022
723 Clouds 18 998 77 10000 3.09 240 16:18 09.12.2022
724 Clouds 19 999 73 10000 4.12 230 15:24 09.12.2022
725 Clouds 20 1000 68 10000 5.66 240 12:25 09.12.2022
726 Clouds 18 1001 86 10000 4.63 240 10:48 09.12.2022
727 Clouds 17 1000 89 10000 4.12 240 10:19 09.12.2022
728 Clouds 16 999 88 10000 3.09 230 05:37 09.12.2022
729 Clouds 17 1000 85 10000 5.66 250 03:18 09.12.2022
730 Clouds 15 1002 91 10000 0.51 0 22:41 08.12.2022
731 Clouds 15 1002 88 10000 1.03 90 20:51 08.12.2022
732 Clouds 16 1003 85 10000 1.03 0 18:55 08.12.2022
733 Clouds 17 1005 77 10000 3.13 177 16:23 08.12.2022
734 Clouds 18 1006 76 10000 2.68 153 14:29 08.12.2022
735 Clouds 17 1007 89 10000 1.03 0 12:25 08.12.2022
736 Clouds 14 1007 94 10000 0.51 0 10:34 08.12.2022
737 Clouds 12 1007 94 10000 1.03 0 09:28 08.12.2022
738 Clouds 12 1007 93 10000 1.54 70 06:49 08.12.2022
739 Clouds 14 1010 92 9000 2.06 40 22:43 07.12.2022
740 Clouds 14 1010 93 8000 1.54 90 22:18 07.12.2022
741 Clouds 14 1010 92 8000 1.54 90 21:45 07.12.2022
742 Clouds 15 1010 89 6000 1.54 80 19:49 07.12.2022
743 Clouds 15 1010 81 10000 1.03 290 17:51 07.12.2022
744 Clouds 17 1010 69 10000 2.06 250 15:29 07.12.2022
745 Clouds 18 1012 73 10000 1.03 310 13:20 07.12.2022
746 Clouds 14 1013 93 10000 0.51 0 10:49 07.12.2022
747 Clouds 13 1013 94 10000 1.54 20 09:58 07.12.2022
748 Clouds 11 1012 92 10000 0.51 70 08:55 07.12.2022
749 Clouds 11 1012 93 10000 1.54 60 06:50 07.12.2022
750 Clouds 12 1012 93 10000 0.51 50 05:24 07.12.2022
751 Clouds 13 1013 91 10000 2.06 40 23:58 06.12.2022
752 Clouds 14 1013 89 10000 2.57 80 21:41 06.12.2022
753 Clouds 15 1013 87 10000 1.03 40 19:22 06.12.2022
754 Clouds 18 1012 63 10000 1.03 230 17:19 06.12.2022
755 Clouds 19 1012 64 10000 2.57 230 16:29 06.12.2022
756 Clouds 20 1011 58 10000 2.06 280 15:35 06.12.2022
757 Clouds 20 1013 64 10000 1.03 0 14:35 06.12.2022
758 Clouds 20 1013 67 10000 2.06 80 13:49 06.12.2022
759 Clouds 20 1012 63 10000 3.6 60 12:41 06.12.2022
760 Clouds 18 1013 65 10000 3.6 50 11:34 06.12.2022
761 Clouds 12 1013 76 10000 2.06 20 07:50 06.12.2022
762 Clouds 11 1012 85 10000 1.54 40 03:20 06.12.2022
763 Clouds 11 1013 89 10000 1.03 0 23:43 05.12.2022
764 Clouds 13 1013 88 10000 2.06 60 21:40 05.12.2022
765 Clouds 13 1013 88 10000 2.06 60 21:40 05.12.2022
766 Clouds 13 1013 87 10000 2.06 80 20:52 05.12.2022
767 Clouds 14 1013 86 10000 4.63 70 19:54 05.12.2022
768 Clouds 15 1013 84 10000 3.6 70 19:35 05.12.2022
769 Clouds 18 1013 70 10000 5.66 60 16:51 05.12.2022
770 Clouds 20 1013 64 10000 6.69 50 15:29 05.12.2022
771 Clouds 20 1013 64 10000 4.63 60 14:49 05.12.2022
772 Clouds 19 1015 65 10000 4.63 80 12:58 05.12.2022
773 Clouds 19 1015 65 10000 5.14 60 12:38 05.12.2022
774 Clouds 18 1015 71 10000 4.63 70 11:42 05.12.2022
775 Clouds 10 1016 100 10000 2.57 40 08:37 05.12.2022
776 Clouds 11 1013 91 10000 1.54 30 00:18 05.12.2022
777 Clouds 12 1014 93 10000 1.54 60 22:44 04.12.2022
778 Clouds 12 1013 89 10000 1.54 50 22:19 04.12.2022
779 Clouds 12 1013 87 10000 1.03 0 21:37 04.12.2022
780 Clouds 14 1012 84 10000 1.54 270 20:20 04.12.2022
781 Clouds 14 1011 82 10000 3.09 270 19:23 04.12.2022
782 Clouds 15 1011 81 10000 3.6 230 18:36 04.12.2022
783 Clouds 16 1010 77 10000 4.63 240 17:22 04.12.2022
784 Clouds 17 1009 75 10000 6.17 230 16:37 04.12.2022
785 Clouds 17 1010 73 10000 6.17 230 16:18 04.12.2022
786 Clouds 17 1009 68 10000 6.17 230 15:27 04.12.2022
787 Clouds 18 1009 67 10000 6.17 220 14:32 04.12.2022
788 Clouds 18 1009 65 10000 7.72 230 12:52 04.12.2022
789 Clouds 18 1009 68 10000 6.17 230 12:33 04.12.2022
790 Clouds 17 1009 75 10000 5.14 220 11:35 04.12.2022
791 Clouds 10 1010 95 10000 1.03 0 08:50 04.12.2022
792 Rain 10 1008 87 10000 2.06 110 02:51 04.12.2022
793 Clouds 9 1008 86 10000 0.51 60 23:44 03.12.2022
794 Clouds 10 1008 82 10000 2.06 360 22:46 03.12.2022
795 Clouds 10 1007 81 10000 1.54 20 21:53 03.12.2022
796 Clouds 10 1007 79 10000 2.57 60 20:46 03.12.2022
797 Clouds 12 1006 70 10000 2.57 70 18:57 03.12.2022
798 Clouds 13 1006 64 10000 1.54 70 18:31 03.12.2022
799 Clouds 16 1006 63 10000 1.54 70 15:52 03.12.2022
800 Clouds 16 1007 63 10000 2.57 90 13:46 03.12.2022
801 Clouds 16 1007 65 10000 2.06 90 12:51 03.12.2022
802 Clouds 16 1005 60 10000 2.57 70 12:21 03.12.2022
803 Clouds 11 1006 87 10000 1.03 30 09:46 03.12.2022
804 Clouds 10 1007 86 10000 1.54 40 04:18 03.12.2022
805 Clouds 11 1008 83 10000 2.06 30 00:23 03.12.2022
806 Clouds 12 1009 82 10000 1.54 40 22:19 02.12.2022
807 Clouds 13 1009 81 10000 2.57 30 20:53 02.12.2022
808 Clouds 14 1009 75 10000 3.6 50 18:18 02.12.2022
809 Clouds 14 1009 73 10000 5.66 60 15:58 02.12.2022
810 Clouds 15 1010 72 10000 5.66 60 14:38 02.12.2022
811 Clouds 15 1010 73 10000 6.17 60 14:19 02.12.2022
812 Clouds 15 1011 73 10000 4.63 60 12:51 02.12.2022
813 Clouds 13 1012 82 10000 5.14 60 11:30 02.12.2022
814 Clouds 11 1011 87 10000 3.09 50 08:19 02.12.2022
815 Clouds 10 1011 85 10000 1.03 0 07:23 02.12.2022
816 Clouds 11 1015 85 10000 1.03 0 22:54 01.12.2022
817 Clouds 11 1015 84 10000 2.57 70 21:44 01.12.2022
818 Clouds 11 1015 84 10000 3.09 60 21:22 01.12.2022
819 Clouds 12 1016 86 10000 3.6 70 19:19 01.12.2022
820 Rain 13 1014 75 10000 3.6 60 17:46 01.12.2022
821 Clouds 14 1014 70 10000 6.69 60 15:38 01.12.2022
822 Clouds 13 1016 73 10000 2.57 80 11:23 01.12.2022
823 Clouds 12 1015 80 10000 4.63 70 09:55 01.12.2022
824 Clouds 12 1015 81 10000 3.6 70 09:37 01.12.2022
825 Clouds 11 1013 81 10000 2.06 70 08:18 01.12.2022
826 Clouds 10 1016 84 10000 2.06 60 23:59 30.11.2022
827 Clouds 11 1016 82 10000 2.06 50 22:28 30.11.2022
828 Clouds 12 1016 77 10000 2.06 80 21:19 30.11.2022
829 Clouds 12 1016 78 10000 2.57 60 20:25 30.11.2022
830 Clouds 12 1016 78 10000 2.57 70 19:36 30.11.2022
831 Clouds 13 1016 74 10000 2.57 70 18:33 30.11.2022
832 Clouds 14 1015 64 10000 3.6 50 17:35 30.11.2022
833 Clouds 16 1016 60 10000 1.34 32 14:47 30.11.2022
834 Clouds 16 1017 62 10000 1.54 70 14:27 30.11.2022
835 Clouds 16 1017 63 10000 2.06 60 13:31 30.11.2022
836 Clouds 12 1017 77 10000 0.89 90 10:24 30.11.2022
837 Clouds 9 1016 86 10000 1.54 70 08:39 30.11.2022
838 Clouds 7 1016 93 10000 0.51 0 07:26 30.11.2022
839 Clear 10 1016 81 10000 0.51 340 23:33 29.11.2022
840 Clear 10 1016 78 10000 0.89 52 22:46 29.11.2022
841 Clouds 11 1016 74 10000 2.06 90 21:25 29.11.2022
842 Clouds 12 1016 71 10000 2.06 70 20:36 29.11.2022
843 Clouds 14 1015 64 10000 1.79 359 18:58 29.11.2022
844 Clouds 15 1015 59 10000 4.12 310 16:59 29.11.2022
845 Clouds 16 1015 56 10000 5.66 330 16:24 29.11.2022
846 Clouds 17 1015 56 10000 6.69 330 14:50 29.11.2022
847 Clouds 17 1015 54 10000 5.14 330 12:55 29.11.2022
848 Clouds 17 1017 61 10000 4.47 284 11:32 29.11.2022
849 Clouds 16 1017 70 10000 2.68 276 10:53 29.11.2022
850 Clouds 11 1016 89 10000 0.51 0 09:38 29.11.2022
851 Clouds 9 1017 98 10000 1.54 90 08:38 29.11.2022
852 Clouds 13 1017 73 10000 2.57 280 00:36 29.11.2022
853 Clouds 13 1015 70 10000 1.34 347 23:35 28.11.2022
854 Clouds 12 1015 73 10000 0.51 170 22:52 28.11.2022
855 Clouds 13 1016 80 10000 3.6 280 21:44 28.11.2022
856 Clouds 13 1017 79 10000 4.12 300 20:50 28.11.2022
857 Clouds 13 1016 79 8000 2.68 323 19:38 28.11.2022
858 Clouds 13 1015 76 7000 2.57 10 18:29 28.11.2022
859 Clouds 13 1014 70 10000 6.69 30 17:51 28.11.2022
860 Clouds 12 1014 82 10000 4.02 360 16:25 28.11.2022
861 Clouds 13 1011 78 10000 5.36 271 14:24 28.11.2022
862 Clouds 14 1011 75 10000 5.66 300 13:51 28.11.2022
863 Clouds 14 1012 74 10000 8.75 310 12:42 28.11.2022
864 Clouds 14 1010 83 10000 2.06 60 09:39 28.11.2022
865 Clouds 13 1012 84 10000 3.09 70 07:27 28.11.2022
866 Clouds 12 1015 84 10000 1.54 50 04:43 28.11.2022
867 Clouds 12 1015 84 10000 1.54 80 03:58 28.11.2022
868 Clouds 12 1017 84 10000 1.54 50 03:18 28.11.2022
869 Clouds 14 1020 75 10000 1.34 213 22:47 27.11.2022
870 Clouds 15 1020 68 10000 2.06 160 21:41 27.11.2022
871 Clouds 16 1021 67 10000 2.57 160 20:26 27.11.2022
872 Clouds 17 1022 63 10000 3.09 190 17:49 27.11.2022
873 Clouds 18 1023 59 10000 3.6 200 15:20 27.11.2022
874 Clouds 18 1026 60 10000 2.57 0 12:32 27.11.2022
875 Clear 15 1026 63 10000 1.03 0 10:48 27.11.2022
876 Clear 4 1026 87 10000 1.54 50 08:19 27.11.2022
877 Clear 9 1029 81 10000 1.34 346 00:49 27.11.2022
878 Clear 11 1027 72 10000 1.03 0 22:25 26.11.2022
879 Clear 13 1027 70 10000 1.03 0 20:51 26.11.2022
880 Clear 15 1026 64 10000 3.13 300 19:26 26.11.2022
881 Clear 17 1026 49 10000 3.6 330 17:30 26.11.2022
882 Clouds 18 1027 56 10000 5.14 310 15:47 26.11.2022
883 Clouds 18 1027 54 10000 4.12 260 13:34 26.11.2022
884 Clouds 17 1029 55 10000 2.24 208 11:37 26.11.2022
885 Clouds 13 1026 78 10000 3.6 40 09:45 26.11.2022
886 Clouds 12 1027 79 10000 3.6 40 09:21 26.11.2022
887 Clouds 13 1024 75 10000 1.03 90 06:29 26.11.2022
888 Clouds 14 1023 75 10000 1.54 40 21:46 25.11.2022
889 Clouds 14 1023 75 10000 5.14 40 21:22 25.11.2022
890 Clouds 16 1021 66 10000 7.15 21 19:56 25.11.2022
891 Clouds 18 1019 59 10000 6.17 330 16:49 25.11.2022
892 Clouds 21 1018 56 10000 5.14 340 14:22 25.11.2022
893 Clouds 17 1016 91 10000 0.51 240 09:22 25.11.2022
894 Clouds 16 1016 92 10000 0.45 45 08:41 25.11.2022
895 Clouds 15 1017 98 10000 2.06 200 06:54 25.11.2022
896 Clouds 14 1017 98 10000 1.54 210 06:22 25.11.2022
897 Clouds 15 1017 87 10000 1.03 0 23:55 24.11.2022
898 Clouds 15 1019 88 10000 1.03 0 22:51 24.11.2022
899 Clouds 15 1017 84 10000 1.03 140 21:58 24.11.2022
900 Clouds 15 1017 81 10000 1.03 0 20:30 24.11.2022
901 Clouds 16 1017 80 10000 1.54 150 18:54 24.11.2022
902 Clouds 18 1017 69 10000 3.09 230 17:43 24.11.2022
903 Clouds 19 1016 67 10000 3.09 230 17:20 24.11.2022
904 Clouds 20 1019 67 10000 3.6 240 15:18 24.11.2022
905 Clouds 20 1019 71 10000 4.63 230 15:18 24.11.2022
906 Clouds 20 1020 71 10000 2.57 240 13:49 24.11.2022
907 Clouds 21 1019 64 10000 1.54 0 11:55 24.11.2022
908 Clouds 18 1019 72 10000 1.54 50 10:36 24.11.2022
909 Clouds 13 1017 85 10000 1.54 360 07:53 24.11.2022
910 Clouds 17 1015 66 10000 1.79 266 03:22 24.11.2022
911 Clouds 18 1014 67 10000 2.06 150 23:46 23.11.2022
912 Clouds 19 1013 67 10000 1.54 150 21:57 23.11.2022
913 Clouds 19 1013 68 10000 4.02 324 21:24 23.11.2022
914 Clouds 20 1012 65 10000 4.63 280 20:21 23.11.2022
915 Clouds 21 1010 60 10000 5.14 230 19:27 23.11.2022
916 Clouds 21 1011 67 10000 5.36 336 18:41 23.11.2022
917 Clouds 23 1009 59 10000 7.2 300 16:33 23.11.2022
918 Clouds 22 1009 66 10000 8.75 290 13:40 23.11.2022
919 Clouds 22 1006 57 10000 8.75 290 13:20 23.11.2022
920 Clouds 22 1008 61 10000 8.23 280 11:59 23.11.2022
921 Clouds 22 1008 61 10000 8.75 270 11:41 23.11.2022
922 Clouds 22 1006 59 10000 8.23 270 10:42 23.11.2022
923 Clouds 21 1005 60 10000 8.75 270 09:43 23.11.2022
924 Clouds 20 1005 63 10000 8.75 270 09:25 23.11.2022
925 Clouds 19 1005 66 10000 6.17 270 08:37 23.11.2022
926 Clouds 19 1006 67 10000 7.2 260 05:22 23.11.2022
927 Clouds 19 1007 67 10000 9.77 270 04:23 23.11.2022
928 Clouds 17 1009 63 10000 8.75 260 22:59 22.11.2022
929 Clouds 17 1010 62 10000 9.26 270 22:33 22.11.2022
930 Clouds 17 1010 59 10000 9.26 270 21:34 22.11.2022
931 Clouds 17 1010 55 10000 6.17 260 20:45 22.11.2022
932 Clouds 17 1010 55 10000 6.17 260 20:45 22.11.2022
933 Clouds 17 1010 51 10000 7.2 270 19:54 22.11.2022
934 Clouds 16 1010 46 10000 6.69 270 17:56 22.11.2022
935 Clouds 16 1010 46 10000 7.72 280 17:21 22.11.2022
936 Clouds 16 1010 46 10000 7.72 280 17:21 22.11.2022
937 Clouds 16 1010 46 10000 7.72 280 17:21 22.11.2022
938 Clouds 17 1010 36 10000 8.23 290 15:53 22.11.2022
939 Clouds 17 1012 45 10000 6.69 310 13:44 22.11.2022
940 Clouds 16 1012 41 10000 10.8 320 11:40 22.11.2022
941 Clouds 14 1010 44 10000 7.2 320 09:25 22.11.2022
942 Clouds 14 1009 47 10000 8.75 320 07:55 22.11.2022
943 Clouds 15 1005 50 10000 9.77 330 01:49 22.11.2022
944 Rain 13 1004 78 10000 7.6 268 23:41 21.11.2022
945 Rain 14 1004 80 7000 11.83 330 22:49 21.11.2022
946 Clouds 19 1003 69 10000 13.38 240 21:59 21.11.2022
947 Clouds 19 1004 73 10000 9.77 260 20:53 21.11.2022
948 Clouds 18 1004 81 10000 10.29 260 19:42 21.11.2022
949 Rain 18 1005 83 7000 8.23 250 18:54 21.11.2022
950 Rain 18 1006 76 10000 10.8 240 18:25 21.11.2022
951 Clouds 20 1006 60 10000 9.26 240 16:56 21.11.2022
952 Clouds 20 1006 60 10000 9.77 250 16:37 21.11.2022
953 Clouds 20 1007 63 10000 9.77 240 15:50 21.11.2022
954 Clouds 20 1008 63 10000 11.83 240 14:55 21.11.2022
955 Clouds 20 1010 65 10000 10.29 240 13:44 21.11.2022
956 Clouds 20 1013 66 10000 5.66 230 11:38 21.11.2022
957 Clouds 17 1013 80 10000 6.69 250 09:19 21.11.2022
958 Clouds 12 1016 92 10000 0 0 07:42 21.11.2022
959 Clouds 17 1019 60 10000 3.58 265 22:43 20.11.2022
960 Clouds 16 1019 64 10000 5.14 250 21:36 20.11.2022
961 Clouds 16 1019 63 10000 5.14 250 21:36 20.11.2022
962 Clouds 15 1018 62 10000 4.12 270 20:32 20.11.2022
963 Clouds 15 1018 60 10000 2.57 250 18:39 20.11.2022
964 Clouds 17 1018 53 10000 3.09 290 16:46 20.11.2022
965 Clouds 17 1018 49 10000 6.17 330 15:30 20.11.2022
966 Clouds 17 1019 58 10000 5.66 310 14:54 20.11.2022
967 Clouds 16 1020 58 10000 5.66 290 13:34 20.11.2022
968 Clouds 17 1019 54 10000 4.92 275 12:44 20.11.2022
969 Clouds 16 1020 61 10000 3.6 310 11:31 20.11.2022
970 Clouds 16 1018 55 10000 3.6 280 10:51 20.11.2022
971 Clouds 14 1018 73 10000 0.89 258 09:29 20.11.2022
972 Clouds 11 1016 78 10000 1.54 350 08:41 20.11.2022
973 Clouds 12 1015 77 10000 1.03 0 07:30 20.11.2022
974 Clouds 10 1014 90 10000 1.03 0 05:23 20.11.2022
975 Clouds 11 1016 93 10000 2.57 20 01:23 20.11.2022
976 Clouds 10 1014 91 10000 2.57 90 00:42 20.11.2022
977 Clouds 11 1014 91 10000 2.57 90 00:24 20.11.2022
978 Clouds 11 1014 90 10000 2.06 50 23:53 19.11.2022
979 Clouds 11 1014 89 10000 2.06 50 23:25 19.11.2022
980 Thunderstorm 11 1014 87 10000 1.54 140 22:41 19.11.2022
981 Thunderstorm 11 1014 87 10000 1.54 140 22:41 19.11.2022
982 Thunderstorm 11 1013 87 10000 1.79 144 21:33 19.11.2022
983 Rain 10 1013 86 10000 1.03 0 20:57 19.11.2022
984 Rain 10 1013 86 10000 2.06 340 20:37 19.11.2022
985 Clouds 11 1012 82 10000 1.03 0 19:34 19.11.2022
986 Clouds 13 1010 74 10000 3.6 70 17:41 19.11.2022
987 Clouds 13 1010 72 10000 4.02 63 17:23 19.11.2022
988 Clouds 15 1009 67 10000 6.17 310 16:28 19.11.2022
989 Clouds 16 1009 61 10000 7.72 320 14:40 19.11.2022
990 Clouds 14 1010 74 10000 3.58 267 12:31 19.11.2022
991 Clouds 13 1013 87 10000 1.54 60 11:19 19.11.2022
992 Clouds 12 1010 87 10000 1.54 90 09:32 19.11.2022
993 Clouds 12 1007 89 10000 0.51 0 07:52 19.11.2022
994 Clouds 12 1007 75 10000 0.51 0 04:43 19.11.2022
995 Clouds 13 1007 83 10000 4.12 310 00:30 19.11.2022
996 Clouds 14 1006 87 10000 3.13 284 23:26 18.11.2022
997 Clouds 14 1006 86 10000 1.03 0 22:18 18.11.2022
998 Clouds 14 1006 86 10000 1.03 0 22:18 18.11.2022
999 Clouds 15 1006 87 10000 2.06 150 21:35 18.11.2022
1000 Clouds 15 1006 86 10000 1.03 0 20:55 18.11.2022
1001 Clouds 15 1007 86 10000 0.51 20 19:47 18.11.2022
1002 Clouds 15 1006 86 9000 1.03 0 19:22 18.11.2022
1003 Rain 16 1004 65 10000 2.06 330 17:45 18.11.2022
1004 Clouds 19 1006 51 10000 2.57 300 14:44 18.11.2022
1005 Clouds 21 1008 46 10000 5.14 310 11:49 18.11.2022
1006 Clouds 19 1008 58 10000 2.68 291 09:35 18.11.2022
1007 Clouds 18 1006 54 10000 1.03 0 07:52 18.11.2022
1008 Clouds 19 1005 51 10000 1.34 52 05:27 18.11.2022
1009 Clouds 21 1006 66 10000 5.66 320 01:57 18.11.2022
1010 Clouds 22 1004 61 10000 8.23 260 22:56 17.11.2022
1011 Clouds 22 1004 66 10000 6.17 250 20:48 17.11.2022
1012 Clouds 22 1004 64 10000 7.2 260 19:51 17.11.2022
1013 Clouds 22 1004 65 10000 7.2 250 19:20 17.11.2022
1014 Clouds 22 1004 64 10000 8.75 260 18:27 17.11.2022
1015 Clouds 22 1002 57 10000 7.2 270 17:30 17.11.2022
1016 Clouds 24 1006 57 10000 11.32 250 15:42 17.11.2022
1017 Clouds 24 1005 61 10000 8.75 260 12:19 17.11.2022
1018 Clouds 22 1006 69 10000 6.17 260 10:29 17.11.2022
1019 Clouds 18 1004 82 10000 2.06 310 07:20 17.11.2022
1020 Clouds 18 1006 72 10000 4.63 270 00:52 17.11.2022
1021 Clouds 18 1006 73 10000 1.03 0 22:44 16.11.2022
1022 Clouds 18 1006 70 10000 2.06 300 21:54 16.11.2022
1023 Clouds 18 1005 64 10000 2.06 250 20:31 16.11.2022
1024 Clouds 19 1006 61 10000 3.6 320 18:48 16.11.2022
1025 Clouds 19 1006 61 10000 3.6 320 18:27 16.11.2022
1026 Clouds 22 1003 51 10000 5.66 310 15:35 16.11.2022
1027 Clouds 23 1005 63 10000 7.2 260 10:56 16.11.2022
1028 Rain 21 1005 70 10000 5.66 260 06:50 16.11.2022
1029 Clouds 21 1006 68 10000 4.12 250 01:38 16.11.2022
1030 Clouds 20 1007 73 10000 8.75 250 23:18 15.11.2022
1031 Clouds 19 1007 81 10000 6.69 240 21:28 15.11.2022
1032 Clouds 20 1009 78 10000 6.17 240 19:47 15.11.2022
1033 Clouds 20 1009 76 10000 5.14 240 18:51 15.11.2022
1034 Clouds 21 1009 76 10000 7.2 240 17:36 15.11.2022
1035 Clouds 22 1009 70 10000 7.72 240 16:20 15.11.2022
1036 Clouds 22 1010 60 10000 7.72 240 15:35 15.11.2022
1037 Clouds 23 1010 59 10000 7.72 230 13:57 15.11.2022
1038 Clouds 23 1010 63 10000 8.23 230 12:54 15.11.2022
1039 Clouds 23 1012 64 10000 8.23 230 11:21 15.11.2022
1040 Clouds 22 1012 72 10000 5.66 230 09:39 15.11.2022
1041 Clouds 19 1014 85 10000 5.66 240 00:44 15.11.2022
1042 Clouds 19 1014 85 10000 5.66 240 00:23 15.11.2022
1043 Clouds 18 1015 86 10000 3.6 240 21:56 14.11.2022
1044 Clouds 19 1015 82 10000 4.12 240 20:44 14.11.2022
1045 Clouds 19 1015 80 10000 3.6 240 19:46 14.11.2022
1046 Clouds 20 1014 77 10000 4.63 230 18:27 14.11.2022
1047 Clouds 21 1016 71 10000 3.09 220 12:55 14.11.2022
1048 Clouds 21 1016 72 10000 3.09 220 12:55 14.11.2022
1049 Clouds 21 1016 71 10000 3.09 220 12:55 14.11.2022
1050 Clouds 22 1017 69 10000 1.03 0 11:49 14.11.2022
1051 Clouds 21 1017 73 10000 0.51 0 10:59 14.11.2022
1052 Clouds 13 1018 98 10000 1.54 80 08:34 14.11.2022
1053 Clouds 12 1018 94 10000 1.03 0 07:52 14.11.2022
1054 Clouds 14 1017 90 10000 1.03 100 04:24 14.11.2022
1055 Clouds 16 1018 86 10000 1.03 50 23:23 13.11.2022
1056 Clouds 17 1018 82 10000 2.06 40 21:42 13.11.2022
1057 Clouds 17 1018 79 10000 2.06 50 20:48 13.11.2022
1058 Clouds 18 1018 74 10000 2.06 90 18:54 13.11.2022
1059 Clouds 20 1017 68 10000 2.06 100 17:50 13.11.2022
1060 Clouds 22 1019 69 10000 3.09 240 15:55 13.11.2022
1061 Clouds 21 1020 67 10000 1.79 197 14:39 13.11.2022
1062 Clouds 22 1018 60 10000 1.34 233 12:56 13.11.2022
1063 Clouds 21 1019 65 10000 1.79 36 11:55 13.11.2022
1064 Clouds 20 1019 77 10000 2.06 350 10:42 13.11.2022
1065 Clouds 14 1018 93 8000 2.57 60 05:53 13.11.2022
1066 Clouds 17 1022 90 10000 0.89 13 23:58 12.11.2022
1067 Clouds 18 1022 87 10000 1.54 90 21:42 12.11.2022
1068 Clouds 18 1022 85 10000 1.54 90 21:19 12.11.2022
1069 Clouds 19 1022 83 10000 2.57 80 19:46 12.11.2022
1070 Clouds 22 1022 64 10000 2.57 90 17:33 12.11.2022
1071 Clouds 23 1025 67 10000 3.6 80 16:19 12.11.2022
1072 Clouds 24 1025 66 10000 4.63 80 14:46 12.11.2022
1073 Clouds 23 1025 69 10000 4.63 80 11:23 12.11.2022
1074 Clouds 19 1025 86 10000 2.24 36 08:25 12.11.2022
1075 Clouds 19 1025 85 10000 2.57 80 00:41 12.11.2022
1076 Clouds 20 1025 83 10000 3.09 60 21:35 11.11.2022
1077 Clouds 20 1025 84 10000 4.12 50 20:44 11.11.2022
1078 Clouds 20 1024 83 10000 3.13 33 19:29 11.11.2022
1079 Clouds 21 1024 80 10000 2.57 80 18:41 11.11.2022
1080 Clouds 22 1023 74 10000 4.63 80 17:41 11.11.2022
1081 Clouds 23 1023 68 10000 5.14 90 15:36 11.11.2022
1082 Clouds 23 1026 73 10000 5.14 90 14:20 11.11.2022
1083 Clouds 23 1025 68 10000 5.14 100 12:46 11.11.2022
1084 Clouds 21 1023 70 10000 2.06 70 09:37 11.11.2022
1085 Clouds 16 1022 88 10000 1.03 0 08:27 11.11.2022
1086 Clouds 17 1023 83 10000 2.68 31 04:39 11.11.2022
1087 Rain 17 1023 90 10000 5.14 60 23:21 10.11.2022
1088 Thunderstorm 17 1023 91 10000 7.2 60 21:55 10.11.2022
1089 Thunderstorm 17 1023 91 10000 7.2 60 21:32 10.11.2022
1090 Rain 17 1024 90 10000 2.57 60 20:49 10.11.2022
1091 Rain 17 1023 88 10000 2.57 70 20:20 10.11.2022
1092 Rain 17 1023 87 10000 2.57 70 19:42 10.11.2022
1093 Clouds 17 1022 85 10000 4.12 60 18:32 10.11.2022
1094 Clouds 17 1021 85 8000 3.58 34 16:26 10.11.2022
1095 Clouds 17 1021 85 10000 7.2 60 13:56 10.11.2022
1096 Rain 16 1021 91 6000 6.17 60 11:38 10.11.2022
1097 Rain 17 1018 81 8000 8.23 60 08:44 10.11.2022
1098 Clouds 18 1016 81 10000 1.54 70 01:34 10.11.2022
1099 Clouds 17 1015 81 10000 1.54 20 23:39 09.11.2022
1100 Clouds 17 1018 82 10000 1.03 0 22:38 09.11.2022
1101 Clouds 19 1015 74 10000 1.54 270 20:48 09.11.2022
1102 Clouds 19 1015 73 10000 3.09 260 20:29 09.11.2022
1103 Clouds 20 1016 70 10000 3.09 240 19:43 09.11.2022
1104 Clouds 20 1016 69 10000 3.09 240 19:18 09.11.2022
1105 Clouds 24 1016 64 10000 5.66 230 16:31 09.11.2022
1106 Clouds 25 1017 56 10000 6.17 230 14:48 09.11.2022
1107 Clouds 25 1017 54 10000 5.14 230 14:25 09.11.2022
1108 Clouds 24 1018 61 10000 6.17 250 13:31 09.11.2022
1109 Clouds 24 1018 61 10000 5.66 250 12:34 09.11.2022
1110 Clouds 17 1015 93 10000 0.51 0 08:44 09.11.2022
1111 Clouds 17 1013 91 10000 0 0 07:46 09.11.2022
1112 Clouds 19 1015 85 10000 3.09 230 01:44 09.11.2022
1113 Clouds 19 1014 83 10000 2.92 208 21:49 08.11.2022
1114 Clouds 19 1014 83 10000 2.79 213 21:31 08.11.2022
1115 Clouds 19 1014 81 10000 0.45 270 20:41 08.11.2022
1116 Clouds 20 1015 78 10000 3.09 220 19:47 08.11.2022
1117 Clouds 21 1014 77 10000 3.09 230 18:59 08.11.2022
1118 Clouds 22 1014 72 10000 3.6 240 17:32 08.11.2022
1119 Clouds 24 1016 66 10000 5.14 240 14:57 08.11.2022
1120 Clouds 24 1015 63 10000 3.6 220 14:23 08.11.2022
1121 Clouds 24 1015 61 10000 4.12 240 13:26 08.11.2022
1122 Clouds 21 1017 72 10000 0.51 0 10:26 08.11.2022
1123 Clouds 14 1017 93 10000 1.03 60 07:30 08.11.2022
1124 Clouds 16 1017 87 10000 1.54 60 01:50 08.11.2022
1125 Clouds 17 1017 81 10000 0.89 338 22:54 07.11.2022
1126 Clouds 18 1017 79 10000 1.54 70 21:39 07.11.2022
1127 Clouds 18 1017 76 10000 2.06 60 20:46 07.11.2022
1128 Clouds 20 1017 72 10000 1.54 160 19:37 07.11.2022
1129 Clouds 21 1017 65 10000 3.6 230 17:41 07.11.2022
1130 Clouds 23 1020 66 10000 4.12 240 15:38 07.11.2022
1131 Clouds 23 1020 65 10000 3.6 240 14:55 07.11.2022
1132 Clouds 24 1018 58 10000 3.6 240 13:20 07.11.2022
1133 Clouds 23 1019 60 10000 3.09 220 12:22 07.11.2022
1134 Clouds 19 1019 75 10000 1.34 68 09:50 07.11.2022
1135 Clouds 14 1019 91 10000 2.24 346 08:25 07.11.2022
1136 Clouds 13 1017 89 10000 0.89 68 06:29 07.11.2022
1137 Clouds 15 1020 90 10000 0.89 348 01:45 07.11.2022
1138 Clouds 16 1018 86 10000 1.79 331 23:23 06.11.2022
1139 Clouds 17 1017 81 10000 1.03 0 21:22 06.11.2022
1140 Clouds 19 1017 77 10000 4.12 230 20:43 06.11.2022
1141 Clouds 19 1016 76 10000 4.12 230 19:56 06.11.2022
1142 Clouds 20 1016 74 10000 4.12 230 19:24 06.11.2022
1143 Clouds 21 1015 72 10000 3.6 230 18:20 06.11.2022
1144 Clouds 22 1015 67 10000 4.63 230 17:23 06.11.2022
1145 Clouds 22 1015 66 10000 4.63 230 16:58 06.11.2022
1146 Clouds 23 1015 62 10000 5.14 230 16:18 06.11.2022
1147 Clouds 23 1015 56 10000 6.17 230 14:45 06.11.2022
1148 Clouds 23 1016 55 10000 6.17 230 12:45 06.11.2022
1149 Clouds 23 1016 55 10000 6.17 230 12:45 06.11.2022
1150 Clouds 21 1018 60 10000 1.54 260 10:55 06.11.2022
1151 Clouds 19 1016 62 10000 0.89 46 09:52 06.11.2022
1152 Clear 8 1018 87 10000 1.03 20 07:44 06.11.2022
1153 Clear 12 1021 72 10000 0.89 315 23:23 05.11.2022
1154 Clear 15 1018 57 10000 3.09 60 20:45 05.11.2022
1155 Clouds 18 1017 48 10000 2.57 330 18:22 05.11.2022
1156 Clouds 21 1017 31 10000 4.63 320 16:35 05.11.2022
1157 Clouds 21 1017 37 10000 6.69 320 14:43 05.11.2022
1158 Clouds 22 1017 39 10000 4.12 320 13:39 05.11.2022
1159 Clouds 21 1018 41 10000 5.66 340 11:49 05.11.2022
1160 Clouds 18 1017 57 10000 3.09 330 08:58 05.11.2022
1161 Clouds 16 1014 59 10000 3.09 350 07:23 05.11.2022
1162 Clouds 16 1014 58 10000 1.34 355 06:54 05.11.2022
1163 Clouds 18 1015 56 10000 5.66 310 00:37 05.11.2022
1164 Clouds 18 1015 53 10000 3.6 310 23:27 04.11.2022
1165 Clouds 19 1013 45 10000 10.29 330 20:44 04.11.2022
1166 Clouds 19 1012 44 10000 12.86 330 19:31 04.11.2022
1167 Clouds 19 1012 44 10000 12.86 330 19:31 04.11.2022
1168 Clouds 20 1012 41 10000 11.32 320 17:25 04.11.2022
1169 Clouds 21 1012 36 10000 11.83 310 14:25 04.11.2022
1170 Clouds 21 1013 42 10000 8.75 330 12:28 04.11.2022
1171 Clouds 20 1013 44 10000 8.23 340 11:45 04.11.2022
1172 Clouds 18 1013 56 10000 5.36 332 09:24 04.11.2022
1173 Clouds 19 1011 54 10000 3.6 320 08:19 04.11.2022
1174 Clouds 19 1011 70 10000 2.68 50 05:51 04.11.2022
1175 Clouds 21 1013 75 10000 4.12 250 00:42 04.11.2022
1176 Clouds 22 1013 59 10000 5.14 270 21:18 03.11.2022
1177 Clouds 22 1013 59 10000 5.14 270 20:44 03.11.2022
1178 Clouds 23 1013 58 10000 5.66 250 19:41 03.11.2022
1179 Clouds 23 1012 57 10000 7.2 270 18:18 03.11.2022
1180 Clouds 23 1012 59 10000 7.2 250 17:36 03.11.2022
1181 Clouds 24 1013 63 10000 7.2 240 14:58 03.11.2022
1182 Clouds 24 1015 63 10000 6.69 240 13:26 03.11.2022
1183 Clouds 24 1015 70 10000 4.63 230 12:34 03.11.2022
1184 Clouds 23 1016 75 10000 3.09 210 11:31 03.11.2022
1185 Clouds 17 1015 92 9000 1.03 0 07:47 03.11.2022
1186 Clouds 20 1020 81 10000 1.03 0 21:59 02.11.2022
1187 Clouds 21 1020 79 10000 2.06 50 20:54 02.11.2022
1188 Clouds 21 1020 79 10000 2.57 70 20:23 02.11.2022
1189 Clouds 24 1019 69 10000 2.57 150 18:23 02.11.2022
1190 Clouds 26 1020 60 10000 4.12 150 16:26 02.11.2022
1191 Clouds 25 1022 71 10000 2.57 250 15:27 02.11.2022
1192 Clouds 25 1024 64 10000 3.09 90 12:50 02.11.2022
1193 Clouds 26 1022 58 10000 3.13 123 12:20 02.11.2022
1194 Clouds 22 1021 76 9000 2.57 90 09:50 02.11.2022
1195 Fog 17 1023 90 9000 4.12 70 08:18 02.11.2022
1196 Clouds 18 1020 90 9000 1.03 40 01:46 02.11.2022
1197 Clouds 21 1021 83 10000 1.54 60 22:21 01.11.2022
1198 Clouds 21 1021 82 10000 1.54 70 21:42 01.11.2022
1199 Clouds 22 1021 80 10000 0.89 63 20:28 01.11.2022
1200 Clouds 22 1021 80 10000 1.03 0 19:59 01.11.2022
1201 Clouds 22 1021 80 10000 0.45 11 19:40 01.11.2022
1202 Clouds 23 1020 76 10000 1.54 240 18:23 01.11.2022
1203 Clouds 25 1019 67 10000 3.6 240 16:28 01.11.2022
1204 Clouds 26 1022 68 10000 2.57 210 14:38 01.11.2022
1205 Clouds 26 1021 62 10000 4.12 230 12:34 01.11.2022
1206 Clouds 26 1021 61 10000 1.79 235 11:40 01.11.2022
1207 Clouds 26 1021 62 10000 1.34 229 11:20 01.11.2022
1208 Clouds 19 1019 85 10000 0 0 08:58 01.11.2022
1209 Clouds 18 1018 88 9000 1.54 360 07:49 01.11.2022
1210 Clouds 18 1018 87 9000 0 0 07:27 01.11.2022
1211 Clouds 18 1018 88 9000 0 0 06:45 01.11.2022
1212 Clouds 19 1019 87 10000 1.54 40 04:20 01.11.2022
1213 Clouds 20 1019 84 10000 1.54 80 22:43 31.10.2022
1214 Clouds 20 1019 82 9000 1.54 110 21:32 31.10.2022
1215 Fog 21 1018 79 8000 1.54 90 19:56 31.10.2022
1216 Clouds 23 1016 72 10000 1.54 200 18:36 31.10.2022
1217 Clouds 25 1016 60 10000 3.6 180 16:44 31.10.2022
1218 Clouds 26 1016 57 10000 4.12 180 15:34 31.10.2022
1219 Clouds 26 1020 63 10000 3.09 170 12:22 31.10.2022
1220 Clouds 22 1018 77 10000 2.06 70 09:35 31.10.2022
1221 Clouds 17 1017 91 9000 2.57 10 07:35 31.10.2022
1222 Clouds 18 1018 87 10000 1.79 355 02:46 31.10.2022
1223 Clouds 18 1018 86 10000 1.03 50 01:47 31.10.2022
1224 Clouds 20 1018 79 10000 1.54 20 22:20 30.10.2022
1225 Clouds 21 1018 72 10000 0.51 70 20:39 30.10.2022
1226 Clouds 22 1018 72 10000 1.54 150 19:36 30.10.2022
1227 Clouds 25 1016 58 10000 4.12 220 16:37 30.10.2022
1228 Clouds 24 1021 68 10000 5.14 240 14:43 30.10.2022
1229 Clouds 26 1021 59 10000 2.68 175 13:50 30.10.2022
1230 Clouds 25 1022 63 10000 2.57 70 12:27 30.10.2022
1231 Clouds 22 1019 71 10000 1.54 40 10:25 30.10.2022
1232 Clouds 19 1019 81 10000 1.54 20 09:35 30.10.2022
1233 Clouds 16 1016 90 10000 1.54 10 07:57 30.10.2022
1234 Clouds 17 1020 86 10000 1.03 100 00:29 30.10.2022
1235 Clouds 18 1019 85 10000 0.51 0 23:47 29.10.2022
1236 Clouds 19 1019 80 10000 3.09 70 22:31 29.10.2022
1237 Clouds 23 1019 70 10000 1.54 290 19:41 29.10.2022
1238 Clouds 25 1018 58 10000 4.63 240 17:23 29.10.2022
1239 Clouds 27 1022 46 10000 3.13 227 15:39 29.10.2022
1240 Clear 27 1022 44 10000 1.03 250 14:55 29.10.2022
1241 Clear 26 1022 47 10000 1.79 52 14:36 29.10.2022
1242 Clear 24 1021 63 10000 2.57 60 12:33 29.10.2022
1243 Clouds 15 1023 72 10000 1.03 0 09:43 29.10.2022
1244 Clouds 16 1019 82 10000 1.54 40 07:23 29.10.2022
1245 Clouds 14 1022 82 10000 1.54 10 05:55 29.10.2022
1246 Clouds 19 1023 87 10000 1.03 80 23:51 28.10.2022
1247 Clouds 20 1022 83 10000 2.06 50 21:58 28.10.2022
1248 Clouds 22 1021 80 10000 2.57 70 20:45 28.10.2022
1249 Clouds 24 1020 68 10000 2.06 260 18:50 28.10.2022
1250 Clear 25 1022 70 10000 3.09 240 18:29 28.10.2022
1251 Clear 27 1025 56 10000 3.09 230 15:28 28.10.2022
1252 Clear 28 1023 41 10000 3.09 50 13:44 28.10.2022
1253 Clouds 26 1024 53 10000 2.57 50 12:23 28.10.2022
1254 Clouds 24 1024 64 10000 1.54 70 11:33 28.10.2022
1255 Fog 22 1022 68 10000 2.06 30 10:45 28.10.2022
1256 Fog 17 1025 100 8000 2.06 30 09:44 28.10.2022
1257 Fog 15 1024 100 2500 3.09 50 07:56 28.10.2022
1258 Clouds 15 1024 94 10000 1.03 350 03:41 28.10.2022
1259 Clouds 19 1023 76 10000 2.57 50 23:48 27.10.2022
1260 Clouds 20 1023 78 10000 2.06 70 22:40 27.10.2022
1261 Clouds 21 1022 78 10000 1.54 70 21:35 27.10.2022
1262 Clouds 23 1022 75 10000 1.54 360 19:55 27.10.2022
1263 Clouds 25 1021 69 10000 4.12 250 18:22 27.10.2022
1264 Clear 28 1025 35 10000 3.6 230 13:58 27.10.2022
1265 Clouds 14 1022 82 10000 0 0 08:59 27.10.2022
1266 Clouds 17 1023 73 10000 2.24 355 06:21 27.10.2022
1267 Clouds 21 1020 60 10000 1.03 10 23:55 26.10.2022
1268 Clouds 22 1020 59 10000 0.89 312 22:47 26.10.2022
1269 Clouds 21 1020 60 10000 0.89 312 22:22 26.10.2022
1270 Clear 25 1018 64 10000 1.54 290 19:34 26.10.2022
1271 Clear 28 1020 50 10000 2.06 230 16:35 26.10.2022
1272 Clear 31 1020 33 10000 2.06 240 14:52 26.10.2022
1273 Clear 28 1021 41 10000 1.03 210 12:37 26.10.2022
1274 Clear 22 1017 50 10000 0.51 0 10:24 26.10.2022
1275 Clear 16 1018 94 10000 1.54 10 08:54 26.10.2022
1276 Clear 16 1018 100 10000 0.51 0 08:36 26.10.2022
1277 Clouds 18 1019 100 9000 1.03 350 00:46 26.10.2022
1278 Clouds 18 1019 94 10000 0.51 0 00:23 26.10.2022
1279 Clouds 21 1016 77 10000 0.45 225 21:54 25.10.2022
1280 Clouds 21 1016 79 10000 0.51 0 21:24 25.10.2022
1281 Clouds 23 1015 79 10000 0.51 0 19:57 25.10.2022
1282 Clear 25 1015 71 10000 4.63 230 18:28 25.10.2022
1283 Clear 29 1016 54 10000 3.6 260 14:58 25.10.2022
1284 Clear 27 1017 41 10000 1.03 0 11:39 25.10.2022
1285 Clear 24 1015 49 10000 0 0 10:44 25.10.2022
1286 Clear 22 1016 64 10000 0.51 0 10:25 25.10.2022
1287 Fog 15 1018 100 7000 1.03 0 08:19 25.10.2022
1288 Fog 14 1018 100 8000 1.03 0 07:54 25.10.2022
1289 Fog 14 1018 100 8000 1.03 0 07:54 25.10.2022
1290 Fog 15 1018 94 8000 0.51 10 07:26 25.10.2022
1291 Fog 15 1019 100 7000 1.03 50 04:26 25.10.2022
1292 Clouds 19 1020 86 8000 1.03 0 00:40 25.10.2022
1293 Clouds 19 1017 80 8000 0.89 339 23:50 24.10.2022
1294 Clouds 20 1017 82 7000 1.03 0 22:24 24.10.2022
1295 Clouds 22 1016 80 8000 1.03 0 21:33 24.10.2022
1296 Clouds 23 1016 78 9000 1.54 170 20:44 24.10.2022
1297 Clouds 23 1016 78 9000 1.54 170 20:44 24.10.2022
1298 Clouds 23 1016 78 9000 1.54 170 20:44 24.10.2022
1299 Clouds 24 1016 74 9000 4.12 230 18:53 24.10.2022
1300 Clear 26 1015 63 10000 4.12 220 17:53 24.10.2022
1301 Clear 27 1015 57 10000 4.12 210 16:54 24.10.2022
1302 Clear 28 1016 56 10000 4.02 221 14:31 24.10.2022
1303 Clear 27 1017 56 10000 3.09 210 13:41 24.10.2022
1304 Clear 28 1015 52 10000 2.57 220 12:18 24.10.2022
1305 Clear 15 1017 100 10000 0 0 08:51 24.10.2022
1306 Clouds 20 1016 86 10000 1.34 350 00:55 24.10.2022
1307 Clouds 23 1015 77 10000 1.03 140 21:24 23.10.2022
1308 Clouds 24 1015 71 10000 1.34 200 20:21 23.10.2022
1309 Clear 26 1014 59 10000 4.63 230 18:26 23.10.2022
1310 Clear 27 1014 52 10000 4.63 220 17:27 23.10.2022
1311 Clear 29 1015 49 10000 4.63 230 15:22 23.10.2022
1312 Clear 29 1016 48 10000 4.12 220 13:24 23.10.2022
1313 Clear 27 1016 51 10000 1.34 138 11:21 23.10.2022
1314 Clouds 17 1017 94 10000 1.03 30 09:18 23.10.2022
1315 Clouds 19 1014 84 8000 1.03 50 03:52 23.10.2022
1316 Clouds 21 1015 81 8000 0 0 22:32 22.10.2022
1317 Clouds 22 1015 80 9000 0.89 248 21:42 22.10.2022
1318 Clouds 23 1014 79 8000 1.54 80 20:55 22.10.2022
1319 Clouds 24 1014 79 8000 2.06 230 19:52 22.10.2022
1320 Clouds 24 1014 77 8000 2.06 240 19:29 22.10.2022
1321 Clouds 26 1014 62 8000 2.57 250 17:37 22.10.2022
1322 Clouds 27 1014 59 8000 3.09 230 15:58 22.10.2022
1323 Clouds 27 1018 59 8000 2.06 220 14:46 22.10.2022
1324 Clouds 27 1016 56 8000 2.57 220 13:53 22.10.2022
1325 Clouds 23 1016 89 7000 0.51 10 10:30 22.10.2022
1326 Clouds 21 1014 89 9000 0.51 0 09:39 22.10.2022
1327 Clouds 20 1013 90 7000 1.03 0 08:30 22.10.2022
1328 Clouds 20 1015 90 8000 1.54 40 03:42 22.10.2022
1329 Clouds 22 1015 87 9000 2.57 230 00:18 22.10.2022
1330 Clouds 23 1014 84 9000 1.79 193 21:41 21.10.2022
1331 Clouds 23 1014 84 9000 1.79 193 21:41 21.10.2022
1332 Clouds 23 1014 84 9000 1.79 161 21:23 21.10.2022
1333 Clouds 24 1014 83 9000 2.57 220 20:20 21.10.2022
1334 Clouds 26 1013 73 9000 4.12 230 17:21 21.10.2022
1335 Clouds 27 1013 70 9000 4.63 230 14:30 21.10.2022
1336 Clouds 27 1014 68 9000 3.6 220 13:22 21.10.2022
1337 Clouds 26 1014 76 8000 3.6 230 11:33 21.10.2022
1338 Clouds 23 1014 83 8000 0.51 90 10:22 21.10.2022
1339 Clouds 20 1011 87 6000 0.51 0 08:39 21.10.2022
1340 Clouds 20 1011 88 6000 0.51 0 08:19 21.10.2022
1341 Clouds 22 1014 86 9000 1.03 0 02:32 21.10.2022
1342 Clear 23 1013 78 10000 1.54 20 22:32 20.10.2022
1343 Clear 24 1013 73 10000 2.06 90 20:53 20.10.2022
1344 Clear 25 1011 60 10000 3.09 130 19:41 20.10.2022
1345 Clear 28 1013 53 10000 3.6 140 18:19 20.10.2022
1346 Clear 28 1016 55 10000 3.6 140 17:38 20.10.2022
1347 Clear 28 1015 54 10000 2.24 80 13:32 20.10.2022
1348 Clouds 27 1018 64 10000 4.12 60 12:30 20.10.2022
1349 Clouds 25 1015 72 10000 4.47 57 11:26 20.10.2022
1350 Clouds 24 1015 77 10000 3.6 70 10:51 20.10.2022
1351 Clouds 20 1013 82 10000 4.12 50 08:42 20.10.2022
1352 Clouds 19 1014 86 10000 2.24 355 05:47 20.10.2022
1353 Clouds 20 1016 86 10000 1.54 40 01:54 20.10.2022
1354 Clouds 21 1016 83 10000 2.06 30 22:52 19.10.2022
1355 Clouds 22 1016 82 8000 1.34 340 21:59 19.10.2022
1356 Clouds 23 1016 81 10000 0.51 10 21:20 19.10.2022
1357 Clouds 24 1016 81 10000 2.06 330 19:42 19.10.2022
1358 Clouds 26 1020 74 10000 4.63 250 17:40 19.10.2022
1359 Clouds 27 1020 73 10000 3.6 250 16:22 19.10.2022
1360 Clouds 27 1022 70 8000 2.57 230 13:59 19.10.2022
1361 Clouds 22 1020 84 8000 2.06 20 10:23 19.10.2022
1362 Clouds 21 1018 89 8000 2.06 30 08:47 19.10.2022
1363 Clouds 21 1018 88 10000 2.06 80 07:22 19.10.2022
1364 Clouds 21 1022 89 10000 1.03 0 01:32 19.10.2022
1365 Clouds 22 1022 88 10000 1.03 0 23:22 18.10.2022
1366 Clouds 23 1022 85 10000 0.89 196 21:49 18.10.2022
1367 Clouds 23 1022 85 10000 0.89 196 21:49 18.10.2022
1368 Clouds 23 1022 85 10000 0.89 257 21:19 18.10.2022
1369 Clouds 24 1022 84 10000 0.89 215 20:26 18.10.2022
1370 Clouds 24 1021 79 10000 3.09 220 18:55 18.10.2022
1371 Clouds 27 1022 67 10000 3.6 240 16:56 18.10.2022
1372 Clouds 27 1026 73 10000 5.14 220 14:59 18.10.2022
1373 Clouds 28 1027 67 10000 2.06 70 13:38 18.10.2022
1374 Clouds 26 1024 70 10000 2.57 70 11:47 18.10.2022
1375 Clouds 23 1027 88 9000 2.06 70 10:27 18.10.2022
1376 Fog 21 1023 89 7000 1.79 355 09:25 18.10.2022
1377 Fog 20 1022 90 9000 2.06 10 05:54 18.10.2022
1378 Clouds 22 1023 85 9000 2.57 70 23:35 17.10.2022
1379 Clouds 23 1022 82 9000 2.06 60 21:31 17.10.2022
1380 Clouds 24 1022 79 9000 1.54 70 20:47 17.10.2022
1381 Clouds 24 1022 76 9000 1.79 37 20:27 17.10.2022
1382 Clouds 25 1021 75 10000 1.79 81 19:41 17.10.2022
1383 Clouds 28 1024 64 10000 3.6 160 17:47 17.10.2022
1384 Clouds 28 1024 68 10000 3.6 170 15:55 17.10.2022
1385 Clouds 28 1024 67 10000 4.47 195 15:20 17.10.2022
1386 Clouds 27 1022 66 10000 2.06 40 12:48 17.10.2022
1387 Clouds 20 1019 87 10000 0 0 08:52 17.10.2022
1388 Clouds 21 1018 86 10000 1.34 323 01:41 17.10.2022
1389 Clouds 22 1018 83 10000 3.09 60 22:54 16.10.2022
1390 Clouds 23 1018 78 10000 2.06 60 21:22 16.10.2022
1391 Clouds 23 1018 79 10000 1.54 40 21:22 16.10.2022
1392 Clouds 24 1017 79 10000 2.57 70 19:51 16.10.2022
1393 Clouds 24 1016 77 10000 3.09 10 19:33 16.10.2022
1394 Clouds 26 1016 70 10000 4.63 250 17:46 16.10.2022
1395 Clouds 26 1018 73 10000 4.12 250 16:32 16.10.2022
1396 Clouds 27 1018 65 10000 3.6 240 15:55 16.10.2022
1397 Clouds 26 1019 64 10000 2.24 142 12:34 16.10.2022
1398 Clouds 26 1016 65 10000 1.54 60 11:38 16.10.2022
1399 Clouds 23 1016 75 10000 1.34 5 10:26 16.10.2022
1400 Clouds 18 1013 84 10000 1.54 60 07:38 16.10.2022
1401 Clear 19 1015 77 10000 1.34 346 23:43 15.10.2022
1402 Clear 21 1014 71 10000 1.34 345 21:58 15.10.2022
1403 Clear 21 1014 69 10000 1.54 70 21:20 15.10.2022
1404 Clear 23 1013 61 10000 1.03 180 19:55 15.10.2022
1405 Clear 26 1017 59 10000 4.63 220 17:24 15.10.2022
1406 Clouds 26 1017 60 10000 4.12 230 15:45 15.10.2022
1407 Clear 26 1015 65 10000 2.68 182 13:42 15.10.2022
1408 Clouds 26 1016 69 10000 3.09 220 11:51 15.10.2022
1409 Fog 22 1014 78 9000 0.45 337 09:57 15.10.2022
1410 Fog 16 1017 94 7000 1.03 0 07:55 15.10.2022
1411 Clouds 19 1017 85 10000 0 0 00:41 15.10.2022
1412 Clouds 20 1017 84 10000 1.03 0 23:25 14.10.2022
1413 Clouds 21 1017 82 10000 2.06 230 22:22 14.10.2022
1414 Clouds 21 1017 82 10000 2.06 230 22:22 14.10.2022
1415 Clouds 22 1017 80 10000 2.57 230 21:27 14.10.2022
1416 Clouds 22 1017 80 10000 2.57 230 21:27 14.10.2022
1417 Clouds 24 1017 68 10000 4.63 230 19:25 14.10.2022
1418 Clouds 25 1021 76 10000 6.17 220 16:23 14.10.2022
1419 Clouds 26 1019 64 10000 5.66 220 13:26 14.10.2022
1420 Clouds 25 1020 67 10000 2.68 187 11:39 14.10.2022
1421 Clouds 18 1019 85 10000 0.89 338 09:29 14.10.2022
1422 Clouds 14 1021 94 10000 0.51 20 06:55 14.10.2022
1423 Clouds 14 1021 100 10000 0.51 60 06:18 14.10.2022
1424 Clouds 15 1021 94 10000 0 0 05:42 14.10.2022
1425 Clouds 17 1019 85 10000 0.51 40 03:43 14.10.2022
1426 Clouds 18 1021 78 10000 0.89 333 23:54 13.10.2022
1427 Clouds 20 1020 72 10000 1.79 303 22:22 13.10.2022
1428 Clouds 21 1020 69 10000 2.06 230 21:25 13.10.2022
1429 Clouds 23 1019 60 10000 4.12 230 19:43 13.10.2022
1430 Clouds 23 1019 60 10000 4.12 230 19:25 13.10.2022
1431 Clouds 24 1022 66 10000 4.12 240 18:42 13.10.2022
1432 Clouds 24 1022 63 10000 5.66 240 16:50 13.10.2022
1433 Clouds 25 1022 58 10000 5.66 250 15:45 13.10.2022
1434 Clouds 25 1023 64 10000 4.12 250 14:18 13.10.2022
1435 Clouds 25 1024 63 10000 2.68 199 12:49 13.10.2022
1436 Clouds 24 1024 68 10000 2.06 60 11:35 13.10.2022
1437 Clouds 19 1019 86 10000 1.54 350 09:40 13.10.2022
1438 Clouds 16 1019 89 10000 0.51 0 07:40 13.10.2022
1439 Clouds 16 1022 92 10000 1.03 0 06:40 13.10.2022
1440 Clouds 18 1019 83 10000 1.54 60 01:48 13.10.2022
1441 Clouds 18 1019 82 10000 1.54 190 00:55 13.10.2022
1442 Clouds 19 1018 78 10000 3.6 50 22:46 12.10.2022
1443 Clouds 20 1018 77 10000 2.06 40 22:28 12.10.2022
1444 Clouds 20 1018 73 10000 3.6 50 21:21 12.10.2022
1445 Clouds 21 1017 71 10000 3.09 60 20:52 12.10.2022
1446 Clouds 22 1016 65 10000 6.17 70 19:30 12.10.2022
1447 Clouds 24 1016 58 10000 6.69 70 18:25 12.10.2022
1448 Clouds 24 1019 63 10000 7.2 60 17:47 12.10.2022
1449 Clouds 24 1019 63 10000 6.69 60 15:40 12.10.2022
1450 Clouds 22 1019 72 10000 10.29 50 13:56 12.10.2022
1451 Clouds 23 1019 67 10000 6.17 40 12:46 12.10.2022
1452 Clouds 20 1016 83 10000 5.14 50 09:40 12.10.2022
1453 Clouds 19 1013 86 10000 4.63 60 07:58 12.10.2022
1454 Clouds 19 1012 86 10000 4.63 50 07:38 12.10.2022
1455 Clouds 20 1013 85 10000 6.17 60 06:43 12.10.2022
1456 Clouds 20 1013 87 10000 3.09 50 00:58 12.10.2022
1457 Clouds 20 1014 87 10000 2.06 60 22:18 11.10.2022
1458 Clouds 20 1014 88 10000 1.54 120 20:39 11.10.2022
1459 Clouds 21 1013 82 3500 2.06 120 18:46 11.10.2022
1460 Rain 24 1013 56 10000 4.63 50 16:49 11.10.2022
1461 Rain 24 1013 56 10000 4.63 50 16:49 11.10.2022
1462 Clouds 25 1013 56 10000 5.66 70 14:36 11.10.2022
1463 Clouds 25 1018 64 10000 5.14 60 12:53 11.10.2022
1464 Clouds 22 1014 80 10000 4.12 70 10:29 11.10.2022
1465 Rain 20 1014 85 10000 3.6 70 09:36 11.10.2022
1466 Clouds 19 1013 83 10000 1.03 0 06:56 11.10.2022
1467 Clouds 19 1014 80 10000 0.51 0 02:31 11.10.2022
1468 Clouds 20 1015 75 10000 2.06 70 00:31 11.10.2022
1469 Clouds 22 1014 65 10000 2.06 70 21:37 10.10.2022
1470 Clouds 24 1013 59 10000 4.12 50 19:59 10.10.2022
1471 Clouds 25 1013 56 10000 2.57 250 18:36 10.10.2022
1472 Clouds 26 1016 65 10000 5.14 220 17:23 10.10.2022
1473 Clouds 27 1017 54 10000 4.12 230 15:58 10.10.2022
1474 Clouds 25 1018 59 10000 1.54 130 12:54 10.10.2022
1475 Clouds 25 1018 65 10000 2.06 80 11:56 10.10.2022
1476 Clouds 19 1014 81 10000 1.03 0 09:21 10.10.2022
1477 Clouds 17 1013 85 10000 1.03 10 05:45 10.10.2022
1478 Clouds 17 1013 84 10000 2.06 40 05:21 10.10.2022
1479 Clouds 19 1014 77 10000 2.06 40 00:34 10.10.2022
1480 Clouds 20 1013 76 10000 1.54 60 23:31 09.10.2022
1481 Clouds 21 1013 72 10000 2.06 50 22:20 09.10.2022
1482 Clouds 21 1013 70 10000 2.06 70 21:26 09.10.2022
1483 Clouds 22 1012 66 10000 2.57 70 20:35 09.10.2022
1484 Clouds 23 1011 60 10000 4.12 60 19:47 09.10.2022
1485 Clouds 24 1015 69 10000 2.06 260 18:45 09.10.2022
1486 Clouds 25 1016 63 10000 4.63 220 17:32 09.10.2022
1487 Clouds 26 1016 58 10000 4.12 220 16:39 09.10.2022
1488 Clouds 26 1016 53 10000 1.54 80 15:51 09.10.2022
1489 Clouds 26 1016 57 10000 3.09 110 14:49 09.10.2022
1490 Clouds 27 1017 54 10000 2.57 120 14:26 09.10.2022
1491 Clouds 26 1017 57 10000 3.6 60 12:46 09.10.2022
1492 Clouds 24 1017 65 10000 6.17 60 11:22 09.10.2022
1493 Clouds 17 1014 88 10000 2.06 60 08:32 09.10.2022
1494 Clouds 17 1014 86 10000 2.57 20 04:28 09.10.2022
1495 Clouds 17 1014 87 10000 3.09 10 03:20 09.10.2022
1496 Clouds 19 1015 82 10000 3.09 60 00:42 09.10.2022
1497 Clouds 20 1014 79 10000 4.12 60 23:32 08.10.2022
1498 Clouds 20 1015 77 10000 3.6 60 22:35 08.10.2022
1499 Clouds 22 1014 74 10000 6.17 60 20:37 08.10.2022
1500 Clouds 22 1014 69 10000 6.17 70 19:37 08.10.2022
1501 Clouds 25 1013 59 10000 7.2 60 17:39 08.10.2022
1502 Clouds 27 1013 47 10000 6.17 70 15:35 08.10.2022
1503 Clouds 27 1018 50 10000 1.54 110 13:53 08.10.2022
1504 Clouds 26 1018 54 10000 2.57 80 12:20 08.10.2022
1505 Clouds 23 1018 69 10000 1.03 0 10:35 08.10.2022
1506 Clouds 20 1013 77 10000 2.57 70 09:35 08.10.2022
1507 Clouds 18 1013 80 10000 1.54 20 07:25 08.10.2022
1508 Clear 18 1014 83 10000 1.54 50 02:34 08.10.2022
1509 Clear 19 1015 79 10000 1.03 80 23:52 07.10.2022
1510 Clear 19 1015 78 10000 2.06 80 23:20 07.10.2022
1511 Clear 20 1015 77 10000 2.06 20 22:19 07.10.2022
1512 Clear 21 1015 70 10000 1.54 80 20:35 07.10.2022
1513 Clouds 25 1014 48 9000 3.09 40 18:29 07.10.2022
1514 Clouds 23 1014 55 9000 4.12 50 16:58 07.10.2022
1515 Clouds 28 1015 44 9000 5.14 70 15:50 07.10.2022
1516 Clouds 25 1020 67 4000 4.63 220 14:35 07.10.2022
1517 Clouds 24 1021 65 10000 5.14 70 12:23 07.10.2022
1518 Clouds 20 1018 84 10000 2.06 60 09:26 07.10.2022
1519 Clouds 19 1019 86 10000 5.66 70 08:49 07.10.2022
1520 Clouds 19 1017 84 10000 2.57 80 05:51 07.10.2022
1521 Clouds 21 1022 82 10000 4.12 60 00:41 07.10.2022
1522 Clouds 22 1023 78 10000 2.57 80 22:50 06.10.2022
1523 Clouds 22 1022 78 10000 4.12 50 21:42 06.10.2022
1524 Clouds 22 1022 76 10000 3.6 60 21:22 06.10.2022
1525 Clouds 23 1022 70 10000 3.09 70 19:50 06.10.2022
1526 Clouds 23 1022 70 10000 3.09 70 19:50 06.10.2022
1527 Clouds 24 1021 68 10000 3.6 80 18:37 06.10.2022
1528 Clouds 24 1021 68 10000 3.6 80 18:37 06.10.2022
1529 Clouds 24 1021 68 10000 3.6 80 18:37 06.10.2022
1530 Clouds 24 1024 72 10000 5.66 70 17:50 06.10.2022
1531 Rain 22 1026 85 9000 4.12 70 14:24 06.10.2022
1532 Clouds 24 1022 66 10000 2.57 60 11:30 06.10.2022
1533 Clouds 19 1021 80 10000 1.34 323 06:53 06.10.2022
1534 Clouds 19 1022 82 10000 2.24 5 03:34 06.10.2022
1535 Clouds 22 1022 71 10000 2.06 70 23:20 05.10.2022
1536 Clouds 24 1021 65 10000 1.34 127 21:21 05.10.2022
1537 Clouds 24 1020 63 10000 2.68 185 18:57 05.10.2022
1538 Clouds 25 1023 66 10000 6.17 230 17:35 05.10.2022
1539 Clouds 26 1023 58 10000 4.63 230 15:55 05.10.2022
1540 Clouds 27 1023 52 10000 3.09 220 14:47 05.10.2022
1541 Clouds 27 1023 51 10000 2.06 50 13:56 05.10.2022
1542 Clouds 25 1024 62 10000 2.24 129 12:20 05.10.2022
1543 Clear 20 1020 87 10000 1.54 110 09:28 05.10.2022
1544 Clouds 18 1019 89 10000 2.06 40 07:43 05.10.2022
1545 Clouds 18 1019 87 10000 2.06 70 05:39 05.10.2022
1546 Clouds 19 1020 87 10000 1.79 355 04:21 05.10.2022
1547 Clouds 21 1021 79 10000 1.54 10 00:50 05.10.2022
1548 Clouds 21 1020 77 10000 2.06 50 00:27 05.10.2022
1549 Clouds 22 1020 72 10000 2.57 70 22:38 04.10.2022
1550 Clouds 23 1018 70 10000 1.34 59 20:39 04.10.2022
1551 Clouds 25 1018 62 10000 4.12 230 18:59 04.10.2022
1552 Clouds 26 1018 60 10000 4.12 250 18:38 04.10.2022
1553 Clouds 26 1021 63 10000 3.6 250 17:48 04.10.2022
1554 Clouds 27 1021 60 10000 3.13 222 16:35 04.10.2022
1555 Clouds 27 1021 49 10000 2.57 50 13:19 04.10.2022
1556 Clouds 21 1017 81 10000 2.57 70 09:47 04.10.2022
1557 Clouds 19 1016 86 10000 1.03 0 07:24 04.10.2022
1558 Clouds 20 1017 84 10000 1.54 40 02:27 04.10.2022
1559 Clouds 22 1018 79 10000 1.34 32 23:41 03.10.2022
1560 Clouds 22 1017 77 10000 0.45 45 21:53 03.10.2022
1561 Clouds 22 1017 75 10000 1.54 350 21:23 03.10.2022
1562 Clouds 23 1016 74 10000 2.57 50 20:19 03.10.2022
1563 Clouds 24 1017 70 10000 3.6 240 18:35 03.10.2022
1564 Clouds 25 1018 61 10000 4.12 230 17:26 03.10.2022
1565 Clouds 26 1021 64 10000 4.12 230 15:47 03.10.2022
1566 Clouds 26 1022 53 10000 2.24 225 14:20 03.10.2022
1567 Clear 24 1023 64 10000 3.09 60 12:31 03.10.2022
1568 Clear 21 1020 68 10000 1.03 0 10:40 03.10.2022
1569 Clouds 17 1018 82 10000 1.54 30 09:40 03.10.2022
1570 Clouds 16 1019 82 10000 1.54 10 07:31 03.10.2022
1571 Clouds 17 1020 77 10000 1.79 355 03:38 03.10.2022
1572 Clear 18 1022 75 10000 1.03 70 22:50 02.10.2022
1573 Clear 21 1022 63 10000 1.03 140 21:26 02.10.2022
1574 Clouds 23 1022 55 10000 3.09 220 19:39 02.10.2022
1575 Clouds 24 1025 61 10000 5.14 230 17:55 02.10.2022
1576 Clouds 25 1026 60 10000 5.14 220 16:50 02.10.2022
1577 Clouds 25 1026 60 10000 4.47 176 16:27 02.10.2022
1578 Clear 25 1027 62 10000 5.14 220 14:53 02.10.2022
1579 Clear 25 1028 62 10000 4.12 220 13:46 02.10.2022
1580 Clouds 24 1028 62 10000 3.13 190 12:38 02.10.2022
1581 Clouds 24 1028 62 10000 1.79 207 11:41 02.10.2022
1582 Clouds 24 1028 62 10000 2.24 165 11:23 02.10.2022
1583 Clear 21 1024 74 10000 0.45 90 09:45 02.10.2022
1584 Clouds 14 1027 93 10000 1.54 10 08:27 02.10.2022
1585 Clear 14 1027 94 10000 1.54 30 05:18 02.10.2022
1586 Clear 18 1028 79 10000 0.89 323 00:56 02.10.2022
1587 Clouds 18 1025 76 10000 2.06 20 00:36 02.10.2022
1588 Clouds 18 1025 72 10000 1.34 355 23:24 01.10.2022
1589 Clouds 20 1024 61 10000 0.89 319 21:38 01.10.2022
1590 Clouds 24 1026 53 10000 5.66 240 18:54 01.10.2022
1591 Clouds 25 1026 46 10000 6.17 240 17:25 01.10.2022
1592 Clouds 24 1026 50 10000 6.69 240 14:44 01.10.2022
1593 Clouds 25 1023 43 10000 5.14 230 13:43 01.10.2022
1594 Clouds 24 1026 54 10000 4.02 186 12:34 01.10.2022
1595 Clouds 22 1026 58 10000 1.34 148 11:22 01.10.2022
1596 Clouds 23 1021 54 10000 1.03 360 10:44 01.10.2022
1597 Clouds 21 1021 58 10000 0.45 68 10:25 01.10.2022
1598 Clouds 17 1020 83 10000 0.51 0 09:21 01.10.2022
1599 Clouds 12 1022 87 10000 0 0 08:26 01.10.2022
1600 Clouds 14 1018 83 10000 1.34 360 03:39 01.10.2022
1601 Clouds 14 1020 86 10000 2.06 350 01:31 01.10.2022
1602 Clouds 15 1016 75 10000 2.24 355 23:21 30.09.2022
1603 Clouds 17 1015 65 10000 1.03 0 21:58 30.09.2022
1604 Clouds 19 1013 60 10000 2.06 90 20:45 30.09.2022
1605 Clouds 19 1013 59 10000 2.24 46 20:20 30.09.2022
1606 Clouds 21 1011 49 10000 5.66 70 18:27 30.09.2022
1607 Clouds 22 1013 57 10000 8.23 70 16:32 30.09.2022
1608 Clouds 21 1010 61 10000 8.23 50 14:23 30.09.2022
1609 Clouds 20 1008 67 10000 7.2 70 12:29 30.09.2022
1610 Clouds 19 1008 74 10000 6.17 60 11:55 30.09.2022
1611 Clouds 15 1008 85 5000 7.2 20 09:24 30.09.2022
1612 Clouds 16 1002 87 10000 2.06 350 07:50 30.09.2022
1613 Clouds 17 1002 83 10000 2.06 100 03:19 30.09.2022
1614 Clouds 17 1005 83 6000 7.72 330 01:44 30.09.2022
1615 Clouds 21 1001 50 10000 2.06 300 21:40 29.09.2022
1616 Clouds 21 1001 50 10000 2.06 300 21:19 29.09.2022
1617 Clouds 23 1004 53 10000 3.09 330 19:56 29.09.2022
1618 Clouds 24 1003 50 10000 3.6 310 17:49 29.09.2022
1619 Clouds 25 998 38 10000 4.63 300 16:29 29.09.2022
1620 Clouds 25 1000 40 10000 4.63 310 15:37 29.09.2022
1621 Clouds 25 1004 47 10000 4.63 310 14:59 29.09.2022
1622 Clouds 25 1004 48 10000 5.66 320 12:39 29.09.2022
1623 Clouds 21 1000 65 10000 1.34 50 08:45 29.09.2022
1624 Clouds 19 1005 82 10000 2.06 130 04:46 29.09.2022
1625 Clouds 19 1007 79 10000 1.54 60 02:36 29.09.2022
1626 Clouds 22 1008 66 10000 5.14 240 23:26 28.09.2022
1627 Clear 23 1008 61 10000 6.17 250 21:40 28.09.2022
1628 Clear 23 1008 59 10000 6.17 250 21:22 28.09.2022
1629 Clouds 24 1008 54 10000 5.66 270 19:57 28.09.2022
1630 Clouds 25 1009 47 10000 5.66 330 16:52 28.09.2022
1631 Clouds 25 1010 52 10000 8.23 320 14:35 28.09.2022
1632 Clouds 23 1011 61 10000 9.77 330 11:49 28.09.2022
1633 Clouds 22 1011 63 10000 5.14 310 09:49 28.09.2022
1634 Clouds 20 1010 65 10000 2.57 290 07:53 28.09.2022
1635 Clouds 21 1011 63 10000 3.09 300 06:27 28.09.2022
1636 Clouds 22 1013 62 10000 2.06 320 01:47 28.09.2022
1637 Clouds 22 1013 59 10000 2.06 340 01:25 28.09.2022
1638 Clouds 22 1014 56 10000 2.06 270 22:49 27.09.2022
1639 Clouds 23 1013 55 10000 2.57 280 21:20 27.09.2022
1640 Clouds 23 1012 54 10000 3.6 290 20:36 27.09.2022
1641 Clouds 23 1012 56 10000 3.09 330 19:47 27.09.2022
1642 Clouds 24 1012 54 10000 7.72 320 17:54 27.09.2022
1643 Clouds 24 1011 55 10000 7.72 330 17:32 27.09.2022
1644 Clouds 24 1011 51 10000 5.66 290 15:24 27.09.2022
1645 Clouds 24 1012 53 10000 5.66 330 14:24 27.09.2022
1646 Clouds 23 1012 51 10000 9.77 310 12:40 27.09.2022
1647 Clouds 23 1012 50 10000 6.69 320 10:53 27.09.2022
1648 Clouds 21 1010 62 10000 3.6 280 08:46 27.09.2022
1649 Clouds 19 1012 79 10000 1.34 288 05:49 27.09.2022
1650 Clouds 17 1014 88 10000 2.06 30 01:45 27.09.2022
1651 Clouds 18 1014 82 10000 1.03 0 00:50 27.09.2022
1652 Clouds 19 1014 81 10000 1.03 0 23:25 26.09.2022
1653 Clouds 20 1014 74 10000 1.03 0 22:24 26.09.2022
1654 Clouds 22 1013 66 10000 1.54 100 20:29 26.09.2022
1655 Clouds 23 1013 62 10000 1.03 0 19:30 26.09.2022
1656 Clouds 23 1013 57 10000 3.6 60 18:31 26.09.2022
1657 Clouds 25 1012 51 10000 4.12 60 15:55 26.09.2022
1658 Clouds 24 1013 56 10000 7.2 60 13:30 26.09.2022
1659 Clouds 23 1012 62 10000 8.75 60 11:29 26.09.2022
1660 Clouds 22 1012 63 10000 7.6 26 10:37 26.09.2022
1661 Clouds 22 1012 63 10000 7.6 26 10:19 26.09.2022
1662 Clouds 21 1011 71 10000 6.69 60 09:53 26.09.2022
1663 Clouds 21 1011 71 10000 4.63 50 09:22 26.09.2022
1664 Clouds 19 1010 77 10000 3.09 70 07:30 26.09.2022
1665 Clouds 19 1011 88 9000 7.72 70 02:48 26.09.2022
1666 Rain 20 1012 89 9000 7.2 60 23:29 25.09.2022
1667 Rain 21 1012 80 10000 5.14 70 21:54 25.09.2022
1668 Rain 21 1012 79 10000 5.66 70 21:34 25.09.2022
1669 Rain 22 1011 75 10000 5.14 70 20:45 25.09.2022
1670 Clouds 22 1011 72 10000 5.66 70 19:32 25.09.2022
1671 Clouds 23 1010 68 10000 6.69 70 18:35 25.09.2022
1672 Clouds 23 1011 70 10000 8.23 70 17:52 25.09.2022
1673 Clouds 23 1011 70 10000 8.23 60 16:22 25.09.2022
1674 Clouds 23 1011 69 10000 8.23 70 15:44 25.09.2022
1675 Clouds 23 1013 73 10000 6.69 70 14:22 25.09.2022
1676 Clouds 22 1012 80 10000 6.17 60 12:51 25.09.2022
1677 Rain 22 1011 78 10000 7.72 60 10:29 25.09.2022
1678 Clouds 19 1010 89 10000 3.6 70 08:24 25.09.2022
1679 Clouds 19 1010 86 10000 5.66 60 05:38 25.09.2022
1680 Clouds 22 1011 81 10000 2.06 360 01:32 25.09.2022
1681 Clouds 23 1012 72 10000 4.12 70 22:35 24.09.2022
1682 Clouds 24 1011 67 10000 5.66 70 20:55 24.09.2022
1683 Clouds 26 1010 64 10000 3.09 230 19:22 24.09.2022
1684 Clouds 27 1011 64 10000 5.66 230 17:19 24.09.2022
1685 Clouds 28 1011 63 10000 5.14 230 16:24 24.09.2022
1686 Clouds 27 1012 65 10000 5.14 230 15:20 24.09.2022
1687 Clouds 27 1013 67 10000 5.14 230 13:25 24.09.2022
1688 Clouds 26 1014 67 10000 4.12 230 12:49 24.09.2022
1689 Clouds 23 1013 72 10000 4.63 70 10:38 24.09.2022
1690 Clouds 21 1013 73 10000 5.66 80 09:40 24.09.2022
1691 Clouds 21 1013 76 10000 6.69 70 08:43 24.09.2022
1692 Clouds 24 1013 75 10000 3.13 199 06:53 24.09.2022
1693 Clouds 24 1014 73 10000 4.92 171 04:40 24.09.2022
1694 Clouds 24 1016 69 10000 3.58 182 02:19 24.09.2022
1695 Clouds 24 1017 67 10000 1.03 170 22:28 23.09.2022
1696 Clouds 25 1017 66 10000 2.06 160 21:28 23.09.2022
1697 Clouds 25 1017 68 10000 2.68 155 20:55 23.09.2022
1698 Clouds 25 1017 65 10000 3.13 162 20:19 23.09.2022
1699 Clouds 26 1017 61 10000 4.63 220 18:26 23.09.2022
1700 Clouds 27 1019 53 10000 5.14 240 13:44 23.09.2022
1701 Clouds 24 1019 68 10000 2.06 80 10:27 23.09.2022
1702 Clouds 20 1018 83 10000 2.06 60 08:57 23.09.2022
1703 Clouds 19 1018 84 10000 1.79 355 04:56 23.09.2022
1704 Clouds 22 1019 72 10000 2.06 70 23:31 22.09.2022
1705 Clouds 22 1018 70 10000 1.54 50 22:41 22.09.2022
1706 Clouds 23 1018 68 10000 1.54 50 22:19 22.09.2022
1707 Clouds 25 1017 61 10000 3.6 70 20:45 22.09.2022
1708 Clouds 26 1017 52 10000 5.14 80 19:23 22.09.2022
1709 Clouds 27 1017 55 10000 4.12 230 16:53 22.09.2022
1710 Clouds 26 1018 58 10000 3.6 70 11:58 22.09.2022
1711 Clouds 24 1018 69 10000 2.57 70 10:20 22.09.2022
1712 Clouds 21 1016 83 10000 2.06 70 08:39 22.09.2022
1713 Rain 21 1017 81 10000 3.09 70 06:27 22.09.2022
1714 Clouds 21 1018 79 10000 1.03 0 02:43 22.09.2022
1715 Clouds 22 1018 78 10000 2.57 70 22:50 21.09.2022
1716 Clouds 23 1018 75 10000 3.09 70 21:40 21.09.2022
1717 Clouds 23 1017 72 10000 2.06 70 19:55 21.09.2022
1718 Clouds 28 1015 59 10000 4.63 220 17:47 21.09.2022
1719 Clouds 29 1015 56 10000 5.66 230 16:22 21.09.2022
1720 Clouds 28 1018 52 10000 4.12 250 13:59 21.09.2022
1721 Clouds 27 1018 52 10000 2.06 50 12:41 21.09.2022
1722 Clouds 26 1018 58 10000 2.57 60 11:28 21.09.2022
1723 Clouds 26 1017 63 10000 1.03 0 09:50 21.09.2022
1724 Clouds 22 1017 73 10000 1.54 50 08:58 21.09.2022
1725 Clouds 20 1018 77 10000 1.54 40 07:18 21.09.2022
1726 Clouds 21 1018 70 10000 2.06 70 02:47 21.09.2022
1727 Clouds 22 1018 71 10000 1.54 80 02:25 21.09.2022
1728 Clouds 23 1019 70 10000 1.03 0 00:34 21.09.2022
1729 Clouds 24 1019 68 10000 3.09 80 22:43 20.09.2022
1730 Clouds 26 1017 57 10000 2.57 190 20:51 20.09.2022
1731 Clouds 28 1017 54 10000 5.14 210 19:32 20.09.2022
1732 Clouds 29 1017 50 10000 6.17 230 16:28 20.09.2022
1733 Clouds 28 1018 54 10000 5.66 230 14:46 20.09.2022
1734 Clouds 28 1018 49 10000 5.14 230 13:22 20.09.2022
1735 Clear 23 1018 50 10000 1.54 360 09:50 20.09.2022
1736 Clear 17 1017 71 10000 0.89 355 08:27 20.09.2022
1737 Clear 17 1017 74 10000 1.79 5 05:24 20.09.2022
1738 Clear 18 1017 68 10000 1.79 344 03:59 20.09.2022
1739 Clear 22 1017 61 10000 2.57 20 22:55 19.09.2022
1740 Clear 23 1017 58 10000 2.57 360 22:18 19.09.2022
1741 Clear 24 1015 52 10000 4.12 70 20:51 19.09.2022
1742 Clear 25 1014 47 10000 4.63 70 20:31 19.09.2022
1743 Clear 28 1015 35 10000 5.14 70 17:45 19.09.2022
1744 Clear 30 1014 34 10000 4.63 70 15:34 19.09.2022
1745 Clear 28 1016 39 10000 5.66 60 13:33 19.09.2022
1746 Clear 26 1016 42 10000 5.66 60 11:28 19.09.2022
1747 Clear 20 1015 54 10000 2.57 40 08:51 19.09.2022
1748 Clear 20 1014 60 10000 2.06 10 08:18 19.09.2022
1749 Clouds 19 1016 70 10000 0.51 0 01:58 19.09.2022
1750 Clouds 21 1017 68 10000 3.58 40 23:22 18.09.2022
1751 Clouds 22 1017 65 10000 4.12 70 21:45 18.09.2022
1752 Clouds 23 1016 60 10000 6.17 70 20:29 18.09.2022
1753 Clouds 26 1016 51 10000 6.17 70 18:34 18.09.2022
1754 Clouds 27 1016 50 10000 6.69 70 17:39 18.09.2022
1755 Clouds 28 1016 49 10000 5.66 70 15:53 18.09.2022
1756 Clouds 28 1017 49 10000 5.14 70 14:23 18.09.2022
1757 Clouds 26 1018 53 10000 4.12 70 12:36 18.09.2022
1758 Clear 25 1017 55 10000 4.63 60 11:39 18.09.2022
1759 Clouds 20 1015 66 10000 3.09 70 05:24 18.09.2022
1760 Clouds 21 1017 70 10000 1.79 24 01:27 18.09.2022
1761 Clouds 21 1016 71 10000 1.03 0 00:42 18.09.2022
1762 Clouds 23 1016 68 10000 1.79 44 21:54 17.09.2022
1763 Clouds 23 1015 67 10000 5.14 60 20:29 17.09.2022
1764 Clouds 24 1014 64 10000 6.69 60 19:19 17.09.2022
1765 Clouds 25 1014 58 10000 7.72 60 17:19 17.09.2022
1766 Clouds 25 1015 60 10000 7.2 80 13:59 17.09.2022
1767 Clouds 26 1015 60 10000 9.26 60 12:29 17.09.2022
1768 Clouds 25 1014 72 10000 5.66 60 10:28 17.09.2022
1769 Clouds 22 1012 89 10000 2.06 130 06:28 17.09.2022
1770 Clouds 21 1012 87 10000 0.51 150 03:34 17.09.2022
1771 Clouds 24 1013 82 10000 0.51 0 23:23 16.09.2022
1772 Clouds 25 1012 81 10000 2.06 10 21:33 16.09.2022
1773 Clouds 26 1011 76 10000 1.54 40 20:41 16.09.2022
1774 Clouds 27 1011 69 10000 2.57 330 18:28 16.09.2022
1775 Clouds 28 1012 59 10000 6.17 80 16:18 16.09.2022
1776 Clouds 29 1012 54 10000 3.6 360 14:40 16.09.2022
1777 Clouds 29 1013 57 10000 3.58 211 12:31 16.09.2022
1778 Clouds 25 1013 72 10000 1.03 0 09:37 16.09.2022
1779 Clouds 21 1012 79 10000 1.79 360 07:22 16.09.2022
1780 Clouds 21 1012 80 10000 1.79 360 06:47 16.09.2022
1781 Clear 22 1012 77 10000 1.54 50 05:19 16.09.2022
1782 Clouds 25 1013 61 10000 1.03 50 23:50 15.09.2022
1783 Clouds 27 1011 70 10000 2.57 90 21:24 15.09.2022
1784 Clouds 29 1011 55 10000 4.63 200 20:28 15.09.2022
1785 Clouds 31 1011 50 10000 5.14 220 18:54 15.09.2022
1786 Clouds 30 1011 66 10000 6.17 220 17:34 15.09.2022
1787 Clouds 30 1011 66 10000 6.17 220 17:34 15.09.2022
1788 Clouds 30 1011 66 10000 6.17 220 17:34 15.09.2022
1789 Clouds 30 1011 64 10000 5.66 220 16:57 15.09.2022
1790 Clouds 30 1012 64 10000 6.17 220 15:22 15.09.2022
1791 Clouds 30 1013 69 10000 4.63 230 12:49 15.09.2022
1792 Clouds 28 1012 70 10000 1.54 230 10:42 15.09.2022
1793 Clouds 25 1012 78 10000 1.54 360 09:42 15.09.2022
1794 Clouds 25 1011 73 10000 0.89 317 04:46 15.09.2022
1795 Clouds 27 1011 68 10000 1.34 302 02:57 15.09.2022
1796 Clouds 28 1011 67 10000 3.09 320 22:44 14.09.2022
1797 Rain 29 1010 77 10000 2.06 200 20:24 14.09.2022
1798 Clouds 29 1009 74 10000 1.54 40 19:32 14.09.2022
1799 Clouds 30 1011 73 10000 3.09 230 17:28 14.09.2022
1800 Clouds 30 1011 76 10000 3.09 230 16:36 14.09.2022
1801 Clouds 30 1011 78 10000 5.14 230 14:47 14.09.2022
1802 Clouds 30 1011 67 10000 1.54 190 12:33 14.09.2022
1803 Clouds 28 1009 78 10000 1.03 170 09:50 14.09.2022
1804 Clouds 29 1008 73 10000 1.54 170 07:55 14.09.2022
1805 Clouds 28 1008 77 10000 1.34 248 06:48 14.09.2022
1806 Rain 28 1008 77 10000 1.34 248 06:23 14.09.2022
1807 Rain 28 1010 78 10000 2.06 60 01:55 14.09.2022
1808 Clouds 28 1010 77 10000 2.57 40 01:30 14.09.2022
1809 Clouds 28 1009 77 10000 4.12 60 00:52 14.09.2022
1810 Rain 28 1010 79 10000 4.02 82 23:54 13.09.2022
1811 Rain 28 1010 80 10000 4.63 80 23:36 13.09.2022
1812 Clouds 28 1010 80 10000 7.2 70 23:18 13.09.2022
1813 Clouds 29 1010 78 10000 6.69 70 22:22 13.09.2022
1814 Clouds 29 1010 78 10000 6.69 70 22:22 13.09.2022
1815 Clouds 30 1010 67 10000 7.2 70 20:41 13.09.2022
1816 Clouds 32 1010 56 10000 5.66 90 18:43 13.09.2022
1817 Clouds 33 1010 58 10000 4.02 313 16:19 13.09.2022
1818 Clouds 33 1011 60 10000 4.63 250 15:18 13.09.2022
1819 Clouds 34 1011 50 10000 5.14 70 13:31 13.09.2022
1820 Clouds 28 1012 74 10000 2.57 80 09:58 13.09.2022
1821 Clouds 24 1010 82 10000 3.09 60 07:47 13.09.2022
1822 Clouds 27 1013 70 10000 1.54 30 00:58 13.09.2022
1823 Clouds 28 1013 71 10000 2.57 80 23:21 12.09.2022
1824 Clouds 28 1013 70 10000 2.57 70 22:26 12.09.2022
1825 Clear 30 1010 54 10000 1.54 100 20:54 12.09.2022
1826 Clear 32 1012 49 10000 4.12 130 19:26 12.09.2022
1827 Clear 33 1012 42 10000 4.12 140 17:46 12.09.2022
1828 Clear 34 1013 43 10000 5.36 167 15:40 12.09.2022
1829 Clear 33 1014 53 10000 3.09 120 12:26 12.09.2022
1830 Clouds 29 1014 60 10000 2.57 60 10:24 12.09.2022
1831 Clouds 22 1014 80 10000 1.79 346 05:57 12.09.2022
1832 Clouds 23 1013 83 10000 1.54 30 04:32 12.09.2022
1833 Clouds 25 1016 84 10000 2.06 80 00:42 12.09.2022
1834 Clouds 27 1016 78 10000 0.51 0 22:45 11.09.2022
1835 Clouds 28 1015 75 10000 2.06 180 21:22 11.09.2022
1836 Clouds 28 1015 75 10000 2.68 196 20:43 11.09.2022
1837 Clouds 30 1015 71 10000 4.12 220 19:27 11.09.2022
1838 Clouds 30 1015 70 10000 5.14 230 18:58 11.09.2022
1839 Clouds 30 1016 70 10000 5.66 220 17:26 11.09.2022
1840 Clouds 31 1017 67 10000 6.69 240 15:46 11.09.2022
1841 Clouds 30 1017 69 10000 4.63 240 13:19 11.09.2022
1842 Clouds 30 1018 65 10000 1.03 10 11:25 11.09.2022
1843 Clouds 24 1016 91 10000 1.54 60 08:19 11.09.2022
1844 Clouds 24 1017 89 10000 0.51 0 05:19 11.09.2022
1845 Clouds 26 1018 83 10000 1.03 0 23:50 10.09.2022
1846 Clouds 27 1018 80 10000 1.03 0 22:22 10.09.2022
1847 Clouds 28 1018 76 10000 3.09 230 20:33 10.09.2022
1848 Clouds 29 1018 70 10000 4.12 230 19:44 10.09.2022
1849 Clouds 29 1018 69 10000 4.12 230 19:25 10.09.2022
1850 Clouds 29 1018 67 10000 6.17 240 17:27 10.09.2022
1851 Clouds 30 1019 63 10000 5.81 206 15:35 10.09.2022
1852 Clouds 30 1019 65 10000 6.26 173 15:35 10.09.2022
1853 Clouds 31 1019 56 10000 5.81 223 13:40 10.09.2022
1854 Clouds 31 1020 52 10000 2.06 100 12:30 10.09.2022
1855 Clouds 28 1020 68 10000 3.6 80 10:31 10.09.2022
1856 Clouds 25 1019 79 10000 2.06 70 08:41 10.09.2022
1857 Clouds 25 1019 81 10000 2.06 70 08:20 10.09.2022
1858 Clouds 25 1019 80 10000 2.57 80 03:48 10.09.2022
1859 Clouds 27 1018 74 10000 1.54 40 23:37 09.09.2022
1860 Clouds 28 1018 70 10000 2.06 80 22:36 09.09.2022
1861 Clouds 28 1016 73 10000 1.54 190 20:57 09.09.2022
1862 Clouds 29 1016 70 10000 2.06 200 20:19 09.09.2022
1863 Clouds 29 1016 70 10000 2.68 142 19:22 09.09.2022
1864 Clouds 30 1016 65 10000 5.14 220 17:29 09.09.2022
1865 Clouds 31 1017 61 10000 6.69 220 15:19 09.09.2022
1866 Clouds 32 1017 54 10000 4.63 220 13:33 09.09.2022
1867 Clouds 30 1017 69 10000 2.68 180 11:27 09.09.2022
1868 Clouds 23 1015 91 10000 0 0 07:57 09.09.2022
1869 Clouds 24 1016 84 10000 1.34 350 03:39 09.09.2022
1870 Clouds 26 1016 78 10000 1.54 90 00:21 09.09.2022
1871 Clouds 28 1015 67 10000 4.12 60 21:52 08.09.2022
1872 Clouds 29 1014 64 10000 3.09 40 20:49 08.09.2022
1873 Clouds 30 1014 62 10000 4.12 50 20:29 08.09.2022
1874 Clouds 30 1014 59 10000 4.63 50 19:25 08.09.2022
1875 Clouds 32 1014 44 10000 4.12 230 17:29 08.09.2022
1876 Clouds 32 1014 49 10000 6.69 220 15:53 08.09.2022
1877 Clouds 32 1015 54 10000 4.12 240 13:30 08.09.2022
1878 Clouds 31 1015 56 10000 3.13 175 12:42 08.09.2022
1879 Clouds 31 1014 55 10000 1.54 0 11:24 08.09.2022
1880 Clouds 28 1014 70 10000 1.03 360 09:57 08.09.2022
1881 Clouds 23 1013 88 10000 1.03 40 07:38 08.09.2022
1882 Clouds 23 1013 87 10000 0.89 333 04:53 08.09.2022
1883 Clouds 24 1013 83 10000 0.89 333 02:36 08.09.2022
1884 Clouds 24 1013 83 10000 0.89 333 02:18 08.09.2022
1885 Clouds 25 1013 83 10000 2.06 170 23:25 07.09.2022
1886 Clouds 28 1013 79 10000 1.54 210 21:58 07.09.2022
1887 Clouds 28 1013 79 10000 1.03 220 21:38 07.09.2022
1888 Clouds 29 1012 73 10000 3.09 220 20:29 07.09.2022
1889 Clouds 30 1012 70 10000 4.12 220 19:23 07.09.2022
1890 Clouds 32 1012 62 10000 5.14 220 16:30 07.09.2022
1891 Clouds 29 1015 74 10000 2.57 240 11:28 07.09.2022
1892 Clouds 28 1015 74 10000 1.54 220 10:32 07.09.2022
1893 Clouds 22 1014 88 10000 1.54 30 08:33 07.09.2022
1894 Clouds 22 1014 83 10000 1.54 70 06:31 07.09.2022
1895 Clouds 25 1016 84 10000 0.45 313 00:49 07.09.2022
1896 Clouds 28 1016 76 10000 1.54 210 21:58 06.09.2022
1897 Clouds 28 1015 74 10000 1.54 240 21:36 06.09.2022
1898 Clouds 28 1016 74 10000 4.12 220 19:40 06.09.2022
1899 Clouds 29 1016 70 10000 4.63 220 18:40 06.09.2022
1900 Clouds 29 1015 68 10000 2.57 220 17:50 06.09.2022
1901 Clouds 30 1016 69 10000 2.06 220 16:53 06.09.2022
1902 Clouds 29 1017 68 10000 4.12 220 16:26 06.09.2022
1903 Clouds 30 1018 64 10000 5.66 220 14:54 06.09.2022
1904 Clouds 30 1018 65 10000 4.12 230 13:44 06.09.2022
1905 Clouds 30 1018 65 10000 5.66 230 13:44 06.09.2022
1906 Clouds 30 1018 69 10000 4.12 240 13:20 06.09.2022
1907 Clouds 28 1017 79 10000 1.03 20 10:57 06.09.2022
1908 Clouds 28 1018 79 10000 0.89 30 10:33 06.09.2022
1909 Clouds 24 1017 90 10000 1.03 70 08:29 06.09.2022
1910 Clouds 23 1017 89 10000 0.51 0 06:58 06.09.2022
1911 Clouds 28 1018 84 10000 0.89 218 01:23 06.09.2022
1912 Clouds 28 1018 84 10000 1.34 136 23:21 05.09.2022
1913 Clouds 29 1017 79 10000 1.54 180 21:50 05.09.2022
1914 Clouds 29 1016 79 10000 2.57 240 20:32 05.09.2022
1915 Clouds 31 1016 70 10000 3.09 220 18:59 05.09.2022
1916 Clouds 31 1016 70 10000 4.12 210 18:38 05.09.2022
1917 Clouds 31 1016 70 10000 4.12 210 18:19 05.09.2022
1918 Clouds 33 1017 63 10000 5.14 230 16:27 05.09.2022
1919 Clouds 32 1018 62 10000 5.14 230 15:29 05.09.2022
1920 Clouds 31 1019 66 10000 7.2 230 13:21 05.09.2022
1921 Clouds 31 1019 61 10000 1.79 106 11:53 05.09.2022
1922 Rain 28 1019 66 10000 2.57 40 09:19 05.09.2022
1923 Rain 26 1018 74 10000 4.02 360 06:40 05.09.2022
1924 Clear 28 1018 70 10000 2.24 16 01:56 05.09.2022
1925 Clear 28 1018 66 10000 2.06 70 22:44 04.09.2022
1926 Clear 29 1018 65 10000 1.54 90 22:25 04.09.2022
1927 Clear 30 1016 57 10000 2.57 140 20:43 04.09.2022
1928 Clouds 32 1016 58 10000 4.12 150 19:20 04.09.2022
1929 Clouds 31 1016 59 10000 7.2 240 17:43 04.09.2022
1930 Clouds 32 1016 53 10000 6.69 240 16:28 04.09.2022
1931 Clouds 33 1016 46 10000 4.63 240 14:27 04.09.2022
1932 Clouds 32 1017 46 10000 4.63 250 12:57 04.09.2022
1933 Clouds 32 1017 52 10000 3.09 220 11:52 04.09.2022
1934 Clouds 29 1013 65 10000 1.54 40 09:56 04.09.2022
1935 Clouds 23 1011 83 10000 1.03 0 07:27 04.09.2022
1936 Clouds 25 1011 73 10000 0.51 0 04:00 04.09.2022
1937 Clouds 27 1010 61 10000 2.57 180 00:42 04.09.2022
1938 Clouds 28 1009 56 10000 2.06 210 22:21 03.09.2022
1939 Clouds 29 1008 57 10000 3.09 230 21:23 03.09.2022
1940 Clouds 31 1008 58 10000 5.14 230 18:59 03.09.2022
1941 Clouds 31 1012 60 10000 6.69 230 17:26 03.09.2022
1942 Clouds 31 1012 60 10000 6.69 230 17:26 03.09.2022
1943 Clouds 32 1008 61 10000 5.14 220 16:27 03.09.2022
1944 Clouds 32 1005 58 10000 1.54 280 14:44 03.09.2022
1945 Rain 31 1006 56 10000 6.17 220 13:55 03.09.2022
1946 Clouds 30 1012 64 10000 1.03 350 11:51 03.09.2022
1947 Clouds 29 1008 68 10000 2.57 60 10:27 03.09.2022
1948 Clouds 25 1007 73 10000 2.57 60 08:27 03.09.2022
1949 Clouds 24 1007 76 10000 3.09 60 06:53 03.09.2022
1950 Clouds 23 1008 74 10000 2.57 40 04:33 03.09.2022
1951 Clouds 25 1005 69 10000 1.03 0 23:55 02.09.2022
1952 Clouds 27 1008 67 10000 2.06 230 22:45 02.09.2022
1953 Clouds 29 1007 64 10000 2.57 230 20:59 02.09.2022
1954 Clouds 29 1007 60 10000 3.09 240 20:27 02.09.2022
1955 Clouds 31 1007 61 10000 6.17 220 19:01 02.09.2022
1956 Clouds 31 1007 62 10000 6.17 230 18:28 02.09.2022
1957 Clouds 30 1011 72 10000 6.69 240 17:43 02.09.2022
1958 Clouds 31 1011 63 10000 5.66 220 16:47 02.09.2022
1959 Clouds 31 1012 62 10000 4.63 220 14:33 02.09.2022
1960 Clouds 30 1013 67 10000 5.66 220 12:36 02.09.2022
1961 Clouds 28 1012 77 10000 1.03 0 10:19 02.09.2022
1962 Clouds 27 1008 77 10000 1.54 70 09:39 02.09.2022
1963 Clouds 25 1008 82 10000 1.54 40 07:32 02.09.2022
1964 Clouds 25 1008 83 10000 1.54 50 06:38 02.09.2022
1965 Clouds 26 1010 78 10000 2.06 170 02:52 02.09.2022
1966 Clouds 28 1010 74 10000 2.06 230 22:35 01.09.2022
1967 Clouds 28 1009 74 10000 2.57 220 21:44 01.09.2022
1968 Clouds 28 1009 73 10000 2.68 229 21:25 01.09.2022
1969 Clouds 28 1009 72 10000 3.6 220 20:44 01.09.2022
1970 Clouds 29 1013 74 10000 4.12 220 18:54 01.09.2022
1971 Clouds 30 1013 72 10000 5.66 210 17:22 01.09.2022
1972 Clouds 31 1014 67 10000 6.17 220 15:59 01.09.2022
1973 Clouds 31 1015 63 10000 6.17 230 14:33 01.09.2022
1974 Clouds 31 1015 66 10000 5.66 230 12:58 01.09.2022
1975 Clouds 31 1015 60 10000 4.02 211 11:53 01.09.2022
1976 Clouds 30 1015 61 10000 0.51 330 11:32 01.09.2022
1977 Clouds 29 1015 65 10000 1.34 102 10:38 01.09.2022
1978 Clouds 24 1009 78 10000 2.57 70 08:30 01.09.2022
1979 Clouds 23 1011 80 10000 1.54 350 06:23 01.09.2022
1980 Clouds 24 1011 66 10000 1.34 355 01:33 01.09.2022
1981 Clouds 25 1011 61 10000 3.09 80 00:18 01.09.2022
1982 Clouds 28 1010 68 10000 2.06 210 21:33 31.08.2022
1983 Clouds 30 1010 58 10000 5.14 230 19:50 31.08.2022
1984 Clouds 31 1010 49 10000 5.66 230 18:18 31.08.2022
1985 Clouds 32 1012 49 10000 7.2 240 16:23 31.08.2022
1986 Clouds 29 1017 65 10000 6.69 230 14:32 31.08.2022
1987 Clouds 31 1017 59 10000 5.14 220 12:23 31.08.2022
1988 Clouds 29 1016 70 10000 2.57 230 11:26 31.08.2022
1989 Clouds 27 1010 75 10000 1.03 180 08:54 31.08.2022
1990 Rain 27 1013 79 10000 0.89 290 05:26 31.08.2022
1991 Clouds 28 1011 75 10000 2.06 210 23:20 30.08.2022
1992 Clouds 28 1009 73 10000 1.03 200 21:43 30.08.2022
1993 Clouds 29 1009 73 10000 2.06 240 20:57 30.08.2022
1994 Clouds 33 1009 55 10000 4.63 230 18:32 30.08.2022
1995 Clouds 32 1017 66 10000 4.47 243 15:29 30.08.2022
1996 Clouds 33 1012 51 10000 4.12 230 13:24 30.08.2022
1997 Clouds 31 1017 55 10000 1.54 270 11:22 30.08.2022
1998 Clouds 30 1017 57 10000 1.03 350 10:57 30.08.2022
1999 Clear 23 1013 60 10000 2.06 350 07:46 30.08.2022
2000 Clear 24 1013 66 10000 1.79 344 02:34 30.08.2022
2001 Clear 26 1013 64 10000 0.51 0 23:22 29.08.2022
2002 Clear 27 1013 61 10000 2.06 120 22:28 29.08.2022
2003 Clear 28 1012 59 10000 2.06 110 21:26 29.08.2022
2004 Clear 31 1011 53 10000 3.09 170 19:54 29.08.2022
2005 Clear 33 1012 43 10000 4.63 150 17:58 29.08.2022
2006 Clouds 34 1010 43 10000 4.12 170 17:25 29.08.2022
2007 Clouds 34 1011 43 10000 3.6 170 16:40 29.08.2022
2008 Clouds 31 1017 62 10000 7.2 260 15:18 29.08.2022
2009 Clear 32 1018 52 10000 4.02 185 13:23 29.08.2022
2010 Clear 31 1017 53 10000 3.6 50 11:20 29.08.2022
2011 Clear 29 1017 55 10000 4.12 70 10:19 29.08.2022
2012 Clear 23 1013 64 10000 3.6 60 08:37 29.08.2022
2013 Clouds 23 1012 75 10000 1.79 360 05:36 29.08.2022
2014 Clouds 24 1013 72 10000 2.06 70 01:24 29.08.2022
2015 Clouds 27 1011 64 10000 1.54 40 22:47 28.08.2022
2016 Clouds 28 1011 61 10000 2.24 148 21:44 28.08.2022
2017 Clouds 29 1010 62 10000 3.6 160 20:55 28.08.2022
2018 Clouds 31 1010 51 10000 4.63 150 19:29 28.08.2022
2019 Clouds 31 1014 54 10000 5.81 219 18:21 28.08.2022
2020 Clouds 31 1014 52 10000 4.02 211 17:25 28.08.2022
2021 Clouds 31 1014 54 10000 9.26 250 16:28 28.08.2022
2022 Clouds 32 1015 56 10000 5.66 240 14:42 28.08.2022
2023 Clouds 32 1015 43 10000 2.68 213 12:48 28.08.2022
2024 Clouds 30 1014 54 10000 2.57 60 10:51 28.08.2022
2025 Clouds 28 1014 61 10000 2.06 50 09:54 28.08.2022
2026 Clear 23 1008 71 10000 1.54 50 08:38 28.08.2022
2027 Clear 21 1010 76 10000 2.24 355 07:45 28.08.2022
2028 Clear 23 1010 75 10000 1.34 351 02:59 28.08.2022
2029 Clear 24 1010 71 10000 2.06 80 00:29 28.08.2022
2030 Clear 26 1009 66 10000 1.34 60 22:37 27.08.2022
2031 Clear 26 1008 62 10000 2.57 20 21:40 27.08.2022
2032 Clouds 29 1005 45 10000 3.09 240 19:57 27.08.2022
2033 Clouds 31 1006 38 10000 2.57 240 18:27 27.08.2022
2034 Clouds 28 1007 53 10000 1.34 45 15:53 27.08.2022
2035 Clouds 25 1013 73 10000 2.06 30 15:25 27.08.2022
2036 Clouds 30 1011 56 10000 4.12 270 12:31 27.08.2022
2037 Clouds 30 1009 52 10000 1.54 360 11:47 27.08.2022
2038 Clouds 28 1009 57 10000 1.54 360 09:51 27.08.2022
2039 Clouds 26 1009 62 10000 1.34 355 08:45 27.08.2022
2040 Clouds 25 1008 68 10000 2.06 70 03:58 27.08.2022
2041 Clouds 26 1010 61 10000 1.54 80 00:20 27.08.2022
2042 Clouds 27 1010 58 10000 1.54 30 23:24 26.08.2022
2043 Clouds 28 1009 53 10000 2.06 70 21:43 26.08.2022
2044 Clouds 31 1008 45 10000 5.66 70 19:25 26.08.2022
2045 Clouds 32 1013 42 10000 6.69 60 17:29 26.08.2022
2046 Clouds 32 1014 44 10000 6.69 60 15:37 26.08.2022
2047 Clouds 31 1014 47 10000 7.72 60 14:56 26.08.2022
2048 Clouds 30 1011 46 10000 6.69 60 12:54 26.08.2022
2049 Clouds 29 1015 65 10000 4.63 60 11:42 26.08.2022
2050 Clouds 29 1011 58 10000 5.14 50 11:21 26.08.2022
2051 Clouds 26 1010 74 10000 3.09 70 07:37 26.08.2022
2052 Clouds 26 1011 70 10000 1.03 40 02:43 26.08.2022
2053 Clouds 28 1011 62 10000 1.54 50 23:45 25.08.2022
2054 Clouds 29 1010 63 10000 1.03 0 21:55 25.08.2022
2055 Clouds 30 1010 61 10000 1.54 280 20:51 25.08.2022
2056 Clouds 30 1014 68 10000 3.6 240 19:25 25.08.2022
2057 Clouds 31 1011 61 10000 5.14 230 18:29 25.08.2022
2058 Clouds 30 1015 70 10000 5.81 178 17:31 25.08.2022
2059 Clouds 31 1015 64 10000 8.23 240 16:36 25.08.2022
2060 Clouds 31 1014 64 10000 6.17 230 15:28 25.08.2022
2061 Clouds 32 1015 61 10000 3.6 210 13:20 25.08.2022
2062 Clouds 30 1016 63 10000 1.03 230 10:49 25.08.2022
2063 Clouds 29 1015 68 10000 1.54 110 09:52 25.08.2022
2064 Clear 24 1011 81 10000 1.34 348 07:35 25.08.2022
2065 Clouds 26 1012 74 10000 1.03 20 02:41 25.08.2022
2066 Clouds 27 1011 66 10000 1.54 140 23:30 24.08.2022
2067 Clouds 27 1011 65 10000 1.54 130 22:55 24.08.2022
2068 Clouds 28 1011 63 10000 1.03 210 21:53 24.08.2022
2069 Clouds 28 1011 63 10000 2.06 220 21:28 24.08.2022
2070 Clouds 29 1014 66 10000 4.12 230 19:52 24.08.2022
2071 Clouds 31 1015 59 10000 5.14 220 16:58 24.08.2022
2072 Clouds 31 1015 61 10000 6.69 220 15:54 24.08.2022
2073 Clouds 31 1015 61 10000 6.69 240 15:18 24.08.2022
2074 Clouds 31 1014 58 10000 2.57 230 12:48 24.08.2022
2075 Clouds 31 1014 57 10000 3.09 230 11:18 24.08.2022
2076 Clouds 26 1009 74 10000 1.54 80 08:45 24.08.2022
2077 Clouds 23 1010 81 10000 1.03 0 06:23 24.08.2022
2078 Clouds 26 1011 71 10000 1.54 130 00:53 24.08.2022
2079 Clouds 28 1011 66 10000 2.06 190 22:38 23.08.2022
2080 Clouds 28 1011 64 10000 2.57 210 21:55 23.08.2022
2081 Clouds 29 1008 56 10000 4.63 240 20:47 23.08.2022
2082 Clouds 30 1013 63 10000 6.69 230 19:18 23.08.2022
2083 Clouds 31 1014 61 10000 7.2 220 17:59 23.08.2022
2084 Clouds 31 1014 60 10000 7.2 220 17:22 23.08.2022
2085 Clouds 30 1015 65 10000 5.81 198 16:24 23.08.2022
2086 Clouds 31 1011 54 10000 5.66 230 14:30 23.08.2022
2087 Clouds 30 1010 57 10000 5.66 230 12:46 23.08.2022
2088 Clouds 30 1014 64 10000 2.57 250 10:58 23.08.2022
2089 Clouds 30 1014 65 10000 0.51 200 10:33 23.08.2022
2090 Clouds 27 1014 73 10000 0.51 0 09:32 23.08.2022
2091 Clouds 26 1009 78 10000 0.51 0 08:46 23.08.2022
2092 Clouds 24 1011 83 10000 1.03 90 08:19 23.08.2022
2093 Clouds 23 1011 84 10000 1.03 360 07:31 23.08.2022
2094 Clouds 24 1010 81 10000 0.89 339 06:23 23.08.2022
2095 Clouds 25 1010 75 10000 1.03 40 01:45 23.08.2022
2096 Clouds 26 1010 73 10000 1.03 0 00:27 23.08.2022
2097 Clouds 26 1010 72 10000 1.03 0 23:32 22.08.2022
2098 Clouds 26 1010 72 10000 1.03 150 22:25 22.08.2022
2099 Clouds 28 1009 62 10000 3.09 210 20:44 22.08.2022
2100 Clouds 29 1013 67 10000 3.6 210 19:44 22.08.2022
2101 Clouds 29 1013 64 10000 4.63 220 18:37 22.08.2022
2102 Clouds 30 1014 60 10000 6.17 230 15:55 22.08.2022
2103 Clouds 30 1010 51 10000 6.69 230 15:18 22.08.2022
2104 Clouds 30 1014 56 10000 4.12 240 12:53 22.08.2022
2105 Clouds 27 1015 77 10000 1.54 50 09:27 22.08.2022
2106 Clouds 25 1010 79 10000 1.54 40 06:58 22.08.2022
2107 Clouds 26 1010 72 10000 0.89 28 02:28 22.08.2022
2108 Clouds 27 1010 67 10000 0.51 0 00:37 22.08.2022
2109 Clouds 27 1010 65 10000 1.79 65 23:34 21.08.2022
2110 Clouds 28 1010 63 10000 0.51 200 21:56 21.08.2022
2111 Rain 28 1010 62 10000 1.34 235 21:20 21.08.2022
2112 Rain 29 1010 59 10000 2.24 183 20:20 21.08.2022
2113 Clouds 30 1014 65 10000 5.14 230 18:49 21.08.2022
2114 Clouds 30 1014 63 10000 5.66 220 16:52 21.08.2022
2115 Clouds 30 1015 62 10000 5.66 230 15:52 21.08.2022
2116 Clouds 30 1015 61 10000 6.17 230 14:57 21.08.2022
2117 Clear 30 1016 59 10000 5.66 230 13:51 21.08.2022
2118 Clear 30 1016 62 10000 5.36 178 12:56 21.08.2022
2119 Clouds 28 1017 66 10000 3.58 202 10:41 21.08.2022
2120 Clouds 26 1013 64 10000 1.03 20 09:21 21.08.2022
2121 Clouds 24 1011 70 10000 0.89 23 08:46 21.08.2022
2122 Clouds 23 1013 72 10000 1.79 360 08:28 21.08.2022
2123 Clouds 21 1013 76 10000 0.89 355 06:59 21.08.2022
2124 Clear 23 1013 66 10000 1.34 336 02:35 21.08.2022
2125 Clear 25 1015 60 10000 1.54 140 23:35 20.08.2022
2126 Clear 27 1014 53 10000 1.54 220 21:57 20.08.2022
2127 Clouds 28 1014 49 10000 2.06 220 20:56 20.08.2022
2128 Clouds 29 1018 58 10000 4.12 220 19:49 20.08.2022
2129 Clouds 29 1018 58 10000 4.12 220 19:21 20.08.2022
2130 Clouds 29 1018 56 10000 5.66 230 18:26 20.08.2022
2131 Clouds 29 1018 58 10000 6.17 240 17:25 20.08.2022
2132 Clouds 30 1019 50 10000 6.17 230 16:23 20.08.2022
2133 Clouds 30 1019 50 10000 5.66 240 14:35 20.08.2022
2134 Clear 30 1020 46 10000 4.12 240 12:28 20.08.2022
2135 Clear 29 1020 48 10000 3.6 250 11:46 20.08.2022
2136 Clear 26 1016 62 10000 1.03 0 09:25 20.08.2022
2137 Clear 21 1016 78 10000 1.34 355 07:31 20.08.2022
2138 Clouds 21 1015 77 10000 1.54 30 05:48 20.08.2022
2139 Clouds 24 1016 66 10000 1.54 40 00:58 20.08.2022
2140 Clouds 25 1015 64 10000 1.03 110 23:52 19.08.2022
2141 Clouds 25 1015 61 10000 2.06 70 22:48 19.08.2022
2142 Clouds 27 1014 51 10000 3.09 160 21:34 19.08.2022
2143 Clouds 29 1017 52 10000 5.14 240 19:41 19.08.2022
2144 Clouds 30 1018 52 10000 6.17 230 16:32 19.08.2022
2145 Clouds 29 1019 53 10000 6.17 240 14:37 19.08.2022
2146 Clouds 29 1019 55 10000 5.66 230 12:45 19.08.2022
2147 Clouds 28 1019 55 10000 2.06 230 10:43 19.08.2022
2148 Clouds 26 1018 62 10000 0 0 09:39 19.08.2022
2149 Clouds 22 1013 64 10000 1.54 50 04:59 19.08.2022
2150 Clouds 23 1013 56 10000 0.89 355 00:45 19.08.2022
2151 Clouds 23 1013 53 10000 0.89 9 00:22 19.08.2022
2152 Clouds 24 1012 50 10000 1.54 130 22:59 18.08.2022
2153 Clouds 25 1012 50 10000 2.06 100 22:30 18.08.2022
2154 Clouds 25 1011 50 10000 3.09 30 21:53 18.08.2022
2155 Clouds 25 1011 48 10000 6.17 320 21:18 18.08.2022
2156 Clouds 28 1010 42 10000 4.63 310 19:54 18.08.2022
2157 Clouds 27 1014 50 10000 4.63 310 19:24 18.08.2022
2158 Clouds 28 1014 46 10000 4.63 340 17:46 18.08.2022
2159 Clouds 28 1014 51 10000 5.66 340 16:25 18.08.2022
2160 Clouds 28 1013 53 10000 4.92 317 14:22 18.08.2022
2161 Clouds 28 1013 51 10000 5.36 329 13:58 18.08.2022
2162 Clouds 28 1013 52 10000 3.6 220 12:46 18.08.2022
2163 Clouds 28 1012 54 10000 3.6 230 11:23 18.08.2022
2164 Clouds 26 1012 65 10000 1.54 330 09:43 18.08.2022
2165 Clouds 24 1005 65 10000 1.54 60 08:31 18.08.2022
2166 Clouds 23 1006 67 10000 5.14 60 07:18 18.08.2022
2167 Clouds 24 1006 70 10000 4.12 340 03:23 18.08.2022
2168 Clear 26 1004 61 10000 0.89 327 23:18 17.08.2022
2169 Clouds 27 1004 58 10000 1.03 100 21:28 17.08.2022
2170 Clouds 30 1007 59 10000 1.03 310 19:59 17.08.2022
2171 Rain 28 1004 67 10000 1.03 0 18:58 17.08.2022
2172 Rain 28 1000 57 10000 1.03 0 17:28 17.08.2022
2173 Rain 29 1000 53 10000 1.54 210 16:21 17.08.2022
2174 Clouds 30 1003 62 10000 6.17 240 15:18 17.08.2022
2175 Clouds 30 1003 63 10000 6.17 230 12:54 17.08.2022
2176 Clouds 31 1002 58 10000 4.12 250 11:36 17.08.2022
2177 Clouds 31 1002 58 10000 4.12 250 11:36 17.08.2022
2178 Clouds 27 1000 63 10000 2.06 40 09:31 17.08.2022
2179 Rain 26 1002 78 10000 3.13 76 07:55 17.08.2022
2180 Clouds 27 1004 80 10000 1.03 0 02:24 17.08.2022
2181 Clouds 28 1004 75 10000 1.54 180 23:58 16.08.2022
2182 Rain 28 1003 72 10000 2.06 180 22:30 16.08.2022
2183 Clouds 29 1003 70 10000 2.57 230 20:52 16.08.2022
2184 Clouds 30 1003 64 10000 3.09 230 19:53 16.08.2022
2185 Clouds 30 1008 69 10000 5.14 230 18:40 16.08.2022
2186 Clouds 31 1008 65 10000 4.63 220 17:43 16.08.2022
2187 Clouds 31 1009 63 10000 4.12 230 15:48 16.08.2022
2188 Clouds 31 1009 60 10000 5.14 230 14:55 16.08.2022
2189 Clouds 31 1009 60 10000 5.66 240 14:37 16.08.2022
2190 Clouds 30 1009 62 10000 6.69 220 12:58 16.08.2022
2191 Clouds 30 1009 66 10000 3.58 159 10:37 16.08.2022
2192 Clouds 29 1004 70 10000 3.13 147 09:50 16.08.2022
2193 Clouds 27 1005 79 10000 2.06 50 08:47 16.08.2022
2194 Clouds 25 1004 83 10000 2.57 50 07:33 16.08.2022
2195 Clouds 27 1004 79 10000 2.06 70 02:19 16.08.2022
2196 Clouds 29 1004 68 10000 4.12 50 22:31 15.08.2022
2197 Clouds 29 1003 66 10000 3.6 50 21:55 15.08.2022
2198 Clouds 30 1003 64 10000 4.63 60 21:34 15.08.2022
2199 Clouds 31 1007 66 10000 6.69 70 20:20 15.08.2022
2200 Clouds 33 1007 53 10000 4.47 313 18:42 15.08.2022
2201 Clouds 35 1007 41 10000 4.12 300 17:46 15.08.2022
2202 Clouds 34 1007 47 10000 5.66 230 16:22 15.08.2022
2203 Clouds 34 1007 56 10000 5.66 230 13:58 15.08.2022
2204 Clouds 33 1007 60 10000 3.09 240 12:38 15.08.2022
2205 Clouds 31 1006 70 10000 3.09 130 10:18 15.08.2022
2206 Clouds 28 1002 66 10000 3.09 140 08:52 15.08.2022
2207 Clear 27 1005 66 10000 1.03 0 06:34 15.08.2022
2208 Clear 27 1007 58 10000 0.89 339 03:34 15.08.2022
2209 Clear 31 1008 46 10000 0.89 116 23:24 14.08.2022
2210 Clear 34 1006 33 10000 0.51 180 21:43 14.08.2022
2211 Clear 36 1006 26 10000 4.12 170 20:41 14.08.2022
2212 Clear 35 1006 34 10000 4.12 160 19:36 14.08.2022
2213 Clouds 35 1006 38 10000 4.02 233 18:21 14.08.2022
2214 Clouds 35 1007 37 10000 4.92 200 17:31 14.08.2022
2215 Clouds 35 1007 33 10000 5.66 230 16:23 14.08.2022
2216 Clouds 35 1007 34 10000 6.17 220 15:34 14.08.2022
2217 Clear 35 1007 36 10000 4.12 230 13:51 14.08.2022
2218 Clear 35 1007 39 10000 4.12 230 13:31 14.08.2022
2219 Clouds 35 1008 39 10000 4.02 155 12:45 14.08.2022
2220 Clear 35 1008 38 10000 4.12 220 11:30 14.08.2022
2221 Clear 33 1010 44 10000 4.63 230 09:34 14.08.2022
2222 Clear 26 1009 50 10000 0.51 230 06:54 14.08.2022
2223 Clear 29 1008 39 10000 1.03 0 05:45 14.08.2022
2224 Clouds 33 1011 40 10000 1.03 120 01:43 14.08.2022
2225 Clouds 33 1013 47 10000 5.66 270 23:23 13.08.2022
2226 Clouds 34 1009 42 10000 3.09 280 22:28 13.08.2022
2227 Clear 35 1007 32 10000 3.6 250 20:56 13.08.2022
2228 Clouds 34 1005 35 9000 1.79 233 19:49 13.08.2022
2229 Clouds 35 1007 33 9000 7.72 320 19:19 13.08.2022
2230 Clouds 37 1008 31 9000 7.2 320 17:22 13.08.2022
2231 Clear 35 1007 44 10000 5.14 220 15:18 13.08.2022
2232 Clear 34 1008 48 10000 6.17 230 14:24 13.08.2022
2233 Clear 34 1008 51 10000 5.14 230 13:36 13.08.2022
2234 Clear 33 1009 58 10000 7.2 220 11:49 13.08.2022
2235 Clear 29 1011 70 10000 1.03 350 09:27 13.08.2022
2236 Clear 25 1011 78 10000 0 0 07:48 13.08.2022
2237 Clear 27 1013 81 10000 1.54 170 01:56 13.08.2022
2238 Clouds 29 1014 77 10000 1.34 219 23:45 12.08.2022
2239 Clear 29 1013 74 10000 2.57 220 21:40 12.08.2022
2240 Clear 31 1013 62 10000 3.09 230 19:51 12.08.2022
2241 Clear 32 1010 54 10000 3.58 198 19:24 12.08.2022
2242 Clear 32 1010 54 10000 5.14 220 18:31 12.08.2022
2243 Clear 33 1008 48 10000 5.66 210 16:28 12.08.2022
2244 Clear 34 1009 47 10000 6.17 220 15:23 12.08.2022
2245 Clear 34 1009 45 10000 5.14 220 13:56 12.08.2022
2246 Clear 33 1009 45 10000 4.63 220 12:51 12.08.2022
2247 Clear 28 1015 65 10000 1.03 0 09:28 12.08.2022
2248 Clear 24 1015 81 10000 1.03 0 07:47 12.08.2022
2249 Clear 24 1015 81 10000 0.89 342 06:28 12.08.2022
2250 Clear 26 1016 78 10000 1.03 0 01:45 12.08.2022
2251 Clear 28 1016 73 10000 1.54 100 00:23 12.08.2022
2252 Clear 29 1016 69 10000 1.54 180 23:34 11.08.2022
2253 Clear 29 1015 74 10000 1.34 229 21:58 11.08.2022
2254 Clear 30 1015 69 10000 2.24 219 21:39 11.08.2022
2255 Clear 30 1015 64 10000 5.14 240 20:32 11.08.2022
2256 Clouds 30 1015 66 10000 5.14 240 19:57 11.08.2022
2257 Clouds 31 1015 64 10000 5.14 230 19:32 11.08.2022
2258 Clouds 33 1011 47 10000 6.17 260 17:47 11.08.2022
2259 Clear 33 1010 44 10000 5.36 221 16:34 11.08.2022
2260 Clouds 35 1009 35 10000 4.63 250 15:21 11.08.2022
2261 Clear 34 1012 36 10000 2.57 120 12:44 11.08.2022
2262 Clear 30 1016 53 10000 3.09 60 10:18 11.08.2022
2263 Clear 23 1016 78 10000 1.79 5 07:19 11.08.2022
2264 Clear 24 1016 75 10000 2.06 40 03:46 11.08.2022
2265 Clear 27 1016 67 10000 1.34 5 00:35 11.08.2022
2266 Clear 29 1016 63 10000 0.51 0 22:32 10.08.2022
2267 Clear 30 1016 59 10000 2.57 170 21:25 10.08.2022
2268 Clear 29 1016 68 10000 3.58 211 20:54 10.08.2022
2269 Clear 33 1011 46 10000 6.17 250 19:27 10.08.2022
2270 Clouds 33 1012 45 10000 7.2 240 18:22 10.08.2022
2271 Clouds 33 1012 47 10000 8.75 250 16:36 10.08.2022
2272 Clouds 33 1012 46 10000 5.66 240 13:36 10.08.2022
2273 Clear 34 1012 40 10000 3.6 240 12:41 10.08.2022
2274 Clear 29 1018 61 10000 1.54 20 09:25 10.08.2022
2275 Clear 25 1018 67 10000 1.03 0 08:33 10.08.2022
2276 Clear 23 1018 75 10000 0.89 329 07:19 10.08.2022
2277 Clear 25 1017 72 10000 0.51 0 03:28 10.08.2022
2278 Clear 28 1018 69 10000 0 0 23:34 09.08.2022
2279 Clear 29 1018 70 10000 0.51 0 22:56 09.08.2022
2280 Clear 30 1018 71 10000 3.09 240 21:36 09.08.2022
2281 Clear 29 1018 71 10000 4.63 240 20:36 09.08.2022
2282 Clouds 32 1017 63 10000 5.14 240 18:44 09.08.2022
2283 Clouds 33 1013 48 10000 6.69 230 17:28 09.08.2022
2284 Clouds 33 1013 49 10000 7.2 230 16:41 09.08.2022
2285 Clouds 33 1013 48 10000 6.69 240 15:58 09.08.2022
2286 Clear 33 1013 52 10000 6.17 230 13:51 09.08.2022
2287 Clear 31 1017 58 10000 5.66 60 09:56 09.08.2022
2288 Clear 28 1017 63 10000 3.09 50 08:51 09.08.2022
2289 Clear 25 1017 76 10000 1.79 32 07:54 09.08.2022
2290 Clouds 26 1017 75 10000 0.45 328 04:28 09.08.2022
2291 Clear 29 1017 68 10000 1.54 30 23:46 08.08.2022
2292 Clear 29 1017 70 10000 1.03 0 22:57 08.08.2022
2293 Clear 30 1017 66 10000 1.54 240 22:35 08.08.2022
2294 Clouds 30 1016 63 10000 2.06 220 21:27 08.08.2022
2295 Clouds 31 1015 55 10000 3.6 220 19:57 08.08.2022
2296 Clouds 33 1011 49 10000 4.63 220 19:22 08.08.2022
2297 Clouds 33 1012 46 10000 5.14 220 17:34 08.08.2022
2298 Clouds 34 1012 41 10000 5.66 230 15:46 08.08.2022
2299 Clouds 34 1012 42 10000 5.14 240 14:45 08.08.2022
2300 Clouds 33 1012 50 10000 5.14 240 12:29 08.08.2022
2301 Clear 32 1016 48 10000 1.03 60 10:23 08.08.2022
2302 Clear 24 1015 68 10000 0.89 347 07:49 08.08.2022
2303 Clouds 26 1015 72 10000 1.54 100 03:39 08.08.2022
2304 Clear 29 1015 70 10000 2.24 97 22:52 07.08.2022
2305 Clouds 30 1015 66 10000 3.09 200 21:41 07.08.2022
2306 Clouds 30 1015 61 10000 3.09 210 20:55 07.08.2022
2307 Clouds 31 1014 60 10000 3.6 210 20:18 07.08.2022
2308 Clouds 31 1014 58 10000 3.6 210 19:51 07.08.2022
2309 Clouds 32 1014 51 10000 6.69 210 18:41 07.08.2022
2310 Clouds 33 1010 48 10000 6.17 210 17:21 07.08.2022
2311 Clouds 34 1011 42 10000 6.17 220 16:41 07.08.2022
2312 Clouds 34 1011 43 10000 5.66 220 15:26 07.08.2022
2313 Clouds 34 1012 45 10000 6.69 230 13:47 07.08.2022
2314 Clouds 33 1012 47 10000 4.02 146 12:38 07.08.2022
2315 Clear 32 1012 47 10000 1.34 233 10:42 07.08.2022
2316 Clouds 29 1016 63 10000 1.03 0 09:35 07.08.2022
2317 Clear 25 1015 79 10000 2.06 40 04:33 07.08.2022
2318 Clear 26 1016 77 10000 0 0 01:59 07.08.2022
2319 Clouds 29 1016 71 10000 1.54 220 22:33 06.08.2022
2320 Clouds 29 1016 75 10000 3.09 230 21:48 06.08.2022
2321 Clouds 30 1016 67 10000 4.63 230 19:43 06.08.2022
2322 Clouds 33 1012 54 10000 5.66 230 18:35 06.08.2022
2323 Clouds 32 1016 61 10000 6.17 230 17:44 06.08.2022
2324 Clouds 32 1017 58 10000 6.69 230 16:19 06.08.2022
2325 Clouds 35 1017 39 10000 3.13 127 13:51 06.08.2022
2326 Clouds 35 1017 32 10000 2.06 50 12:27 06.08.2022
2327 Clear 33 1017 38 10000 1.03 40 10:53 06.08.2022
2328 Clouds 30 1017 55 10000 1.54 360 09:31 06.08.2022
2329 Clear 25 1012 66 10000 1.34 5 04:38 06.08.2022
2330 Clouds 28 1012 66 10000 2.57 40 00:46 06.08.2022
2331 Clouds 29 1012 55 10000 1.54 200 22:35 05.08.2022
2332 Clouds 30 1009 43 10000 3.6 240 20:50 05.08.2022
2333 Clouds 31 1015 60 10000 6.69 240 18:56 05.08.2022
2334 Clouds 31 1015 61 10000 7.2 240 18:38 05.08.2022
2335 Clouds 31 1015 65 10000 8.75 240 16:53 05.08.2022
2336 Clouds 33 1015 45 10000 5.66 230 15:25 05.08.2022
2337 Clouds 34 1015 35 10000 5.66 210 14:38 05.08.2022
2338 Clouds 35 1015 29 10000 4.12 270 13:38 05.08.2022
2339 Clouds 35 1015 29 10000 2.24 251 13:18 05.08.2022
2340 Clouds 34 1016 31 10000 1.34 200 11:55 05.08.2022
2341 Clear 32 1016 42 10000 1.03 20 10:24 05.08.2022
2342 Clear 25 1011 70 10000 1.54 60 07:57 05.08.2022
2343 Clear 25 1011 69 10000 1.54 50 05:20 05.08.2022
2344 Clear 28 1011 60 10000 0.45 1 23:49 04.08.2022
2345 Clear 29 1009 55 10000 3.13 218 21:39 04.08.2022
2346 Clear 30 1010 57 10000 2.68 207 21:21 04.08.2022
2347 Clear 30 1010 53 10000 4.12 240 20:40 04.08.2022
2348 Clouds 32 1014 52 10000 5.14 240 19:21 04.08.2022
2349 Clouds 31 1014 56 10000 6.17 240 18:34 04.08.2022
2350 Clouds 32 1015 54 10000 7.2 240 16:54 04.08.2022
2351 Clouds 32 1015 52 10000 5.14 240 13:35 04.08.2022
2352 Clear 33 1015 46 10000 4.12 230 11:46 04.08.2022
2353 Clear 31 1015 44 10000 0.89 109 10:27 04.08.2022
2354 Clear 24 1011 50 10000 2.06 350 07:51 04.08.2022
2355 Clear 24 1010 51 10000 2.06 60 04:28 04.08.2022
2356 Clear 26 1011 53 10000 1.79 355 01:58 04.08.2022
2357 Clear 28 1011 57 10000 1.54 80 23:42 03.08.2022
2358 Clear 29 1007 42 10000 1.34 230 21:50 03.08.2022
2359 Clear 32 1007 39 10000 3.6 240 20:37 03.08.2022
2360 Clouds 31 1014 62 10000 4.63 240 19:28 03.08.2022
2361 Clouds 31 1014 63 10000 6.69 240 17:58 03.08.2022
2362 Clouds 32 1015 61 10000 7.2 240 16:24 03.08.2022
2363 Clouds 33 1015 55 10000 5.66 240 14:43 03.08.2022
2364 Clear 34 1016 37 10000 3.09 240 11:53 03.08.2022
2365 Clear 27 1011 51 10000 2.06 350 08:26 03.08.2022
2366 Clear 25 1010 56 10000 1.54 60 04:47 03.08.2022
2367 Clear 26 1011 53 10000 1.54 80 03:28 03.08.2022
2368 Clear 27 1011 52 10000 1.03 80 01:18 03.08.2022
2369 Clear 30 1011 46 10000 1.54 170 23:18 02.08.2022
2370 Clear 30 1011 45 10000 1.54 200 21:55 02.08.2022
2371 Clear 31 1010 44 10000 2.06 200 21:30 02.08.2022
2372 Clouds 32 1015 48 10000 4.63 210 18:59 02.08.2022
2373 Clouds 33 1016 42 10000 5.81 183 16:27 02.08.2022
2374 Clouds 33 1017 46 10000 5.66 240 12:53 02.08.2022
2375 Clear 31 1017 47 10000 0.51 300 09:42 02.08.2022
2376 Clear 25 1012 60 10000 1.03 0 07:56 02.08.2022
2377 Clear 24 1012 62 10000 0.89 68 07:25 02.08.2022
2378 Clouds 25 1010 57 10000 1.78 323 04:55 02.08.2022
2379 Clouds 28 1012 58 10000 1.03 130 23:52 01.08.2022
2380 Clouds 29 1012 54 10000 1.03 0 22:57 01.08.2022
2381 Clear 30 1011 46 10000 2.57 220 20:57 01.08.2022
2382 Clouds 31 1016 52 10000 4.12 210 19:41 01.08.2022
2383 Clouds 32 1016 49 10000 5.36 180 18:43 01.08.2022
2384 Clouds 33 1016 40 10000 6.69 220 16:54 01.08.2022
2385 Clouds 33 1016 41 10000 6.69 220 16:29 01.08.2022
2386 Clouds 33 1017 38 10000 6.17 210 15:33 01.08.2022
2387 Clouds 33 1017 42 10000 5.66 230 14:43 01.08.2022
2388 Clouds 33 1017 50 10000 4.63 230 12:57 01.08.2022
2389 Clear 30 1011 48 10000 1.34 220 10:30 01.08.2022
2390 Clear 28 1011 54 10000 1.34 220 08:45 01.08.2022
2391 Clouds 25 1011 59 10000 2.57 20 06:50 01.08.2022
2392 Clouds 26 1011 62 10000 1.34 220 04:30 01.08.2022
2393 Clouds 27 1011 58 10000 2.57 70 00:58 01.08.2022
2394 Clouds 28 1011 56 10000 1.54 90 22:44 31.07.2022
2395 Clouds 28 1011 56 10000 1.34 220 22:18 31.07.2022
2396 Clouds 29 1011 53 10000 3.09 230 20:21 31.07.2022
2397 Clouds 30 1011 50 10000 5.14 230 18:38 31.07.2022
2398 Clouds 31 1017 55 10000 6.69 250 16:26 31.07.2022
2399 Clouds 32 1017 55 10000 3.09 190 14:33 31.07.2022
2400 Clouds 33 1018 43 10000 3.6 50 12:55 31.07.2022
2401 Clouds 31 1018 51 10000 3.6 60 10:53 31.07.2022
2402 Clouds 27 1012 63 10000 1.34 220 08:46 31.07.2022
2403 Clouds 26 1012 65 10000 1.54 350 05:20 31.07.2022
2404 Clouds 27 1013 62 10000 1.79 355 01:20 31.07.2022
2405 Clouds 28 1012 65 10000 1.54 240 22:40 30.07.2022
2406 Clouds 28 1012 62 10000 2.57 230 21:50 30.07.2022
2407 Clouds 28 1012 62 10000 3.09 230 21:32 30.07.2022
2408 Clouds 29 1012 59 10000 4.12 230 20:33 30.07.2022
2409 Clouds 29 1012 60 10000 4.63 220 19:50 30.07.2022
2410 Clouds 30 1012 58 10000 6.17 220 17:53 30.07.2022
2411 Clouds 31 1018 62 10000 5.66 240 16:38 30.07.2022
2412 Clouds 32 1019 59 10000 3.58 211 15:30 30.07.2022
2413 Clouds 32 1019 53 10000 4.12 60 13:23 30.07.2022
2414 Clouds 31 1019 55 10000 5.14 60 12:22 30.07.2022
2415 Clouds 31 1019 57 10000 5.14 60 11:51 30.07.2022
2416 Clouds 29 1012 56 10000 5.66 70 10:19 30.07.2022
2417 Clouds 27 1012 68 10000 3.09 50 08:54 30.07.2022
2418 Clouds 25 1018 84 10000 1.54 80 06:58 30.07.2022
2419 Clouds 27 1011 67 10000 2.06 30 02:33 30.07.2022
2420 Clouds 28 1011 67 10000 2.06 70 00:30 30.07.2022
2421 Clouds 28 1011 65 10000 3.09 230 21:38 29.07.2022
2422 Clouds 28 1010 65 10000 3.09 230 20:50 29.07.2022
2423 Clouds 29 1010 63 10000 3.6 230 19:46 29.07.2022
2424 Clouds 30 1010 61 10000 6.69 240 17:34 29.07.2022
2425 Clouds 32 1015 64 10000 7.72 220 14:50 29.07.2022
2426 Clouds 32 1015 55 10000 5.66 240 12:52 29.07.2022
2427 Clouds 28 1010 62 10000 2.06 40 09:34 29.07.2022
2428 Clouds 27 1010 66 10000 1.54 40 08:41 29.07.2022
2429 Clouds 24 1014 85 10000 2.57 70 06:40 29.07.2022
2430 Clouds 26 1015 78 10000 2.06 70 01:19 29.07.2022
2431 Clouds 28 1006 54 10000 2.57 180 21:45 28.07.2022
2432 Clouds 28 1009 58 10000 2.68 182 20:54 28.07.2022
2433 Clouds 29 1009 59 10000 3.13 221 20:20 28.07.2022
2434 Clear 29 1008 57 10000 3.13 195 19:40 28.07.2022
2435 Clouds 30 1009 56 10000 6.17 240 18:25 28.07.2022
2436 Clouds 29 1009 57 10000 6.17 230 17:42 28.07.2022
2437 Clouds 29 1009 56 10000 7.2 220 16:41 28.07.2022
2438 Clouds 29 1009 56 10000 7.72 230 14:50 28.07.2022
2439 Clouds 29 1010 56 10000 5.14 230 12:41 28.07.2022
2440 Clear 28 1009 58 10000 1.34 220 09:34 28.07.2022
2441 Clouds 23 1013 79 10000 1.34 355 06:21 28.07.2022
2442 Clouds 23 1013 81 10000 1.34 355 05:26 28.07.2022
2443 Clouds 26 1014 70 10000 1.03 80 00:44 28.07.2022
2444 Clouds 28 1006 55 10000 2.06 180 22:26 27.07.2022
2445 Clouds 29 1006 49 10000 4.12 230 20:25 27.07.2022
2446 Clouds 29 1013 63 10000 4.63 220 19:34 27.07.2022
2447 Clouds 30 1013 58 10000 5.66 230 17:23 27.07.2022
2448 Clouds 31 1014 51 10000 6.17 220 15:52 27.07.2022
2449 Clouds 31 1014 58 10000 6.69 230 14:48 27.07.2022
2450 Clouds 31 1014 58 10000 6.69 230 14:30 27.07.2022
2451 Clouds 31 1014 58 10000 6.17 220 12:48 27.07.2022
2452 Clouds 25 1008 71 10000 1.54 40 07:53 27.07.2022
2453 Clouds 25 1007 70 10000 1.54 90 06:18 27.07.2022
2454 Clouds 26 1014 69 10000 2.06 60 00:46 27.07.2022
2455 Clouds 28 1007 62 10000 2.06 10 22:25 26.07.2022
2456 Clouds 29 1006 59 10000 3.09 260 21:20 26.07.2022
2457 Clouds 29 1006 59 10000 3.09 260 21:20 26.07.2022
2458 Clouds 31 1006 48 10000 4.63 240 19:59 26.07.2022
2459 Clouds 31 1013 55 10000 4.12 240 18:41 26.07.2022
2460 Clouds 32 1013 51 10000 1.54 100 17:57 26.07.2022
2461 Clouds 32 1015 43 10000 3.6 50 15:58 26.07.2022
2462 Clouds 32 1016 44 10000 5.66 60 14:57 26.07.2022
2463 Clouds 31 1016 49 10000 7.72 60 13:20 26.07.2022
2464 Clouds 30 1016 57 10000 8.75 60 10:59 26.07.2022
2465 Clouds 29 1012 59 10000 8.75 70 08:55 26.07.2022
2466 Clear 27 1011 73 10000 5.14 60 05:49 26.07.2022
2467 Clear 28 1011 73 10000 2.57 50 00:28 26.07.2022
2468 Clear 28 1011 77 10000 1.03 190 22:53 25.07.2022
2469 Clear 29 1010 75 10000 1.03 210 22:22 25.07.2022
2470 Clear 29 1007 68 10000 1.54 210 21:38 25.07.2022
2471 Clear 29 1014 77 10000 3.09 220 20:40 25.07.2022
2472 Clouds 30 1014 74 10000 3.6 220 19:33 25.07.2022
2473 Clear 32 1014 67 10000 4.63 220 18:18 25.07.2022
2474 Clear 33 1013 63 10000 5.14 220 17:27 25.07.2022
2475 Clear 34 1014 54 10000 5.66 220 14:59 25.07.2022
2476 Clear 33 1016 40 10000 4.63 230 12:22 25.07.2022
2477 Clear 32 1016 42 10000 0 0 09:50 25.07.2022
2478 Clear 25 1012 50 10000 1.54 50 04:38 25.07.2022
2479 Clear 28 1013 43 10000 0.89 248 23:54 24.07.2022
2480 Clear 28 1010 42 10000 0.51 50 23:18 24.07.2022
2481 Clear 30 1010 36 10000 0.45 248 22:29 24.07.2022
2482 Clear 31 1012 42 10000 2.06 240 21:25 24.07.2022
2483 Clear 31 1017 49 10000 3.6 240 20:51 24.07.2022
2484 Clear 32 1016 53 10000 4.12 240 20:26 24.07.2022
2485 Clear 33 1016 48 10000 5.14 240 18:48 24.07.2022
2486 Clear 33 1018 48 10000 7.2 240 16:32 24.07.2022
2487 Clear 34 1018 44 10000 7.2 240 15:50 24.07.2022
2488 Clear 34 1018 40 10000 6.69 250 14:38 24.07.2022
2489 Clear 34 1019 29 10000 4.12 240 12:55 24.07.2022
2490 Clear 34 1019 30 10000 3.6 250 12:18 24.07.2022
2491 Clear 34 1019 34 10000 1.79 221 11:26 24.07.2022
2492 Clear 29 1014 45 10000 0.51 70 08:56 24.07.2022
2493 Clear 24 1014 55 10000 0.89 344 07:52 24.07.2022
2494 Clear 24 1014 55 10000 1.54 40 06:27 24.07.2022
2495 Clear 26 1014 50 10000 0.45 292 01:50 24.07.2022
2496 Clear 29 1014 62 10000 1.34 292 22:25 23.07.2022
2497 Clear 31 1018 62 10000 3.09 240 20:35 23.07.2022
2498 Clear 32 1018 57 10000 5.66 230 18:51 23.07.2022
2499 Clear 32 1018 57 10000 6.17 230 17:41 23.07.2022
2500 Clear 32 1018 55 10000 6.17 230 17:23 23.07.2022
2501 Clouds 32 1018 56 10000 6.69 240 15:42 23.07.2022
2502 Clear 33 1018 46 10000 6.69 250 14:59 23.07.2022
2503 Clear 33 1018 51 10000 6.17 250 14:36 23.07.2022
2504 Clear 33 1019 41 10000 5.14 240 13:50 23.07.2022
2505 Clear 34 1018 32 10000 1.03 80 11:19 23.07.2022
2506 Clear 33 1018 41 10000 2.57 50 10:23 23.07.2022
2507 Clear 29 1018 43 10000 2.57 40 09:26 23.07.2022
2508 Clear 23 1014 61 10000 1.34 347 04:59 23.07.2022
2509 Clear 25 1013 62 10000 0.51 0 02:30 23.07.2022
2510 Clear 27 1013 64 10000 1.03 140 23:39 22.07.2022
2511 Clear 30 1013 59 10000 3.6 230 21:18 22.07.2022
2512 Clear 31 1016 57 10000 5.14 230 19:55 22.07.2022
2513 Clear 31 1017 65 10000 4.47 142 18:36 22.07.2022
2514 Clear 33 1017 43 10000 5.14 230 17:37 22.07.2022
2515 Clear 33 1017 47 10000 5.14 240 15:26 22.07.2022
2516 Clear 33 1018 37 10000 3.6 240 12:33 22.07.2022
2517 Clear 30 1018 50 10000 1.03 340 09:45 22.07.2022
2518 Clear 29 1018 59 10000 1.03 0 09:19 22.07.2022
2519 Clear 23 1013 73 10000 0.89 5 07:23 22.07.2022
2520 Clear 25 1013 74 10000 1.03 0 04:18 22.07.2022
2521 Clear 28 1014 70 10000 1.54 250 22:56 21.07.2022
2522 Clear 29 1013 63 10000 3.09 230 21:35 21.07.2022
2523 Clear 31 1018 60 10000 4.12 230 19:35 21.07.2022
2524 Clouds 31 1018 53 10000 5.66 230 18:29 21.07.2022
2525 Clouds 32 1019 52 10000 6.17 230 17:20 21.07.2022
2526 Clouds 32 1019 52 10000 5.14 230 15:39 21.07.2022
2527 Clouds 35 1018 44 10000 5.66 230 14:44 21.07.2022
2528 Clouds 34 1020 43 10000 4.63 60 13:22 21.07.2022
2529 Clear 32 1020 47 10000 5.66 60 11:42 21.07.2022
2530 Clear 31 1016 51 10000 7.72 60 09:44 21.07.2022
2531 Clear 29 1015 58 10000 6.69 60 08:53 21.07.2022
2532 Clouds 25 1015 74 10000 3.09 50 07:50 21.07.2022
2533 Clear 25 1015 72 10000 2.57 60 06:25 21.07.2022
2534 Clear 26 1015 68 10000 1.54 40 02:23 21.07.2022
2535 Clear 29 1015 67 10000 1.03 0 22:24 20.07.2022
2536 Clear 29 1015 66 10000 1.54 230 21:49 20.07.2022
2537 Clouds 30 1018 62 10000 3.09 240 20:46 20.07.2022
2538 Clouds 31 1018 65 10000 3.6 240 19:46 20.07.2022
2539 Clouds 31 1018 66 10000 3.6 230 18:53 20.07.2022
2540 Clouds 31 1018 62 10000 4.12 230 18:30 20.07.2022
2541 Clouds 32 1018 57 10000 5.14 230 17:24 20.07.2022
2542 Clouds 32 1019 57 10000 7.2 240 15:32 20.07.2022
2543 Clouds 32 1019 56 10000 6.69 240 14:35 20.07.2022
2544 Clear 32 1019 58 10000 5.66 230 12:51 20.07.2022
2545 Clear 32 1018 46 10000 2.57 50 10:29 20.07.2022
2546 Clear 24 1013 71 10000 1.34 360 05:52 20.07.2022
2547 Clear 26 1013 76 10000 0.89 270 01:40 20.07.2022
2548 Clear 27 1013 75 10000 0.89 270 00:41 20.07.2022
2549 Clear 28 1012 70 10000 0.89 203 22:35 19.07.2022
2550 Clear 28 1009 66 10000 1.79 215 21:54 19.07.2022
2551 Clear 30 1008 62 10000 3.6 240 20:49 19.07.2022
2552 Clear 30 1016 69 10000 5.14 240 19:22 19.07.2022
2553 Clear 31 1016 65 10000 6.17 240 18:41 19.07.2022
2554 Clouds 31 1017 59 10000 6.69 240 17:53 19.07.2022
2555 Clouds 32 1017 54 10000 6.69 240 15:49 19.07.2022
2556 Clear 32 1018 56 10000 6.17 230 13:37 19.07.2022
2557 Clear 33 1017 43 10000 1.34 224 11:33 19.07.2022
2558 Clear 30 1018 65 10000 0.51 330 09:53 19.07.2022
2559 Clear 29 1014 65 10000 1.03 0 08:48 19.07.2022
2560 Clouds 25 1014 69 10000 1.03 0 07:57 19.07.2022
2561 Clouds 24 1013 72 10000 1.34 343 07:18 19.07.2022
2562 Clear 25 1013 70 10000 1.03 50 05:19 19.07.2022
2563 Clear 25 1013 68 10000 0.89 248 04:40 19.07.2022
2564 Clear 28 1014 66 10000 1.03 70 00:18 19.07.2022
2565 Clear 28 1014 64 10000 1.54 110 23:20 18.07.2022
2566 Clear 29 1014 66 10000 1.54 140 22:51 18.07.2022
2567 Clear 29 1013 60 10000 3.09 230 21:27 18.07.2022
2568 Clear 30 1017 64 10000 3.6 230 20:49 18.07.2022
2569 Clear 31 1017 54 10000 3.6 230 19:21 18.07.2022
2570 Clouds 32 1018 52 10000 6.69 220 16:50 18.07.2022
2571 Clouds 32 1018 46 10000 6.17 220 15:41 18.07.2022
2572 Clear 33 1019 41 10000 5.14 230 13:41 18.07.2022
2573 Clear 33 1019 40 10000 3.6 230 12:37 18.07.2022
2574 Clear 31 1019 45 10000 0.51 190 10:34 18.07.2022
2575 Clear 29 1015 49 10000 1.54 360 08:50 18.07.2022
2576 Clear 23 1014 69 10000 1.03 50 06:54 18.07.2022
2577 Clear 29 1015 53 10000 0.89 242 23:31 17.07.2022
2578 Clear 30 1014 46 10000 0.89 248 22:34 17.07.2022
2579 Clear 30 1019 56 10000 1.03 230 21:47 17.07.2022
2580 Clear 31 1018 52 10000 2.57 250 20:55 17.07.2022
2581 Clear 31 1018 52 10000 2.57 250 20:36 17.07.2022
2582 Clear 32 1015 43 10000 4.12 240 19:28 17.07.2022
2583 Clear 32 1015 41 10000 5.14 240 18:27 17.07.2022
2584 Clouds 32 1016 43 10000 7.2 240 17:38 17.07.2022
2585 Clouds 32 1016 43 10000 7.2 230 16:50 17.07.2022
2586 Clouds 33 1016 42 10000 7.2 230 16:26 17.07.2022
2587 Clear 33 1016 40 10000 6.69 230 14:37 17.07.2022
2588 Clear 33 1016 38 10000 4.63 230 13:30 17.07.2022
2589 Clear 33 1016 38 10000 1.79 198 11:35 17.07.2022
2590 Clear 29 1016 51 10000 0.89 215 08:57 17.07.2022
2591 Clear 25 1017 66 10000 1.03 0 03:44 17.07.2022
2592 Clear 26 1018 64 10000 1.03 170 02:32 17.07.2022
2593 Clear 28 1017 67 10000 0.51 0 23:20 16.07.2022
2594 Clear 29 1017 70 10000 2.06 210 21:30 16.07.2022
2595 Clouds 32 1014 43 10000 4.12 220 19:40 16.07.2022
2596 Clouds 32 1014 38 10000 4.12 220 18:32 16.07.2022
2597 Clouds 32 1014 38 10000 4.12 220 18:32 16.07.2022
2598 Clouds 32 1015 40 10000 5.14 230 16:53 16.07.2022
2599 Clear 32 1015 44 10000 5.14 240 13:56 16.07.2022
2600 Clear 32 1015 44 10000 1.34 200 11:38 16.07.2022
2601 Clear 30 1015 50 10000 1.03 0 09:35 16.07.2022
2602 Clear 28 1015 55 10000 2.06 50 08:47 16.07.2022
2603 Clear 25 1016 65 10000 1.54 70 08:29 16.07.2022
2604 Clear 23 1016 68 10000 1.03 60 04:24 16.07.2022
2605 Clear 24 1017 68 10000 1.03 40 03:29 16.07.2022
2606 Clear 27 1017 76 10000 1.03 70 23:37 15.07.2022
2607 Clear 28 1016 71 10000 1.03 220 22:41 15.07.2022
2608 Clear 29 1016 67 10000 2.06 220 21:29 15.07.2022
2609 Clear 31 1013 48 10000 3.09 230 20:31 15.07.2022
2610 Clear 31 1014 50 10000 4.63 220 18:44 15.07.2022
2611 Clear 31 1014 49 10000 5.66 220 17:44 15.07.2022
2612 Clouds 31 1014 43 10000 6.17 220 14:57 15.07.2022
2613 Clouds 32 1014 46 10000 5.14 230 13:20 15.07.2022
2614 Clear 31 1015 50 10000 3.09 230 11:45 15.07.2022
2615 Clear 30 1015 52 10000 1.54 220 10:27 15.07.2022
2616 Clouds 22 1016 79 10000 0.51 0 07:42 15.07.2022
2617 Clear 24 1018 77 10000 1.54 60 02:24 15.07.2022
2618 Clear 26 1018 72 10000 1.03 130 00:37 15.07.2022
2619 Clear 27 1019 74 10000 1.03 0 22:54 14.07.2022
2620 Clear 28 1018 69 10000 2.57 230 21:56 14.07.2022
2621 Clear 28 1018 67 10000 3.6 230 21:32 14.07.2022
2622 Clear 28 1018 68 10000 4.12 220 20:46 14.07.2022
2623 Clear 28 1018 68 10000 4.63 220 20:28 14.07.2022
2624 Clear 29 1018 65 10000 4.63 220 19:58 14.07.2022
2625 Clouds 31 1016 50 10000 7.2 240 16:42 14.07.2022
2626 Clouds 31 1016 50 10000 7.2 240 16:18 14.07.2022
2627 Clear 31 1017 48 10000 5.14 240 14:44 14.07.2022
2628 Clear 32 1017 43 10000 5.14 250 13:33 14.07.2022
2629 Clear 31 1017 46 10000 3.6 240 12:23 14.07.2022
2630 Clear 31 1017 42 10000 2.57 250 11:26 14.07.2022
2631 Clear 30 1017 41 10000 1.79 195 10:49 14.07.2022
2632 Clear 24 1021 60 10000 0.51 0 08:28 14.07.2022
2633 Clear 23 1021 65 10000 1.03 60 03:42 14.07.2022
2634 Clear 25 1022 70 10000 0.89 338 00:55 14.07.2022
2635 Clear 25 1022 71 10000 0.51 0 00:18 14.07.2022
2636 Clear 27 1021 68 10000 1.03 230 22:28 13.07.2022
2637 Clear 27 1021 70 10000 3.6 230 21:37 13.07.2022
2638 Clear 28 1020 68 10000 4.63 220 20:38 13.07.2022
2639 Clear 31 1017 38 10000 6.69 230 18:23 13.07.2022
2640 Clear 32 1017 41 10000 6.17 230 17:22 13.07.2022
2641 Clear 32 1017 41 10000 6.17 230 17:22 13.07.2022
2642 Clear 32 1017 42 10000 6.17 230 16:18 13.07.2022
2643 Clear 32 1018 39 10000 5.14 230 13:50 13.07.2022
2644 Clear 32 1018 43 10000 3.6 250 11:33 13.07.2022
2645 Clear 31 1018 46 10000 1.79 192 10:44 13.07.2022
2646 Clear 28 1021 57 10000 0.51 350 09:30 13.07.2022
2647 Clear 26 1021 59 10000 0.51 0 08:24 13.07.2022
2648 Clear 23 1020 71 10000 1.34 321 04:50 13.07.2022
2649 Clear 25 1021 73 10000 1.34 336 00:49 13.07.2022
2650 Clear 27 1020 72 10000 3.09 250 22:48 12.07.2022
2651 Clear 28 1020 65 10000 2.57 240 21:49 12.07.2022
2652 Clear 28 1019 58 10000 3.13 194 20:54 12.07.2022
2653 Clear 31 1016 47 10000 3.6 230 20:21 12.07.2022
2654 Clear 31 1016 41 10000 4.63 250 18:53 12.07.2022
2655 Clear 32 1016 36 10000 6.69 240 17:29 12.07.2022
2656 Clear 32 1017 41 10000 7.72 250 15:35 12.07.2022
2657 Clouds 32 1017 40 10000 5.66 230 13:44 12.07.2022
2658 Clear 33 1016 33 10000 2.57 90 11:59 12.07.2022
2659 Clear 32 1016 35 10000 2.57 60 10:46 12.07.2022
2660 Clear 29 1019 49 10000 1.34 18 09:19 12.07.2022
2661 Clear 23 1018 68 10000 1.54 50 07:57 12.07.2022
2662 Clear 21 1019 71 10000 2.06 70 05:54 12.07.2022
2663 Clear 21 1019 70 10000 1.34 346 05:35 12.07.2022
2664 Clear 25 1018 65 10000 1.03 50 01:43 12.07.2022
2665 Clear 26 1017 64 10000 0 0 22:52 11.07.2022
2666 Clear 28 1017 62 10000 1.03 0 21:44 11.07.2022
2667 Clear 28 1016 59 10000 4.12 230 20:33 11.07.2022
2668 Clear 31 1015 47 10000 4.63 230 19:33 11.07.2022
2669 Clouds 30 1015 50 10000 5.14 230 18:32 11.07.2022
2670 Clouds 31 1015 46 10000 5.66 220 17:36 11.07.2022
2671 Clouds 31 1015 49 10000 5.14 230 15:46 11.07.2022
2672 Clear 31 1015 42 10000 5.14 220 14:32 11.07.2022
2673 Clear 31 1015 46 10000 4.12 240 11:40 11.07.2022
2674 Clear 31 1015 39 10000 1.34 122 10:22 11.07.2022
2675 Clear 30 1015 41 10000 0.89 215 09:42 11.07.2022
2676 Clear 25 1016 57 10000 1.54 80 08:33 11.07.2022
2677 Clear 22 1016 69 10000 1.03 0 04:34 11.07.2022
2678 Clear 25 1017 66 10000 1.54 60 00:20 11.07.2022
2679 Clear 27 1017 63 10000 1.54 220 22:56 10.07.2022
2680 Clear 28 1017 65 10000 3.6 230 21:51 10.07.2022
2681 Clouds 28 1016 59 10000 3.6 230 20:54 10.07.2022
2682 Clouds 29 1016 50 10000 4.63 220 19:50 10.07.2022
2683 Clouds 31 1015 42 10000 5.14 210 18:48 10.07.2022
2684 Clouds 31 1015 40 10000 6.17 210 17:37 10.07.2022
2685 Clouds 32 1015 39 10000 5.66 210 16:57 10.07.2022
2686 Clouds 32 1015 32 10000 6.17 220 15:33 10.07.2022
2687 Clear 33 1015 34 10000 5.66 220 14:30 10.07.2022
2688 Clear 32 1015 34 10000 2.24 179 12:29 10.07.2022
2689 Clear 32 1015 33 10000 1.79 227 11:20 10.07.2022
2690 Clear 26 1018 50 10000 0.51 350 08:45 10.07.2022
2691 Clear 22 1018 66 10000 1.03 0 07:59 10.07.2022
2692 Clear 23 1020 65 10000 0.51 0 02:50 10.07.2022
2693 Clear 27 1020 60 10000 1.03 210 22:59 09.07.2022
2694 Clear 27 1020 60 10000 1.54 210 22:25 09.07.2022
2695 Clear 28 1020 56 10000 3.6 220 21:29 09.07.2022
2696 Clouds 29 1020 54 10000 4.63 220 18:45 09.07.2022
2697 Clouds 31 1017 45 10000 5.66 230 17:48 09.07.2022
2698 Clouds 31 1017 46 10000 6.69 240 16:59 09.07.2022
2699 Clouds 30 1018 48 10000 7.2 240 15:44 09.07.2022
2700 Clear 31 1018 47 10000 7.2 230 15:25 09.07.2022
2701 Clear 31 1018 45 10000 4.02 248 13:51 09.07.2022
2702 Clear 32 1018 33 10000 5.14 60 13:27 09.07.2022
2703 Clouds 32 1018 36 10000 4.63 60 11:33 09.07.2022
2704 Clouds 30 1022 43 10000 7.2 60 10:24 09.07.2022
2705 Clear 25 1022 61 10000 0.51 10 08:25 09.07.2022
2706 Clear 21 1022 70 10000 1.54 360 06:59 09.07.2022
2707 Clear 22 1022 69 10000 1.03 0 04:34 09.07.2022
2708 Clouds 26 1023 57 10000 1.03 0 23:22 08.07.2022
2709 Clouds 26 1022 63 10000 2.57 70 21:59 08.07.2022
2710 Clouds 27 1022 61 10000 4.12 70 21:18 08.07.2022
2711 Clouds 28 1021 60 10000 2.68 173 20:30 08.07.2022
2712 Clouds 30 1017 48 10000 3.6 140 18:36 08.07.2022
2713 Clouds 32 1017 42 10000 4.63 140 17:45 08.07.2022
2714 Clouds 32 1017 34 10000 5.66 230 15:30 08.07.2022
2715 Clouds 31 1017 35 10000 5.66 240 14:49 08.07.2022
2716 Clouds 30 1022 42 10000 3.09 230 12:30 08.07.2022
2717 Clouds 29 1022 50 10000 2.06 220 10:46 08.07.2022
2718 Clouds 27 1022 60 10000 0.89 326 09:24 08.07.2022
2719 Clouds 21 1018 76 10000 1.54 30 06:55 08.07.2022
2720 Clouds 22 1018 75 10000 0.45 270 04:32 08.07.2022
2721 Clouds 25 1018 66 10000 2.06 220 00:23 08.07.2022
2722 Clouds 27 1020 68 10000 3.09 210 22:47 07.07.2022
2723 Clouds 27 1020 65 10000 3.6 210 21:41 07.07.2022
2724 Clouds 28 1021 58 10000 5.66 210 19:28 07.07.2022
2725 Clouds 29 1022 59 10000 8.75 250 17:42 07.07.2022
2726 Clouds 29 1022 60 10000 8.75 230 15:58 07.07.2022
2727 Clouds 30 1022 41 10000 6.69 70 13:32 07.07.2022
2728 Clouds 30 1022 41 10000 8.75 60 12:40 07.07.2022
2729 Clouds 31 1022 41 10000 8.75 60 12:21 07.07.2022
2730 Clear 30 1021 43 10000 7.72 70 11:32 07.07.2022
2731 Clear 30 1021 45 10000 9.77 60 10:45 07.07.2022
2732 Clear 29 1021 48 10000 7.72 60 10:26 07.07.2022
2733 Clear 27 1016 55 10000 1.34 50 08:40 07.07.2022
2734 Clear 24 1016 67 10000 1.54 140 05:44 07.07.2022
2735 Clear 26 1015 49 10000 1.34 52 23:54 06.07.2022
2736 Clear 27 1016 51 10000 4.12 70 23:36 06.07.2022
2737 Clear 27 1016 46 10000 4.12 70 23:18 06.07.2022
2738 Clear 27 1013 32 10000 4.12 70 22:47 06.07.2022
2739 Clear 27 1013 32 10000 4.12 70 22:47 06.07.2022
2740 Clear 28 1015 32 10000 4.63 70 22:28 06.07.2022
2741 Clear 31 1017 33 10000 7.72 50 19:46 06.07.2022
2742 Clear 32 1018 38 10000 5.14 60 18:48 06.07.2022
2743 Clouds 33 1019 39 10000 8.23 60 16:58 06.07.2022
2744 Clouds 32 1019 38 10000 7.2 40 15:50 06.07.2022
2745 Clouds 31 1016 40 10000 5.66 80 12:44 06.07.2022
2746 Rain 30 1017 42 10000 5.66 70 11:52 06.07.2022
2747 Clear 29 1016 44 10000 8.75 70 10:49 06.07.2022
2748 Clouds 28 1015 50 10000 8.23 60 09:21 06.07.2022
2749 Clouds 26 1015 67 10000 4.63 60 07:44 06.07.2022
2750 Clouds 26 1015 70 10000 1.79 319 06:44 06.07.2022
2751 Clouds 27 1015 64 10000 4.63 50 23:42 05.07.2022
2752 Clouds 28 1017 69 10000 5.14 70 22:42 05.07.2022
2753 Clear 29 1017 62 10000 4.12 280 20:48 05.07.2022
2754 Clear 29 1017 62 10000 4.12 280 20:21 05.07.2022
2755 Clear 30 1017 62 10000 3.6 310 19:37 05.07.2022
2756 Clouds 31 1017 56 10000 6.17 280 17:50 05.07.2022
2757 Clouds 32 1012 44 10000 6.69 260 17:19 05.07.2022
2758 Clouds 33 1012 42 10000 4.63 230 16:18 05.07.2022
2759 Clear 33 1018 49 10000 5.66 240 14:54 05.07.2022
2760 Clear 32 1019 48 10000 6.69 50 13:34 05.07.2022
2761 Clear 31 1018 53 10000 6.69 60 12:22 05.07.2022
2762 Clear 31 1014 47 10000 9.26 60 10:45 05.07.2022
2763 Clear 30 1014 53 10000 9.26 70 09:52 05.07.2022
2764 Clouds 27 1014 78 9000 7.2 60 08:21 05.07.2022
2765 Clouds 24 1015 83 10000 2.06 70 06:51 05.07.2022
2766 Clouds 25 1014 83 10000 2.06 50 04:35 05.07.2022
2767 Clear 26 1013 76 10000 1.54 30 01:26 05.07.2022
2768 Clear 27 1013 80 10000 0.89 230 23:37 04.07.2022
2769 Clear 27 1009 77 10000 1.03 0 22:56 04.07.2022
2770 Clear 28 1009 67 10000 2.06 250 22:18 04.07.2022
2771 Clear 29 1011 63 10000 1.54 300 20:56 04.07.2022
2772 Clear 30 1011 60 10000 2.06 190 20:36 04.07.2022
2773 Clouds 30 1015 61 10000 3.09 220 19:56 04.07.2022
2774 Clouds 30 1015 63 10000 2.06 160 19:37 04.07.2022
2775 Clouds 31 1015 57 10000 3.13 111 18:51 04.07.2022
2776 Clouds 31 1016 60 10000 4.12 210 16:54 04.07.2022
2777 Clouds 31 1017 67 10000 6.17 230 15:35 04.07.2022
2778 Clouds 30 1017 69 10000 5.14 230 13:47 04.07.2022
2779 Clouds 30 1017 70 10000 4.12 230 12:42 04.07.2022
2780 Clear 31 1011 60 10000 4.12 240 10:57 04.07.2022
2781 Clear 30 1011 59 10000 4.12 230 10:27 04.07.2022
2782 Clear 28 1017 65 10000 2.68 179 09:21 04.07.2022
2783 Clear 24 1012 71 10000 4.12 70 06:27 04.07.2022
2784 Clear 25 1014 69 10000 2.06 80 02:59 04.07.2022
2785 Clear 26 1013 59 10000 1.54 70 23:52 03.07.2022
2786 Clear 28 1013 57 10000 2.06 80 22:36 03.07.2022
2787 Clear 29 1016 56 10000 0.51 0 20:46 03.07.2022
2788 Clear 31 1016 52 10000 2.06 230 19:52 03.07.2022
2789 Clear 31 1016 52 10000 2.06 230 19:24 03.07.2022
2790 Clear 31 1016 49 10000 2.06 220 18:27 03.07.2022
2791 Clear 30 1017 52 10000 5.14 220 17:38 03.07.2022
2792 Clear 30 1017 53 10000 2.68 228 15:28 03.07.2022
2793 Clear 30 1018 55 10000 3.6 230 14:53 03.07.2022
2794 Clear 31 1018 45 10000 6.17 230 13:50 03.07.2022
2795 Clear 31 1018 47 10000 3.09 330 12:47 03.07.2022
2796 Clear 32 1011 30 10000 2.57 340 12:19 03.07.2022
2797 Clear 29 1010 40 10000 0.89 45 10:54 03.07.2022
2798 Clear 28 1012 48 10000 2.57 90 10:36 03.07.2022
2799 Clear 24 1014 55 10000 2.57 80 07:38 03.07.2022
2800 Clear 24 1014 53 10000 4.12 60 06:52 03.07.2022
2801 Clear 26 1012 29 10000 3.09 80 00:41 03.07.2022
2802 Clear 27 1018 47 10000 2.57 70 23:38 02.07.2022
2803 Clear 27 1018 36 10000 3.09 70 22:31 02.07.2022
2804 Clear 31 1011 20 10000 4.12 80 20:31 02.07.2022
2805 Clear 32 1017 28 10000 4.63 80 19:49 02.07.2022
2806 Clear 33 1018 31 10000 4.12 100 18:48 02.07.2022
2807 Clear 33 1018 33 10000 4.12 90 17:40 02.07.2022
2808 Clear 33 1018 33 10000 5.14 120 16:32 02.07.2022
2809 Clear 32 1018 38 10000 4.63 90 13:51 02.07.2022
2810 Clear 29 1019 45 10000 4.63 90 11:51 02.07.2022
2811 Clear 27 1020 52 10000 5.14 70 10:52 02.07.2022
2812 Clear 27 1020 56 10000 4.02 61 10:25 02.07.2022
2813 Clear 24 1016 62 10000 2.24 29 08:39 02.07.2022
2814 Clear 24 1016 62 10000 2.24 29 08:19 02.07.2022
2815 Clear 22 1015 68 10000 4.12 50 05:51 02.07.2022
2816 Clear 24 1017 65 10000 2.57 30 00:34 02.07.2022
2817 Clear 24 1016 60 10000 2.06 40 23:30 01.07.2022
2818 Clear 25 1019 63 10000 3.09 80 22:35 01.07.2022
2819 Clear 27 1017 50 10000 3.6 70 21:39 01.07.2022
2820 Clear 27 1018 53 10000 4.12 70 20:59 01.07.2022
2821 Clear 27 1018 52 10000 5.14 60 20:37 01.07.2022
2822 Clouds 27 1017 64 10000 2.06 230 19:40 01.07.2022
2823 Clouds 28 1018 63 10000 3.6 240 17:45 01.07.2022
2824 Clouds 29 1018 47 10000 6.69 60 15:21 01.07.2022
2825 Clouds 28 1018 51 10000 7.72 50 13:54 01.07.2022
2826 Clouds 27 1018 53 10000 8.23 60 11:48 01.07.2022
2827 Clouds 25 1017 62 10000 8.75 70 10:19 01.07.2022
2828 Clouds 25 1013 63 10000 8.75 60 08:46 01.07.2022
2829 Clear 23 1010 80 10000 1.54 90 02:49 01.07.2022
2830 Clouds 24 1011 77 10000 1.54 40 00:25 01.07.2022
2831 Clouds 25 1013 80 10000 1.79 132 22:54 30.06.2022
2832 Clouds 25 1013 79 10000 1.34 144 22:33 30.06.2022
2833 Clouds 25 1012 78 10000 1.54 220 21:59 30.06.2022
2834 Clouds 26 1012 75 10000 2.06 210 21:35 30.06.2022
2835 Clouds 27 1012 71 10000 3.6 230 20:22 30.06.2022
2836 Clouds 27 1011 72 10000 3.6 230 19:53 30.06.2022
2837 Clouds 27 1011 70 10000 4.63 240 19:18 30.06.2022
2838 Clouds 27 1011 68 10000 5.66 240 18:35 30.06.2022
2839 Clouds 28 1012 72 10000 5.66 240 17:38 30.06.2022
2840 Clouds 28 1012 67 10000 5.66 240 16:48 30.06.2022
2841 Clouds 28 1012 67 10000 6.17 240 15:27 30.06.2022
2842 Clouds 28 1013 63 10000 4.63 230 13:34 30.06.2022
2843 Clouds 28 1013 61 10000 4.63 240 12:35 30.06.2022
2844 Clouds 27 1013 63 10000 3.6 240 11:37 30.06.2022
2845 Clouds 26 1013 67 10000 1.03 0 09:54 30.06.2022
2846 Clouds 26 1013 65 10000 1.54 20 09:34 30.06.2022
2847 Clouds 23 1012 69 10000 1.54 10 08:18 30.06.2022
2848 Clear 20 1012 77 10000 0.89 11 06:21 30.06.2022
2849 Clear 23 1013 83 10000 1.03 60 01:42 30.06.2022
2850 Clear 25 1013 75 10000 0.51 170 23:34 29.06.2022
2851 Clear 25 1013 72 10000 2.06 200 22:40 29.06.2022
2852 Clear 25 1012 75 10000 3.6 240 21:39 29.06.2022
2853 Clear 26 1012 72 10000 4.63 250 20:34 29.06.2022
2854 Clouds 28 1013 63 10000 5.66 240 19:37 29.06.2022
2855 Clouds 28 1014 64 10000 6.69 230 17:45 29.06.2022
2856 Clouds 28 1014 63 10000 7.2 240 16:43 29.06.2022
2857 Clouds 29 1015 55 10000 6.17 230 15:26 29.06.2022
2858 Clouds 29 1016 56 10000 4.63 230 12:49 29.06.2022
2859 Clouds 28 1016 58 10000 3.13 200 11:47 29.06.2022
2860 Clouds 26 1017 69 10000 1.03 0 09:34 29.06.2022
2861 Clouds 24 1017 71 10000 1.03 0 08:42 29.06.2022
2862 Clouds 20 1016 84 10000 1.03 30 05:19 29.06.2022
2863 Clouds 21 1017 79 10000 0.45 332 02:21 29.06.2022
2864 Clouds 23 1018 78 10000 1.03 160 00:38 29.06.2022
2865 Clouds 24 1018 76 10000 2.68 213 23:26 28.06.2022
2866 Clouds 25 1017 73 10000 2.24 219 22:48 28.06.2022
2867 Clouds 25 1017 73 10000 3.6 230 21:55 28.06.2022
2868 Clouds 25 1017 70 10000 4.63 240 21:33 28.06.2022
2869 Clouds 26 1017 67 10000 6.17 230 20:51 28.06.2022
2870 Clouds 27 1016 60 10000 7.2 240 19:48 28.06.2022
2871 Clouds 28 1016 51 10000 7.72 240 19:24 28.06.2022
2872 Clouds 29 1016 43 10000 8.23 240 17:49 28.06.2022
2873 Clouds 30 1017 41 10000 7.2 230 16:29 28.06.2022
2874 Clouds 30 1017 41 10000 6.69 230 15:53 28.06.2022
2875 Clouds 28 1018 50 10000 6.17 230 14:22 28.06.2022
2876 Clouds 28 1018 51 10000 6.17 230 13:55 28.06.2022
2877 Clouds 27 1018 55 10000 6.17 220 13:32 28.06.2022
2878 Clouds 27 1018 60 10000 4.63 230 11:57 28.06.2022
2879 Clouds 26 1018 56 10000 1.54 20 09:46 28.06.2022
2880 Clouds 25 1018 60 10000 3.09 340 08:46 28.06.2022
2881 Clouds 24 1018 72 10000 2.06 350 07:58 28.06.2022
2882 Clouds 23 1017 75 10000 2.24 279 07:19 28.06.2022
2883 Clouds 24 1017 81 10000 1.03 50 02:25 28.06.2022
2884 Clouds 25 1018 77 10000 3.09 70 23:47 27.06.2022
2885 Clouds 25 1017 76 10000 3.09 60 22:56 27.06.2022
2886 Clouds 26 1016 71 10000 2.57 50 21:39 27.06.2022
2887 Clouds 26 1016 72 10000 2.57 50 21:18 27.06.2022
2888 Clouds 27 1015 69 10000 3.6 60 19:48 27.06.2022
2889 Clouds 28 1014 65 10000 4.12 60 18:45 27.06.2022
2890 Clouds 28 1015 69 10000 4.63 60 17:26 27.06.2022
2891 Clouds 29 1014 67 10000 4.02 228 15:43 27.06.2022
2892 Clouds 27 1014 76 10000 4.47 198 14:18 27.06.2022
2893 Clouds 30 1014 56 10000 5.66 60 12:58 27.06.2022
2894 Clouds 29 1014 60 10000 3.6 60 11:30 27.06.2022
2895 Clouds 26 1014 76 10000 0.51 40 09:45 27.06.2022
2896 Clouds 23 1013 78 10000 0.51 0 08:43 27.06.2022
2897 Clouds 22 1012 77 10000 1.03 0 07:39 27.06.2022
2898 Clear 21 1011 84 10000 2.06 60 05:22 27.06.2022
2899 Clouds 23 1012 82 10000 1.03 0 01:22 27.06.2022
2900 Clouds 25 1011 78 10000 0.51 0 22:59 26.06.2022
2901 Clear 26 1009 68 10000 3.6 210 21:38 26.06.2022
2902 Clouds 27 1009 68 10000 4.63 210 20:28 26.06.2022
2903 Clouds 28 1010 62 10000 5.66 230 18:33 26.06.2022
2904 Clouds 27 1010 66 10000 5.66 220 17:47 26.06.2022
2905 Clouds 29 1010 64 10000 6.17 230 15:37 26.06.2022
2906 Clouds 28 1011 70 10000 6.69 230 14:23 26.06.2022
2907 Clouds 29 1010 67 10000 7.2 220 13:24 26.06.2022
2908 Clouds 30 1010 50 10000 2.06 80 11:41 26.06.2022
2909 Clouds 28 1011 63 10000 2.57 70 10:42 26.06.2022
2910 Clouds 28 1011 66 10000 2.57 70 10:19 26.06.2022
2911 Clouds 24 1010 79 10000 2.06 340 08:27 26.06.2022
2912 Clouds 22 1010 82 10000 1.79 31 06:31 26.06.2022
2913 Clear 24 1012 81 10000 0 0 00:37 26.06.2022
2914 Clear 24 1012 81 10000 0 0 00:19 26.06.2022
2915 Clear 25 1012 77 10000 1.03 200 23:31 25.06.2022
2916 Clear 25 1012 75 10000 1.03 190 22:48 25.06.2022
2917 Clear 25 1011 73 10000 2.06 180 22:25 25.06.2022
2918 Clear 25 1011 73 10000 3.6 240 21:21 25.06.2022
2919 Clear 25 1010 72 10000 3.6 240 20:48 25.06.2022
2920 Clouds 27 1010 68 10000 3.6 240 20:25 25.06.2022
2921 Clouds 27 1011 68 10000 6.69 230 18:24 25.06.2022
2922 Clouds 27 1011 67 10000 6.69 230 17:27 25.06.2022
2923 Clouds 28 1012 64 10000 5.66 240 16:28 25.06.2022
2924 Clouds 28 1012 67 10000 6.69 240 14:43 25.06.2022
2925 Clouds 27 1013 69 10000 6.69 240 12:51 25.06.2022
2926 Clouds 27 1013 68 10000 6.69 230 12:32 25.06.2022
2927 Clear 26 1013 66 10000 0.51 0 09:35 25.06.2022
2928 Clear 25 1013 70 10000 0.51 340 08:55 25.06.2022
2929 Clear 23 1013 73 10000 0.89 360 08:25 25.06.2022
2930 Clear 20 1013 82 10000 0.45 340 06:36 25.06.2022
2931 Clouds 24 1015 77 10000 1.03 0 01:31 25.06.2022
2932 Clouds 25 1014 71 10000 1.54 110 23:58 24.06.2022
2933 Clouds 26 1014 69 10000 1.03 310 22:29 24.06.2022
2934 Clouds 27 1013 62 10000 2.57 210 21:28 24.06.2022
2935 Clouds 29 1013 48 10000 4.12 210 20:24 24.06.2022
2936 Clouds 29 1013 49 10000 5.14 210 19:39 24.06.2022
2937 Clouds 29 1013 50 10000 5.14 210 19:18 24.06.2022
2938 Clouds 30 1013 50 10000 6.17 220 18:44 24.06.2022
2939 Clouds 30 1013 50 10000 5.14 210 18:24 24.06.2022
2940 Clouds 28 1014 69 10000 4.12 220 16:48 24.06.2022
2941 Clouds 27 1014 69 10000 6.17 210 14:57 24.06.2022
2942 Clouds 26 1014 71 10000 6.17 220 14:24 24.06.2022
2943 Clouds 27 1014 68 10000 5.14 240 13:46 24.06.2022
2944 Clouds 26 1014 75 10000 7.2 230 11:42 24.06.2022
2945 Clouds 26 1014 74 10000 5.81 190 10:39 24.06.2022
2946 Clouds 25 1015 70 10000 6.17 240 09:42 24.06.2022
2947 Clouds 25 1014 72 10000 4.63 240 08:54 24.06.2022
2948 Clouds 25 1014 75 10000 3.6 240 08:32 24.06.2022
2949 Clouds 24 1014 80 10000 3.09 210 06:45 24.06.2022
2950 Clouds 24 1014 84 10000 2.57 210 06:26 24.06.2022
2951 Clouds 24 1015 82 10000 4.12 210 04:50 24.06.2022
2952 Clear 24 1015 74 10000 3.09 240 23:43 23.06.2022
2953 Clear 24 1015 74 10000 3.09 240 23:43 23.06.2022
2954 Clear 25 1015 71 10000 3.09 220 22:43 23.06.2022
2955 Clear 25 1014 72 10000 3.09 220 21:40 23.06.2022
2956 Clear 24 1015 77 10000 5.14 220 20:42 23.06.2022
2957 Clear 25 1014 77 10000 5.66 210 19:55 23.06.2022
2958 Clear 26 1014 74 10000 6.17 210 18:43 23.06.2022
2959 Clear 27 1014 62 10000 6.69 220 17:35 23.06.2022
2960 Clouds 27 1015 64 10000 6.17 230 16:32 23.06.2022
2961 Clouds 28 1015 56 10000 6.69 220 15:26 23.06.2022
2962 Clouds 28 1015 62 10000 7.2 230 14:45 23.06.2022
2963 Clouds 25 1015 74 10000 7.2 220 11:49 23.06.2022
2964 Clouds 25 1014 70 10000 8.23 230 10:42 23.06.2022
2965 Clouds 24 1014 77 10000 7.72 230 09:19 23.06.2022
2966 Rain 20 1012 93 10000 3.09 50 05:37 23.06.2022
2967 Rain 25 1013 73 10000 5.66 230 01:21 23.06.2022
2968 Clouds 25 1013 71 10000 6.17 220 00:18 23.06.2022
2969 Clouds 26 1012 73 10000 4.12 220 23:22 22.06.2022
2970 Clouds 26 1011 71 10000 3.6 220 21:44 22.06.2022
2971 Clouds 26 1011 69 10000 4.12 220 20:52 22.06.2022
2972 Clouds 27 1011 69 10000 4.63 220 20:20 22.06.2022
2973 Clouds 27 1011 68 10000 4.63 220 19:43 22.06.2022
2974 Clouds 29 1011 63 10000 6.17 220 17:40 22.06.2022
2975 Clouds 29 1011 63 10000 6.69 220 16:43 22.06.2022
2976 Clouds 29 1012 67 10000 6.69 230 15:29 22.06.2022
2977 Clouds 29 1012 62 10000 7.2 230 14:51 22.06.2022
2978 Clouds 28 1012 68 10000 7.2 220 13:48 22.06.2022
2979 Clouds 28 1012 69 10000 7.2 220 13:24 22.06.2022
2980 Clouds 28 1011 68 10000 7.2 220 12:18 22.06.2022
2981 Clouds 28 1011 62 10000 6.17 220 11:45 22.06.2022
2982 Clouds 29 1011 64 10000 6.69 220 11:45 22.06.2022
2983 Clouds 28 1011 67 10000 7.72 220 10:47 22.06.2022
2984 Clouds 26 1011 86 10000 4.12 190 09:40 22.06.2022
2985 Clouds 25 1012 79 10000 1.34 160 06:55 22.06.2022
2986 Rain 26 1010 82 10000 2.68 308 02:26 22.06.2022
2987 Clouds 26 1013 79 9000 4.12 260 00:57 22.06.2022
2988 Clouds 26 1013 80 9000 4.12 260 00:57 22.06.2022
2989 Rain 28 1009 68 10000 1.03 0 22:53 21.06.2022
2990 Clouds 30 1009 47 10000 5.14 340 21:21 21.06.2022
2991 Rain 29 1009 52 10000 1.03 0 19:30 21.06.2022
2992 Rain 29 1009 52 10000 1.03 0 19:30 21.06.2022
2993 Clouds 29 1011 54 10000 1.34 190 17:56 21.06.2022
2994 Clouds 30 1011 70 10000 5.14 230 16:47 21.06.2022
2995 Clouds 28 1013 72 10000 6.69 240 12:23 21.06.2022
2996 Clouds 28 1011 72 10000 1.54 310 10:47 21.06.2022
2997 Clouds 26 1012 81 8000 1.03 0 09:35 21.06.2022
2998 Clouds 24 1012 87 9000 0 0 07:56 21.06.2022
2999 Clear 24 1011 82 10000 1.54 90 04:59 21.06.2022
3000 Clouds 25 1012 77 10000 1.54 90 00:31 21.06.2022
3001 Clouds 28 1012 70 10000 3.09 170 22:21 20.06.2022
3002 Clouds 29 1011 70 10000 2.06 170 21:40 20.06.2022
3003 Clear 30 1010 67 10000 2.57 240 20:30 20.06.2022
3004 Clear 29 1010 78 10000 5.14 290 19:37 20.06.2022
3005 Clear 29 1011 78 10000 3.6 270 18:43 20.06.2022
3006 Clear 31 1011 62 10000 4.12 250 17:50 20.06.2022
3007 Clear 30 1011 65 10000 5.66 250 16:53 20.06.2022
3008 Clouds 30 1013 62 10000 7.2 250 15:52 20.06.2022
3009 Clear 31 1011 64 10000 3.6 270 12:38 20.06.2022
3010 Clouds 28 1012 69 9000 0.51 160 10:32 20.06.2022
3011 Clouds 25 1012 81 9000 1.03 0 08:57 20.06.2022
3012 Clouds 24 1011 85 9000 0 0 08:20 20.06.2022
3013 Clear 24 1011 82 10000 1.54 70 05:35 20.06.2022
3014 Clear 25 1013 76 10000 2.57 60 01:33 20.06.2022
3015 Clear 25 1013 66 10000 2.06 70 00:25 20.06.2022
3016 Clear 26 1012 59 10000 1.34 116 22:50 19.06.2022
3017 Clear 28 1011 51 10000 2.57 130 21:51 19.06.2022
3018 Clear 28 1012 48 10000 3.13 93 21:31 19.06.2022
3019 Clear 28 1012 47 10000 5.14 130 20:38 19.06.2022
3020 Clear 30 1012 41 10000 5.66 150 19:47 19.06.2022
3021 Clear 31 1012 36 10000 7.2 160 18:45 19.06.2022
3022 Clear 31 1012 42 10000 7.15 130 17:54 19.06.2022
3023 Clear 33 1012 38 10000 7.2 170 17:22 19.06.2022
3024 Clear 32 1012 41 10000 6.69 150 16:35 19.06.2022
3025 Clear 33 1012 38 10000 6.69 160 15:41 19.06.2022
3026 Clear 33 1012 39 10000 7.2 140 14:57 19.06.2022
3027 Clear 34 1012 34 10000 6.17 150 14:19 19.06.2022
3028 Clear 34 1012 32 10000 6.69 140 13:23 19.06.2022
3029 Clear 32 1012 43 10000 5.36 130 11:21 19.06.2022
3030 Clear 29 1013 55 10000 3.6 80 09:58 19.06.2022
3031 Clear 28 1012 57 10000 4.12 60 08:49 19.06.2022
3032 Clear 26 1012 62 10000 3.6 70 08:19 19.06.2022
3033 Clear 23 1013 60 10000 2.06 60 05:42 19.06.2022
3034 Clouds 24 1014 74 10000 1.79 5 02:26 19.06.2022
3035 Clear 25 1015 74 10000 3.09 50 00:25 19.06.2022
3036 Clear 26 1014 74 10000 3.6 50 23:36 18.06.2022
3037 Clear 26 1014 72 10000 2.68 73 22:44 18.06.2022
3038 Clear 27 1014 79 10000 2.06 320 21:38 18.06.2022
3039 Clouds 27 1014 79 10000 3.6 330 20:42 18.06.2022
3040 Clear 30 1014 69 10000 3.6 250 19:40 18.06.2022
3041 Clear 30 1014 69 10000 3.6 230 18:54 18.06.2022
3042 Clear 31 1015 65 10000 5.14 230 17:35 18.06.2022
3043 Clear 31 1015 63 10000 5.66 240 16:59 18.06.2022
3044 Clear 32 1015 55 10000 5.66 240 15:37 18.06.2022
3045 Clear 32 1015 37 10000 4.63 250 14:48 18.06.2022
3046 Clear 31 1016 48 10000 4.12 240 13:42 18.06.2022
3047 Clear 35 1017 29 10000 2.57 40 11:58 18.06.2022
3048 Clear 34 1017 33 10000 2.06 360 10:56 18.06.2022
3049 Clear 33 1017 34 10000 2.06 360 10:56 18.06.2022
3050 Clear 29 1018 46 10000 2.57 50 09:28 18.06.2022
3051 Clear 26 1018 50 10000 2.06 40 08:32 18.06.2022
3052 Clear 23 1018 58 10000 0.89 340 07:23 18.06.2022
3053 Clear 24 1018 53 10000 1.03 40 04:20 18.06.2022
3054 Clear 27 1018 45 10000 2.06 40 01:27 18.06.2022
3055 Clear 27 1019 46 10000 0.89 333 00:50 18.06.2022
3056 Clear 28 1019 42 10000 1.34 337 00:21 18.06.2022
3057 Clear 29 1018 39 10000 3.09 60 23:29 17.06.2022
3058 Clear 33 1017 38 10000 2.57 60 21:44 17.06.2022
3059 Clear 34 1018 40 10000 0.89 134 20:29 17.06.2022
3060 Clear 32 1018 49 10000 3.6 220 19:19 17.06.2022
3061 Clear 32 1019 47 10000 4.12 220 17:47 17.06.2022
3062 Clear 31 1019 54 10000 4.63 220 16:44 17.06.2022
3063 Clear 32 1019 55 10000 4.63 220 16:19 17.06.2022
3064 Clear 32 1018 55 10000 4.12 230 15:37 17.06.2022
3065 Clear 32 1018 55 10000 4.12 230 15:37 17.06.2022
3066 Clear 32 1020 42 10000 5.14 210 14:23 17.06.2022
3067 Clear 31 1020 44 10000 5.66 220 13:58 17.06.2022
3068 Clear 31 1020 44 10000 5.66 230 13:38 17.06.2022
3069 Clear 33 1019 40 10000 4.63 240 12:24 17.06.2022
3070 Clear 32 1019 37 10000 3.09 240 11:50 17.06.2022
3071 Clear 34 1015 23 10000 2.06 230 11:32 17.06.2022
3072 Clear 29 1013 36 10000 0.89 204 08:56 17.06.2022
3073 Clear 27 1015 44 10000 1.03 0 08:25 17.06.2022
3074 Clear 22 1014 50 10000 1.79 355 06:42 17.06.2022
3075 Clear 23 1014 48 10000 1.03 60 03:45 17.06.2022
3076 Clear 24 1015 44 10000 0.45 270 01:55 17.06.2022
3077 Clear 27 1015 38 10000 1.03 120 23:35 16.06.2022
3078 Clear 28 1015 40 10000 1.03 190 22:41 16.06.2022
3079 Clear 29 1018 48 10000 1.03 200 21:22 16.06.2022
3080 Clear 30 1019 43 10000 1.54 210 20:51 16.06.2022
3081 Clear 31 1018 38 10000 2.57 220 20:32 16.06.2022
3082 Clear 31 1018 35 10000 4.63 240 19:32 16.06.2022
3083 Clear 31 1019 44 10000 6.17 240 17:57 16.06.2022
3084 Clear 31 1019 38 10000 5.14 240 17:35 16.06.2022
3085 Clear 32 1019 36 10000 6.17 230 16:30 16.06.2022
3086 Clear 33 1018 33 10000 6.69 240 15:21 16.06.2022
3087 Clear 31 1019 45 10000 4.92 175 14:30 16.06.2022
3088 Clear 33 1019 32 10000 3.6 230 13:19 16.06.2022
3089 Clear 33 1019 27 10000 2.57 260 12:35 16.06.2022
3090 Clear 32 1019 28 10000 2.57 230 11:49 16.06.2022
3091 Clear 32 1019 32 10000 1.34 161 10:54 16.06.2022
3092 Clear 31 1019 38 10000 0.51 0 09:43 16.06.2022
3093 Clear 28 1019 46 10000 0.51 0 09:21 16.06.2022
3094 Clear 27 1014 43 10000 0 0 08:28 16.06.2022
3095 Clear 23 1014 50 10000 1.79 360 07:24 16.06.2022
3096 Clear 23 1014 50 10000 1.54 330 04:42 16.06.2022
3097 Clear 24 1014 45 10000 1.34 348 02:19 16.06.2022
3098 Clear 25 1014 44 10000 0.51 0 01:35 16.06.2022
3099 Clear 26 1014 42 10000 1.03 0 00:39 16.06.2022
3100 Clear 26 1012 36 10000 1.54 220 23:33 15.06.2022
3101 Clear 27 1012 31 10000 1.03 280 22:35 15.06.2022
3102 Clear 29 1011 36 10000 3.6 330 21:22 15.06.2022
3103 Clear 32 1016 43 10000 2.57 190 20:42 15.06.2022
3104 Clear 32 1016 43 10000 2.57 190 20:23 15.06.2022
3105 Clear 32 1013 34 10000 5.14 240 19:20 15.06.2022
3106 Clear 33 1017 27 10000 4.12 240 17:56 15.06.2022
3107 Clear 32 1017 38 10000 4.12 240 16:55 15.06.2022
3108 Clear 31 1018 40 10000 4.12 240 15:36 15.06.2022
3109 Clear 31 1018 37 10000 3.6 240 14:18 15.06.2022
3110 Clear 31 1019 44 10000 3.6 230 12:54 15.06.2022
3111 Clear 33 1012 31 10000 6.17 240 11:53 15.06.2022
3112 Clear 30 1017 36 10000 3.58 213 10:24 15.06.2022
3113 Clear 28 1017 40 10000 2.06 320 09:42 15.06.2022
3114 Clear 27 1011 37 10000 1.54 20 08:40 15.06.2022
3115 Clouds 22 1013 46 10000 1.03 0 06:34 15.06.2022
3116 Clouds 24 1013 45 10000 1.54 40 04:34 15.06.2022
3117 Clear 24 1014 39 10000 1.03 0 01:54 15.06.2022
3118 Clear 24 1014 40 10000 0.51 0 00:50 15.06.2022
3119 Clear 26 1013 37 10000 0.51 0 23:39 14.06.2022
3120 Clear 26 1013 36 10000 0.51 0 23:21 14.06.2022
3121 Clear 27 1013 33 10000 1.03 0 22:23 14.06.2022
3122 Clear 29 1010 20 10000 1.03 0 21:38 14.06.2022
3123 Clear 29 1015 39 10000 0.51 320 20:54 14.06.2022
3124 Clouds 30 1016 34 10000 3.6 290 20:28 14.06.2022
3125 Clear 30 1016 37 10000 4.63 260 19:20 14.06.2022
3126 Clear 31 1016 36 10000 5.14 240 18:20 14.06.2022
3127 Clear 32 1016 36 10000 7.2 250 16:47 14.06.2022
3128 Clear 31 1016 35 10000 6.17 260 15:50 14.06.2022
3129 Clear 31 1016 31 10000 6.17 260 15:28 14.06.2022
3130 Clear 32 1017 23 10000 5.14 250 14:37 14.06.2022
3131 Clear 31 1017 28 10000 5.14 240 13:46 14.06.2022
3132 Clear 32 1017 22 10000 4.63 260 12:48 14.06.2022
3133 Clear 32 1017 22 10000 1.34 227 11:41 14.06.2022
3134 Clear 31 1017 22 10000 1.03 0 10:49 14.06.2022
3135 Clear 31 1017 22 10000 1.03 0 10:49 14.06.2022
3136 Clear 30 1017 25 10000 2.06 290 10:24 14.06.2022
3137 Clear 27 1012 31 10000 1.54 10 08:49 14.06.2022
3138 Clear 23 1010 33 10000 2.57 60 07:50 14.06.2022
3139 Clear 20 1012 45 10000 1.03 70 05:56 14.06.2022
3140 Clouds 22 1012 38 10000 0.89 340 03:20 14.06.2022
3141 Clear 22 1013 46 10000 0.89 315 01:36 14.06.2022
3142 Clear 23 1011 40 10000 0.51 30 23:51 13.06.2022
3143 Clear 25 1011 38 10000 0.51 0 22:27 13.06.2022
3144 Clear 26 1011 34 10000 0.51 220 21:59 13.06.2022
3145 Clear 28 1018 37 10000 2.06 230 20:43 13.06.2022
3146 Clear 28 1016 44 10000 4.12 250 19:42 13.06.2022
3147 Clear 29 1017 41 10000 4.12 240 18:45 13.06.2022
3148 Clear 29 1018 43 10000 5.66 250 17:52 13.06.2022
3149 Clear 29 1018 43 10000 6.69 240 17:18 13.06.2022
3150 Clear 29 1019 44 10000 7.72 240 15:53 13.06.2022
3151 Clear 28 1019 56 10000 5.66 230 14:48 13.06.2022
3152 Clear 28 1018 69 10000 4.63 240 14:18 13.06.2022
3153 Clear 29 1019 65 10000 5.14 240 13:23 13.06.2022
3154 Clear 31 1019 44 10000 3.09 210 11:50 13.06.2022
3155 Clear 30 1020 39 10000 1.03 30 10:36 13.06.2022
3156 Clear 27 1019 54 10000 1.03 0 09:42 13.06.2022
3157 Clear 24 1016 64 10000 1.03 0 08:30 13.06.2022
3158 Clear 20 1016 74 10000 1.54 60 06:35 13.06.2022
3159 Clear 21 1015 76 10000 1.03 360 04:23 13.06.2022
3160 Clear 23 1016 80 10000 2.57 10 01:44 13.06.2022
3161 Clear 24 1016 79 10000 1.03 0 01:18 13.06.2022
3162 Clear 25 1017 75 10000 2.06 170 23:41 12.06.2022
3163 Clear 25 1017 73 10000 1.03 0 22:34 12.06.2022
3164 Clear 25 1014 69 10000 1.54 230 21:45 12.06.2022
3165 Clear 26 1021 75 10000 2.06 240 20:49 12.06.2022
3166 Clear 27 1020 71 10000 2.57 240 19:49 12.06.2022
3167 Clear 27 1020 69 10000 4.12 230 18:54 12.06.2022
3168 Clear 28 1020 63 10000 4.63 220 17:24 12.06.2022
3169 Clear 28 1021 59 10000 6.17 220 15:45 12.06.2022
3170 Clear 28 1021 57 10000 5.66 220 14:50 12.06.2022
3171 Clear 27 1022 62 10000 5.14 230 14:18 12.06.2022
3172 Clear 29 1022 60 10000 5.14 220 13:45 12.06.2022
3173 Clear 29 1021 58 10000 5.14 230 12:28 12.06.2022
3174 Clear 28 1022 55 10000 1.79 206 10:46 12.06.2022
3175 Clear 26 1022 62 10000 1.54 360 09:42 12.06.2022
3176 Clear 25 1018 58 10000 1.54 70 08:50 12.06.2022
3177 Clear 23 1018 64 10000 1.54 30 08:29 12.06.2022
3178 Clear 19 1017 75 10000 2.06 60 06:49 12.06.2022
3179 Clear 20 1017 78 10000 1.03 0 04:26 12.06.2022
3180 Clear 21 1017 72 10000 1.54 120 02:27 12.06.2022
3181 Clear 22 1018 76 10000 1.03 70 01:35 12.06.2022
3182 Clear 22 1018 74 10000 0.51 0 00:48 12.06.2022
3183 Clear 23 1019 72 10000 1.03 120 00:19 12.06.2022
3184 Clear 24 1019 72 10000 1.03 170 23:21 11.06.2022
3185 Clear 24 1018 71 10000 1.54 230 22:37 11.06.2022
3186 Clear 25 1018 67 10000 2.57 230 21:31 11.06.2022
3187 Clouds 25 1021 73 10000 4.12 220 20:27 11.06.2022
3188 Clouds 26 1021 74 10000 5.14 230 19:36 11.06.2022
3189 Clouds 26 1021 71 10000 5.14 230 18:45 11.06.2022
3190 Clouds 26 1021 73 10000 5.14 220 18:27 11.06.2022
3191 Clouds 26 1021 67 10000 5.66 220 17:48 11.06.2022
3192 Clouds 27 1021 63 10000 5.66 220 17:26 11.06.2022
3193 Clouds 26 1021 69 10000 5.66 220 16:44 11.06.2022
3194 Clouds 27 1022 67 10000 5.66 220 16:18 11.06.2022
3195 Clouds 28 1021 66 10000 6.69 220 14:57 11.06.2022
3196 Clouds 29 1016 54 10000 6.69 220 13:52 11.06.2022
3197 Clouds 29 1016 51 10000 5.66 230 12:19 11.06.2022
3198 Clouds 28 1021 69 10000 4.63 250 12:19 11.06.2022
3199 Clear 27 1021 60 10000 1.34 222 10:32 11.06.2022
3200 Clear 26 1021 65 10000 1.03 10 09:41 11.06.2022
3201 Clear 24 1021 69 10000 0 0 08:44 11.06.2022
3202 Clouds 19 1017 80 10000 1.03 60 06:33 11.06.2022
3203 Clouds 19 1017 80 10000 1.03 0 05:44 11.06.2022
3204 Clouds 20 1017 84 10000 0.51 0 03:18 11.06.2022
3205 Clouds 21 1017 82 10000 1.03 30 01:51 11.06.2022
3206 Clouds 21 1017 83 10000 0.51 0 01:25 11.06.2022
3207 Clouds 21 1017 83 10000 0.51 0 01:25 11.06.2022
3208 Clouds 23 1017 75 10000 2.06 220 23:27 10.06.2022
3209 Clouds 24 1017 73 10000 2.57 220 22:21 10.06.2022
3210 Clouds 24 1020 80 10000 2.57 220 21:44 10.06.2022
3211 Clouds 24 1020 76 10000 4.63 230 20:39 10.06.2022
3212 Clouds 24 1020 76 10000 4.63 230 20:19 10.06.2022
3213 Clouds 25 1019 74 10000 5.66 220 19:19 10.06.2022
3214 Clouds 25 1020 73 10000 6.17 210 18:32 10.06.2022
3215 Clouds 26 1020 72 10000 6.69 210 17:50 10.06.2022
3216 Clouds 27 1020 68 10000 6.69 220 17:22 10.06.2022
3217 Clouds 27 1020 66 10000 7.2 230 16:26 10.06.2022
3218 Clouds 27 1020 62 10000 6.17 240 15:39 10.06.2022
3219 Clouds 27 1021 67 10000 7.72 250 14:24 10.06.2022
3220 Clouds 26 1021 67 10000 5.14 240 12:57 10.06.2022
3221 Clouds 26 1021 69 10000 4.12 240 11:59 10.06.2022
3222 Clouds 25 1021 68 10000 3.13 165 10:46 10.06.2022
3223 Clouds 24 1021 76 10000 2.24 142 09:56 10.06.2022
3224 Clouds 23 1020 74 10000 0.51 350 08:48 10.06.2022
3225 Clouds 20 1017 79 10000 0.51 130 07:41 10.06.2022
3226 Clouds 19 1016 80 10000 1.54 20 06:46 10.06.2022
3227 Clouds 19 1016 79 10000 0.51 0 06:27 10.06.2022
3228 Clouds 20 1016 75 10000 1.03 70 04:47 10.06.2022
3229 Clouds 21 1017 69 10000 0.89 69 01:59 10.06.2022
3230 Clouds 21 1017 67 10000 0.51 0 01:36 10.06.2022
3231 Clouds 21 1017 68 10000 0.51 0 01:36 10.06.2022
3232 Clouds 22 1016 66 10000 3.6 70 23:57 09.06.2022
3233 Clouds 22 1016 68 10000 4.12 80 22:24 09.06.2022
3234 Clouds 23 1015 72 10000 3.09 190 21:38 09.06.2022
3235 Clouds 24 1015 74 10000 3.6 170 21:18 09.06.2022
3236 Clouds 25 1014 69 10000 4.12 180 20:36 09.06.2022
3237 Clouds 25 1017 76 10000 3.6 190 19:41 09.06.2022
3238 Clouds 27 1016 65 10000 5.66 220 18:36 09.06.2022
3239 Clouds 26 1018 70 10000 6.17 230 17:28 09.06.2022
3240 Clouds 26 1014 65 10000 6.69 230 16:28 09.06.2022
3241 Clouds 26 1015 63 10000 6.17 240 14:45 09.06.2022
3242 Clouds 26 1015 63 10000 6.69 230 14:24 09.06.2022
3243 Clouds 26 1015 59 10000 6.17 230 13:30 09.06.2022
3244 Clouds 26 1018 64 10000 5.66 230 12:51 09.06.2022
3245 Clouds 26 1018 60 10000 3.6 220 11:33 09.06.2022
3246 Clouds 25 1018 63 10000 1.79 190 09:55 09.06.2022
3247 Clouds 25 1018 63 10000 1.79 190 09:55 09.06.2022
3248 Clouds 25 1018 63 10000 1.34 153 09:37 09.06.2022
3249 Clouds 23 1017 73 10000 1.03 0 08:33 09.06.2022
3250 Clouds 21 1014 75 10000 1.03 0 07:29 09.06.2022
3251 Clouds 22 1013 81 10000 2.06 60 03:31 09.06.2022
3252 Clouds 23 1013 77 10000 1.03 70 00:34 09.06.2022
3253 Clouds 23 1012 75 10000 2.06 100 23:18 08.06.2022
3254 Clouds 24 1011 77 10000 0.51 0 22:42 08.06.2022
3255 Clouds 24 1011 77 10000 0.51 0 22:23 08.06.2022
3256 Clouds 24 1010 76 10000 1.54 210 21:33 08.06.2022
3257 Clouds 25 1012 78 10000 2.57 210 20:25 08.06.2022
3258 Clouds 25 1013 77 10000 3.6 220 19:41 08.06.2022
3259 Clouds 26 1013 70 10000 4.63 220 18:48 08.06.2022
3260 Clouds 26 1013 67 10000 6.17 230 17:41 08.06.2022
3261 Clouds 26 1014 71 10000 6.71 198 15:54 08.06.2022
3262 Clouds 25 1014 73 10000 6.17 220 14:44 08.06.2022
3263 Clouds 26 1010 64 10000 5.14 220 12:55 08.06.2022
3264 Clouds 26 1010 64 10000 5.14 220 12:55 08.06.2022
3265 Clouds 25 1014 74 10000 5.14 220 12:55 08.06.2022
3266 Clouds 25 1014 74 10000 5.14 220 12:55 08.06.2022
3267 Clouds 25 1014 74 10000 5.14 220 12:55 08.06.2022
3268 Clouds 25 1014 73 10000 3.6 220 11:36 08.06.2022
3269 Clouds 24 1014 77 10000 3.6 230 10:51 08.06.2022
3270 Clouds 24 1011 75 10000 1.79 179 09:30 08.06.2022
3271 Clouds 23 1011 77 10000 0.45 190 08:55 08.06.2022
3272 Clouds 20 1011 84 10000 1.54 70 07:21 08.06.2022
3273 Clouds 20 1011 84 10000 1.54 70 07:21 08.06.2022
3274 Clouds 21 1012 76 10000 0.51 20 04:47 08.06.2022
3275 Clouds 22 1012 67 10000 2.06 110 01:27 08.06.2022
3276 Clear 23 1013 65 10000 0.89 248 23:33 07.06.2022
3277 Clouds 23 1012 63 10000 0.45 248 22:58 07.06.2022
3278 Clouds 24 1012 61 10000 0.89 248 22:37 07.06.2022
3279 Clear 25 1016 67 10000 2.57 250 21:41 07.06.2022
3280 Clear 25 1012 52 10000 2.57 250 21:20 07.06.2022
3281 Clouds 25 1016 66 10000 3.09 250 20:42 07.06.2022
3282 Clouds 26 1016 68 10000 4.63 240 19:58 07.06.2022
3283 Clouds 26 1017 65 10000 4.63 240 18:38 07.06.2022
3284 Clouds 26 1017 70 10000 5.14 240 17:36 07.06.2022
3285 Clouds 26 1018 68 10000 5.66 240 16:47 07.06.2022
3286 Clouds 26 1018 70 10000 5.66 240 16:28 07.06.2022
3287 Clouds 26 1018 72 10000 5.66 220 15:38 07.06.2022
3288 Clouds 26 1018 72 10000 5.66 220 15:19 07.06.2022
3289 Clouds 26 1018 72 10000 5.66 230 14:44 07.06.2022
3290 Clear 27 1019 66 10000 6.17 240 13:42 07.06.2022
3291 Clear 27 1019 66 10000 6.17 240 13:42 07.06.2022
3292 Clear 27 1019 66 10000 6.17 240 13:23 07.06.2022
3293 Clear 27 1019 60 10000 4.47 184 11:56 07.06.2022
3294 Clear 28 1018 51 10000 5.14 70 10:53 07.06.2022
3295 Clear 25 1018 63 10000 4.63 70 09:26 07.06.2022
3296 Clear 24 1015 64 10000 4.12 40 08:28 07.06.2022
3297 Clear 20 1015 77 10000 4.12 40 07:19 07.06.2022
3298 Clouds 20 1014 77 10000 2.06 50 04:52 07.06.2022
3299 Clear 22 1015 69 10000 0.51 100 01:43 07.06.2022
3300 Clear 22 1013 67 10000 1.03 180 23:59 06.06.2022
3301 Clear 23 1012 66 10000 1.03 0 22:59 06.06.2022
3302 Clear 24 1012 62 10000 2.06 220 22:30 06.06.2022
3303 Clear 24 1014 60 10000 2.06 240 21:28 06.06.2022
3304 Clouds 26 1016 65 10000 4.12 250 19:37 06.06.2022
3305 Clouds 26 1016 65 10000 4.12 250 19:19 06.06.2022
3306 Clouds 27 1017 65 10000 6.17 250 18:33 06.06.2022
3307 Clear 28 1017 57 10000 7.72 250 17:31 06.06.2022
3308 Clear 29 1018 51 10000 6.17 240 16:21 06.06.2022
3309 Clear 30 1018 49 10000 5.66 260 15:33 06.06.2022
3310 Clear 30 1019 49 10000 6.17 250 14:36 06.06.2022
3311 Clear 29 1020 52 10000 4.12 250 13:27 06.06.2022
3312 Clear 29 1020 49 10000 4.47 222 12:37 06.06.2022
3313 Clear 29 1020 48 10000 2.57 80 11:58 06.06.2022
3314 Clear 28 1020 49 10000 3.6 70 11:28 06.06.2022
3315 Clouds 26 1020 63 10000 4.12 50 09:40 06.06.2022
3316 Clouds 24 1017 75 10000 1.54 30 08:35 06.06.2022
3317 Clouds 21 1016 87 10000 2.57 30 07:37 06.06.2022
3318 Clouds 21 1016 86 10000 2.06 70 05:29 06.06.2022
3319 Clouds 21 1016 86 10000 2.06 70 05:29 06.06.2022
3320 Clouds 22 1015 82 10000 1.54 130 03:46 06.06.2022
3321 Clouds 22 1014 86 10000 0.51 0 01:29 06.06.2022
3322 Clouds 23 1014 84 10000 1.03 150 00:42 06.06.2022
3323 Clouds 23 1014 81 10000 1.03 0 23:50 05.06.2022
3324 Clouds 24 1013 81 10000 1.34 216 22:53 05.06.2022
3325 Clouds 25 1015 78 10000 1.34 242 21:26 05.06.2022
3326 Clouds 26 1015 67 10000 4.12 230 20:23 05.06.2022
3327 Clouds 27 1018 63 10000 4.63 210 18:42 05.06.2022
3328 Clouds 27 1018 69 10000 6.17 220 17:56 05.06.2022
3329 Clouds 27 1018 67 10000 5.14 220 17:36 05.06.2022
3330 Clouds 27 1018 68 10000 5.14 220 17:18 05.06.2022
3331 Clouds 27 1018 69 10000 5.14 220 16:45 05.06.2022
3332 Clouds 27 1019 71 10000 4.12 230 14:46 05.06.2022
3333 Clouds 27 1019 72 10000 4.12 240 13:21 05.06.2022
3334 Clouds 26 1018 71 10000 1.54 210 11:56 05.06.2022
3335 Clouds 24 1018 77 10000 3.6 220 10:44 05.06.2022
3336 Clouds 24 1018 79 10000 3.6 220 10:23 05.06.2022
3337 Clouds 24 1014 75 10000 3.6 190 08:45 05.06.2022
3338 Clouds 23 1014 76 10000 3.13 168 08:21 05.06.2022
3339 Clouds 21 1013 87 9000 0.45 292 05:23 05.06.2022
3340 Clouds 21 1013 85 9000 0.51 0 04:36 05.06.2022
3341 Clouds 22 1013 84 9000 2.57 230 02:19 05.06.2022
3342 Clouds 22 1013 83 9000 3.09 230 01:23 05.06.2022
3343 Clouds 22 1013 82 9000 2.57 220 01:23 05.06.2022
3344 Clouds 23 1013 81 8000 3.6 220 22:48 04.06.2022
3345 Clouds 23 1011 79 9000 4.63 220 21:24 04.06.2022
3346 Clouds 26 1014 67 10000 3.13 165 18:58 04.06.2022
3347 Clouds 26 1015 65 10000 5.14 240 16:48 04.06.2022
3348 Clouds 26 1015 64 10000 4.63 240 16:20 04.06.2022
3349 Clouds 27 1014 68 10000 6.17 230 15:35 04.06.2022
3350 Clouds 28 1009 58 10000 7.2 240 13:57 04.06.2022
3351 Clouds 27 1012 62 10000 5.66 60 11:38 04.06.2022
3352 Clouds 26 1011 61 10000 3.09 40 10:52 04.06.2022
3353 Clouds 24 1015 79 10000 1.34 338 09:47 04.06.2022
3354 Clouds 22 1011 78 10000 2.06 30 08:59 04.06.2022
3355 Clouds 22 1011 80 10000 1.34 48 08:37 04.06.2022
3356 Clouds 21 1010 87 10000 1.03 0 06:25 04.06.2022
3357 Clouds 22 1011 85 10000 2.06 170 03:52 04.06.2022
3358 Clouds 23 1010 82 10000 3.6 220 00:22 04.06.2022
3359 Clear 23 1009 72 10000 4.63 240 22:56 03.06.2022
3360 Clouds 25 1008 54 10000 0.89 222 21:53 03.06.2022
3361 Clouds 26 1013 63 10000 1.54 330 20:40 03.06.2022
3362 Clouds 27 1010 51 10000 3.6 220 19:37 03.06.2022
3363 Clouds 28 1014 48 10000 1.54 240 16:58 03.06.2022
3364 Clouds 28 1015 44 10000 6.69 220 15:57 03.06.2022
3365 Clouds 28 1015 46 10000 0.89 188 14:42 03.06.2022
3366 Clouds 26 1015 68 10000 6.26 180 12:21 03.06.2022
3367 Clouds 25 1011 70 10000 4.02 206 09:57 03.06.2022
3368 Clear 25 1009 70 10000 4.12 70 09:29 03.06.2022
3369 Clouds 23 1008 74 10000 6.69 50 07:50 03.06.2022
3370 Clouds 23 1009 71 10000 5.14 60 07:19 03.06.2022
3371 Rain 23 1012 76 10000 4.63 70 06:29 03.06.2022
3372 Clouds 23 1009 77 10000 2.24 332 03:52 03.06.2022
3373 Clouds 24 1009 67 10000 2.06 60 00:21 03.06.2022
3374 Clouds 24 1010 66 10000 2.24 107 22:33 02.06.2022
3375 Clouds 26 1012 63 10000 4.63 70 20:57 02.06.2022
3376 Clouds 28 1012 58 10000 5.66 60 19:58 02.06.2022
3377 Clouds 28 1008 46 10000 3.13 54 19:40 02.06.2022
3378 Clouds 28 1011 56 10000 2.06 210 18:59 02.06.2022
3379 Clouds 28 1013 56 10000 4.63 200 16:30 02.06.2022
3380 Clear 28 1013 56 10000 4.63 210 15:47 02.06.2022
3381 Clear 29 1014 45 10000 5.14 220 13:32 02.06.2022
3382 Clear 29 1014 46 10000 4.63 230 12:51 02.06.2022
3383 Clear 27 1014 49 10000 1.54 60 10:53 02.06.2022
3384 Clear 26 1014 56 10000 2.57 60 10:19 02.06.2022
3385 Clear 23 1014 68 10000 2.57 30 09:27 02.06.2022
3386 Clear 22 1011 68 10000 1.54 360 08:24 02.06.2022
3387 Clouds 19 1009 62 10000 0.89 341 06:26 02.06.2022
3388 Clouds 20 1010 60 10000 0.51 0 03:54 02.06.2022
3389 Clouds 20 1011 66 10000 1.54 60 02:22 02.06.2022
3390 Clear 21 1012 69 10000 1.03 0 23:36 01.06.2022
3391 Clouds 23 1012 69 10000 1.03 0 22:21 01.06.2022
3392 Clouds 24 1010 68 10000 1.03 190 21:32 01.06.2022
3393 Clear 24 1015 66 10000 2.06 220 20:39 01.06.2022
3394 Clear 26 1014 57 10000 2.57 240 19:53 01.06.2022
3395 Clear 27 1014 42 10000 3.09 240 18:58 01.06.2022
3396 Clear 28 1015 35 10000 3.09 260 17:40 01.06.2022
3397 Clear 26 1016 56 10000 5.14 260 16:33 01.06.2022
3398 Clear 28 1011 48 10000 6.69 230 14:52 01.06.2022
3399 Clear 27 1015 61 10000 4.12 250 13:44 01.06.2022
3400 Clear 28 1011 54 10000 3.6 240 12:25 01.06.2022
3401 Fog 22 1016 81 8000 1.03 0 09:36 01.06.2022
3402 Fog 22 1011 77 8000 1.03 0 08:38 01.06.2022
3403 Mist 18 1012 87 5000 0.51 0 07:22 01.06.2022
3404 Clouds 18 1012 87 10000 0.51 40 05:22 01.06.2022
3405 Clouds 21 1013 84 10000 1.54 190 00:22 01.06.2022
3406 Clear 22 1012 85 10000 1.54 200 23:26 31.05.2022
3407 Clear 22 1012 82 10000 1.03 210 22:36 31.05.2022
3408 Clear 23 1011 77 10000 1.03 0 21:45 31.05.2022
3409 Clear 23 1014 80 10000 2.57 240 20:45 31.05.2022
3410 Clear 25 1010 66 10000 3.6 230 19:57 31.05.2022
3411 Clouds 25 1014 70 10000 3.09 230 18:52 31.05.2022
3412 Clouds 25 1014 72 10000 4.12 240 17:50 31.05.2022
3413 Clouds 25 1014 72 10000 4.63 230 16:56 31.05.2022
3414 Clouds 24 1014 72 10000 5.14 240 15:40 31.05.2022
3415 Clouds 28 1009 50 10000 4.12 220 13:52 31.05.2022
3416 Clear 25 1014 69 10000 2.57 240 12:20 31.05.2022
3417 Clouds 24 1013 68 10000 1.03 230 10:55 31.05.2022
3418 Clouds 21 1014 85 10000 1.54 180 09:29 31.05.2022
3419 Clouds 19 1010 86 10000 2.06 70 07:25 31.05.2022
3420 Clouds 18 1009 87 10000 1.34 57 05:20 31.05.2022
3421 Clear 21 1008 83 10000 2.06 80 00:52 31.05.2022
3422 Clear 22 1008 79 10000 2.57 210 23:27 30.05.2022
3423 Clear 22 1008 77 10000 3.6 210 22:56 30.05.2022
3424 Clouds 23 1007 75 10000 3.09 220 21:59 30.05.2022
3425 Clouds 23 1006 74 10000 3.6 210 21:32 30.05.2022
3426 Clouds 23 1006 72 10000 5.66 220 20:20 30.05.2022
3427 Clouds 24 1008 78 10000 6.17 220 18:41 30.05.2022
3428 Clouds 25 1008 72 10000 5.66 210 17:36 30.05.2022
3429 Clouds 25 1008 71 10000 6.71 211 16:41 30.05.2022
3430 Clouds 25 1008 72 10000 7.2 230 14:49 30.05.2022
3431 Clouds 24 1008 75 10000 6.17 230 12:29 30.05.2022
3432 Clouds 24 1007 72 10000 1.54 240 10:46 30.05.2022
3433 Clouds 22 1006 80 10000 1.54 230 09:38 30.05.2022
3434 Clouds 19 1002 86 9000 1.03 330 07:22 30.05.2022
3435 Clouds 19 1002 85 10000 0.89 90 05:49 30.05.2022
3436 Clear 19 1003 82 10000 2.57 60 02:24 30.05.2022
3437 Clear 21 1003 79 10000 1.54 60 23:21 29.05.2022
3438 Clear 22 1003 76 10000 2.06 220 22:38 29.05.2022
3439 Clear 24 1005 64 10000 1.03 270 20:57 29.05.2022
3440 Clear 25 1006 63 10000 3.6 250 19:38 29.05.2022
3441 Clear 25 1006 63 10000 3.6 250 19:18 29.05.2022
3442 Clouds 25 1006 61 10000 6.69 230 17:32 29.05.2022
3443 Clouds 25 1007 63 10000 6.69 240 15:49 29.05.2022
3444 Clouds 25 1007 64 10000 4.63 250 15:23 29.05.2022
3445 Clouds 26 1008 53 10000 3.6 250 14:23 29.05.2022
3446 Clouds 26 1008 48 10000 3.6 250 11:55 29.05.2022
3447 Clear 25 1008 50 10000 1.54 300 10:42 29.05.2022
3448 Clear 25 1008 52 10000 1.03 0 09:52 29.05.2022
3449 Clear 17 1005 69 10000 2.06 60 06:56 29.05.2022
3450 Clear 18 1005 70 10000 1.54 70 04:49 29.05.2022
3451 Clear 18 1005 71 10000 1.54 50 04:24 29.05.2022
3452 Clear 21 1006 66 10000 2.57 160 00:35 29.05.2022
3453 Clear 22 1007 62 10000 1.54 170 23:42 28.05.2022
3454 Clear 22 1007 60 10000 1.79 175 22:46 28.05.2022
3455 Clear 23 1007 58 10000 2.06 210 21:42 28.05.2022
3456 Clear 23 1011 70 10000 4.12 220 20:30 28.05.2022
3457 Clear 25 1012 59 10000 5.66 230 19:18 28.05.2022
3458 Clear 26 1012 51 10000 6.69 230 17:48 28.05.2022
3459 Clear 25 1013 59 10000 8.75 230 16:53 28.05.2022
3460 Clear 26 1013 55 10000 9.77 220 15:44 28.05.2022
3461 Clear 27 1013 52 10000 6.69 230 15:19 28.05.2022
3462 Clear 29 1015 43 10000 5.66 230 13:26 28.05.2022
3463 Clear 28 1015 51 10000 4.63 210 12:41 28.05.2022
3464 Clear 28 1015 38 10000 3.09 230 11:27 28.05.2022
3465 Clear 27 1015 41 10000 3.09 250 10:32 28.05.2022
3466 Clear 25 1015 44 10000 4.47 264 09:39 28.05.2022
3467 Clear 20 1011 45 10000 3.13 284 07:53 28.05.2022
3468 Clear 20 1011 39 10000 4.47 5 06:32 28.05.2022
3469 Clear 21 1011 38 10000 4.02 296 04:39 28.05.2022
3470 Clear 19 1014 54 10000 0.51 70 01:30 28.05.2022
3471 Clear 20 1014 54 10000 1.03 0 23:53 27.05.2022
3472 Clear 22 1014 46 10000 1.54 250 22:32 27.05.2022
3473 Clear 25 1016 47 10000 2.06 70 20:59 27.05.2022
3474 Clear 26 1016 41 10000 3.09 70 20:40 27.05.2022
3475 Clear 26 1017 41 10000 3.09 70 20:18 27.05.2022
3476 Clear 26 1017 42 10000 3.58 321 19:34 27.05.2022
3477 Clear 26 1017 43 10000 2.68 343 18:41 27.05.2022
3478 Clouds 25 1018 44 10000 5.14 310 16:42 27.05.2022
3479 Clouds 25 1019 49 10000 2.06 330 15:47 27.05.2022
3480 Clouds 25 1016 45 10000 2.57 50 14:46 27.05.2022
3481 Clouds 22 1020 62 10000 5.14 80 13:36 27.05.2022
3482 Clouds 24 1017 51 10000 1.54 350 11:53 27.05.2022
3483 Clouds 22 1017 57 10000 4.12 310 11:27 27.05.2022
3484 Clouds 22 1016 59 10000 3.6 280 10:37 27.05.2022
3485 Clouds 21 1016 60 10000 3.6 290 09:52 27.05.2022
3486 Clouds 21 1016 62 10000 3.09 330 09:28 27.05.2022
3487 Clouds 20 1015 51 10000 4.47 281 06:58 27.05.2022
3488 Clouds 21 1016 33 10000 3.13 360 02:59 27.05.2022
3489 Clouds 21 1017 39 10000 2.06 290 00:57 27.05.2022
3490 Clouds 21 1016 39 10000 2.24 331 23:23 26.05.2022
3491 Clouds 22 1017 47 10000 1.54 180 21:48 26.05.2022
3492 Clouds 22 1017 49 10000 1.34 40 21:27 26.05.2022
3493 Clouds 23 1020 55 10000 3.6 200 19:34 26.05.2022
3494 Clouds 23 1020 51 10000 5.66 240 18:31 26.05.2022
3495 Clouds 24 1021 45 10000 3.6 330 17:36 26.05.2022
3496 Clouds 24 1021 43 10000 4.12 320 16:18 26.05.2022
3497 Clouds 23 1022 48 10000 4.12 310 15:19 26.05.2022
3498 Clouds 24 1019 39 10000 4.63 30 13:56 26.05.2022
3499 Clouds 23 1019 37 10000 9.77 50 11:59 26.05.2022
3500 Clouds 22 1019 39 10000 8.75 40 11:18 26.05.2022
3501 Clouds 22 1019 43 10000 4.63 40 09:38 26.05.2022
3502 Clouds 21 1018 45 10000 4.63 50 08:40 26.05.2022
3503 Clouds 19 1015 65 10000 2.06 330 05:43 26.05.2022
3504 Clouds 19 1016 58 10000 0.51 0 02:24 26.05.2022
3505 Clouds 17 1016 59 10000 1.54 300 23:53 25.05.2022
3506 Clouds 17 1016 61 10000 2.57 320 22:52 25.05.2022
3507 Clouds 19 1015 56 10000 2.57 40 21:42 25.05.2022
3508 Clouds 20 1014 42 10000 5.66 60 20:49 25.05.2022
3509 Clouds 22 1013 36 10000 6.17 60 19:42 25.05.2022
3510 Clouds 22 1013 37 10000 9.26 50 18:48 25.05.2022
3511 Clouds 22 1016 46 10000 10.29 50 17:24 25.05.2022
3512 Clouds 21 1012 44 10000 10.29 50 16:33 25.05.2022
3513 Clouds 20 1012 52 10000 8.75 50 15:36 25.05.2022
3514 Clouds 20 1012 56 10000 7.72 70 14:50 25.05.2022
3515 Clouds 20 1016 65 10000 9.26 60 14:32 25.05.2022
3516 Clouds 20 1015 68 10000 7.72 60 13:23 25.05.2022
3517 Clouds 20 1015 79 10000 5.25 48 11:50 25.05.2022
3518 Clouds 19 1014 77 10000 6.69 50 10:42 25.05.2022
3519 Clouds 18 1013 82 10000 8.23 60 09:45 25.05.2022
3520 Clouds 16 1008 88 10000 3.13 48 07:42 25.05.2022
3521 Rain 16 1006 87 6000 5.14 60 05:57 25.05.2022
3522 Thunderstorm 17 1007 92 1600 8.23 350 02:44 25.05.2022
3523 Clouds 20 1006 76 10000 6.17 60 23:52 24.05.2022
3524 Clouds 21 1007 74 10000 5.14 50 23:23 24.05.2022
3525 Clouds 21 1005 74 10000 5.66 50 22:18 24.05.2022
3526 Clouds 21 1004 73 10000 5.66 60 21:38 24.05.2022
3527 Clouds 21 1004 73 10000 5.66 60 21:19 24.05.2022
3528 Clouds 25 1003 58 10000 4.47 61 19:28 24.05.2022
3529 Clouds 26 1007 59 10000 4.12 130 18:38 24.05.2022
3530 Clouds 26 1008 60 10000 5.81 190 16:40 24.05.2022
3531 Clouds 26 1009 56 10000 6.26 187 15:54 24.05.2022
3532 Clouds 27 1009 51 10000 4.63 130 14:45 24.05.2022
3533 Clouds 27 1010 50 10000 3.6 140 13:48 24.05.2022
3534 Clouds 26 1010 56 10000 5.66 110 12:35 24.05.2022
3535 Clouds 23 1010 65 10000 6.17 60 09:52 24.05.2022
3536 Clouds 23 1011 68 10000 5.66 70 09:27 24.05.2022
3537 Clouds 24 1005 61 10000 4.63 60 08:42 24.05.2022
3538 Clouds 19 1004 81 10000 1.54 40 06:45 24.05.2022
3539 Clear 20 1004 82 10000 3.09 80 03:48 24.05.2022
3540 Clear 21 1005 80 10000 2.57 80 01:49 24.05.2022
3541 Clear 21 1004 79 10000 3.09 70 00:57 24.05.2022
3542 Clouds 23 1004 71 10000 3.6 60 22:50 23.05.2022
3543 Clouds 24 1003 66 10000 2.06 160 21:54 23.05.2022
3544 Clouds 24 1007 78 10000 3.6 220 20:59 23.05.2022
3545 Clouds 24 1007 78 10000 4.63 210 20:26 23.05.2022
3546 Clear 28 1006 54 10000 5.66 230 19:31 23.05.2022
3547 Clear 30 1006 42 10000 6.17 230 18:54 23.05.2022
3548 Clouds 30 1006 42 10000 4.12 220 18:27 23.05.2022
3549 Clouds 31 1006 37 10000 5.66 220 17:18 23.05.2022
3550 Clouds 30 1006 42 10000 3.09 200 14:52 23.05.2022
3551 Clouds 26 1007 69 10000 5.14 210 12:50 23.05.2022
3552 Clouds 25 1007 71 10000 4.63 210 11:31 23.05.2022
3553 Clouds 24 1007 78 10000 4.63 220 09:50 23.05.2022
3554 Clouds 24 1002 72 10000 4.63 220 09:28 23.05.2022
3555 Clouds 22 1002 76 10000 5.66 220 08:20 23.05.2022
3556 Clear 20 1000 60 10000 1.03 30 06:45 23.05.2022
3557 Clear 20 1001 57 10000 0.51 0 05:25 23.05.2022
3558 Clear 21 1002 43 10000 2.57 70 02:32 23.05.2022
3559 Clear 22 1003 40 10000 1.03 0 01:37 23.05.2022
3560 Clear 22 1003 38 10000 1.03 50 00:20 23.05.2022
3561 Clear 24 1001 17 10000 0.89 292 22:36 22.05.2022
3562 Clear 25 1001 15 10000 1.03 0 21:55 22.05.2022
3563 Clear 26 1001 12 10000 2.06 290 21:32 22.05.2022
3564 Clear 29 1000 9 10000 2.57 310 20:32 22.05.2022
3565 Clear 27 1010 47 10000 2.57 280 19:56 22.05.2022
3566 Clear 29 1010 39 10000 4.12 260 18:55 22.05.2022
3567 Clear 30 1010 30 10000 4.63 250 18:25 22.05.2022
3568 Clear 31 1011 22 10000 5.14 240 17:37 22.05.2022
3569 Clear 34 1011 13 10000 4.12 260 16:39 22.05.2022
3570 Clear 34 1012 9 10000 4.63 240 14:53 22.05.2022
3571 Clear 32 1013 8 10000 3.6 240 13:54 22.05.2022
3572 Clear 33 1013 8 10000 4.12 230 12:52 22.05.2022
3573 Clear 33 1013 18 10000 1.03 260 11:47 22.05.2022
3574 Clear 30 1014 28 10000 1.03 0 10:24 22.05.2022
3575 Clear 24 1014 46 10000 0 0 09:18 22.05.2022
3576 Clear 19 1009 48 10000 1.03 20 07:22 22.05.2022
3577 Clear 17 1009 48 10000 0.51 0 06:27 22.05.2022
3578 Clear 20 1010 43 10000 2.57 70 02:50 22.05.2022
3579 Clear 20 1013 48 10000 0.45 270 00:44 22.05.2022
3580 Clear 21 1013 47 10000 0.51 0 23:55 21.05.2022
3581 Clear 22 1013 46 10000 1.03 130 23:21 21.05.2022
3582 Clear 22 1013 46 10000 1.03 130 23:21 21.05.2022
3583 Clear 23 1012 51 10000 0.89 270 21:55 21.05.2022
3584 Clouds 24 1012 45 10000 1.03 0 21:26 21.05.2022
3585 Clouds 27 1013 44 10000 1.54 230 20:27 21.05.2022
3586 Clear 26 1018 57 10000 2.06 230 19:43 21.05.2022
3587 Clear 27 1018 54 10000 3.09 230 18:31 21.05.2022
3588 Clear 27 1020 54 10000 4.12 230 16:57 21.05.2022
3589 Clear 29 1021 38 10000 6.17 230 14:38 21.05.2022
3590 Clear 29 1021 39 10000 5.66 230 13:54 21.05.2022
3591 Clear 29 1021 34 10000 6.17 230 13:18 21.05.2022
3592 Clear 31 1021 29 10000 3.09 230 12:38 21.05.2022
3593 Clear 28 1021 34 10000 2.06 40 11:20 21.05.2022
3594 Clear 25 1022 41 10000 2.06 30 09:57 21.05.2022
3595 Clear 24 1017 43 10000 2.06 30 08:58 21.05.2022
3596 Clear 24 1016 40 10000 1.54 50 08:37 21.05.2022
3597 Clouds 19 1018 54 10000 1.79 360 05:52 21.05.2022
3598 Clear 22 1020 52 10000 2.06 50 01:33 21.05.2022
3599 Clear 24 1020 44 10000 2.57 70 23:32 20.05.2022
3600 Clear 24 1023 53 10000 3.09 100 22:29 20.05.2022
3601 Clear 26 1022 44 10000 2.06 80 21:55 20.05.2022
3602 Clear 26 1022 44 10000 2.06 80 21:55 20.05.2022
3603 Clear 28 1022 36 10000 2.06 150 21:19 20.05.2022
3604 Clear 30 1022 30 10000 3.09 150 20:45 20.05.2022
3605 Clear 31 1022 23 10000 4.63 150 19:45 20.05.2022
3606 Clear 31 1023 32 10000 5.14 150 18:53 20.05.2022
3607 Clear 32 1023 27 10000 5.14 130 17:53 20.05.2022
3608 Clear 33 1024 27 10000 4.63 140 16:23 20.05.2022
3609 Clear 33 1024 27 10000 4.92 130 15:54 20.05.2022
3610 Clear 32 1025 29 10000 5.66 140 14:44 20.05.2022
3611 Clear 31 1025 34 10000 5.66 140 14:26 20.05.2022
3612 Clear 30 1025 35 10000 3.09 140 11:52 20.05.2022
3613 Clear 28 1026 39 10000 3.09 70 10:45 20.05.2022
3614 Clear 25 1025 48 10000 4.12 70 09:27 20.05.2022
3615 Clear 25 1022 40 10000 2.06 50 08:24 20.05.2022
3616 Clear 21 1021 47 10000 3.13 27 06:42 20.05.2022
3617 Clear 21 1021 46 10000 4.12 60 05:39 20.05.2022
3618 Clear 23 1020 39 10000 3.09 70 01:30 20.05.2022
3619 Clear 23 1024 54 10000 3.09 70 23:47 19.05.2022
3620 Clear 23 1022 49 10000 4.12 60 22:36 19.05.2022
3621 Clear 24 1022 43 10000 2.57 80 21:50 19.05.2022
3622 Clear 26 1022 34 10000 4.12 90 21:24 19.05.2022
3623 Clear 28 1021 34 10000 3.6 90 20:47 19.05.2022
3624 Clear 31 1021 30 10000 3.6 130 19:54 19.05.2022
3625 Clear 30 1022 36 10000 4.63 150 19:18 19.05.2022
3626 Clear 30 1022 38 10000 5.14 150 17:44 19.05.2022
3627 Clear 28 1022 47 10000 4.92 194 15:51 19.05.2022
3628 Clear 28 1023 44 10000 5.14 230 14:49 19.05.2022
3629 Clear 28 1023 44 10000 5.14 220 14:20 19.05.2022
3630 Clear 29 1023 39 10000 2.57 190 11:55 19.05.2022
3631 Clear 26 1023 44 10000 1.03 0 10:31 19.05.2022
3632 Clear 23 1017 68 10000 2.57 60 08:44 19.05.2022
3633 Clouds 18 1018 83 10000 2.57 60 07:24 19.05.2022
3634 Clear 19 1017 77 10000 0 0 03:52 19.05.2022
3635 Clear 20 1017 79 10000 1.03 60 01:28 19.05.2022
3636 Clear 21 1017 82 10000 1.03 140 23:43 18.05.2022
3637 Clear 22 1017 81 10000 0.89 90 22:44 18.05.2022
3638 Clear 22 1016 79 10000 0 0 21:45 18.05.2022
3639 Clear 22 1016 75 10000 1.54 240 21:23 18.05.2022
3640 Clear 23 1016 69 10000 1.54 230 20:22 18.05.2022
3641 Clear 25 1016 66 10000 3.09 220 19:18 18.05.2022
3642 Clear 27 1014 55 10000 3.6 220 18:18 18.05.2022
3643 Clear 26 1016 62 10000 4.63 220 17:40 18.05.2022
3644 Clear 24 1018 73 10000 4.63 220 17:22 18.05.2022
3645 Clear 28 1014 52 10000 5.14 230 15:58 18.05.2022
3646 Clouds 28 1015 50 10000 5.14 230 15:37 18.05.2022
3647 Clouds 26 1019 60 10000 6.17 210 14:25 18.05.2022
3648 Clear 28 1015 44 10000 5.14 220 12:58 18.05.2022
3649 Clouds 27 1019 57 10000 4.12 230 12:25 18.05.2022
3650 Clear 27 1019 60 10000 3.6 230 11:33 18.05.2022
3651 Clear 28 1015 50 10000 3.09 230 10:48 18.05.2022
3652 Fog 21 1017 77 10000 0.45 203 08:27 18.05.2022
3653 Mist 17 1016 87 4000 0.45 333 07:28 18.05.2022
3654 Clouds 18 1016 88 10000 1.03 70 04:26 18.05.2022
3655 Clear 19 1016 87 10000 1.03 80 00:52 18.05.2022
3656 Clear 20 1016 86 10000 0.51 90 23:41 17.05.2022
3657 Clouds 21 1015 82 9000 2.06 230 21:23 17.05.2022
3658 Clouds 22 1015 77 10000 2.57 220 20:44 17.05.2022
3659 Clouds 24 1015 69 10000 3.09 220 19:45 17.05.2022
3660 Clouds 25 1013 60 10000 3.09 220 19:25 17.05.2022
3661 Clouds 25 1018 71 10000 4.12 210 17:49 17.05.2022
3662 Clouds 25 1018 67 10000 5.14 210 16:58 17.05.2022
3663 Clouds 28 1014 55 10000 6.17 220 16:29 17.05.2022
3664 Clouds 28 1015 56 10000 4.63 230 15:18 17.05.2022
3665 Clouds 27 1015 58 10000 6.17 220 14:29 17.05.2022
3666 Clouds 26 1015 58 10000 3.09 240 13:31 17.05.2022
3667 Clouds 25 1015 60 10000 3.6 240 11:21 17.05.2022
3668 Mist 23 1015 74 4000 1.54 310 09:23 17.05.2022
3669 Mist 19 1015 86 4000 0.51 0 07:59 17.05.2022
3670 Clouds 18 1016 89 8000 0.45 203 06:36 17.05.2022
3671 Clouds 18 1017 88 9000 1.34 331 02:55 17.05.2022
3672 Clouds 19 1017 85 10000 1.03 130 00:32 17.05.2022
3673 Clouds 20 1017 83 9000 0.51 220 22:42 16.05.2022
3674 Clouds 21 1017 80 9000 2.06 210 21:36 16.05.2022
3675 Clouds 21 1016 76 9000 2.57 230 20:46 16.05.2022
3676 Clear 23 1016 66 10000 3.09 220 19:22 16.05.2022
3677 Clear 24 1016 62 10000 3.09 230 18:18 16.05.2022
3678 Clear 24 1019 69 10000 4.63 230 15:49 16.05.2022
3679 Clouds 27 1015 50 10000 2.57 230 13:49 16.05.2022
3680 Clouds 27 1015 49 10000 3.09 210 13:20 16.05.2022
3681 Clouds 26 1015 53 10000 2.57 240 10:53 16.05.2022
3682 Clouds 22 1019 66 10000 1.03 0 09:30 16.05.2022
3683 Clouds 17 1015 55 10000 1.03 90 06:47 16.05.2022
3684 Clouds 18 1015 50 10000 0.89 349 03:31 16.05.2022
3685 Clear 21 1014 36 10000 0 0 23:26 15.05.2022
3686 Clear 22 1012 23 10000 0.51 0 22:29 15.05.2022
3687 Clear 23 1017 46 10000 0.51 190 21:44 15.05.2022
3688 Clouds 24 1016 46 10000 0.51 0 20:54 15.05.2022
3689 Clear 26 1014 28 10000 4.12 170 19:32 15.05.2022
3690 Clear 26 1017 36 10000 4.63 180 17:51 15.05.2022
3691 Clear 26 1017 40 10000 5.36 238 15:59 15.05.2022
3692 Clear 26 1018 43 10000 5.36 202 13:54 15.05.2022
3693 Clear 26 1018 39 10000 5.66 240 12:50 15.05.2022
3694 Clear 28 1018 26 10000 1.54 30 11:39 15.05.2022
3695 Clear 26 1018 30 10000 1.54 10 10:27 15.05.2022
3696 Clear 22 1013 42 10000 2.57 40 08:45 15.05.2022
3697 Clear 16 1014 64 10000 1.34 355 06:58 15.05.2022
3698 Clear 16 1014 65 10000 1.34 342 05:47 15.05.2022
3699 Clear 19 1016 62 10000 0.51 110 00:49 15.05.2022
3700 Clear 20 1016 61 10000 1.03 100 23:39 14.05.2022
3701 Clear 20 1016 62 10000 0.45 292 22:59 14.05.2022
3702 Clear 21 1015 56 10000 1.54 340 21:29 14.05.2022
3703 Clear 22 1013 44 10000 0.51 250 20:53 14.05.2022
3704 Clear 23 1018 65 10000 3.13 205 19:38 14.05.2022
3705 Clear 22 1018 65 10000 3.09 240 19:19 14.05.2022
3706 Clear 23 1019 63 10000 3.09 240 18:44 14.05.2022
3707 Clear 23 1019 60 10000 7.72 250 16:46 14.05.2022
3708 Clear 27 1015 35 10000 6.17 230 15:30 14.05.2022
3709 Clear 27 1015 39 10000 4.63 220 14:34 14.05.2022
3710 Clear 24 1021 52 10000 4.12 240 12:34 14.05.2022
3711 Clear 25 1021 44 10000 2.57 240 11:35 14.05.2022
3712 Clear 25 1021 40 10000 1.03 320 10:21 14.05.2022
3713 Clear 23 1021 46 10000 1.03 0 09:53 14.05.2022
3714 Clear 22 1018 48 10000 1.03 340 08:49 14.05.2022
3715 Clear 15 1016 64 10000 1.79 342 06:47 14.05.2022
3716 Clear 16 1017 61 10000 1.54 50 02:46 14.05.2022
3717 Clear 19 1018 55 10000 0.51 80 23:44 13.05.2022
3718 Clear 19 1018 54 10000 1.03 100 23:18 13.05.2022
3719 Clear 20 1016 46 10000 0 0 22:43 13.05.2022
3720 Clear 21 1018 51 10000 0.45 292 22:18 13.05.2022
3721 Clear 21 1020 73 10000 1.03 0 20:46 13.05.2022
3722 Clear 23 1017 45 10000 3.6 240 20:27 13.05.2022
3723 Clear 23 1021 62 10000 4.12 230 19:28 13.05.2022
3724 Clear 23 1021 57 10000 5.14 210 17:53 13.05.2022
3725 Clear 23 1021 60 10000 5.66 230 17:29 13.05.2022
3726 Clear 23 1021 59 10000 5.14 230 16:20 13.05.2022
3727 Clear 23 1021 66 10000 5.66 220 15:29 13.05.2022
3728 Clear 23 1021 59 10000 6.17 230 13:54 13.05.2022
3729 Clear 25 1022 57 10000 4.47 221 12:32 13.05.2022
3730 Clear 27 1021 34 10000 2.06 30 11:23 13.05.2022
3731 Clear 27 1021 34 10000 2.06 30 11:23 13.05.2022
3732 Clear 22 1021 56 10000 2.57 30 09:35 13.05.2022
3733 Clear 20 1018 60 10000 2.57 40 08:49 13.05.2022
3734 Clear 16 1018 70 10000 2.24 348 07:48 13.05.2022
3735 Clear 15 1018 73 10000 2.68 350 06:35 13.05.2022
3736 Clear 16 1018 75 10000 2.57 40 04:22 13.05.2022
3737 Clear 19 1019 71 10000 3.6 60 00:39 13.05.2022
3738 Clear 20 1020 73 10000 2.57 70 22:46 12.05.2022
3739 Clear 21 1020 68 10000 2.57 60 21:58 12.05.2022
3740 Clear 24 1020 60 10000 3.6 80 20:37 12.05.2022
3741 Clear 25 1020 51 10000 3.13 201 19:18 12.05.2022
3742 Clear 26 1020 47 10000 3.58 264 17:27 12.05.2022
3743 Clear 28 1021 34 10000 4.12 150 16:27 12.05.2022
3744 Clear 26 1022 39 10000 3.6 140 14:47 12.05.2022
3745 Clear 26 1022 40 10000 4.12 150 13:47 12.05.2022
3746 Clear 24 1023 51 10000 3.6 70 11:23 12.05.2022
3747 Clouds 20 1023 58 10000 4.12 60 09:37 12.05.2022
3748 Clear 21 1020 52 10000 3.09 70 08:51 12.05.2022
3749 Clear 14 1017 65 10000 2.06 50 07:41 12.05.2022
3750 Clear 13 1019 67 10000 2.06 30 06:39 12.05.2022
3751 Clear 15 1019 70 10000 2.57 70 03:31 12.05.2022
3752 Clear 16 1019 68 10000 1.03 0 00:41 12.05.2022
3753 Clear 18 1020 68 10000 0.89 292 22:41 11.05.2022
3754 Clear 19 1019 67 10000 0.89 292 21:56 11.05.2022
3755 Clear 19 1019 61 10000 1.54 160 21:24 11.05.2022
3756 Clear 20 1022 70 10000 3.13 201 19:42 11.05.2022
3757 Clear 22 1022 61 10000 7.2 230 17:24 11.05.2022
3758 Clouds 22 1023 57 10000 6.17 230 15:59 11.05.2022
3759 Clouds 22 1023 53 10000 6.69 230 14:39 11.05.2022
3760 Clouds 22 1023 53 10000 6.69 230 14:39 11.05.2022
3761 Clouds 22 1023 56 10000 6.17 230 14:19 11.05.2022
3762 Clear 23 1023 59 10000 5.66 240 12:23 11.05.2022
3763 Clear 21 1023 65 10000 4.12 230 11:47 11.05.2022
3764 Clouds 20 1023 71 10000 0.51 0 09:29 11.05.2022
3765 Clear 13 1019 78 10000 1.79 346 06:24 11.05.2022
3766 Clear 16 1021 72 10000 1.03 30 01:29 11.05.2022
3767 Clear 19 1021 67 10000 1.54 150 22:56 10.05.2022
3768 Clear 19 1021 66 10000 1.79 214 22:21 10.05.2022
3769 Clear 19 1020 63 10000 2.57 200 21:21 10.05.2022
3770 Clear 21 1020 60 10000 3.6 210 20:21 10.05.2022
3771 Clouds 21 1023 62 10000 5.14 210 18:38 10.05.2022
3772 Clouds 21 1023 63 10000 5.66 220 17:38 10.05.2022
3773 Clouds 22 1024 67 10000 6.69 210 15:56 10.05.2022
3774 Clouds 21 1025 56 10000 5.14 230 12:51 10.05.2022
3775 Clear 22 1025 52 10000 4.12 230 11:53 10.05.2022
3776 Clear 22 1025 49 10000 3.09 250 11:30 10.05.2022
3777 Clear 22 1024 50 10000 2.57 230 10:56 10.05.2022
3778 Clear 19 1024 62 10000 0 0 09:28 10.05.2022
3779 Clouds 14 1018 70 10000 0.51 0 07:58 10.05.2022
3780 Clear 13 1020 68 10000 0.89 355 05:54 10.05.2022
3781 Clear 15 1020 64 10000 1.34 9 01:53 10.05.2022
3782 Clouds 16 1020 65 9000 0.89 292 23:43 09.05.2022
3783 Clear 18 1020 72 10000 1.03 0 22:33 09.05.2022
3784 Clear 19 1020 66 10000 2.06 230 21:37 09.05.2022
3785 Clouds 20 1023 67 10000 3.09 230 19:56 09.05.2022
3786 Clouds 21 1022 57 10000 5.14 230 18:25 09.05.2022
3787 Clouds 20 1022 62 10000 6.17 220 17:25 09.05.2022
3788 Clouds 20 1023 58 10000 4.63 220 16:18 09.05.2022
3789 Clouds 22 1019 46 10000 5.14 220 15:47 09.05.2022
3790 Clouds 21 1023 55 10000 5.66 230 14:33 09.05.2022
3791 Clouds 21 1023 57 10000 5.14 230 13:57 09.05.2022
3792 Clouds 22 1023 54 10000 3.13 225 12:55 09.05.2022
3793 Clouds 22 1023 52 10000 1.54 70 11:53 09.05.2022
3794 Clouds 22 1020 47 10000 2.57 30 10:48 09.05.2022
3795 Clouds 21 1020 52 10000 3.09 30 10:23 09.05.2022
3796 Clouds 14 1019 59 10000 2.06 70 07:57 09.05.2022
3797 Clouds 13 1019 65 10000 1.54 70 04:52 09.05.2022
3798 Clear 15 1019 65 10000 1.34 342 00:30 09.05.2022
3799 Clear 17 1019 61 10000 0.89 310 23:28 08.05.2022
3800 Clear 17 1017 57 10000 0.51 0 22:32 08.05.2022
3801 Clouds 19 1018 55 10000 3.09 250 21:20 08.05.2022
3802 Clouds 20 1017 54 10000 4.12 250 20:23 08.05.2022
3803 Clouds 20 1020 70 10000 2.06 220 19:33 08.05.2022
3804 Clouds 20 1021 72 10000 3.6 230 18:38 08.05.2022
3805 Clouds 22 1020 46 10000 4.63 230 17:39 08.05.2022
3806 Clouds 22 1017 57 10000 3.6 220 15:46 08.05.2022
3807 Clouds 21 1021 72 10000 4.12 220 15:22 08.05.2022
3808 Clouds 21 1020 68 10000 5.66 230 12:48 08.05.2022
3809 Clouds 20 1020 69 10000 4.63 210 11:45 08.05.2022
3810 Clouds 21 1020 61 10000 2.57 230 10:25 08.05.2022
3811 Clouds 20 1020 64 10000 1.54 210 09:53 08.05.2022
3812 Clouds 14 1019 77 10000 1.03 80 07:44 08.05.2022
3813 Clouds 13 1016 70 10000 1.54 20 06:18 08.05.2022
3814 Clear 15 1016 63 10000 0.89 292 03:22 08.05.2022
3815 Clear 16 1017 60 10000 0.89 5 01:19 08.05.2022
3816 Clouds 17 1018 62 10000 0.89 288 23:57 07.05.2022
3817 Clear 17 1018 63 10000 1.34 280 23:32 07.05.2022
3818 Clear 18 1017 61 10000 1.54 170 22:42 07.05.2022
3819 Clear 19 1017 59 10000 2.06 180 21:56 07.05.2022
3820 Clouds 19 1017 59 10000 2.57 160 21:28 07.05.2022
3821 Clouds 21 1016 44 10000 4.12 170 20:25 07.05.2022
3822 Clouds 25 1018 36 10000 3.09 220 18:52 07.05.2022
3823 Clouds 25 1019 35 10000 6.17 220 16:51 07.05.2022
3824 Clouds 24 1019 38 10000 7.2 250 15:18 07.05.2022
3825 Clouds 23 1020 38 10000 2.57 270 11:51 07.05.2022
3826 Clouds 21 1019 43 10000 1.54 280 10:18 07.05.2022
3827 Clouds 18 1017 52 10000 1.03 160 08:34 07.05.2022
3828 Clouds 17 1017 53 10000 1.54 140 07:30 07.05.2022
3829 Clouds 17 1016 53 10000 1.34 286 06:42 07.05.2022
3830 Clouds 17 1016 55 10000 0.45 292 04:19 07.05.2022
3831 Clouds 16 1018 63 10000 1.34 346 00:49 07.05.2022
3832 Clouds 16 1018 67 10000 2.57 250 22:41 06.05.2022
3833 Clouds 17 1018 68 10000 2.57 250 22:21 06.05.2022
3834 Clouds 17 1018 66 10000 2.57 230 21:32 06.05.2022
3835 Clouds 19 1019 67 10000 4.63 200 19:49 06.05.2022
3836 Clouds 21 1016 54 10000 4.63 200 19:27 06.05.2022
3837 Clouds 20 1019 66 10000 3.6 180 18:43 06.05.2022
3838 Clouds 21 1019 55 10000 4.47 211 17:38 06.05.2022
3839 Clouds 22 1019 51 10000 5.14 150 15:55 06.05.2022
3840 Clouds 22 1019 52 10000 5.14 130 15:32 06.05.2022
3841 Clouds 23 1019 45 10000 4.63 230 14:22 06.05.2022
3842 Clouds 22 1020 47 10000 3.58 272 12:52 06.05.2022
3843 Clouds 21 1020 52 10000 4.63 310 11:58 06.05.2022
3844 Clouds 20 1020 54 10000 5.14 310 11:31 06.05.2022
3845 Clouds 19 1020 54 10000 4.92 300 09:48 06.05.2022
3846 Clouds 18 1020 65 10000 0.89 257 09:18 06.05.2022
3847 Clouds 15 1018 69 10000 1.03 0 07:55 06.05.2022
3848 Clouds 13 1017 70 10000 1.03 160 06:27 06.05.2022
3849 Clouds 14 1018 65 10000 0.89 294 04:29 06.05.2022
3850 Clouds 15 1018 61 10000 0.89 68 02:38 06.05.2022
3851 Clouds 17 1020 59 10000 1.54 120 23:25 05.05.2022
3852 Clouds 18 1019 52 10000 1.54 110 21:51 05.05.2022
3853 Clouds 19 1018 52 10000 7.2 60 20:37 05.05.2022
3854 Clouds 20 1019 51 10000 7.72 60 19:20 05.05.2022
3855 Clouds 21 1018 46 10000 10.8 50 16:49 05.05.2022
3856 Clouds 22 1018 41 10000 12.35 60 15:48 05.05.2022
3857 Clouds 22 1015 33 10000 11.32 60 14:34 05.05.2022
3858 Clouds 21 1016 48 10000 9.77 50 13:18 05.05.2022
3859 Clouds 21 1015 49 10000 9.26 60 11:46 05.05.2022
3860 Clouds 20 1014 52 10000 8.75 50 09:47 05.05.2022
3861 Clouds 19 1016 64 10000 8.23 60 09:26 05.05.2022
3862 Clouds 18 1013 49 10000 7.2 40 06:49 05.05.2022
3863 Clouds 18 1013 51 10000 7.72 70 02:30 05.05.2022
3864 Clouds 18 1013 52 10000 7.2 60 01:47 05.05.2022
3865 Clouds 18 1013 49 10000 8.49 63 01:19 05.05.2022
3866 Clouds 18 1013 49 10000 10.29 60 23:27 04.05.2022
3867 Clouds 18 1013 51 10000 8.23 50 22:23 04.05.2022
3868 Clouds 18 1012 54 10000 9.26 60 21:46 04.05.2022
3869 Clouds 18 1012 54 10000 9.77 50 21:22 04.05.2022
3870 Clouds 18 1011 57 10000 10.29 50 20:20 04.05.2022
3871 Clouds 19 1011 59 10000 11.83 50 19:44 04.05.2022
3872 Clouds 19 1011 58 10000 11.32 60 18:44 04.05.2022
3873 Clouds 20 1012 55 10000 11.83 50 18:20 04.05.2022
3874 Clouds 21 1011 53 10000 11.83 60 17:22 04.05.2022
3875 Clouds 21 1012 50 10000 9.26 50 15:35 04.05.2022
3876 Clouds 20 1015 61 10000 8.23 60 14:49 04.05.2022
3877 Clouds 20 1012 61 10000 7.72 50 14:20 04.05.2022
3878 Clouds 18 1012 70 10000 5.66 60 12:58 04.05.2022
3879 Clouds 18 1013 69 10000 7.15 20 12:28 04.05.2022
3880 Clouds 17 1012 78 10000 7.2 60 10:33 04.05.2022
3881 Clouds 16 1011 80 10000 7.2 60 09:28 04.05.2022
3882 Rain 15 1011 81 10000 5.66 60 08:33 04.05.2022
3883 Clouds 14 1013 85 10000 5.14 60 05:44 04.05.2022
3884 Clouds 14 1012 83 10000 1.34 55 02:43 04.05.2022
3885 Clouds 16 1013 81 10000 2.06 50 23:31 03.05.2022
3886 Clouds 17 1012 76 10000 2.06 50 22:20 03.05.2022
3887 Clouds 18 1012 73 10000 2.06 130 21:33 03.05.2022
3888 Clouds 18 1011 70 10000 2.57 130 20:52 03.05.2022
3889 Clouds 19 1014 69 10000 4.12 120 19:44 03.05.2022
3890 Clouds 20 1013 66 10000 4.12 130 18:50 03.05.2022
3891 Clouds 21 1013 64 10000 5.14 130 17:38 03.05.2022
3892 Clouds 21 1011 61 10000 5.66 80 16:35 03.05.2022
3893 Clouds 19 1013 72 10000 4.12 80 14:51 03.05.2022
3894 Clouds 19 1013 73 10000 5.14 110 12:47 03.05.2022
3895 Clouds 19 1013 79 10000 5.14 80 12:25 03.05.2022
3896 Clouds 18 1011 80 10000 4.92 67 10:52 03.05.2022
3897 Clouds 17 1010 76 10000 4.63 70 08:58 03.05.2022
3898 Clouds 15 1009 82 10000 2.57 70 06:46 03.05.2022
3899 Clouds 15 1009 76 10000 3.09 70 04:58 03.05.2022
3900 Clouds 16 1011 62 10000 2.57 80 00:19 03.05.2022
3901 Clouds 16 1012 67 10000 2.06 70 22:36 02.05.2022
3902 Clouds 17 1012 63 10000 1.54 80 21:51 02.05.2022
3903 Clouds 18 1013 57 10000 3.6 80 20:51 02.05.2022
3904 Clouds 21 1008 55 10000 4.63 160 18:37 02.05.2022
3905 Clouds 21 1009 56 10000 5.14 160 17:57 02.05.2022
3906 Clouds 20 1013 64 10000 5.66 170 17:34 02.05.2022
3907 Clouds 21 1013 65 10000 7.6 196 16:21 02.05.2022
3908 Clouds 21 1011 61 10000 6.17 180 15:29 02.05.2022
3909 Clouds 21 1014 71 10000 4.47 178 13:50 02.05.2022
3910 Clouds 22 1014 56 10000 3.13 76 12:19 02.05.2022
3911 Clouds 18 1015 76 10000 2.24 78 10:38 02.05.2022
3912 Clouds 17 1012 83 10000 1.54 50 08:49 02.05.2022
3913 Clouds 15 1011 85 10000 0.45 45 07:40 02.05.2022
3914 Clouds 15 1013 87 10000 1.03 40 03:48 02.05.2022
3915 Clouds 16 1014 83 10000 1.03 0 00:24 02.05.2022
3916 Clouds 17 1014 82 10000 0.45 189 23:47 01.05.2022
3917 Clouds 17 1014 82 10000 1.34 189 22:25 01.05.2022
3918 Clouds 17 1013 78 10000 2.57 230 21:19 01.05.2022
3919 Clear 18 1016 80 10000 4.12 230 19:51 01.05.2022
3920 Clear 19 1017 79 10000 4.63 230 18:57 01.05.2022
3921 Clear 21 1014 64 10000 5.14 230 18:28 01.05.2022
3922 Clear 20 1017 68 10000 4.63 230 17:26 01.05.2022
3923 Clouds 20 1018 73 10000 5.66 240 16:23 01.05.2022
3924 Clouds 20 1018 73 10000 4.12 240 15:25 01.05.2022
3925 Clouds 21 1019 61 10000 4.63 240 13:42 01.05.2022
3926 Clouds 20 1020 62 10000 4.12 220 11:18 01.05.2022
3927 Clouds 16 1016 75 10000 1.03 0 08:53 01.05.2022
3928 Clouds 15 1016 79 10000 1.03 0 08:34 01.05.2022
3929 Clouds 15 1017 77 10000 1.54 50 03:35 01.05.2022
3930 Clouds 16 1018 76 10000 1.34 68 00:18 01.05.2022
3931 Clouds 19 1018 64 10000 1.54 180 21:47 30.04.2022
3932 Clouds 19 1021 71 10000 2.06 220 20:59 30.04.2022
3933 Clouds 20 1020 61 10000 3.6 220 19:41 30.04.2022
3934 Clouds 21 1020 56 10000 4.63 220 18:21 30.04.2022
3935 Clouds 21 1020 51 10000 5.14 220 16:44 30.04.2022
3936 Clouds 22 1020 49 10000 5.66 220 15:47 30.04.2022
3937 Clouds 22 1021 51 10000 5.81 211 14:48 30.04.2022
3938 Clouds 21 1022 52 10000 5.14 230 12:55 30.04.2022
3939 Clouds 22 1022 48 10000 2.68 213 11:34 30.04.2022
3940 Clouds 22 1022 47 10000 0.51 330 10:44 30.04.2022
3941 Clouds 19 1022 58 10000 1.54 20 09:41 30.04.2022
3942 Clouds 13 1018 64 10000 1.54 50 06:43 30.04.2022
3943 Clear 14 1020 63 10000 2.06 50 02:36 30.04.2022
3944 Clear 17 1020 59 10000 3.6 40 23:37 29.04.2022
3945 Clear 17 1022 61 10000 3.09 40 22:31 29.04.2022
3946 Clear 18 1021 52 10000 2.57 60 21:39 29.04.2022
3947 Clear 20 1021 42 10000 3.6 80 20:49 29.04.2022
3948 Clear 23 1020 38 10000 5.14 70 19:47 29.04.2022
3949 Clouds 24 1021 31 10000 5.36 66 17:59 29.04.2022
3950 Clouds 24 1022 31 10000 5.66 50 17:23 29.04.2022
3951 Clouds 24 1023 34 10000 5.66 40 15:50 29.04.2022
3952 Clouds 24 1023 40 10000 4.63 70 14:22 29.04.2022
3953 Clouds 22 1024 47 10000 6.69 60 13:22 29.04.2022
3954 Clouds 21 1024 55 10000 8.75 60 11:50 29.04.2022
3955 Clouds 18 1021 61 10000 6.71 64 08:53 29.04.2022
3956 Clouds 13 1020 81 10000 1.03 0 07:28 29.04.2022
3957 Clouds 13 1020 81 10000 1.03 0 07:28 29.04.2022
3958 Clouds 13 1019 79 10000 2.06 90 06:46 29.04.2022
3959 Clouds 13 1019 72 10000 1.03 0 05:44 29.04.2022
3960 Clouds 16 1020 71 10000 3.58 26 00:46 29.04.2022
3961 Clouds 16 1019 77 10000 3.09 50 23:48 28.04.2022
3962 Clouds 16 1019 76 10000 3.6 50 22:45 28.04.2022
3963 Clouds 16 1018 74 10000 5.66 50 21:47 28.04.2022
3964 Clouds 17 1018 72 10000 5.14 60 21:22 28.04.2022
3965 Clouds 17 1017 67 10000 7.72 60 20:35 28.04.2022
3966 Clouds 18 1016 65 10000 5.66 70 19:46 28.04.2022
3967 Clouds 19 1016 64 10000 5.14 60 19:23 28.04.2022
3968 Clouds 20 1016 59 10000 4.12 90 18:37 28.04.2022
3969 Clouds 21 1016 53 10000 5.66 80 17:32 28.04.2022
3970 Clouds 21 1019 59 10000 5.66 70 16:41 28.04.2022
3971 Clouds 21 1019 56 10000 5.66 50 16:19 28.04.2022
3972 Clouds 21 1019 58 10000 5.66 50 15:40 28.04.2022
3973 Clouds 21 1019 50 10000 4.47 27 14:38 28.04.2022
3974 Clouds 21 1019 53 10000 5.66 50 13:20 28.04.2022
3975 Clouds 20 1019 54 10000 6.69 60 12:28 28.04.2022
3976 Clouds 19 1019 62 10000 5.14 60 10:47 28.04.2022
3977 Clouds 18 1019 67 10000 5.14 60 10:26 28.04.2022
3978 Clouds 18 1019 69 10000 6.17 60 09:41 28.04.2022
3979 Clear 14 1015 70 10000 3.09 60 07:38 28.04.2022
3980 Clear 14 1014 70 10000 3.6 50 06:37 28.04.2022
3981 Clear 14 1015 70 10000 3.6 30 05:39 28.04.2022
3982 Clear 14 1015 68 10000 1.54 340 04:41 28.04.2022
3983 Clear 16 1016 63 10000 2.06 70 00:36 28.04.2022
3984 Clear 17 1016 55 10000 3.09 60 22:49 27.04.2022
3985 Clear 17 1015 53 10000 1.34 64 21:58 27.04.2022
3986 Clear 18 1015 50 10000 1.79 84 21:29 27.04.2022
3987 Clear 19 1016 45 10000 2.06 200 20:44 27.04.2022
3988 Clouds 19 1017 54 10000 5.14 240 19:39 27.04.2022
3989 Clouds 19 1017 54 10000 5.14 240 19:39 27.04.2022
3990 Clouds 20 1014 43 10000 5.14 240 19:19 27.04.2022
3991 Clouds 19 1016 52 10000 3.13 258 18:38 27.04.2022
3992 Clouds 20 1016 48 10000 2.57 240 17:26 27.04.2022
3993 Clouds 21 1017 47 10000 4.63 220 15:56 27.04.2022
3994 Rain 22 1014 31 10000 3.6 60 12:34 27.04.2022
3995 Clear 21 1018 44 10000 3.09 50 11:23 27.04.2022
3996 Clear 19 1015 44 10000 4.63 60 10:22 27.04.2022
3997 Clear 13 1013 64 10000 1.03 0 07:41 27.04.2022
3998 Clear 13 1013 64 10000 1.54 40 06:30 27.04.2022
3999 Clear 14 1013 57 10000 1.79 360 02:21 27.04.2022
4000 Clear 15 1013 56 10000 1.54 110 01:18 27.04.2022
4001 Clear 16 1013 52 10000 1.03 0 00:27 27.04.2022
4002 Clear 17 1013 48 10000 0.89 68 23:23 26.04.2022
4003 Clear 17 1016 56 10000 3.6 60 22:43 26.04.2022
4004 Clear 18 1015 49 10000 3.13 38 21:57 26.04.2022
4005 Clear 19 1014 45 10000 2.06 80 20:58 26.04.2022
4006 Clear 20 1014 42 10000 3.09 90 20:36 26.04.2022
4007 Clear 21 1014 40 10000 4.02 105 19:35 26.04.2022
4008 Clear 22 1014 38 10000 4.02 88 18:53 26.04.2022
4009 Clear 21 1014 51 10000 1.79 206 18:19 26.04.2022
4010 Clear 21 1015 55 10000 4.12 280 17:34 26.04.2022
4011 Clouds 21 1015 59 10000 5.14 240 14:58 26.04.2022
4012 Clear 23 1016 42 10000 3.6 100 13:34 26.04.2022
4013 Clouds 23 1016 37 10000 4.02 41 12:35 26.04.2022
4014 Clear 21 1015 46 10000 3.6 50 10:57 26.04.2022
4015 Clear 19 1015 52 10000 3.09 60 10:29 26.04.2022
4016 Clear 13 1013 72 10000 1.34 5 08:29 26.04.2022
4017 Clear 11 1011 75 10000 2.68 5 04:38 26.04.2022
4018 Clear 11 1012 72 10000 1.34 355 03:25 26.04.2022
4019 Clear 13 1013 70 10000 0.45 292 00:46 26.04.2022
4020 Clear 14 1013 68 10000 1.54 60 23:48 25.04.2022
4021 Clear 16 1011 56 10000 1.54 210 21:49 25.04.2022
4022 Clear 17 1011 60 10000 1.54 210 21:23 25.04.2022
4023 Clouds 18 1014 54 10000 3.09 210 19:39 25.04.2022
4024 Clouds 20 1014 44 10000 4.12 220 18:31 25.04.2022
4025 Clouds 20 1013 52 10000 4.12 220 17:39 25.04.2022
4026 Clouds 20 1014 43 10000 4.63 230 16:35 25.04.2022
4027 Clouds 20 1015 43 10000 4.63 240 15:21 25.04.2022
4028 Clouds 20 1015 51 10000 4.12 230 14:23 25.04.2022
4029 Clouds 19 1015 63 10000 4.12 230 12:40 25.04.2022
4030 Clouds 18 1014 68 10000 1.34 173 10:29 25.04.2022
4031 Clear 16 1014 81 10000 0 0 09:39 25.04.2022
4032 Fog 8 1012 91 10000 1.54 50 07:34 25.04.2022
4033 Clear 10 1011 79 10000 1.79 338 05:54 25.04.2022
4034 Clear 12 1011 71 10000 1.03 170 01:28 25.04.2022
4035 Clear 14 1011 70 10000 1.03 0 23:54 24.04.2022
4036 Clear 14 1011 67 10000 1.03 0 23:22 24.04.2022
4037 Clear 16 1010 64 10000 1.54 190 22:38 24.04.2022
4038 Clear 16 1006 34 10000 2.06 180 21:55 24.04.2022
4039 Clear 17 1010 54 10000 2.57 190 21:21 24.04.2022
4040 Clear 16 1011 72 10000 4.12 230 20:44 24.04.2022
4041 Clear 18 1011 63 10000 5.66 230 19:57 24.04.2022
4042 Clear 20 1011 48 10000 6.17 230 18:37 24.04.2022
4043 Clear 20 1012 52 10000 8.23 240 17:42 24.04.2022
4044 Clear 20 1012 52 10000 8.23 240 17:21 24.04.2022
4045 Clear 19 1012 54 10000 7.72 240 16:51 24.04.2022
4046 Clear 21 1012 42 10000 7.72 240 16:25 24.04.2022
4047 Clouds 20 1011 50 10000 8.75 240 15:39 24.04.2022
4048 Clear 20 1011 49 10000 8.75 250 14:33 24.04.2022
4049 Clear 20 1011 49 10000 8.75 250 14:33 24.04.2022
4050 Clear 20 1011 47 10000 7.72 240 13:26 24.04.2022
4051 Clouds 20 1011 46 10000 7.2 240 12:55 24.04.2022
4052 Clouds 19 1011 50 10000 7.2 240 11:49 24.04.2022
4053 Clouds 18 1010 51 10000 4.63 250 10:37 24.04.2022
4054 Clouds 18 1010 55 10000 4.63 250 09:43 24.04.2022
4055 Clouds 14 1006 59 10000 2.68 215 07:42 24.04.2022
4056 Clouds 16 1005 50 10000 3.6 270 05:45 24.04.2022
4057 Clouds 16 1005 46 10000 6.17 250 01:58 24.04.2022
4058 Clouds 16 1005 49 10000 8.75 260 00:45 24.04.2022
4059 Clouds 16 1005 56 10000 8.23 250 23:46 23.04.2022
4060 Clouds 16 1005 51 10000 8.23 240 23:25 23.04.2022
4061 Clouds 16 1004 64 10000 6.69 220 21:58 23.04.2022
4062 Clouds 16 1004 68 10000 7.72 230 21:36 23.04.2022
4063 Clouds 16 1003 70 10000 8.75 230 20:59 23.04.2022
4064 Clouds 17 1002 64 10000 11.32 230 19:56 23.04.2022
4065 Clouds 17 1002 64 10000 10.8 230 19:20 23.04.2022
4066 Clouds 18 1002 62 10000 10.29 230 18:53 23.04.2022
4067 Clouds 18 1002 62 10000 12.35 230 18:31 23.04.2022
4068 Clouds 18 1002 56 10000 12.86 230 17:44 23.04.2022
4069 Clouds 17 1004 64 10000 13.38 230 16:45 23.04.2022
4070 Clouds 17 1001 60 10000 12.35 230 15:36 23.04.2022
4071 Clouds 14 1000 72 10000 7.72 220 12:59 23.04.2022
4072 Rain 13 1000 75 10000 7.72 260 11:29 23.04.2022
4073 Clouds 15 998 78 10000 6.17 240 09:39 23.04.2022
4074 Clouds 16 999 76 10000 8.75 220 07:52 23.04.2022
4075 Clouds 16 999 78 10000 5.66 210 03:56 23.04.2022
4076 Clouds 16 1000 76 10000 6.17 200 02:34 23.04.2022
4077 Clouds 15 1001 81 9000 3.6 200 23:34 22.04.2022
4078 Clouds 16 1001 82 9000 2.68 209 22:40 22.04.2022
4079 Clouds 16 1000 81 9000 3.6 220 21:55 22.04.2022
4080 Clouds 16 1000 81 9000 3.6 220 21:55 22.04.2022
4081 Clouds 16 1001 81 9000 5.66 210 21:37 22.04.2022
4082 Clouds 16 1001 79 10000 6.17 220 20:29 22.04.2022
4083 Clouds 16 1001 76 10000 6.69 210 19:23 22.04.2022
4084 Clouds 17 1002 75 10000 6.69 210 18:56 22.04.2022
4085 Clouds 17 1002 73 10000 6.69 220 18:24 22.04.2022
4086 Clouds 18 1002 73 10000 6.71 219 16:53 22.04.2022
4087 Clouds 18 1005 69 10000 6.17 220 15:57 22.04.2022
4088 Clouds 20 1001 56 10000 7.2 220 15:23 22.04.2022
4089 Clouds 18 1005 64 10000 7.2 220 14:37 22.04.2022
4090 Clouds 19 1005 62 10000 6.17 220 13:41 22.04.2022
4091 Clouds 18 1005 66 10000 5.66 230 12:36 22.04.2022
4092 Clouds 18 1003 74 10000 4.12 230 11:23 22.04.2022
4093 Clouds 17 1005 80 10000 3.09 230 10:56 22.04.2022
4094 Clouds 17 1005 82 10000 3.13 201 10:32 22.04.2022
4095 Clouds 16 1005 84 10000 1.03 0 09:54 22.04.2022
4096 Clouds 14 1003 88 10000 1.03 0 08:56 22.04.2022
4097 Clouds 12 1001 91 10000 0.89 68 08:36 22.04.2022
4098 Clouds 11 1001 86 10000 0.51 0 06:38 22.04.2022
4099 Clouds 13 1003 83 10000 3.6 280 00:56 22.04.2022
4100 Clouds 13 1002 85 10000 4.63 300 23:31 21.04.2022
4101 Rain 13 1002 85 10000 6.69 330 22:36 21.04.2022
4102 Drizzle 13 1000 86 10000 8.23 320 21:36 21.04.2022
4103 Drizzle 13 1000 81 10000 7.2 320 20:30 21.04.2022
4104 Clouds 14 1000 71 10000 7.2 310 18:49 21.04.2022
4105 Clouds 15 1000 66 10000 7.2 320 18:26 21.04.2022
4106 Clouds 15 1000 61 10000 6.69 300 17:19 21.04.2022
4107 Clouds 17 1000 54 10000 8.75 330 15:25 21.04.2022
4108 Clouds 17 1002 60 10000 8.23 350 14:52 21.04.2022
4109 Clouds 16 1002 61 10000 7.6 19 14:18 21.04.2022
4110 Clouds 16 1002 61 10000 7.72 350 13:21 21.04.2022
4111 Clouds 17 1003 54 10000 2.57 340 12:25 21.04.2022
4112 Clouds 15 1002 63 10000 2.24 32 09:36 21.04.2022
4113 Clouds 13 1000 64 10000 3.09 50 08:47 21.04.2022
4114 Clouds 11 1000 72 10000 2.06 50 06:44 21.04.2022
4115 Clouds 11 1000 78 10000 3.13 32 03:42 21.04.2022
4116 Clouds 11 1000 78 10000 3.09 60 03:22 21.04.2022
4117 Clouds 11 1001 78 10000 1.54 100 02:44 21.04.2022
4118 Clouds 11 1001 78 10000 2.06 50 02:44 21.04.2022
4119 Rain 13 997 60 10000 2.57 150 00:35 21.04.2022
4120 Clouds 14 997 52 10000 4.12 140 23:37 20.04.2022
4121 Rain 15 1002 61 10000 4.12 140 23:18 20.04.2022
4122 Clouds 15 1001 62 10000 5.81 129 22:36 20.04.2022
4123 Clouds 15 1001 58 10000 4.47 150 21:47 20.04.2022
4124 Clouds 15 1001 54 10000 7.2 200 20:45 20.04.2022
4125 Clouds 16 1001 52 10000 6.69 210 20:21 20.04.2022
4126 Clouds 16 1001 55 10000 6.26 182 19:46 20.04.2022
4127 Clouds 17 1001 60 10000 6.17 220 18:48 20.04.2022
4128 Clouds 17 1004 65 10000 5.14 230 17:50 20.04.2022
4129 Clouds 18 1003 68 10000 8.23 220 16:39 20.04.2022
4130 Clouds 19 1002 71 10000 6.69 190 15:33 20.04.2022
4131 Clouds 17 1003 82 9000 4.63 180 12:46 20.04.2022
4132 Clouds 17 1003 79 9000 4.12 160 11:42 20.04.2022
4133 Clouds 17 1000 80 9000 3.09 160 10:44 20.04.2022
4134 Clouds 16 1001 85 9000 1.54 140 09:34 20.04.2022
4135 Clouds 16 999 85 9000 2.06 160 08:51 20.04.2022
4136 Clouds 15 999 85 9000 1.03 0 08:19 20.04.2022
4137 Clouds 14 1002 83 10000 0.51 0 06:23 20.04.2022
4138 Clouds 14 1004 80 10000 1.54 50 02:58 20.04.2022
4139 Clear 15 1005 73 10000 1.54 60 00:22 20.04.2022
4140 Clear 16 1006 69 10000 2.57 50 23:19 19.04.2022
4141 Clear 17 1009 72 10000 2.24 116 22:24 19.04.2022
4142 Clear 17 1009 70 10000 2.24 85 21:55 19.04.2022
4143 Clear 17 1009 70 10000 2.24 85 21:55 19.04.2022
4144 Clear 18 1000 50 10000 1.54 100 21:18 19.04.2022
4145 Clear 21 1007 43 10000 4.12 150 20:37 19.04.2022
4146 Clear 19 1009 65 10000 3.6 120 19:43 19.04.2022
4147 Clear 22 1008 48 10000 3.6 150 18:37 19.04.2022
4148 Clear 23 1009 41 10000 3.6 130 17:27 19.04.2022
4149 Clear 23 1009 44 10000 4.12 140 16:43 19.04.2022
4150 Clear 24 1010 41 10000 3.13 196 16:21 19.04.2022
4151 Clouds 24 1011 35 10000 3.09 130 14:47 19.04.2022
4152 Clouds 21 1012 43 10000 2.57 50 13:22 19.04.2022
4153 Clouds 20 1011 40 10000 1.54 70 12:49 19.04.2022
4154 Clear 21 1008 27 10000 1.54 50 11:39 19.04.2022
4155 Clear 16 1012 63 10000 0.51 0 09:57 19.04.2022
4156 Clouds 15 1008 50 10000 1.03 0 08:43 19.04.2022
4157 Clear 11 1011 61 10000 1.34 344 04:41 19.04.2022
4158 Clear 12 1012 63 10000 1.79 346 03:19 19.04.2022
4159 Clear 13 1013 64 10000 1.34 360 00:27 19.04.2022
4160 Clear 14 1013 66 10000 1.03 0 23:25 18.04.2022
4161 Clear 16 1012 69 10000 0.51 40 21:29 18.04.2022
4162 Clear 17 1011 62 10000 2.57 250 20:53 18.04.2022
4163 Clear 18 1012 67 10000 2.57 240 20:27 18.04.2022
4164 Clear 18 1016 77 10000 3.6 260 19:42 18.04.2022
4165 Clear 18 1015 75 10000 3.6 250 18:54 18.04.2022
4166 Clear 19 1016 69 10000 4.12 230 17:55 18.04.2022
4167 Clear 19 1016 67 10000 4.12 240 17:33 18.04.2022
4168 Clear 19 1016 67 10000 4.12 240 17:33 18.04.2022
4169 Clear 19 1016 68 10000 4.12 240 16:50 18.04.2022
4170 Clear 19 1016 71 10000 5.66 240 16:21 18.04.2022
4171 Clouds 18 1017 71 10000 4.12 240 14:45 18.04.2022
4172 Clouds 19 1017 63 10000 3.09 250 13:35 18.04.2022
4173 Clouds 20 1017 50 10000 3.6 240 12:29 18.04.2022
4174 Clouds 20 1014 39 10000 2.57 240 11:34 18.04.2022
4175 Clouds 18 1017 52 10000 1.03 0 10:31 18.04.2022
4176 Clouds 18 1014 36 10000 1.03 0 09:31 18.04.2022
4177 Clear 12 1013 53 10000 0.51 0 07:42 18.04.2022
4178 Clouds 12 1013 52 9000 1.03 50 05:37 18.04.2022
4179 Clear 14 1014 52 10000 1.03 0 00:27 18.04.2022
4180 Clear 16 1014 39 10000 1.54 70 22:41 17.04.2022
4181 Clear 16 1017 55 10000 2.57 20 21:46 17.04.2022
4182 Clear 17 1013 42 10000 1.54 60 21:24 17.04.2022
4183 Clear 20 1012 35 10000 3.09 120 20:35 17.04.2022
4184 Clear 20 1012 35 10000 3.09 120 20:35 17.04.2022
4185 Clear 22 1015 46 10000 3.6 190 19:28 17.04.2022
4186 Clear 23 1015 43 10000 4.63 230 17:48 17.04.2022
4187 Clear 25 1015 33 10000 3.09 90 15:40 17.04.2022
4188 Clear 24 1016 35 10000 5.14 80 14:55 17.04.2022
4189 Clear 25 1016 36 10000 5.66 70 13:48 17.04.2022
4190 Clear 25 1016 35 10000 3.6 50 12:58 17.04.2022
4191 Clear 24 1016 33 10000 5.14 30 12:27 17.04.2022
4192 Clear 23 1016 40 10000 3.09 50 10:46 17.04.2022
4193 Clear 21 1016 52 10000 4.63 60 10:28 17.04.2022
4194 Clear 18 1016 64 10000 0.51 0 09:34 17.04.2022
4195 Clear 18 1013 62 10000 1.03 0 08:51 17.04.2022
4196 Clear 12 1013 75 10000 1.54 70 07:30 17.04.2022
4197 Clouds 14 1013 70 10000 0.89 68 04:29 17.04.2022
4198 Clouds 14 1014 61 10000 1.54 60 01:26 17.04.2022
4199 Clear 16 1013 54 10000 0.51 0 23:52 16.04.2022
4200 Clear 18 1013 46 10000 2.06 210 22:35 16.04.2022
4201 Clear 20 1015 60 10000 3.09 200 21:38 16.04.2022
4202 Clear 21 1015 60 10000 4.12 210 20:32 16.04.2022
4203 Clouds 25 1015 47 10000 3.09 210 18:59 16.04.2022
4204 Clouds 25 1015 41 10000 4.12 230 17:52 16.04.2022
4205 Clouds 25 1016 44 10000 3.6 230 16:40 16.04.2022
4206 Clouds 25 1017 44 10000 5.14 230 15:45 16.04.2022
4207 Clouds 24 1017 46 10000 4.63 240 14:56 16.04.2022
4208 Clear 22 1018 56 10000 2.06 240 13:58 16.04.2022
4209 Clear 21 1018 60 10000 2.06 210 13:37 16.04.2022
4210 Clear 21 1018 53 10000 2.06 210 12:26 16.04.2022
4211 Clear 22 1015 45 10000 1.34 212 11:18 16.04.2022
4212 Clear 19 1015 57 10000 0.51 310 09:56 16.04.2022
4213 Clear 14 1015 74 10000 0.51 0 08:59 16.04.2022
4214 Clear 8 1018 93 10000 1.54 50 07:57 16.04.2022
4215 Clear 11 1018 83 10000 1.03 0 06:58 16.04.2022
4216 Clear 12 1015 72 10000 0.51 0 03:36 16.04.2022
4217 Clear 14 1016 68 10000 1.03 10 00:31 16.04.2022
4218 Clear 15 1016 62 10000 1.54 50 23:23 15.04.2022
4219 Clear 16 1015 57 10000 2.06 90 22:36 15.04.2022
4220 Clear 17 1015 51 10000 0 0 21:55 15.04.2022
4221 Clear 17 1015 51 10000 1.03 0 21:18 15.04.2022
4222 Clear 19 1015 39 10000 1.54 190 20:24 15.04.2022
4223 Clear 20 1018 51 10000 2.57 220 19:40 15.04.2022
4224 Clear 20 1018 52 10000 2.57 200 18:54 15.04.2022
4225 Clear 22 1014 35 10000 4.12 100 18:25 15.04.2022
4226 Clear 22 1017 49 10000 6.17 80 17:35 15.04.2022
4227 Clear 23 1017 40 10000 7.72 80 16:53 15.04.2022
4228 Clear 24 1017 35 10000 5.66 90 16:19 15.04.2022
4229 Clear 24 1017 31 10000 6.17 80 15:24 15.04.2022
4230 Clear 23 1017 25 10000 7.72 60 13:42 15.04.2022
4231 Clouds 21 1018 40 10000 7.2 60 12:43 15.04.2022
4232 Clouds 21 1018 37 10000 6.69 60 11:58 15.04.2022
4233 Clouds 21 1018 37 10000 7.2 60 11:35 15.04.2022
4234 Clear 21 1017 43 10000 5.66 50 10:45 15.04.2022
4235 Clear 17 1014 57 10000 1.79 54 09:50 15.04.2022
4236 Clouds 15 1014 67 10000 3.6 40 09:21 15.04.2022
4237 Clear 14 1014 68 10000 2.06 40 07:53 15.04.2022
4238 Clouds 15 1014 68 10000 3.09 70 06:46 15.04.2022
4239 Clouds 15 1013 65 10000 3.09 60 03:47 15.04.2022
4240 Rain 15 1013 65 10000 5.14 60 23:32 14.04.2022
4241 Clouds 15 1013 64 10000 4.12 60 22:50 14.04.2022
4242 Rain 15 1013 65 10000 4.12 70 22:32 14.04.2022
4243 Clouds 15 1013 63 10000 5.14 70 21:59 14.04.2022
4244 Clouds 16 1012 61 10000 3.6 70 21:30 14.04.2022
4245 Clouds 18 1011 49 10000 6.69 60 19:24 14.04.2022
4246 Clouds 18 1014 59 10000 8.75 50 18:31 14.04.2022
4247 Clouds 18 1013 63 10000 9.26 50 17:44 14.04.2022
4248 Clouds 19 1013 63 10000 8.23 50 16:49 14.04.2022
4249 Clouds 19 1013 63 10000 7.2 50 15:48 14.04.2022
4250 Clouds 19 1010 50 10000 6.17 50 13:49 14.04.2022
4251 Clouds 19 1010 53 10000 7.72 60 13:19 14.04.2022
4252 Clouds 17 1010 57 10000 7.72 60 12:32 14.04.2022
4253 Rain 17 1010 56 10000 8.23 40 11:36 14.04.2022
4254 Clouds 17 1010 55 10000 8.23 60 10:57 14.04.2022
4255 Clouds 17 1009 58 10000 8.75 60 10:29 14.04.2022
4256 Rain 15 1009 67 10000 6.17 50 09:28 14.04.2022
4257 Clouds 14 1009 72 7000 3.09 60 07:54 14.04.2022
4258 Clouds 14 1008 76 7000 8.23 50 05:35 14.04.2022
4259 Clouds 14 1008 88 6000 6.69 50 00:22 14.04.2022
4260 Clouds 15 1008 86 9000 7.2 50 22:37 13.04.2022
4261 Clouds 15 1007 84 9000 6.69 60 21:42 13.04.2022
4262 Rain 15 1009 94 10000 4.63 70 20:39 13.04.2022
4263 Clouds 15 1010 93 8000 5.14 50 19:48 13.04.2022
4264 Clouds 15 1010 93 7000 3.6 60 18:37 13.04.2022
4265 Clouds 15 1010 90 10000 2.57 30 17:25 13.04.2022
4266 Clouds 15 1008 86 10000 3.09 50 16:52 13.04.2022
4267 Clouds 16 1010 88 10000 3.09 40 15:45 13.04.2022
4268 Clouds 15 1008 87 10000 2.06 50 15:23 13.04.2022
4269 Drizzle 16 1011 91 10000 1.03 0 14:40 13.04.2022
4270 Clouds 16 1011 91 10000 2.06 80 13:38 13.04.2022
4271 Clouds 15 1011 91 10000 1.79 106 12:51 13.04.2022
4272 Clouds 15 1009 89 10000 1.03 0 11:47 13.04.2022
4273 Rain 15 1009 89 8000 0.51 30 10:31 13.04.2022
4274 Rain 14 1006 88 10000 1.03 0 08:45 13.04.2022
4275 Rain 14 1006 88 10000 2.57 320 08:23 13.04.2022
4276 Rain 15 1008 86 10000 2.24 275 06:49 13.04.2022
4277 Clouds 15 1008 85 10000 1.79 271 06:24 13.04.2022
4278 Clouds 16 1009 84 10000 3.09 200 02:24 13.04.2022
4279 Clouds 16 1008 82 10000 3.09 50 00:20 13.04.2022
4280 Clouds 17 1012 85 10000 2.57 60 22:34 12.04.2022
4281 Clouds 17 1011 84 10000 2.57 50 21:56 12.04.2022
4282 Clouds 18 1009 77 10000 4.12 80 20:48 12.04.2022
4283 Clouds 19 1010 76 10000 3.6 60 20:22 12.04.2022
4284 Clouds 22 1009 43 10000 2.06 270 19:40 12.04.2022
4285 Clouds 21 1010 57 10000 3.6 240 18:56 12.04.2022
4286 Clouds 21 1009 64 9000 3.6 220 17:39 12.04.2022
4287 Clouds 22 1009 60 9000 4.12 210 16:47 12.04.2022
4288 Clouds 22 1010 61 9000 4.92 281 15:38 12.04.2022
4289 Clouds 21 1010 71 9000 5.66 230 15:20 12.04.2022
4290 Clouds 22 1010 66 9000 3.13 221 13:53 12.04.2022
4291 Clouds 22 1011 67 9000 1.54 80 13:27 12.04.2022
4292 Clouds 20 1011 74 9000 3.09 60 12:21 12.04.2022
4293 Clouds 19 1011 75 9000 3.09 50 11:39 12.04.2022
4294 Clouds 18 1008 73 7000 5.14 60 09:59 12.04.2022
4295 Clouds 16 1008 80 7000 3.09 80 08:52 12.04.2022
4296 Clouds 15 1007 82 9000 4.63 70 07:21 12.04.2022
4297 Clouds 15 1008 79 10000 4.63 60 05:42 12.04.2022
4298 Clouds 15 1009 80 10000 5.66 60 02:49 12.04.2022
4299 Clouds 15 1011 78 10000 4.12 60 23:25 11.04.2022
4300 Clouds 15 1011 78 10000 5.14 60 22:43 11.04.2022
4301 Clouds 16 1010 74 10000 5.14 70 21:35 11.04.2022
4302 Clouds 17 1013 74 10000 4.12 70 20:37 11.04.2022
4303 Clouds 17 1010 67 10000 4.12 70 20:19 11.04.2022
4304 Clear 18 1013 68 10000 4.92 66 19:27 11.04.2022
4305 Clear 19 1012 65 10000 5.66 80 18:59 11.04.2022
4306 Clear 20 1013 62 10000 5.66 90 18:33 11.04.2022
4307 Clear 20 1013 59 10000 5.66 80 17:43 11.04.2022
4308 Clear 21 1014 61 10000 5.14 80 16:36 11.04.2022
4309 Clear 21 1014 57 10000 5.66 80 15:24 11.04.2022
4310 Clear 21 1015 57 10000 6.69 70 13:44 11.04.2022
4311 Clear 20 1016 58 10000 5.14 80 12:41 11.04.2022
4312 Clear 19 1016 61 10000 5.14 80 12:22 11.04.2022
4313 Clear 17 1016 73 10000 5.14 60 10:47 11.04.2022
4314 Clear 15 1016 75 10000 5.14 70 09:58 11.04.2022
4315 Clear 13 1014 74 10000 3.6 60 08:23 11.04.2022
4316 Clear 12 1015 72 10000 2.06 80 04:57 11.04.2022
4317 Clear 13 1016 70 10000 2.06 80 00:30 11.04.2022
4318 Clear 14 1017 60 10000 2.06 90 22:27 10.04.2022
4319 Clear 14 1015 52 10000 2.06 120 21:54 10.04.2022
4320 Clear 15 1015 52 10000 3.6 120 21:23 10.04.2022
4321 Clear 17 1016 48 10000 4.63 130 20:21 10.04.2022
4322 Clear 19 1018 45 10000 4.12 130 19:37 10.04.2022
4323 Clear 18 1019 52 10000 4.12 160 18:50 10.04.2022
4324 Clouds 18 1019 51 10000 4.12 160 18:27 10.04.2022
4325 Clouds 18 1019 53 10000 4.47 214 17:46 10.04.2022
4326 Clouds 18 1020 52 10000 5.81 198 16:59 10.04.2022
4327 Clouds 18 1020 52 10000 6.26 188 15:41 10.04.2022
4328 Clouds 18 1021 51 10000 5.36 206 14:42 10.04.2022
4329 Clouds 18 1021 51 10000 5.36 206 14:42 10.04.2022
4330 Clouds 18 1021 55 10000 4.02 217 13:45 10.04.2022
4331 Clouds 18 1022 57 10000 4.47 227 12:32 10.04.2022
4332 Clouds 17 1022 57 10000 2.68 140 11:44 10.04.2022
4333 Clouds 17 1022 56 10000 2.57 130 11:20 10.04.2022
4334 Clouds 16 1022 64 10000 2.68 116 10:34 10.04.2022
4335 Clear 14 1022 75 10000 2.24 61 09:46 10.04.2022
4336 Clouds 12 1019 81 10000 1.54 70 08:40 10.04.2022
4337 Clouds 12 1019 81 10000 1.54 70 08:18 10.04.2022
4338 Clouds 12 1019 80 10000 2.57 70 06:59 10.04.2022
4339 Clouds 13 1019 77 10000 3.09 50 03:40 10.04.2022
4340 Clouds 13 1019 76 10000 1.54 70 02:19 10.04.2022
4341 Clouds 13 1018 76 10000 2.06 80 23:54 09.04.2022
4342 Clouds 13 1018 76 10000 1.03 60 22:56 09.04.2022
4343 Clouds 13 1017 74 10000 2.57 50 22:38 09.04.2022
4344 Clouds 15 1016 73 10000 2.68 141 21:23 09.04.2022
4345 Clouds 16 1014 64 10000 2.57 160 20:30 09.04.2022
4346 Clouds 17 1015 61 10000 4.12 160 19:57 09.04.2022
4347 Clouds 19 1016 55 10000 3.6 160 19:39 09.04.2022
4348 Clouds 19 1016 39 10000 4.12 320 18:23 09.04.2022
4349 Clouds 19 1016 41 10000 4.47 327 17:50 09.04.2022
4350 Clouds 19 1017 39 10000 4.12 10 16:57 09.04.2022
4351 Clouds 20 1017 40 10000 4.12 340 16:38 09.04.2022
4352 Clouds 20 1017 40 10000 4.12 340 16:38 09.04.2022
4353 Clouds 20 1017 40 10000 4.12 340 16:38 09.04.2022
4354 Clouds 20 1017 40 10000 4.12 340 16:38 09.04.2022
4355 Clouds 20 1017 40 10000 4.12 340 16:38 09.04.2022
4356 Clouds 19 1017 43 10000 6.17 320 15:50 09.04.2022
4357 Clouds 20 1013 32 10000 6.17 350 15:26 09.04.2022
4358 Clouds 20 1014 36 10000 5.81 9 14:26 09.04.2022
4359 Clouds 20 1013 33 10000 6.69 320 13:33 09.04.2022
4360 Clouds 19 1017 46 10000 6.69 320 12:56 09.04.2022
4361 Clouds 19 1016 46 10000 7.72 330 11:50 09.04.2022
4362 Clouds 19 1016 47 10000 5.81 317 10:52 09.04.2022
4363 Clouds 18 1013 42 10000 5.81 5 10:18 09.04.2022
4364 Clouds 18 1013 51 10000 3.13 276 09:23 09.04.2022
4365 Clouds 17 1011 49 10000 1.79 9 08:26 09.04.2022
4366 Clear 14 1011 84 10000 1.03 0 04:38 09.04.2022
4367 Clear 15 1012 80 10000 4.63 210 00:35 09.04.2022
4368 Clear 15 1012 81 10000 3.6 230 23:24 08.04.2022
4369 Clear 16 1012 74 10000 3.6 240 21:53 08.04.2022
4370 Clouds 16 1011 66 10000 4.63 240 20:44 08.04.2022
4371 Clear 16 1014 78 10000 4.12 240 19:50 08.04.2022
4372 Clear 18 1014 73 10000 3.09 210 18:59 08.04.2022
4373 Clear 17 1014 76 10000 5.14 220 18:24 08.04.2022
4374 Clear 18 1014 71 10000 4.63 220 17:29 08.04.2022
4375 Clear 18 1014 71 10000 5.66 220 16:58 08.04.2022
4376 Clear 19 1015 66 10000 6.69 220 16:32 08.04.2022
4377 Clear 20 1015 57 10000 8.23 220 15:38 08.04.2022
4378 Clear 20 1015 60 10000 9.26 230 14:52 08.04.2022
4379 Clear 20 1015 56 10000 7.72 230 14:21 08.04.2022
4380 Clear 20 1016 61 10000 7.2 240 13:41 08.04.2022
4381 Clear 20 1016 60 10000 7.2 240 13:22 08.04.2022
4382 Clear 20 1016 63 10000 5.66 250 11:43 08.04.2022
4383 Clouds 18 1016 64 10000 1.34 288 10:26 08.04.2022
4384 Clear 14 1014 83 10000 0.45 68 09:20 08.04.2022
4385 Clear 9 1015 93 10000 0.89 318 07:58 08.04.2022
4386 Clear 9 1015 93 10000 2.06 180 06:47 08.04.2022
4387 Clear 11 1015 77 10000 2.06 170 03:48 08.04.2022
4388 Clear 14 1016 68 10000 2.57 180 00:32 08.04.2022
4389 Clear 15 1016 64 10000 2.57 160 23:59 07.04.2022
4390 Clear 15 1015 60 10000 1.54 170 22:58 07.04.2022
4391 Clear 16 1015 57 10000 2.06 170 22:37 07.04.2022
4392 Clear 16 1015 57 10000 2.06 170 22:19 07.04.2022
4393 Clear 16 1014 56 10000 1.54 180 21:47 07.04.2022
4394 Clear 16 1014 53 10000 2.06 220 20:57 07.04.2022
4395 Clear 17 1015 57 10000 3.13 232 20:28 07.04.2022
4396 Clear 18 1017 74 10000 6.17 220 17:57 07.04.2022
4397 Clear 18 1018 70 10000 7.2 220 17:24 07.04.2022
4398 Clear 19 1017 54 10000 9.77 250 16:43 07.04.2022
4399 Clear 20 1018 46 10000 10.29 250 16:18 07.04.2022
4400 Clear 20 1018 55 10000 7.72 230 14:36 07.04.2022
4401 Clear 20 1018 60 10000 5.36 204 13:42 07.04.2022
4402 Clear 19 1019 62 10000 5.66 220 12:40 07.04.2022
4403 Clear 18 1018 71 10000 4.63 230 11:29 07.04.2022
4404 Clouds 13 1016 82 10000 0.89 45 09:36 07.04.2022
4405 Fog 6 1016 93 5000 0 0 08:37 07.04.2022
4406 Clouds 5 1016 100 10000 1.54 340 06:42 07.04.2022
4407 Clouds 8 1014 85 10000 1.54 70 02:47 07.04.2022
4408 Clouds 9 1014 81 10000 0.51 0 02:18 07.04.2022
4409 Clouds 10 1015 80 10000 3.6 250 00:26 07.04.2022
4410 Clouds 11 1015 75 10000 4.12 260 22:49 06.04.2022
4411 Clouds 11 1014 74 10000 3.6 250 22:26 06.04.2022
4412 Clouds 12 1013 71 10000 5.14 260 21:34 06.04.2022
4413 Clouds 12 1013 67 10000 5.66 260 20:36 06.04.2022
4414 Clouds 14 1014 72 10000 5.66 250 19:53 06.04.2022
4415 Clouds 14 1013 63 10000 5.14 310 18:51 06.04.2022
4416 Clouds 14 1013 64 10000 4.63 300 18:25 06.04.2022
4417 Clouds 14 1013 64 10000 5.14 320 17:35 06.04.2022
4418 Clouds 13 1013 69 10000 6.69 320 16:38 06.04.2022
4419 Clouds 13 1013 72 10000 7.2 310 15:48 06.04.2022
4420 Clouds 13 1013 70 10000 7.2 310 15:21 06.04.2022
4421 Clouds 12 1013 82 10000 3.6 260 13:24 06.04.2022
4422 Clouds 11 1013 82 10000 2.57 40 12:27 06.04.2022
4423 Clouds 10 1012 91 10000 4.12 50 10:48 06.04.2022
4424 Clouds 9 1012 92 10000 2.57 40 10:29 06.04.2022
4425 Rain 9 1011 89 9000 4.63 30 09:40 06.04.2022
4426 Drizzle 9 1009 89 9000 6.17 40 08:34 06.04.2022
4427 Drizzle 10 1009 81 9000 4.63 30 07:53 06.04.2022
4428 Clouds 9 1011 89 10000 4.12 30 04:30 06.04.2022
4429 Clouds 10 1013 88 10000 3.09 30 23:54 05.04.2022
4430 Clouds 11 1013 86 10000 1.54 30 22:58 05.04.2022
4431 Rain 12 1012 84 10000 3.58 19 21:23 05.04.2022
4432 Rain 12 1012 75 10000 5.14 60 20:26 05.04.2022
4433 Rain 13 1011 71 10000 5.14 60 19:52 05.04.2022
4434 Clouds 14 1011 58 10000 8.75 60 18:18 05.04.2022
4435 Clouds 15 1012 52 10000 9.26 60 16:55 05.04.2022
4436 Clouds 15 1013 48 10000 8.23 70 16:35 05.04.2022
4437 Clouds 15 1013 49 10000 9.77 50 15:43 05.04.2022
4438 Clouds 15 1013 49 10000 9.77 50 15:43 05.04.2022
4439 Clouds 16 1014 46 10000 9.26 60 15:24 05.04.2022
4440 Clouds 15 1014 49 10000 9.77 70 13:38 05.04.2022
4441 Clouds 14 1013 49 10000 9.77 60 11:51 05.04.2022
4442 Clouds 14 1013 51 10000 10.8 70 11:33 05.04.2022
4443 Clouds 13 1013 55 10000 9.26 60 10:52 05.04.2022
4444 Clouds 12 1011 58 10000 5.66 60 09:29 05.04.2022
4445 Clouds 11 1012 64 10000 8.75 60 07:32 05.04.2022
4446 Clouds 11 1014 66 10000 2.68 15 02:43 05.04.2022
4447 Clouds 11 1014 66 10000 4.63 60 23:18 04.04.2022
4448 Clouds 11 1014 65 10000 4.47 15 22:29 04.04.2022
4449 Clouds 11 1014 63 10000 5.14 60 21:43 04.04.2022
4450 Clouds 11 1013 60 10000 5.14 50 21:18 04.04.2022
4451 Clouds 11 1013 59 10000 5.14 50 20:46 04.04.2022
4452 Clouds 11 1013 56 10000 10.29 60 19:27 04.04.2022
4453 Clouds 12 1012 54 10000 11.83 50 18:39 04.04.2022
4454 Clouds 12 1013 53 10000 11.32 50 17:19 04.04.2022
4455 Clouds 13 1014 51 10000 10.8 60 16:27 04.04.2022
4456 Clouds 13 1014 50 10000 10.8 60 15:33 04.04.2022
4457 Clouds 12 1014 50 10000 10.8 60 14:46 04.04.2022
4458 Clouds 12 1015 50 10000 10.29 50 13:59 04.04.2022
4459 Clouds 12 1015 52 10000 10.29 60 12:58 04.04.2022
4460 Clouds 11 1015 53 10000 9.77 60 11:29 04.04.2022
4461 Clouds 10 1014 54 10000 8.75 70 09:53 04.04.2022
4462 Clouds 10 1015 59 10000 6.17 70 05:34 04.04.2022
4463 Clouds 9 1016 61 10000 5.14 60 02:59 04.04.2022
4464 Clouds 9 1016 60 10000 4.63 70 23:19 03.04.2022
4465 Clouds 9 1015 61 10000 4.63 70 22:00 03.04.2022
4466 Clouds 9 1015 61 10000 4.63 70 21:27 03.04.2022
4467 Clouds 10 1014 60 10000 6.17 70 20:32 03.04.2022
4468 Clouds 10 1014 62 10000 7.2 70 18:47 03.04.2022
4469 Clouds 11 1014 62 10000 6.69 80 17:56 03.04.2022
4470 Clouds 11 1014 63 10000 7.2 80 17:36 03.04.2022
4471 Clouds 11 1014 65 10000 7.2 60 16:50 03.04.2022
4472 Clouds 10 1015 75 10000 4.63 80 15:57 03.04.2022
4473 Rain 8 1015 81 10000 2.06 320 14:27 03.04.2022
4474 Rain 9 1015 70 10000 5.14 100 13:34 03.04.2022
4475 Clouds 11 1017 67 10000 5.14 70 11:51 03.04.2022
4476 Clouds 9 1015 64 10000 2.57 50 09:59 03.04.2022
4477 Clouds 10 1013 65 10000 3.6 50 09:19 03.04.2022
4478 Clouds 6 1014 74 10000 2.57 70 06:41 03.04.2022
4479 Clear 6 1014 63 10000 1.34 64 02:56 03.04.2022
4480 Clouds 8 1014 60 10000 1.54 100 23:50 02.04.2022
4481 Clouds 9 1014 53 10000 1.54 50 22:52 02.04.2022
4482 Clouds 10 1014 47 10000 2.24 241 21:56 02.04.2022
4483 Clouds 10 1013 45 10000 2.57 290 21:26 02.04.2022
4484 Clouds 12 1013 39 10000 4.63 300 20:39 02.04.2022
4485 Clouds 13 1012 35 10000 6.69 320 18:51 02.04.2022
4486 Clouds 13 1012 35 10000 7.72 310 18:20 02.04.2022
4487 Clouds 13 1012 34 10000 7.72 320 17:46 02.04.2022
4488 Clouds 12 1014 44 10000 7.2 340 15:59 02.04.2022
4489 Clouds 12 1013 36 10000 6.17 330 15:21 02.04.2022
4490 Clouds 12 1015 46 10000 9.26 320 14:42 02.04.2022
4491 Clouds 11 1014 49 10000 6.71 9 13:34 02.04.2022
4492 Clouds 11 1014 52 10000 6.69 320 12:37 02.04.2022
4493 Clouds 10 1014 55 10000 10.29 320 10:56 02.04.2022
4494 Clouds 9 1010 47 10000 6.69 320 08:44 02.04.2022
4495 Clouds 8 1010 50 10000 8.23 320 06:49 02.04.2022
4496 Clouds 9 1011 50 10000 8.75 320 03:39 02.04.2022
4497 Clouds 10 1011 36 10000 6.69 320 23:55 01.04.2022
4498 Clouds 11 1011 34 10000 8.23 320 23:18 01.04.2022
4499 Clouds 12 1010 32 10000 7.6 284 21:33 01.04.2022
4500 Clouds 12 1009 33 10000 8.23 310 20:51 01.04.2022
4501 Clouds 12 1008 31 10000 8.75 310 19:57 01.04.2022
4502 Clouds 12 1008 29 10000 6.69 300 19:31 01.04.2022
4503 Clouds 12 1010 42 10000 7.2 310 18:45 01.04.2022
4504 Clouds 12 1010 39 10000 8.23 310 17:46 01.04.2022
4505 Clouds 12 1011 37 10000 6.69 310 16:48 01.04.2022
4506 Clouds 13 1009 38 10000 5.14 300 15:36 01.04.2022
4507 Clouds 12 1006 28 10000 6.17 360 14:20 01.04.2022
4508 Clouds 11 1010 48 10000 7.2 350 13:33 01.04.2022
4509 Clouds 13 1006 36 10000 9.77 340 12:32 01.04.2022
4510 Clouds 13 1004 42 10000 11.83 320 11:37 01.04.2022
4511 Clouds 11 1002 48 10000 11.83 320 10:19 01.04.2022
4512 Clouds 12 1002 42 10000 10.29 320 08:47 01.04.2022
4513 Clouds 12 1001 59 10000 6.69 310 06:54 01.04.2022
4514 Clouds 13 1003 66 10000 5.14 300 04:51 01.04.2022
4515 Clouds 13 1003 65 10000 5.14 310 04:31 01.04.2022
4516 Clouds 12 1003 77 10000 1.79 262 01:56 01.04.2022
4517 Clouds 11 1003 85 10000 1.54 160 23:58 31.03.2022
4518 Clear 13 1003 79 10000 1.03 0 21:53 31.03.2022
4519 Clear 13 1003 78 10000 1.03 0 21:32 31.03.2022
4520 Clouds 14 1000 64 10000 4.12 240 20:29 31.03.2022
4521 Clouds 14 999 61 10000 4.12 240 19:50 31.03.2022
4522 Clouds 16 999 54 10000 5.14 250 18:46 31.03.2022
4523 Clouds 16 1001 58 10000 5.14 240 17:50 31.03.2022
4524 Clouds 15 1002 68 10000 6.17 330 16:38 31.03.2022
4525 Clouds 14 1000 65 10000 5.66 320 15:45 31.03.2022
4526 Clouds 14 1000 68 10000 6.17 330 15:19 31.03.2022
4527 Clouds 14 1000 69 10000 3.13 303 14:37 31.03.2022
4528 Clouds 13 1000 82 8000 5.14 310 12:19 31.03.2022
4529 Clouds 12 1000 86 6000 4.12 280 11:22 31.03.2022
4530 Rain 12 998 86 9000 1.54 270 09:47 31.03.2022
4531 Rain 12 997 83 10000 2.57 290 08:20 31.03.2022
4532 Clouds 12 1000 89 10000 0 0 05:42 31.03.2022
4533 Clouds 11 1001 90 10000 0 0 00:32 31.03.2022
4534 Clouds 13 1001 79 10000 1.54 100 22:45 30.03.2022
4535 Clouds 13 1001 78 10000 2.57 70 21:39 30.03.2022
4536 Clouds 13 1000 76 10000 3.09 60 20:54 30.03.2022
4537 Clouds 14 1000 77 10000 3.6 70 20:20 30.03.2022
4538 Clouds 14 1000 81 10000 4.63 60 19:35 30.03.2022
4539 Clouds 15 1000 76 10000 4.63 70 18:29 30.03.2022
4540 Clouds 15 1000 76 10000 5.14 70 17:48 30.03.2022
4541 Clouds 16 1000 71 10000 4.63 60 16:57 30.03.2022
4542 Clouds 16 1000 72 10000 4.63 20 16:38 30.03.2022
4543 Clouds 15 1000 72 10000 6.17 350 15:24 30.03.2022
4544 Clouds 16 1000 72 10000 8.75 330 13:44 30.03.2022
4545 Clouds 16 997 66 10000 9.26 340 12:58 30.03.2022
4546 Clouds 14 997 80 10000 9.26 320 11:34 30.03.2022
4547 Clouds 14 997 80 10000 9.26 320 11:34 30.03.2022
4548 Clouds 14 997 88 10000 4.63 280 10:31 30.03.2022
4549 Clouds 15 996 90 10000 6.17 300 09:25 30.03.2022
4550 Clouds 15 994 87 10000 1.79 90 07:33 30.03.2022
4551 Clouds 15 994 89 6000 2.57 250 05:41 30.03.2022
4552 Mist 15 996 90 4000 2.57 350 03:59 30.03.2022
4553 Clouds 15 998 84 9000 3.09 70 00:42 30.03.2022
4554 Clouds 15 999 81 9000 5.14 60 22:34 29.03.2022
4555 Clouds 15 999 77 9000 3.6 50 21:45 29.03.2022
4556 Clouds 16 998 73 8000 6.17 60 20:54 29.03.2022
4557 Clouds 17 998 71 10000 6.17 60 20:19 29.03.2022
4558 Clouds 18 999 71 10000 7.72 70 18:56 29.03.2022
4559 Clouds 18 1000 70 10000 6.69 70 18:21 29.03.2022
4560 Clouds 17 999 70 10000 7.2 70 17:36 29.03.2022
4561 Clouds 17 1001 73 10000 7.72 60 16:58 29.03.2022
4562 Rain 18 1003 67 10000 3.6 90 15:57 29.03.2022
4563 Clouds 19 1004 62 10000 6.69 80 14:53 29.03.2022
4564 Clouds 18 1004 65 10000 7.2 80 14:18 29.03.2022
4565 Clouds 17 1006 66 10000 6.69 50 12:53 29.03.2022
4566 Clouds 18 1008 68 10000 3.09 100 11:43 29.03.2022
4567 Rain 16 1007 68 10000 6.69 50 10:51 29.03.2022
4568 Clouds 14 1008 73 10000 4.63 60 09:49 29.03.2022
4569 Clear 12 1009 78 10000 3.6 60 07:35 29.03.2022
4570 Clear 11 1011 81 10000 2.57 70 04:47 29.03.2022
4571 Clear 14 1015 62 10000 4.12 70 00:36 29.03.2022
4572 Clear 14 1019 77 10000 3.09 60 23:24 28.03.2022
4573 Clear 14 1019 76 10000 2.57 70 22:53 28.03.2022
4574 Clear 14 1019 75 10000 2.57 70 22:26 28.03.2022
4575 Clear 15 1018 72 10000 2.57 90 20:58 28.03.2022
4576 Clear 16 1017 51 10000 3.09 80 20:23 28.03.2022
4577 Clear 17 1019 59 10000 2.57 90 19:45 28.03.2022
4578 Clear 18 1018 48 10000 1.54 100 19:27 28.03.2022
4579 Clear 19 1020 48 10000 3.6 70 18:40 28.03.2022
4580 Clear 19 1020 47 10000 3.6 70 17:39 28.03.2022
4581 Clear 20 1021 53 10000 3.58 29 16:33 28.03.2022
4582 Clear 20 1023 45 10000 3.6 90 14:48 28.03.2022
4583 Clouds 19 1023 43 10000 3.6 110 14:21 28.03.2022
4584 Clear 18 1026 49 10000 2.24 55 12:24 28.03.2022
4585 Clear 17 1023 61 10000 3.09 70 11:31 28.03.2022
4586 Clouds 13 1022 76 10000 3.09 50 09:43 28.03.2022
4587 Clouds 12 1022 85 10000 3.09 50 09:19 28.03.2022
4588 Clouds 10 1021 89 10000 4.63 70 08:22 28.03.2022
4589 Clouds 9 1021 86 10000 1.54 30 07:34 28.03.2022
4590 Clouds 11 1022 84 10000 0 0 03:52 28.03.2022
4591 Clouds 13 1022 79 10000 2.57 70 23:33 27.03.2022
4592 Clouds 14 1022 76 10000 1.54 60 22:24 27.03.2022
4593 Clouds 14 1022 73 10000 3.09 80 21:42 27.03.2022
4594 Clouds 15 1021 66 10000 3.6 80 20:58 27.03.2022
4595 Clouds 16 1021 61 10000 5.66 70 19:49 27.03.2022
4596 Clouds 17 1020 66 10000 5.66 70 19:26 27.03.2022
4597 Clouds 17 1019 58 10000 6.17 60 18:28 27.03.2022
4598 Clouds 19 1019 52 10000 5.66 60 17:40 27.03.2022
4599 Clouds 19 1019 51 10000 5.66 60 17:20 27.03.2022
4600 Clouds 19 1021 59 10000 6.17 50 15:28 27.03.2022
4601 Clouds 19 1021 60 10000 6.69 70 13:56 27.03.2022
4602 Clouds 17 1021 72 10000 6.69 50 12:41 27.03.2022
4603 Clouds 17 1018 62 10000 6.17 50 11:21 27.03.2022
4604 Clouds 14 1017 79 10000 4.12 40 09:21 27.03.2022
4605 Clouds 13 1016 87 10000 4.12 40 05:56 27.03.2022
4606 Clouds 13 1017 89 10000 2.57 30 00:57 27.03.2022
4607 Clouds 13 1017 89 7000 2.57 20 23:46 26.03.2022
4608 Clouds 13 1017 89 7000 3.6 30 22:42 26.03.2022
4609 Rain 13 1017 89 4000 4.63 50 21:46 26.03.2022
4610 Rain 13 1017 89 4000 4.63 50 21:25 26.03.2022
4611 Rain 13 1015 88 4000 7.2 60 19:29 26.03.2022
4612 Rain 14 1014 78 4000 2.57 80 17:54 26.03.2022
4613 Clouds 15 1014 74 9000 5.66 50 17:33 26.03.2022
4614 Clouds 15 1014 71 10000 6.17 70 16:27 26.03.2022
4615 Clouds 16 1014 67 10000 6.69 80 15:23 26.03.2022
4616 Clouds 17 1014 60 10000 7.72 80 13:54 26.03.2022
4617 Clouds 17 1014 61 10000 8.23 70 13:18 26.03.2022
4618 Clouds 15 1014 72 10000 6.69 70 11:41 26.03.2022
4619 Clouds 15 1014 73 10000 7.2 70 10:29 26.03.2022
4620 Clouds 14 1013 79 10000 6.69 50 08:44 26.03.2022
4621 Clouds 14 1013 79 10000 6.69 60 06:25 26.03.2022
4622 Clouds 14 1013 77 10000 7.2 60 05:22 26.03.2022
4623 Clouds 14 1015 75 10000 3.09 80 00:30 26.03.2022
4624 Clouds 14 1015 74 10000 7.72 60 21:51 25.03.2022
4625 Clouds 14 1015 74 9000 6.69 50 20:46 25.03.2022
4626 Clouds 14 1014 76 9000 7.2 60 20:20 25.03.2022
4627 Clouds 15 1014 74 9000 6.69 60 18:47 25.03.2022
4628 Clouds 15 1015 75 10000 6.17 70 17:49 25.03.2022
4629 Clouds 15 1014 74 10000 8.23 60 17:27 25.03.2022
4630 Clouds 16 1014 72 10000 8.23 60 16:19 25.03.2022
4631 Clouds 16 1015 70 10000 7.72 70 14:49 25.03.2022
4632 Clouds 17 1016 68 10000 6.69 80 13:24 25.03.2022
4633 Clouds 15 1017 78 10000 6.69 60 10:26 25.03.2022
4634 Clouds 14 1017 77 10000 8.23 50 09:28 25.03.2022
4635 Clouds 13 1017 76 10000 7.72 50 08:24 25.03.2022
4636 Clouds 13 1017 80 10000 7.72 50 07:28 25.03.2022
4637 Clouds 13 1018 80 10000 4.12 60 06:29 25.03.2022
4638 Clouds 13 1018 80 10000 4.12 60 06:29 25.03.2022
4639 Clouds 13 1019 80 10000 3.6 60 01:32 25.03.2022
4640 Clouds 14 1020 80 10000 4.12 70 22:53 24.03.2022
4641 Clouds 14 1020 80 10000 4.12 70 21:52 24.03.2022
4642 Clouds 14 1019 81 10000 4.63 60 20:40 24.03.2022
4643 Clouds 14 1019 80 10000 4.12 60 19:48 24.03.2022
4644 Clouds 16 1019 71 10000 5.66 70 17:50 24.03.2022
4645 Clouds 16 1019 72 10000 6.17 70 17:29 24.03.2022
4646 Clouds 17 1019 70 9000 5.66 70 15:52 24.03.2022
4647 Clouds 17 1020 73 9000 6.17 70 14:50 24.03.2022
4648 Clouds 16 1020 76 9000 5.14 70 14:20 24.03.2022
4649 Clouds 16 1020 78 9000 5.14 70 13:26 24.03.2022
4650 Clouds 15 1021 84 6000 4.12 60 11:59 24.03.2022
4651 Clouds 13 1020 90 4000 5.66 70 10:28 24.03.2022
4652 Rain 13 1022 90 6000 3.6 60 09:22 24.03.2022
4653 Clouds 13 1020 88 4000 2.57 80 07:39 24.03.2022
4654 Clouds 13 1021 88 8000 4.63 60 04:43 24.03.2022
4655 Drizzle 12 1022 91 7000 3.6 80 23:38 23.03.2022
4656 Clouds 12 1022 90 7000 4.63 80 22:18 23.03.2022
4657 Clouds 12 1022 90 7000 4.63 60 21:20 23.03.2022
4658 Clouds 13 1021 85 7000 5.14 70 19:50 23.03.2022
4659 Clouds 13 1021 81 8000 5.66 80 19:25 23.03.2022
4660 Drizzle 12 1021 85 10000 5.66 70 17:47 23.03.2022
4661 Clouds 12 1022 84 10000 4.92 51 16:55 23.03.2022
4662 Drizzle 12 1023 81 10000 5.66 70 15:21 23.03.2022
4663 Clouds 13 1023 75 10000 5.14 70 14:41 23.03.2022
4664 Clouds 13 1023 75 10000 5.66 70 13:30 23.03.2022
4665 Clouds 13 1024 71 10000 6.69 70 10:37 23.03.2022
4666 Clouds 12 1023 71 10000 3.58 35 08:21 23.03.2022
4667 Clouds 11 1024 69 10000 3.13 50 05:50 23.03.2022
4668 Clouds 11 1025 63 10000 3.6 60 01:59 23.03.2022
4669 Clouds 12 1025 64 10000 4.12 60 00:25 23.03.2022
4670 Clouds 12 1025 64 10000 4.12 60 00:25 23.03.2022
4671 Clouds 13 1025 69 10000 4.12 70 21:36 22.03.2022
4672 Clouds 13 1025 66 10000 5.14 80 20:57 22.03.2022
4673 Clouds 13 1025 67 10000 4.63 80 20:00 22.03.2022
4674 Clouds 13 1025 65 10000 4.12 80 19:26 22.03.2022
4675 Clouds 14 1025 62 10000 5.14 80 18:46 22.03.2022
4676 Clouds 14 1024 60 10000 6.17 80 17:43 22.03.2022
4677 Clouds 14 1025 55 10000 5.14 80 16:37 22.03.2022
4678 Clouds 15 1025 54 10000 7.2 90 15:41 22.03.2022
4679 Clouds 15 1025 54 10000 7.6 92 15:19 22.03.2022
4680 Clouds 15 1025 54 10000 6.17 90 14:42 22.03.2022
4681 Clouds 14 1025 54 10000 7.2 90 13:42 22.03.2022
4682 Clouds 15 1025 52 10000 6.69 90 11:53 22.03.2022
4683 Clouds 14 1027 62 10000 6.69 80 10:54 22.03.2022
4684 Clouds 13 1027 65 10000 5.81 66 09:28 22.03.2022
4685 Clouds 12 1023 67 10000 3.6 70 07:30 22.03.2022
4686 Clouds 12 1025 68 10000 5.14 80 03:57 22.03.2022
4687 Clouds 12 1025 67 10000 3.6 60 00:50 22.03.2022
4688 Clouds 13 1025 67 10000 4.12 70 22:57 21.03.2022
4689 Clouds 14 1025 70 10000 5.36 36 21:37 21.03.2022
4690 Clouds 14 1025 70 10000 5.14 80 20:44 21.03.2022
4691 Clouds 14 1024 70 10000 5.36 46 20:23 21.03.2022
4692 Clouds 14 1024 69 10000 5.14 80 19:47 21.03.2022
4693 Clouds 14 1023 68 10000 6.69 90 18:59 21.03.2022
4694 Clouds 14 1023 66 10000 7.2 90 17:36 21.03.2022
4695 Clouds 15 1023 67 10000 6.17 100 16:59 21.03.2022
4696 Clouds 15 1024 65 10000 6.69 100 16:33 21.03.2022
4697 Clouds 15 1024 65 10000 7.6 76 15:43 21.03.2022
4698 Clouds 15 1024 68 10000 7.15 63 14:45 21.03.2022
4699 Drizzle 15 1025 69 10000 6.71 93 13:20 21.03.2022
4700 Clouds 16 1027 72 10000 7.15 63 11:59 21.03.2022
4701 Clouds 16 1025 63 10000 7.72 100 11:28 21.03.2022
4702 Clouds 15 1025 69 10000 5.81 47 09:53 21.03.2022
4703 Clouds 14 1023 72 10000 5.14 80 07:53 21.03.2022
4704 Clouds 14 1022 73 10000 4.63 70 06:30 21.03.2022
4705 Clouds 14 1024 76 9000 4.02 50 02:23 21.03.2022
4706 Clouds 14 1025 78 9000 3.58 32 23:26 20.03.2022
4707 Clouds 14 1025 78 9000 4.02 72 22:36 20.03.2022
4708 Clouds 14 1024 79 9000 4.12 80 21:44 20.03.2022
4709 Clouds 14 1024 78 9000 4.12 80 20:58 20.03.2022
4710 Clouds 14 1024 78 9000 3.6 80 20:39 20.03.2022
4711 Clouds 14 1024 80 9000 4.02 57 19:56 20.03.2022
4712 Clouds 14 1023 78 10000 3.6 90 19:25 20.03.2022
4713 Clouds 16 1023 74 10000 4.02 77 17:50 20.03.2022
4714 Clouds 16 1023 74 10000 4.92 65 17:28 20.03.2022
4715 Clouds 15 1023 78 9000 4.12 120 16:46 20.03.2022
4716 Clouds 18 1023 62 10000 6.71 80 14:54 20.03.2022
4717 Clouds 17 1026 72 10000 6.26 123 13:46 20.03.2022
4718 Clouds 18 1024 67 10000 5.14 110 12:21 20.03.2022
4719 Clouds 16 1023 75 10000 4.02 70 10:39 20.03.2022
4720 Clouds 14 1023 85 9000 2.24 24 08:37 20.03.2022
4721 Clouds 12 1021 82 10000 3.09 70 06:55 20.03.2022
4722 Clouds 12 1022 85 10000 4.63 60 03:59 20.03.2022
4723 Clouds 13 1023 77 10000 4.63 70 00:59 20.03.2022
4724 Clouds 13 1023 77 10000 4.63 50 00:36 20.03.2022
4725 Clouds 14 1023 76 10000 5.66 60 22:56 19.03.2022
4726 Clouds 14 1023 77 10000 5.14 50 21:27 19.03.2022
4727 Clouds 14 1022 72 10000 3.6 60 20:19 19.03.2022
4728 Clouds 15 1021 70 10000 5.14 60 18:44 19.03.2022
4729 Clouds 15 1021 68 10000 4.92 40 18:23 19.03.2022
4730 Clouds 16 1021 66 10000 7.2 70 17:34 19.03.2022
4731 Clouds 16 1021 67 10000 4.02 34 15:43 19.03.2022
4732 Clouds 17 1021 65 10000 5.14 60 14:30 19.03.2022
4733 Clouds 18 1021 63 10000 6.17 60 12:58 19.03.2022
4734 Clouds 17 1022 64 10000 7.2 50 12:38 19.03.2022
4735 Clouds 18 1022 64 10000 8.23 50 11:51 19.03.2022
4736 Clouds 16 1022 70 9000 8.23 60 10:44 19.03.2022
4737 Clouds 12 1020 87 10000 4.12 50 06:27 19.03.2022
4738 Clouds 12 1022 84 10000 3.09 50 03:21 19.03.2022
4739 Clouds 13 1022 80 10000 5.36 24 01:33 19.03.2022
4740 Clouds 13 1022 78 10000 7.2 50 23:36 18.03.2022
4741 Clouds 14 1022 76 10000 7.2 50 22:26 18.03.2022
4742 Clouds 14 1022 77 10000 5.66 50 21:19 18.03.2022
4743 Clouds 14 1021 77 10000 8.23 60 19:50 18.03.2022
4744 Clouds 14 1021 74 10000 6.69 60 19:21 18.03.2022
4745 Clouds 14 1021 74 10000 6.69 60 19:21 18.03.2022
4746 Rain 14 1020 74 4000 10.8 70 17:43 18.03.2022
4747 Clouds 15 1019 68 10000 10.29 60 16:47 18.03.2022
4748 Clouds 16 1019 64 10000 9.26 60 14:51 18.03.2022
4749 Clouds 15 1019 67 10000 10.8 50 14:21 18.03.2022
4750 Clouds 16 1020 65 10000 8.75 60 12:26 18.03.2022
4751 Clouds 15 1019 68 10000 10.29 60 10:47 18.03.2022
4752 Clouds 15 1019 72 9000 7.2 70 09:28 18.03.2022
4753 Clouds 14 1017 75 9000 5.14 50 08:30 18.03.2022
4754 Clouds 14 1016 68 10000 8.23 50 06:34 18.03.2022
4755 Clouds 14 1018 74 8000 6.17 50 02:51 18.03.2022
4756 Clouds 13 1018 73 7000 5.66 60 00:22 18.03.2022
4757 Clouds 13 1018 73 7000 5.66 60 00:22 18.03.2022
4758 Clouds 13 1018 75 7000 5.14 70 23:22 17.03.2022
4759 Rain 14 1018 73 7000 7.2 50 22:24 17.03.2022
4760 Clouds 13 1017 77 7000 6.17 50 21:48 17.03.2022
4761 Clouds 13 1017 77 7000 7.72 60 21:21 17.03.2022
4762 Clouds 13 1017 79 6000 10.29 60 20:42 17.03.2022
4763 Clouds 13 1016 76 3000 9.77 60 19:47 17.03.2022
4764 Clouds 14 1015 74 8000 8.75 50 18:57 17.03.2022
4765 Clouds 14 1015 71 9000 8.75 50 18:39 17.03.2022
4766 Clouds 15 1015 69 8000 8.75 40 16:49 17.03.2022
4767 Clouds 15 1014 72 8000 8.75 50 15:44 17.03.2022
4768 Clouds 15 1014 72 8000 8.75 50 15:25 17.03.2022
4769 Clouds 15 1015 80 5000 10.29 60 14:29 17.03.2022
4770 Clouds 14 1015 81 5000 8.75 50 12:54 17.03.2022
4771 Clouds 14 1015 82 5000 10.29 50 12:25 17.03.2022
4772 Rain 14 1015 83 2000 8.23 60 11:29 17.03.2022
4773 Clouds 15 1015 80 7000 8.75 60 10:30 17.03.2022
4774 Rain 14 1012 85 4000 7.2 60 08:37 17.03.2022
4775 Rain 14 1012 86 5000 8.23 60 07:34 17.03.2022
4776 Clouds 15 1012 85 7000 7.2 60 05:47 17.03.2022
4777 Rain 15 1013 85 7000 4.63 60 01:30 17.03.2022
4778 Clouds 15 1013 83 7000 3.09 70 23:50 16.03.2022
4779 Clouds 15 1013 82 7000 4.12 70 22:48 16.03.2022
4780 Clouds 15 1012 82 7000 4.12 70 22:48 16.03.2022
4781 Clouds 15 1012 82 7000 4.12 80 22:30 16.03.2022
4782 Clouds 15 1011 82 7000 4.92 59 21:42 16.03.2022
4783 Clouds 15 1011 79 6000 5.66 60 19:47 16.03.2022
4784 Clouds 15 1011 79 6000 6.17 50 19:21 16.03.2022
4785 Clouds 16 1011 76 7000 6.17 70 18:37 16.03.2022
4786 Clouds 16 1011 76 7000 6.17 70 17:43 16.03.2022
4787 Clouds 16 1011 76 7000 6.17 70 17:43 16.03.2022
4788 Clouds 16 1011 75 7000 7.2 60 17:20 16.03.2022
4789 Clouds 17 1011 71 8000 7.72 60 15:55 16.03.2022
4790 Clouds 19 1011 63 8000 6.69 60 14:27 16.03.2022
4791 Clouds 20 1013 64 8000 7.72 50 13:31 16.03.2022
4792 Clouds 19 1013 69 6000 6.17 70 11:57 16.03.2022
4793 Clouds 17 1015 75 6000 6.17 70 11:21 16.03.2022
4794 Clouds 17 1015 77 6000 8.23 60 10:23 16.03.2022
4795 Clouds 15 1014 84 6000 8.23 60 08:53 16.03.2022
4796 Clouds 15 1014 84 9000 6.69 60 06:27 16.03.2022
4797 Clouds 15 1016 78 9000 6.69 60 01:45 16.03.2022
4798 Clouds 15 1018 74 9000 6.17 70 22:41 15.03.2022
4799 Clouds 15 1018 74 9000 5.66 70 22:18 15.03.2022
4800 Clouds 15 1018 74 9000 7.2 60 20:33 15.03.2022
4801 Clouds 17 1018 67 9000 7.72 70 18:58 15.03.2022
4802 Clouds 19 1018 62 9000 5.14 80 16:59 15.03.2022
4803 Clouds 20 1018 61 9000 7.2 80 16:32 15.03.2022
4804 Clouds 21 1015 52 9000 7.2 70 15:21 15.03.2022
4805 Clouds 21 1016 52 9000 7.2 70 14:45 15.03.2022
4806 Clouds 20 1016 54 8000 6.17 80 13:46 15.03.2022
4807 Clouds 20 1019 63 8000 7.2 60 12:24 15.03.2022
4808 Clouds 19 1018 62 8000 6.69 70 11:31 15.03.2022
4809 Clouds 19 1018 62 8000 6.69 70 11:31 15.03.2022
4810 Clouds 17 1019 73 8000 7.2 60 09:46 15.03.2022
4811 Clouds 16 1018 80 8000 6.17 60 08:42 15.03.2022
4812 Clouds 15 1017 78 8000 6.69 70 07:52 15.03.2022
4813 Clouds 15 1017 77 8000 7.2 60 07:32 15.03.2022
4814 Clouds 15 1017 82 10000 5.14 60 03:41 15.03.2022
4815 Clouds 16 1017 79 10000 6.69 30 23:57 14.03.2022
4816 Clouds 16 1017 79 10000 5.14 40 23:24 14.03.2022
4817 Clouds 16 1017 79 10000 7.2 50 22:30 14.03.2022
4818 Clouds 16 1016 75 10000 6.69 60 21:30 14.03.2022
4819 Clouds 16 1016 74 10000 6.69 70 20:48 14.03.2022
4820 Clouds 16 1016 74 10000 7.2 70 20:20 14.03.2022
4821 Clouds 17 1015 70 10000 7.2 70 18:55 14.03.2022
4822 Clouds 18 1015 67 10000 7.2 80 17:54 14.03.2022
4823 Clouds 18 1015 64 10000 7.2 80 17:23 14.03.2022
4824 Clouds 20 1015 60 10000 6.69 80 15:56 14.03.2022
4825 Clouds 20 1015 57 10000 7.72 90 14:41 14.03.2022
4826 Clouds 19 1016 61 10000 8.75 80 12:29 14.03.2022
4827 Clouds 17 1017 68 10000 8.23 80 10:54 14.03.2022
4828 Clouds 15 1017 78 10000 6.69 90 09:52 14.03.2022
4829 Clouds 15 1016 78 10000 6.69 80 09:22 14.03.2022
4830 Clouds 14 1016 80 10000 5.14 60 08:56 14.03.2022
4831 Clouds 13 1015 82 10000 5.66 60 07:34 14.03.2022
4832 Clouds 13 1017 87 9000 4.12 60 05:46 14.03.2022
4833 Clouds 13 1017 88 10000 2.68 45 01:55 14.03.2022
4834 Clouds 13 1017 89 9000 3.6 70 01:28 14.03.2022
4835 Clouds 13 1017 89 9000 2.57 70 22:52 13.03.2022
4836 Clouds 14 1017 87 9000 1.54 90 21:31 13.03.2022
4837 Clouds 15 1016 87 9000 1.03 0 20:56 13.03.2022
4838 Clouds 15 1016 87 9000 1.34 100 20:31 13.03.2022
4839 Clouds 15 1016 86 9000 1.54 150 19:59 13.03.2022
4840 Clouds 15 1016 84 9000 2.06 200 19:37 13.03.2022
4841 Clouds 15 1015 83 9000 2.06 200 19:18 13.03.2022
4842 Clouds 15 1015 83 9000 3.09 210 19:18 13.03.2022
4843 Clouds 16 1015 82 9000 3.6 220 18:38 13.03.2022
4844 Clouds 16 1015 80 10000 4.63 220 17:47 13.03.2022
4845 Clouds 16 1015 80 10000 4.63 220 17:21 13.03.2022
4846 Clouds 17 1015 76 10000 5.14 210 16:33 13.03.2022
4847 Clouds 17 1014 75 10000 4.12 210 15:49 13.03.2022
4848 Clouds 17 1014 77 10000 5.14 220 14:58 13.03.2022
4849 Clouds 17 1015 77 10000 4.12 210 13:49 13.03.2022
4850 Clouds 17 1014 74 10000 4.12 220 12:57 13.03.2022
4851 Clouds 17 1014 74 9000 3.09 210 12:19 13.03.2022
4852 Clouds 17 1015 76 9000 3.6 220 11:36 13.03.2022
4853 Clouds 17 1015 78 8000 2.06 220 10:48 13.03.2022
4854 Clouds 16 1015 79 8000 0.89 200 10:48 13.03.2022
4855 Clouds 16 1015 81 8000 0.45 97 10:24 13.03.2022
4856 Clouds 13 1013 87 8000 1.54 0 09:41 13.03.2022
4857 Clouds 11 1012 88 8000 0.45 68 08:47 13.03.2022
4858 Clouds 10 1012 88 8000 1.03 0 07:47 13.03.2022
4859 Clouds 7 1013 93 10000 0.51 0 05:42 13.03.2022
4860 Clouds 9 1013 81 10000 0.45 70 02:43 13.03.2022
4861 Clouds 12 1013 75 10000 4.02 210 23:59 12.03.2022
4862 Clouds 12 1013 74 10000 2.57 230 22:37 12.03.2022
4863 Clouds 13 1013 74 10000 3.13 283 20:54 12.03.2022
4864 Clouds 13 1012 73 10000 2.57 300 19:50 12.03.2022
4865 Clouds 13 1012 71 10000 4.12 310 19:32 12.03.2022
4866 Clouds 14 1011 70 10000 5.14 310 18:27 12.03.2022
4867 Clouds 14 1011 74 9000 4.63 290 17:34 12.03.2022
4868 Clouds 13 1010 78 10000 6.26 292 16:24 12.03.2022
4869 Clouds 13 1010 76 10000 7.2 280 15:24 12.03.2022
4870 Clouds 14 1012 81 10000 5.66 300 14:50 12.03.2022
4871 Clouds 15 1010 75 10000 7.72 270 13:47 12.03.2022
4872 Clouds 14 1013 90 9000 3.6 240 11:57 12.03.2022
4873 Clouds 13 1013 89 9000 4.63 250 11:38 12.03.2022
4874 Clouds 12 1010 88 5000 7.2 260 10:58 12.03.2022
4875 Rain 13 1009 91 5000 5.66 180 09:46 12.03.2022
4876 Rain 13 1009 91 5000 5.66 180 09:46 12.03.2022
4877 Rain 13 1009 92 5000 3.6 140 09:20 12.03.2022
4878 Rain 13 1009 90 10000 2.57 140 07:29 12.03.2022
4879 Clouds 13 1012 90 10000 0.51 0 03:54 12.03.2022
4880 Clouds 13 1015 84 10000 0.51 0 23:56 11.03.2022
4881 Clouds 13 1015 84 10000 0.51 0 23:56 11.03.2022
4882 Clouds 13 1015 83 10000 1.03 90 23:19 11.03.2022
4883 Clouds 13 1015 83 10000 1.03 90 23:19 11.03.2022
4884 Clouds 14 1015 81 10000 0.89 200 21:43 11.03.2022
4885 Clouds 14 1015 80 10000 1.03 150 20:57 11.03.2022
4886 Clouds 14 1015 79 10000 1.34 220 20:35 11.03.2022
4887 Clouds 14 1015 78 10000 0.89 206 19:52 11.03.2022
4888 Clouds 15 1015 77 10000 1.34 191 19:22 11.03.2022
4889 Clouds 15 1015 71 10000 5.66 230 17:34 11.03.2022
4890 Clouds 16 1015 67 10000 6.69 230 16:38 11.03.2022
4891 Clouds 16 1017 72 10000 5.66 230 15:55 11.03.2022
4892 Clouds 16 1018 72 10000 3.6 260 14:21 11.03.2022
4893 Clouds 17 1017 67 10000 3.6 240 12:52 11.03.2022
4894 Clouds 15 1019 74 10000 3.13 229 12:21 11.03.2022
4895 Clouds 16 1019 71 10000 3.13 186 11:53 11.03.2022
4896 Clouds 14 1017 75 10000 1.54 30 10:18 11.03.2022
4897 Clouds 10 1017 84 10000 1.54 50 08:57 11.03.2022
4898 Clouds 10 1017 85 10000 1.79 355 08:24 11.03.2022
4899 Clouds 9 1016 84 10000 1.03 50 07:45 11.03.2022
4900 Clouds 8 1017 84 10000 1.54 30 05:44 11.03.2022
4901 Clouds 9 1018 83 10000 1.79 342 03:49 11.03.2022
4902 Clouds 11 1019 75 10000 1.54 90 23:46 10.03.2022
4903 Clouds 12 1020 72 10000 1.54 70 22:31 10.03.2022
4904 Clouds 12 1020 72 10000 2.57 80 21:47 10.03.2022
4905 Clouds 12 1020 71 10000 2.57 50 21:19 10.03.2022
4906 Clouds 13 1016 43 10000 2.06 100 19:45 10.03.2022
4907 Clouds 15 1020 58 10000 2.57 130 18:53 10.03.2022
4908 Clouds 16 1021 53 10000 3.6 120 17:36 10.03.2022
4909 Clouds 16 1022 47 10000 3.6 130 15:55 10.03.2022
4910 Clouds 17 1022 55 10000 4.12 130 14:48 10.03.2022
4911 Clouds 16 1023 60 10000 2.57 140 13:24 10.03.2022
4912 Clouds 15 1025 66 10000 3.09 130 11:58 10.03.2022
4913 Clouds 15 1025 69 10000 2.57 120 10:54 10.03.2022
4914 Clouds 12 1025 83 10000 3.09 80 09:21 10.03.2022
4915 Clouds 9 1021 85 10000 2.57 70 07:38 10.03.2022
4916 Clouds 8 1024 93 10000 1.03 50 04:44 10.03.2022
4917 Clouds 10 1023 82 10000 2.06 50 01:49 10.03.2022
4918 Clouds 11 1023 79 10000 1.54 60 23:26 09.03.2022
4919 Clouds 11 1023 77 10000 1.03 60 21:51 09.03.2022
4920 Clouds 12 1023 76 10000 1.54 70 21:32 09.03.2022
4921 Clouds 13 1022 70 10000 1.54 210 19:50 09.03.2022
4922 Clouds 14 1022 68 10000 4.63 210 18:34 09.03.2022
4923 Clouds 15 1023 75 10000 4.12 220 17:27 09.03.2022
4924 Clouds 15 1023 65 10000 4.12 220 16:31 09.03.2022
4925 Clouds 15 1024 73 10000 5.66 230 15:28 09.03.2022
4926 Clouds 15 1024 69 10000 4.63 230 13:54 09.03.2022
4927 Clouds 15 1024 67 10000 5.14 240 12:47 09.03.2022
4928 Clouds 15 1024 66 10000 1.79 223 11:54 09.03.2022
4929 Clouds 15 1024 66 10000 1.34 68 11:35 09.03.2022
4930 Clouds 14 1024 71 10000 1.54 70 10:34 09.03.2022
4931 Clouds 10 1022 88 10000 1.54 50 08:57 09.03.2022
4932 Clouds 7 1020 90 10000 1.54 70 07:54 09.03.2022
4933 Clouds 9 1020 79 10000 0.51 40 02:57 09.03.2022
4934 Clouds 9 1020 77 10000 1.03 50 00:46 09.03.2022
4935 Clouds 10 1019 72 10000 0.89 62 22:48 08.03.2022
4936 Clouds 11 1019 70 10000 0.51 0 22:27 08.03.2022
4937 Clouds 11 1019 67 10000 1.54 130 21:23 08.03.2022
4938 Clouds 12 1019 66 10000 1.03 170 20:42 08.03.2022
4939 Clouds 13 1018 57 10000 2.06 230 19:42 08.03.2022
4940 Clouds 13 1018 61 10000 3.6 240 18:44 08.03.2022
4941 Clouds 14 1019 64 10000 4.12 230 17:32 08.03.2022
4942 Clouds 15 1018 56 10000 5.14 230 16:26 08.03.2022
4943 Clouds 15 1019 60 10000 6.17 240 14:19 08.03.2022
4944 Clouds 15 1019 56 10000 3.09 230 12:43 08.03.2022
4945 Clouds 15 1020 55 10000 2.57 50 11:45 08.03.2022
4946 Clear 13 1020 59 10000 2.06 40 10:50 08.03.2022
4947 Clear 12 1019 67 10000 1.03 0 09:57 08.03.2022
4948 Clear 5 1016 78 10000 1.54 40 07:32 08.03.2022
4949 Clouds 5 1017 78 10000 1.79 5 05:43 08.03.2022
4950 Clouds 8 1017 69 10000 1.54 50 23:52 07.03.2022
4951 Clouds 9 1017 63 10000 3.09 60 21:59 07.03.2022
4952 Clouds 10 1016 61 10000 2.06 50 21:32 07.03.2022
4953 Clouds 11 1016 59 10000 1.54 90 20:48 07.03.2022
4954 Clouds 11 1016 57 10000 2.06 100 20:20 07.03.2022
4955 Clouds 12 1015 53 10000 2.57 100 19:33 07.03.2022
4956 Clouds 13 1014 42 10000 1.79 140 18:44 07.03.2022
4957 Clouds 15 1014 44 10000 4.12 110 17:50 07.03.2022
4958 Clouds 15 1014 46 10000 4.12 100 16:56 07.03.2022
4959 Clouds 16 1014 44 10000 4.63 90 15:59 07.03.2022
4960 Clouds 16 1015 48 10000 5.14 110 13:52 07.03.2022
4961 Clouds 16 1015 48 10000 5.14 110 13:52 07.03.2022
4962 Clouds 15 1017 57 10000 4.12 80 12:28 07.03.2022
4963 Clouds 13 1016 60 10000 3.6 70 10:39 07.03.2022
4964 Clouds 12 1014 63 10000 1.79 41 09:24 07.03.2022
4965 Clouds 9 1015 73 10000 1.03 70 04:51 07.03.2022
4966 Clouds 11 1015 68 10000 3.09 70 00:23 07.03.2022
4967 Clouds 11 1015 69 10000 2.06 80 23:35 06.03.2022
4968 Clouds 11 1015 69 10000 2.06 80 23:35 06.03.2022
4969 Clouds 11 1015 68 10000 1.54 90 22:52 06.03.2022
4970 Clouds 11 1015 68 10000 2.57 70 22:19 06.03.2022
4971 Clouds 12 1014 66 10000 3.09 60 20:50 06.03.2022
4972 Clouds 12 1014 64 10000 3.6 60 20:23 06.03.2022
4973 Clouds 12 1013 63 10000 4.63 60 19:21 06.03.2022
4974 Clouds 13 1013 64 10000 5.14 70 18:25 06.03.2022
4975 Clouds 13 1013 65 10000 5.14 70 18:25 06.03.2022
4976 Clouds 13 1013 65 10000 4.63 60 17:21 06.03.2022
4977 Clouds 13 1012 65 10000 5.66 50 16:43 06.03.2022
4978 Clouds 13 1012 67 10000 5.14 60 15:54 06.03.2022
4979 Clouds 13 1013 70 10000 3.09 40 14:57 06.03.2022
4980 Clouds 13 1013 70 10000 3.6 50 14:33 06.03.2022
4981 Clouds 13 1014 73 10000 3.6 60 13:30 06.03.2022
4982 Drizzle 13 1014 74 10000 3.6 60 12:35 06.03.2022
4983 Clouds 13 1014 72 10000 4.12 70 11:18 06.03.2022
4984 Clouds 12 1014 78 10000 2.57 70 10:28 06.03.2022
4985 Clouds 11 1012 80 10000 3.09 60 08:30 06.03.2022
4986 Rain 11 1012 79 10000 2.57 70 07:45 06.03.2022
4987 Clouds 11 1012 74 10000 1.54 110 06:19 06.03.2022
4988 Clouds 12 1015 71 10000 2.57 60 00:53 06.03.2022
4989 Clouds 12 1015 70 10000 1.03 40 00:31 06.03.2022
4990 Clouds 12 1015 70 10000 2.06 70 23:23 05.03.2022
4991 Clouds 12 1015 69 10000 2.57 70 22:57 05.03.2022
4992 Clouds 12 1015 69 10000 2.57 60 22:23 05.03.2022
4993 Clouds 12 1015 65 10000 1.03 0 21:23 05.03.2022
4994 Clouds 13 1014 63 10000 2.06 70 19:49 05.03.2022
4995 Clouds 13 1014 59 10000 2.24 54 18:56 05.03.2022
4996 Clouds 14 1014 57 10000 1.34 123 18:27 05.03.2022
4997 Clouds 14 1016 59 10000 2.06 80 16:52 05.03.2022
4998 Clouds 15 1014 60 10000 2.57 70 15:40 05.03.2022
4999 Clouds 14 1014 60 10000 2.57 70 14:52 05.03.2022
5000 Clouds 14 1015 59 10000 2.57 70 14:33 05.03.2022
5001 Clouds 15 1015 56 10000 3.13 107 13:34 05.03.2022
5002 Clouds 15 1016 59 10000 3.09 80 11:49 05.03.2022
5003 Clouds 14 1018 71 10000 2.68 65 11:20 05.03.2022
5004 Clouds 13 1018 75 10000 2.06 150 10:20 05.03.2022
5005 Clouds 13 1015 71 10000 1.03 150 09:26 05.03.2022
5006 Clouds 12 1013 69 10000 1.54 360 07:58 05.03.2022
5007 Clouds 12 1014 71 10000 3.6 320 05:43 05.03.2022
5008 Clouds 13 1014 67 10000 2.68 322 04:33 05.03.2022
5009 Clouds 13 1015 68 10000 1.79 306 23:38 04.03.2022
5010 Clouds 13 1015 69 10000 0.89 358 22:44 04.03.2022
5011 Clouds 13 1015 69 10000 1.79 261 22:23 04.03.2022
5012 Clouds 13 1014 67 10000 2.06 310 21:24 04.03.2022
5013 Clouds 13 1013 60 10000 2.06 100 20:28 04.03.2022
5014 Clouds 14 1013 59 10000 2.24 97 19:36 04.03.2022
5015 Clouds 14 1016 69 10000 1.79 87 18:46 04.03.2022
5016 Clouds 15 1013 54 10000 3.13 60 18:22 04.03.2022
5017 Clouds 16 1013 49 10000 6.17 50 17:28 04.03.2022
5018 Clouds 17 1014 52 10000 6.71 19 15:31 04.03.2022
5019 Clouds 17 1015 51 10000 4.47 59 14:36 04.03.2022
5020 Clouds 17 1015 56 10000 6.17 70 13:27 04.03.2022
5021 Clouds 17 1014 57 10000 4.02 45 11:57 04.03.2022
5022 Clouds 15 1014 65 10000 4.63 80 10:58 04.03.2022
5023 Clouds 15 1014 70 10000 4.12 60 10:21 04.03.2022
5024 Clouds 11 1012 86 10000 0.51 0 08:48 04.03.2022
5025 Clouds 9 1010 88 10000 1.54 80 07:47 04.03.2022
5026 Clouds 9 1011 84 10000 0.89 355 05:26 04.03.2022
5027 Clouds 11 1012 82 10000 0.89 68 00:41 04.03.2022
5028 Clouds 12 1012 78 10000 2.06 80 23:28 03.03.2022
5029 Clouds 12 1012 77 10000 2.57 60 21:58 03.03.2022
5030 Clouds 12 1012 75 10000 2.06 70 21:35 03.03.2022
5031 Clouds 13 1012 72 10000 3.09 80 20:27 03.03.2022
5032 Clouds 14 1012 69 10000 4.12 70 19:22 03.03.2022
5033 Clouds 16 1012 60 10000 4.02 53 18:25 03.03.2022
5034 Clouds 16 1014 66 10000 4.47 61 17:31 03.03.2022
5035 Clouds 17 1014 56 10000 4.12 240 16:38 03.03.2022
5036 Clouds 17 1015 59 10000 5.14 240 15:43 03.03.2022
5037 Clouds 17 1015 61 10000 5.66 250 14:44 03.03.2022
5038 Clouds 17 1016 65 10000 5.14 230 14:25 03.03.2022
5039 Clouds 17 1017 62 10000 1.03 0 12:32 03.03.2022
5040 Clouds 16 1018 66 10000 2.06 70 10:58 03.03.2022
5041 Clouds 15 1018 71 10000 2.24 338 10:20 03.03.2022
5042 Clouds 12 1016 85 10000 1.03 0 08:42 03.03.2022
5043 Clouds 10 1015 89 10000 1.54 190 06:55 03.03.2022
5044 Fog 10 1016 88 9000 0.51 200 05:22 03.03.2022
5045 Rain 12 1019 87 10000 2.06 10 23:48 02.03.2022
5046 Rain 12 1019 85 6000 1.03 200 22:59 02.03.2022
5047 Rain 12 1019 83 6000 1.34 220 22:40 02.03.2022
5048 Rain 12 1019 71 10000 0.89 298 21:22 02.03.2022
5049 Clouds 13 1019 65 10000 1.03 0 20:26 02.03.2022
5050 Clouds 14 1019 66 10000 3.09 200 19:41 02.03.2022
5051 Clouds 14 1019 65 10000 0.45 292 19:23 02.03.2022
5052 Clouds 14 1021 71 10000 4.12 220 18:37 02.03.2022
5053 Clouds 15 1019 58 10000 4.12 230 17:45 02.03.2022
5054 Clouds 15 1022 65 10000 4.63 210 16:54 02.03.2022
5055 Clouds 16 1022 63 10000 5.14 230 16:18 02.03.2022
5056 Clouds 16 1023 61 10000 5.66 220 14:39 02.03.2022
5057 Clouds 16 1024 65 10000 5.66 220 13:18 02.03.2022
5058 Clouds 16 1023 59 10000 5.36 215 12:39 02.03.2022
5059 Clouds 15 1025 67 10000 3.58 176 11:28 02.03.2022
5060 Clouds 14 1025 71 10000 2.68 192 10:58 02.03.2022
5061 Clouds 12 1024 82 10000 0.89 45 09:40 02.03.2022
5062 Clouds 8 1024 93 10000 1.03 30 08:50 02.03.2022
5063 Fog 5 1024 93 10000 1.03 40 07:25 02.03.2022
5064 Fog 6 1024 88 7000 1.03 40 05:43 02.03.2022
5065 Clouds 8 1024 77 10000 0.89 346 00:57 02.03.2022
5066 Clouds 9 1024 76 10000 1.34 344 23:45 01.03.2022
5067 Clouds 10 1025 77 10000 1.54 60 22:42 01.03.2022
5068 Clouds 11 1025 74 10000 0.89 266 21:56 01.03.2022
5069 Clouds 12 1025 73 10000 3.09 230 21:21 01.03.2022
5070 Clouds 13 1025 72 10000 3.09 230 20:24 01.03.2022
5071 Clouds 13 1024 66 10000 3.09 240 19:23 01.03.2022
5072 Clouds 15 1024 63 10000 4.63 230 18:35 01.03.2022
5073 Clouds 15 1026 73 10000 5.14 230 17:55 01.03.2022
5074 Clouds 16 1026 60 10000 5.66 230 16:54 01.03.2022
5075 Clouds 16 1026 60 10000 5.66 230 16:30 01.03.2022
5076 Clouds 16 1027 57 10000 6.17 230 15:32 01.03.2022
5077 Clouds 17 1027 59 10000 6.69 240 14:34 01.03.2022
5078 Clouds 17 1028 56 10000 6.69 230 13:45 01.03.2022
5079 Clouds 17 1028 58 10000 6.69 230 13:22 01.03.2022
5080 Clouds 17 1028 57 10000 5.14 230 12:27 01.03.2022
5081 Clouds 15 1026 63 10000 0.89 165 10:33 01.03.2022
5082 Clear 5 1026 87 10000 1.03 50 08:41 01.03.2022
5083 Clear 4 1026 86 10000 1.54 40 07:40 01.03.2022
5084 Clear 8 1025 77 10000 0.45 301 05:49 01.03.2022
5085 Clear 9 1025 73 10000 0.89 296 01:48 01.03.2022
5086 Clear 8 1025 73 10000 0.45 88 00:25 01.03.2022
5087 Clear 8 1025 69 10000 0.45 309 23:29 28.02.2022
5088 Clouds 9 1026 70 10000 1.79 15 21:59 28.02.2022
5089 Clouds 10 1026 66 10000 1.54 80 21:24 28.02.2022
5090 Clouds 11 1027 59 10000 2.06 170 19:53 28.02.2022
5091 Clouds 12 1026 59 10000 2.57 200 19:33 28.02.2022
5092 Clouds 14 1024 48 10000 3.6 210 18:40 28.02.2022
5093 Clouds 15 1026 50 10000 4.63 220 17:24 28.02.2022
5094 Clouds 15 1027 55 10000 4.12 210 16:33 28.02.2022
5095 Clouds 15 1026 46 10000 5.66 240 15:23 28.02.2022
5096 Clouds 15 1028 53 10000 4.12 230 14:31 28.02.2022
5097 Clouds 15 1028 49 10000 1.34 151 13:47 28.02.2022
5098 Clouds 15 1029 51 10000 2.06 0 12:47 28.02.2022
5099 Clouds 14 1029 54 10000 1.54 70 11:57 28.02.2022
5100 Clouds 14 1028 54 10000 2.24 119 10:48 28.02.2022
5101 Clouds 14 1028 59 10000 1.54 50 10:20 28.02.2022
5102 Clouds 11 1028 73 10000 2.06 30 09:33 28.02.2022
5103 Clouds 9 1026 74 10000 2.06 10 08:32 28.02.2022
5104 Clouds 6 1024 75 10000 1.54 40 07:35 28.02.2022
5105 Clouds 7 1025 70 10000 1.54 60 05:21 28.02.2022
5106 Clouds 8 1025 67 10000 2.57 20 04:27 28.02.2022
5107 Clouds 11 1025 61 10000 2.06 50 23:44 27.02.2022
5108 Clouds 11 1025 54 10000 2.06 60 22:35 27.02.2022
5109 Clouds 11 1024 53 10000 1.54 30 21:52 27.02.2022
5110 Clouds 12 1024 54 10000 1.54 40 21:27 27.02.2022
5111 Clouds 12 1024 52 10000 1.34 88 20:37 27.02.2022
5112 Clouds 13 1022 41 10000 2.57 130 19:58 27.02.2022
5113 Clouds 13 1023 52 10000 2.24 273 19:27 27.02.2022
5114 Clouds 14 1021 48 10000 2.06 310 18:48 27.02.2022
5115 Clouds 14 1023 47 10000 3.09 290 17:57 27.02.2022
5116 Clouds 14 1022 46 10000 2.06 310 17:20 27.02.2022
5117 Clouds 15 1022 46 10000 3.6 250 16:22 27.02.2022
5118 Clear 15 1025 43 10000 2.57 110 13:40 27.02.2022
5119 Clear 15 1025 46 10000 1.54 60 12:33 27.02.2022
5120 Clear 13 1025 53 10000 1.79 15 11:27 27.02.2022
5121 Clear 13 1024 53 10000 1.79 34 10:24 27.02.2022
5122 Clear 11 1024 58 10000 1.34 45 09:51 27.02.2022
5123 Clear 9 1024 60 10000 1.54 40 09:21 27.02.2022
5124 Clear 7 1022 60 10000 1.54 20 08:31 27.02.2022
5125 Clear 7 1023 61 10000 2.57 60 05:41 27.02.2022
5126 Clear 8 1023 55 10000 2.06 140 02:57 27.02.2022
5127 Clear 9 1023 54 10000 1.03 0 23:36 26.02.2022
5128 Clear 10 1023 53 10000 3.6 60 22:34 26.02.2022
5129 Clear 10 1022 50 10000 3.6 60 21:26 26.02.2022
5130 Clear 11 1023 52 10000 3.09 50 20:37 26.02.2022
5131 Clear 11 1023 53 10000 3.13 22 20:37 26.02.2022
5132 Clear 12 1022 46 10000 3.09 60 19:54 26.02.2022
5133 Clear 12 1023 48 10000 3.6 60 19:33 26.02.2022
5134 Clouds 13 1022 44 10000 7.2 50 18:31 26.02.2022
5135 Clouds 15 1022 41 10000 5.66 50 17:31 26.02.2022
5136 Clouds 15 1024 53 10000 5.66 50 16:38 26.02.2022
5137 Clouds 15 1024 55 10000 6.69 60 15:28 26.02.2022
5138 Clouds 14 1025 54 10000 6.69 60 14:59 26.02.2022
5139 Clouds 15 1025 55 10000 6.69 70 14:41 26.02.2022
5140 Clouds 15 1023 48 10000 7.2 50 13:51 26.02.2022
5141 Clouds 15 1024 41 10000 8.75 70 12:53 26.02.2022
5142 Clouds 15 1024 44 10000 7.2 60 11:50 26.02.2022
5143 Clear 14 1026 54 10000 8.23 50 11:25 26.02.2022
5144 Clouds 12 1025 57 10000 6.69 50 09:31 26.02.2022
5145 Clouds 9 1025 67 10000 4.63 60 08:28 26.02.2022
5146 Clouds 7 1025 84 10000 0.89 319 04:23 26.02.2022
5147 Clouds 11 1026 78 10000 2.57 90 23:50 25.02.2022
5148 Clouds 11 1026 75 10000 2.57 60 22:34 25.02.2022
5149 Clouds 12 1026 73 10000 2.06 70 21:32 25.02.2022
5150 Clouds 12 1026 72 10000 2.57 60 20:51 25.02.2022
5151 Clouds 12 1026 72 10000 2.57 60 20:25 25.02.2022
5152 Clouds 14 1025 65 10000 5.66 70 17:57 25.02.2022
5153 Clouds 14 1025 65 10000 6.17 60 16:59 25.02.2022
5154 Clouds 14 1025 66 10000 7.72 70 15:56 25.02.2022
5155 Clouds 14 1024 66 10000 6.69 60 15:23 25.02.2022
5156 Clouds 14 1025 67 10000 8.75 60 14:56 25.02.2022
5157 Clouds 14 1025 66 10000 8.75 60 14:37 25.02.2022
5158 Clouds 15 1026 64 10000 8.23 60 13:30 25.02.2022
5159 Clouds 14 1027 66 10000 8.23 50 12:33 25.02.2022
5160 Clouds 14 1027 68 10000 8.23 60 11:22 25.02.2022
5161 Clouds 14 1026 71 10000 8.23 70 10:24 25.02.2022
5162 Clouds 13 1026 74 10000 6.69 70 09:52 25.02.2022
5163 Clouds 12 1025 79 10000 4.12 60 08:44 25.02.2022
5164 Clouds 9 1023 82 10000 2.57 60 07:36 25.02.2022
5165 Clouds 9 1023 80 10000 1.34 348 05:45 25.02.2022
5166 Clouds 8 1024 83 10000 1.54 40 02:49 25.02.2022
5167 Clouds 10 1024 82 10000 1.03 40 22:56 24.02.2022
5168 Clouds 11 1024 80 10000 1.03 0 21:54 24.02.2022
5169 Clouds 12 1023 80 10000 2.06 60 21:31 24.02.2022
5170 Clouds 13 1024 76 10000 0.89 29 20:57 24.02.2022
5171 Clear 14 1022 83 10000 2.57 20 19:38 24.02.2022
5172 Clear 16 1021 71 10000 1.79 219 18:37 24.02.2022
5173 Clear 16 1021 73 10000 1.79 219 18:18 24.02.2022
5174 Clear 16 1021 69 10000 4.02 207 17:33 24.02.2022
5175 Clear 17 1021 65 10000 3.6 250 17:33 24.02.2022
5176 Clear 17 1021 60 10000 4.12 250 16:29 24.02.2022
5177 Clouds 17 1021 58 10000 4.12 260 15:47 24.02.2022
5178 Clear 17 1021 54 10000 3.58 197 14:53 24.02.2022
5179 Clear 18 1022 50 10000 2.24 215 14:26 24.02.2022
5180 Clear 18 1022 47 10000 1.54 70 13:39 24.02.2022
5181 Clear 18 1023 48 10000 1.54 100 12:49 24.02.2022
5182 Clear 15 1024 55 10000 3.09 60 10:40 24.02.2022
5183 Clear 10 1023 71 10000 2.06 50 08:59 24.02.2022
5184 Clear 9 1023 74 10000 2.57 40 08:40 24.02.2022
5185 Clouds 8 1023 74 10000 2.06 40 05:52 24.02.2022
5186 Clouds 9 1024 78 10000 2.06 60 01:56 24.02.2022
5187 Clouds 9 1024 78 10000 2.06 60 01:56 24.02.2022
5188 Clouds 10 1026 80 10000 2.06 50 22:56 23.02.2022
5189 Clouds 10 1026 81 10000 1.54 80 21:43 23.02.2022
5190 Clouds 12 1026 75 10000 0.51 0 20:31 23.02.2022
5191 Clouds 14 1026 72 10000 0.51 0 19:47 23.02.2022
5192 Clouds 15 1025 67 10000 3.09 220 18:32 23.02.2022
5193 Clouds 15 1025 67 10000 3.09 220 18:32 23.02.2022
5194 Clouds 15 1025 70 10000 3.6 230 17:44 23.02.2022
5195 Clouds 16 1027 64 10000 4.63 240 15:19 23.02.2022
5196 Clouds 17 1029 59 10000 5.14 230 12:50 23.02.2022
5197 Clouds 17 1028 56 10000 4.63 230 12:24 23.02.2022
5198 Clear 14 1029 67 10000 1.03 20 10:35 23.02.2022
5199 Clear 8 1029 78 10000 0 0 08:59 23.02.2022
5200 Clear 6 1025 74 10000 0.51 0 08:23 23.02.2022
5201 Clear 6 1024 75 10000 2.06 40 06:53 23.02.2022
5202 Clouds 7 1026 70 10000 1.54 50 01:21 23.02.2022
5203 Clear 8 1026 68 10000 2.57 80 23:39 22.02.2022
5204 Clear 9 1026 67 10000 0.89 5 22:51 22.02.2022
5205 Clouds 10 1026 67 10000 1.79 10 21:55 22.02.2022
5206 Clear 11 1025 58 10000 0.45 68 21:37 22.02.2022
5207 Clear 11 1025 58 10000 0.45 58 21:18 22.02.2022
5208 Clouds 11 1024 60 10000 1.03 0 20:31 22.02.2022
5209 Clouds 12 1024 55 10000 1.54 240 19:51 22.02.2022
5210 Clouds 13 1024 61 10000 3.09 230 19:31 22.02.2022
5211 Clouds 15 1026 77 10000 4.63 240 18:23 22.02.2022
5212 Clouds 16 1027 66 10000 6.17 240 17:26 22.02.2022
5213 Clouds 16 1027 63 10000 7.2 240 16:42 22.02.2022
5214 Clouds 17 1027 68 10000 7.72 240 15:59 22.02.2022
5215 Clouds 16 1027 66 10000 7.2 230 14:52 22.02.2022
5216 Clouds 16 1028 67 10000 6.26 197 12:52 22.02.2022
5217 Clouds 15 1028 70 10000 3.13 190 10:54 22.02.2022
5218 Clouds 9 1025 84 10000 0 0 08:56 22.02.2022
5219 Clouds 7 1024 83 10000 1.03 150 07:28 22.02.2022
5220 Clouds 8 1024 85 10000 1.54 340 06:53 22.02.2022
5221 Clouds 11 1025 81 10000 2.06 70 02:48 22.02.2022
5222 Clear 13 1022 55 10000 2.57 170 23:18 21.02.2022
5223 Clear 13 1019 59 10000 2.06 260 21:56 21.02.2022
5224 Clear 14 1020 61 10000 3.09 180 20:38 21.02.2022
5225 Clouds 16 1020 53 10000 2.57 210 18:47 21.02.2022
5226 Clouds 17 1020 41 10000 4.12 230 18:18 21.02.2022
5227 Clouds 18 1023 51 10000 6.69 320 15:36 21.02.2022
5228 Clouds 17 1024 55 10000 7.72 330 14:22 21.02.2022
5229 Clouds 17 1024 58 10000 6.69 250 13:30 21.02.2022
5230 Clouds 17 1025 56 10000 6.17 240 12:25 21.02.2022
5231 Clouds 17 1025 66 10000 7.2 240 11:31 21.02.2022
5232 Clouds 15 1024 68 10000 6.17 250 10:23 21.02.2022
5233 Clouds 5 1025 87 10000 1.54 60 05:40 21.02.2022
5234 Clear 9 1026 72 10000 0.89 314 00:30 21.02.2022
5235 Clear 11 1026 61 10000 2.57 260 22:30 20.02.2022
5236 Clear 11 1026 60 10000 4.12 250 21:43 20.02.2022
5237 Clear 11 1026 56 10000 5.66 250 21:19 20.02.2022
5238 Clear 11 1024 49 10000 6.17 260 20:42 20.02.2022
5239 Clear 12 1024 43 10000 5.66 250 19:42 20.02.2022
5240 Clear 13 1025 47 10000 5.66 250 18:54 20.02.2022
5241 Clear 14 1026 50 10000 5.14 250 18:34 20.02.2022
5242 Clouds 16 1026 39 10000 3.09 250 17:55 20.02.2022
5243 Clouds 16 1027 45 10000 4.12 310 16:18 20.02.2022
5244 Clouds 16 1028 58 10000 5.66 230 14:53 20.02.2022
5245 Clouds 16 1028 58 10000 5.66 230 14:53 20.02.2022
5246 Clouds 16 1029 57 10000 6.17 220 13:58 20.02.2022
5247 Clouds 15 1030 64 10000 4.47 190 12:35 20.02.2022
5248 Clouds 14 1030 71 10000 3.13 186 10:52 20.02.2022
5249 Clouds 13 1029 72 10000 1.34 219 10:20 20.02.2022
5250 Clouds 11 1026 78 10000 0.51 50 08:58 20.02.2022
5251 Clouds 11 1024 69 10000 1.03 0 01:19 20.02.2022
5252 Clouds 12 1024 68 10000 2.57 50 00:31 20.02.2022
5253 Clouds 12 1023 65 10000 3.09 40 23:30 19.02.2022
5254 Clouds 11 1022 62 10000 4.12 60 22:23 19.02.2022
5255 Clouds 12 1022 61 10000 5.14 60 21:45 19.02.2022
5256 Clouds 12 1021 51 10000 6.17 50 20:25 19.02.2022
5257 Clouds 12 1021 50 10000 6.17 50 20:24 19.02.2022
5258 Clouds 13 1021 47 10000 6.69 50 19:34 19.02.2022
5259 Clouds 14 1020 47 10000 0.89 47 18:39 19.02.2022
5260 Clouds 14 1019 44 10000 9.77 60 17:54 19.02.2022
5261 Clouds 15 1018 47 10000 11.83 60 16:47 19.02.2022
5262 Clouds 15 1018 43 10000 12.35 60 15:58 19.02.2022
5263 Clouds 15 1019 53 10000 10.8 60 14:53 19.02.2022
5264 Clouds 15 1017 53 10000 12.35 60 13:55 19.02.2022
5265 Clouds 15 1017 59 10000 9.77 60 11:42 19.02.2022
5266 Clouds 14 1017 61 10000 10.29 60 10:45 19.02.2022
5267 Clouds 13 1016 74 10000 9.26 60 08:56 19.02.2022
5268 Clouds 11 1014 75 10000 7.2 60 06:45 19.02.2022
5269 Clear 9 1014 81 10000 2.06 340 00:23 19.02.2022
5270 Clear 10 1015 80 10000 1.34 355 22:24 18.02.2022
5271 Clear 11 1015 81 10000 1.03 0 21:21 18.02.2022
5272 Clear 13 1015 83 10000 2.06 260 19:56 18.02.2022
5273 Clear 15 1015 81 10000 2.06 230 18:51 18.02.2022
5274 Clear 15 1015 78 10000 2.06 230 18:28 18.02.2022
5275 Clear 16 1017 83 10000 3.09 230 17:56 18.02.2022
5276 Clouds 18 1015 66 10000 3.09 250 16:19 18.02.2022
5277 Clear 18 1017 64 10000 3.6 230 13:56 18.02.2022
5278 Clear 18 1018 65 10000 3.6 230 13:32 18.02.2022
5279 Clear 17 1019 67 10000 1.34 194 12:48 18.02.2022
5280 Clouds 18 1019 66 10000 3.09 230 11:56 18.02.2022
5281 Clouds 16 1019 69 10000 1.34 178 10:42 18.02.2022
5282 Fog 5 1020 100 2000 0.51 0 07:20 18.02.2022
5283 Fog 5 1021 100 6000 1.03 0 05:52 18.02.2022
5284 Fog 5 1021 93 6000 1.03 50 05:34 18.02.2022
5285 Clear 12 1022 72 10000 0.51 0 21:59 17.02.2022
5286 Clear 13 1022 70 10000 1.03 30 21:33 17.02.2022
5287 Clear 14 1022 69 10000 1.03 0 20:42 17.02.2022
5288 Clear 15 1020 61 10000 1.03 0 19:55 17.02.2022
5289 Clear 16 1023 69 10000 2.06 180 18:57 17.02.2022
5290 Clear 16 1023 76 10000 2.57 190 18:18 17.02.2022
5291 Clear 17 1023 73 10000 4.12 200 17:30 17.02.2022
5292 Clear 19 1023 57 10000 5.66 230 15:50 17.02.2022
5293 Clear 19 1024 57 10000 4.12 220 14:29 17.02.2022
5294 Clear 20 1025 53 10000 2.68 180 13:30 17.02.2022
5295 Clear 18 1025 52 10000 1.54 30 11:36 17.02.2022
5296 Clear 16 1024 65 10000 3.58 277 09:58 17.02.2022
5297 Clear 14 1018 52 10000 1.79 61 06:44 17.02.2022
5298 Clear 11 1022 64 10000 3.09 180 23:23 16.02.2022
5299 Clear 12 1022 63 10000 1.79 222 22:28 16.02.2022
5300 Clear 13 1022 50 10000 1.54 140 20:22 16.02.2022
5301 Clear 15 1020 32 10000 4.12 260 18:56 16.02.2022
5302 Clear 16 1022 48 10000 6.69 250 17:56 16.02.2022
5303 Clear 17 1023 52 10000 7.2 250 16:44 16.02.2022
5304 Clouds 17 1023 42 10000 8.23 260 15:22 16.02.2022
5305 Clear 17 1025 37 10000 5.14 280 13:40 16.02.2022
5306 Clear 17 1025 38 10000 6.17 310 12:24 16.02.2022
5307 Clear 17 1025 40 10000 6.17 310 11:46 16.02.2022
5308 Clouds 16 1025 45 10000 5.66 310 10:34 16.02.2022
5309 Clouds 14 1026 55 10000 1.79 234 09:38 16.02.2022
5310 Clouds 7 1021 81 10000 1.03 0 06:43 16.02.2022
5311 Clear 9 1024 73 10000 1.03 0 00:37 16.02.2022
5312 Clouds 10 1024 64 10000 2.06 230 22:34 15.02.2022
5313 Clear 11 1024 60 10000 3.6 240 21:50 15.02.2022
5314 Clear 12 1024 60 10000 3.6 260 21:29 15.02.2022
5315 Clear 11 1024 61 10000 0.89 253 20:58 15.02.2022
5316 Clear 12 1023 56 10000 2.06 340 20:22 15.02.2022
5317 Clear 12 1023 56 10000 2.06 340 19:43 15.02.2022
5318 Clouds 13 1021 51 10000 3.09 300 18:25 15.02.2022
5319 Clouds 14 1024 57 10000 4.63 310 17:53 15.02.2022
5320 Clouds 14 1022 51 10000 4.12 300 17:32 15.02.2022
5321 Clouds 14 1024 59 10000 7.2 320 15:43 15.02.2022
5322 Clouds 14 1024 60 10000 5.66 320 13:57 15.02.2022
5323 Clouds 14 1024 59 10000 5.81 282 13:25 15.02.2022
5324 Clouds 14 1022 56 10000 4.92 291 11:41 15.02.2022
5325 Clouds 12 1022 58 10000 4.02 302 10:27 15.02.2022
5326 Clouds 12 1020 60 10000 4.63 310 08:42 15.02.2022
5327 Clouds 11 1018 55 10000 2.06 300 06:45 15.02.2022
5328 Clear 10 1017 58 10000 0.45 292 23:35 14.02.2022
5329 Clear 11 1017 59 10000 1.34 304 21:57 14.02.2022
5330 Clear 12 1016 57 10000 1.54 270 20:53 14.02.2022
5331 Clouds 12 1016 58 10000 2.57 300 19:49 14.02.2022
5332 Clouds 12 1015 59 10000 2.57 300 19:29 14.02.2022
5333 Clouds 14 1015 54 10000 5.14 330 18:24 14.02.2022
5334 Clouds 15 1014 54 10000 6.17 330 17:30 14.02.2022
5335 Clouds 15 1014 57 10000 4.63 320 16:37 14.02.2022
5336 Clouds 15 1014 71 10000 10.29 260 15:22 14.02.2022
5337 Clouds 16 1015 73 10000 7.2 240 13:35 14.02.2022
5338 Clouds 16 1016 76 10000 6.17 230 12:58 14.02.2022
5339 Clouds 16 1014 72 10000 7.2 240 12:32 14.02.2022
5340 Clouds 15 1015 79 10000 7.2 230 11:39 14.02.2022
5341 Clouds 14 1015 86 10000 6.69 240 10:21 14.02.2022
5342 Rain 13 1013 85 10000 5.66 220 08:18 14.02.2022
5343 Clouds 14 1015 84 10000 5.66 220 07:26 14.02.2022
5344 Clouds 12 1020 83 10000 1.54 150 23:19 13.02.2022
5345 Clouds 11 1021 82 10000 0.89 115 22:41 13.02.2022
5346 Clouds 11 1021 82 10000 0.51 0 22:22 13.02.2022
5347 Clouds 12 1021 77 10000 1.54 150 21:24 13.02.2022
5348 Clouds 13 1021 77 10000 1.79 193 20:28 13.02.2022
5349 Clouds 13 1021 74 10000 1.54 180 19:23 13.02.2022
5350 Clouds 13 1021 73 10000 2.57 210 18:41 13.02.2022
5351 Clouds 14 1022 70 10000 4.63 220 17:41 13.02.2022
5352 Clouds 15 1022 71 10000 6.17 230 15:53 13.02.2022
5353 Clouds 15 1023 68 10000 5.66 220 14:52 13.02.2022
5354 Clouds 15 1024 71 10000 5.14 230 13:42 13.02.2022
5355 Clouds 15 1025 73 10000 4.63 220 12:49 13.02.2022
5356 Clouds 13 1025 83 10000 0.51 330 10:50 13.02.2022
5357 Clouds 12 1025 89 10000 0.51 0 10:27 13.02.2022
5358 Fog 8 1025 94 10000 1.03 0 09:36 13.02.2022
5359 Clouds 6 1024 91 10000 1.03 50 06:21 13.02.2022
5360 Clouds 10 1027 88 10000 1.03 40 00:35 13.02.2022
5361 Clouds 12 1028 84 10000 0.51 150 22:59 12.02.2022
5362 Clouds 12 1027 83 10000 0.45 132 22:33 12.02.2022
5363 Clouds 13 1026 80 10000 1.03 110 21:19 12.02.2022
5364 Clouds 13 1025 78 10000 1.03 150 20:32 12.02.2022
5365 Clouds 13 1026 77 10000 1.79 170 19:21 12.02.2022
5366 Clouds 14 1026 73 10000 2.06 240 18:50 12.02.2022
5367 Clouds 14 1026 73 10000 2.06 240 18:32 12.02.2022
5368 Clouds 15 1026 69 10000 4.12 220 16:55 12.02.2022
5369 Clouds 15 1025 66 10000 3.6 230 16:25 12.02.2022
5370 Clouds 15 1026 67 10000 3.6 230 15:50 12.02.2022
5371 Clouds 15 1026 69 10000 4.12 230 14:31 12.02.2022
5372 Clouds 16 1027 62 10000 1.79 180 12:58 12.02.2022
5373 Clouds 12 1028 82 10000 1.03 20 10:40 12.02.2022
5374 Clouds 8 1026 95 9000 1.54 30 09:39 12.02.2022
5375 Clouds 5 1026 87 9000 1.54 60 08:50 12.02.2022
5376 Clouds 5 1026 93 9000 1.54 40 08:18 12.02.2022
5377 Clouds 6 1026 91 8000 1.34 355 05:33 12.02.2022
5378 Clouds 6 1026 91 10000 1.79 355 04:27 12.02.2022
5379 Clouds 7 1027 88 10000 1.34 340 02:18 12.02.2022
5380 Clouds 9 1027 85 10000 1.79 329 22:29 11.02.2022
5381 Clouds 10 1028 79 10000 0.45 322 21:55 11.02.2022
5382 Clear 11 1027 78 10000 0.51 210 20:41 11.02.2022
5383 Clear 12 1027 73 10000 0.89 110 19:47 11.02.2022
5384 Clear 13 1026 71 10000 2.06 90 19:27 11.02.2022
5385 Clear 15 1025 63 10000 4.12 80 17:59 11.02.2022
5386 Clear 16 1025 58 10000 5.14 80 17:26 11.02.2022
5387 Clear 16 1025 54 10000 4.12 70 16:23 11.02.2022
5388 Clear 17 1024 48 10000 4.02 84 14:43 11.02.2022
5389 Clouds 17 1024 51 10000 3.09 70 14:21 11.02.2022
5390 Clouds 17 1025 51 10000 1.54 60 13:59 11.02.2022
5391 Clouds 17 1025 53 10000 1.54 80 13:39 11.02.2022
5392 Clouds 14 1028 68 10000 1.03 0 11:47 11.02.2022
5393 Clouds 12 1028 77 10000 2.06 20 10:24 11.02.2022
5394 Clouds 6 1027 88 10000 1.34 355 08:49 11.02.2022
5395 Clouds 5 1026 89 10000 1.54 80 08:27 11.02.2022
5396 Clouds 4 1025 92 10000 0 0 07:22 11.02.2022
5397 Clear 6 1027 91 10000 1.34 355 02:40 11.02.2022
5398 Clear 6 1027 91 10000 0.89 350 02:19 11.02.2022
5399 Clouds 8 1027 89 10000 1.03 60 23:20 10.02.2022
5400 Clouds 9 1027 83 10000 2.06 50 21:53 10.02.2022
5401 Clouds 11 1027 78 10000 1.54 70 21:21 10.02.2022
5402 Clouds 11 1027 77 10000 1.54 70 20:48 10.02.2022
5403 Clouds 12 1027 71 10000 1.54 130 19:26 10.02.2022
5404 Clouds 13 1026 67 10000 1.03 200 18:47 10.02.2022
5405 Clouds 15 1026 65 10000 3.09 230 17:27 10.02.2022
5406 Clouds 15 1027 64 10000 3.6 230 16:57 10.02.2022
5407 Clouds 15 1027 61 10000 4.12 240 15:59 10.02.2022
5408 Clouds 16 1027 59 10000 4.63 240 15:33 10.02.2022
5409 Clouds 16 1027 58 10000 5.14 240 14:49 10.02.2022
5410 Clouds 16 1028 56 10000 2.57 260 14:29 10.02.2022
5411 Clouds 16 1029 58 10000 2.24 266 13:33 10.02.2022
5412 Clouds 16 1029 57 10000 1.03 350 12:51 10.02.2022
5413 Clouds 15 1030 61 10000 0.51 40 11:38 10.02.2022
5414 Clouds 14 1030 62 10000 0.51 40 11:20 10.02.2022
5415 Clouds 12 1030 74 10000 1.34 346 10:18 10.02.2022
5416 Clouds 8 1030 86 10000 1.79 336 09:25 10.02.2022
5417 Clouds 4 1028 93 10000 1.03 360 07:37 10.02.2022
5418 Clouds 6 1030 86 10000 2.68 13 05:52 10.02.2022
5419 Clouds 6 1031 84 10000 2.06 40 01:57 10.02.2022
5420 Clear 7 1031 86 10000 2.24 360 00:50 10.02.2022
5421 Clear 7 1031 86 10000 2.24 360 00:50 10.02.2022
5422 Clear 7 1031 85 10000 1.03 0 00:29 10.02.2022
5423 Clear 8 1031 82 10000 1.54 80 23:28 09.02.2022
5424 Clear 9 1031 78 10000 3.09 70 22:38 09.02.2022
5425 Clear 9 1031 76 10000 1.54 40 21:56 09.02.2022
5426 Clear 9 1031 75 10000 1.34 350 21:32 09.02.2022
5427 Clear 10 1032 66 10000 1.54 70 20:53 09.02.2022
5428 Clear 11 1032 64 10000 1.54 70 20:31 09.02.2022
5429 Clear 12 1031 64 10000 1.54 50 19:59 09.02.2022
5430 Clear 12 1030 61 10000 2.06 140 19:38 09.02.2022
5431 Clear 17 1030 42 10000 2.57 150 17:39 09.02.2022
5432 Clouds 16 1031 40 10000 3.09 160 16:53 09.02.2022
5433 Clear 17 1032 39 10000 3.58 232 15:54 09.02.2022
5434 Clouds 17 1031 53 10000 3.6 160 14:43 09.02.2022
5435 Clouds 16 1034 62 10000 2.57 160 12:30 09.02.2022
5436 Clouds 15 1034 69 10000 1.54 90 11:19 09.02.2022
5437 Clouds 13 1034 75 10000 2.06 60 10:31 09.02.2022
5438 Clouds 12 1032 75 10000 1.34 91 09:42 09.02.2022
5439 Clouds 11 1031 75 10000 1.03 0 09:19 09.02.2022
5440 Clouds 9 1031 79 10000 1.54 30 07:56 09.02.2022
5441 Clouds 9 1031 79 10000 2.57 50 05:30 09.02.2022
5442 Clouds 9 1031 77 10000 2.57 60 03:50 09.02.2022
5443 Clouds 9 1031 75 10000 1.54 60 01:28 09.02.2022
5444 Clouds 9 1032 71 10000 1.79 335 23:39 08.02.2022
5445 Clouds 9 1032 70 10000 1.79 336 22:51 08.02.2022
5446 Clouds 9 1031 71 10000 1.79 309 22:22 08.02.2022
5447 Clouds 9 1031 69 10000 1.79 13 21:50 08.02.2022
5448 Clouds 10 1031 66 10000 2.57 60 21:21 08.02.2022
5449 Clouds 10 1032 66 10000 2.57 60 20:45 08.02.2022
5450 Clouds 11 1032 61 10000 3.09 60 19:52 08.02.2022
5451 Clouds 12 1031 50 10000 5.66 80 18:52 08.02.2022
5452 Clouds 14 1031 44 10000 6.17 70 17:50 08.02.2022
5453 Clouds 16 1032 49 10000 6.17 70 16:34 08.02.2022
5454 Clouds 16 1032 48 10000 6.17 60 15:39 08.02.2022
5455 Clouds 17 1032 48 10000 6.17 60 14:44 08.02.2022
5456 Clouds 16 1033 55 10000 6.17 60 13:29 08.02.2022
5457 Clouds 16 1032 53 10000 4.63 70 12:18 08.02.2022
5458 Clouds 14 1032 63 10000 4.63 50 10:39 08.02.2022
5459 Clouds 12 1032 72 10000 4.12 40 09:46 08.02.2022
5460 Clouds 7 1030 82 10000 3.09 70 08:25 08.02.2022
5461 Clouds 6 1031 87 10000 1.54 60 05:45 08.02.2022
5462 Clouds 7 1031 87 10000 1.54 340 04:39 08.02.2022
5463 Clouds 7 1031 86 10000 1.54 340 04:21 08.02.2022
5464 Clouds 7 1030 81 10000 2.57 40 03:36 08.02.2022
5465 Clouds 7 1030 81 10000 2.57 40 03:18 08.02.2022
5466 Clouds 7 1030 81 10000 2.06 20 02:59 08.02.2022
5467 Clouds 7 1030 81 10000 1.03 0 02:36 08.02.2022
5468 Clouds 7 1030 82 10000 3.09 30 02:18 08.02.2022
5469 Clear 8 1029 77 10000 1.79 336 01:44 08.02.2022
5470 Clear 8 1029 78 10000 2.24 338 01:24 08.02.2022
5471 Clouds 8 1030 82 10000 0.89 86 00:55 08.02.2022
5472 Clouds 8 1029 80 10000 2.57 60 23:58 07.02.2022
5473 Clouds 9 1029 79 10000 1.34 5 23:40 07.02.2022
5474 Clouds 9 1029 79 10000 1.34 5 23:40 07.02.2022
5475 Clouds 8 1029 79 10000 1.03 0 23:18 07.02.2022
5476 Clouds 9 1028 77 10000 2.06 10 22:54 07.02.2022
5477 Clouds 10 1028 73 10000 2.06 20 22:18 07.02.2022
5478 Clouds 10 1026 71 10000 2.57 40 21:44 07.02.2022
5479 Clouds 10 1026 71 10000 2.06 40 21:25 07.02.2022
5480 Clouds 11 1027 70 10000 3.6 60 20:41 07.02.2022
5481 Clouds 12 1027 68 10000 3.6 60 20:18 07.02.2022
5482 Clear 13 1026 60 10000 2.24 38 19:45 07.02.2022
5483 Clouds 14 1025 52 10000 2.57 300 18:22 07.02.2022
5484 Clouds 15 1026 60 10000 3.58 288 16:53 07.02.2022
5485 Clouds 16 1024 48 10000 3.6 300 16:20 07.02.2022
5486 Clouds 16 1026 58 10000 4.02 314 15:48 07.02.2022
5487 Clouds 16 1027 60 10000 4.12 230 13:39 07.02.2022
5488 Clouds 16 1027 60 10000 4.12 230 13:21 07.02.2022
5489 Clouds 15 1028 67 10000 1.34 317 11:58 07.02.2022
5490 Clouds 14 1028 69 10000 1.34 277 11:37 07.02.2022
5491 Clouds 14 1027 67 10000 0.45 194 10:53 07.02.2022
5492 Clouds 13 1027 69 10000 0.45 203 10:32 07.02.2022
5493 Fog 12 1027 77 10000 0.45 111 09:53 07.02.2022
5494 Fog 8 1027 80 10000 0.45 262 09:18 07.02.2022
5495 Clouds 6 1028 88 10000 0.89 275 08:44 07.02.2022
5496 Clouds 4 1026 90 10000 1.03 50 07:30 07.02.2022
5497 Clouds 4 1026 88 10000 1.54 60 06:34 07.02.2022
5498 Clouds 5 1028 83 10000 1.03 40 03:49 07.02.2022
5499 Clouds 7 1026 75 10000 1.34 295 00:47 07.02.2022
5500 Clouds 8 1027 78 10000 0.89 252 23:50 06.02.2022
5501 Clouds 8 1027 79 10000 0.45 270 23:19 06.02.2022
5502 Clouds 8 1027 79 10000 0.45 270 22:34 06.02.2022
5503 Clouds 9 1027 78 10000 0.45 292 21:36 06.02.2022
5504 Clouds 10 1026 75 10000 0.45 292 20:58 06.02.2022
5505 Clouds 11 1026 75 10000 0.89 302 20:36 06.02.2022
5506 Clouds 12 1027 72 10000 0.89 304 19:46 06.02.2022
5507 Clouds 13 1026 68 10000 0.45 270 18:50 06.02.2022
5508 Clouds 13 1026 68 10000 0.45 229 18:26 06.02.2022
5509 Clouds 14 1027 73 10000 1.79 327 17:29 06.02.2022
5510 Clouds 15 1026 69 10000 1.79 194 16:50 06.02.2022
5511 Clouds 15 1028 75 10000 2.24 166 15:50 06.02.2022
5512 Clouds 15 1028 73 10000 1.79 161 15:28 06.02.2022
5513 Clouds 14 1028 74 10000 1.34 182 14:59 06.02.2022
5514 Clouds 15 1027 68 10000 1.34 239 13:57 06.02.2022
5515 Clouds 15 1027 68 10000 1.34 241 13:20 06.02.2022
5516 Clouds 15 1028 76 10000 2.57 50 11:45 06.02.2022
5517 Clouds 13 1026 76 10000 0.89 56 10:33 06.02.2022
5518 Clouds 11 1026 87 10000 0.45 61 09:36 06.02.2022
5519 Clouds 11 1026 90 10000 0.45 45 08:41 06.02.2022
5520 Clouds 11 1024 87 9000 0.51 30 06:31 06.02.2022
5521 Clouds 11 1025 87 8000 1.03 80 05:28 06.02.2022
5522 Clouds 10 1025 88 9000 0.51 40 02:25 06.02.2022
5523 Clouds 11 1025 85 10000 1.03 80 00:32 06.02.2022
5524 Clouds 12 1025 83 10000 0.51 0 23:38 05.02.2022
5525 Clouds 12 1024 82 10000 1.03 0 21:46 05.02.2022
5526 Clouds 13 1024 78 10000 0.89 44 20:41 05.02.2022
5527 Clouds 13 1023 75 10000 0.45 68 20:20 05.02.2022
5528 Clouds 14 1023 74 10000 3.09 40 19:42 05.02.2022
5529 Clouds 14 1022 68 10000 0.45 68 18:30 05.02.2022
5530 Clouds 15 1022 64 10000 0.89 17 17:35 05.02.2022
5531 Clouds 15 1024 70 10000 3.09 270 15:51 05.02.2022
5532 Clouds 15 1024 69 10000 2.57 230 15:29 05.02.2022
5533 Clouds 15 1024 64 10000 0 0 13:25 05.02.2022
5534 Clouds 16 1024 66 10000 0.51 0 12:46 05.02.2022
5535 Clouds 15 1023 73 10000 1.03 20 11:45 05.02.2022
5536 Clouds 14 1022 77 10000 0.45 112 10:43 05.02.2022
5537 Clouds 13 1022 81 10000 1.03 0 09:50 05.02.2022
5538 Clouds 11 1022 84 10000 1.54 360 08:39 05.02.2022
5539 Clouds 11 1021 83 10000 0.51 0 06:59 05.02.2022
5540 Clouds 11 1021 83 10000 0.51 0 06:35 05.02.2022
5541 Clouds 12 1021 81 10000 1.03 0 02:40 05.02.2022
5542 Clouds 12 1022 82 10000 0.45 68 01:18 05.02.2022
5543 Clouds 12 1022 82 10000 1.03 0 00:36 05.02.2022
5544 Clouds 13 1022 82 10000 0.89 68 23:33 04.02.2022
5545 Clouds 13 1022 81 10000 0.89 73 22:45 04.02.2022
5546 Clouds 13 1021 80 10000 0.45 42 21:36 04.02.2022
5547 Clouds 13 1021 80 10000 0.45 65 21:18 04.02.2022
5548 Clouds 13 1021 78 10000 0.89 46 20:36 04.02.2022
5549 Clouds 14 1020 79 10000 0.45 254 19:19 04.02.2022
5550 Clear 17 1019 66 10000 1.34 184 16:44 04.02.2022
5551 Clear 18 1019 58 10000 1.34 214 15:19 04.02.2022
5552 Clear 18 1020 61 10000 3.13 230 14:47 04.02.2022
5553 Clouds 19 1019 55 10000 0.89 259 12:43 04.02.2022
5554 Clouds 17 1020 64 10000 0.89 198 11:45 04.02.2022
5555 Clouds 16 1020 68 10000 0.89 89 10:56 04.02.2022
5556 Clouds 15 1020 74 10000 1.34 68 10:22 04.02.2022
5557 Clouds 8 1018 82 10000 0.89 68 08:30 04.02.2022
5558 Clouds 6 1018 86 10000 1.03 60 04:45 04.02.2022
5559 Clouds 6 1019 84 8000 0 0 02:38 04.02.2022
5560 Fog 6 1019 100 5000 0.51 0 23:56 03.02.2022
5561 Clouds 8 1020 93 7000 1.03 40 22:51 03.02.2022
5562 Clouds 9 1021 93 8000 0.89 333 21:58 03.02.2022
5563 Clouds 10 1021 93 9000 0.89 342 21:37 03.02.2022
5564 Clear 11 1020 84 10000 0.51 340 20:22 03.02.2022
5565 Clear 12 1020 84 10000 2.06 180 19:49 03.02.2022
5566 Clear 14 1019 82 10000 2.57 170 19:20 03.02.2022
5567 Clear 15 1019 77 10000 0.45 214 17:59 03.02.2022
5568 Clear 17 1019 72 10000 0.89 212 17:19 03.02.2022
5569 Clouds 17 1020 70 10000 0.89 171 15:38 03.02.2022
5570 Clouds 18 1019 62 10000 1.79 223 14:18 03.02.2022
5571 Clouds 18 1022 60 10000 0.89 174 12:32 03.02.2022
5572 Fog 3 1022 100 10000 0 0 08:56 03.02.2022
5573 Clouds 4 1022 93 10000 2.06 70 07:43 03.02.2022
5574 Clear 8 1023 71 10000 0.45 256 00:59 03.02.2022
5575 Clear 8 1023 71 10000 0.45 270 00:22 03.02.2022
5576 Clear 11 1022 61 10000 0.45 348 22:39 02.02.2022
5577 Clear 11 1022 63 10000 0.51 0 21:51 02.02.2022
5578 Clear 11 1022 60 10000 0.45 292 21:29 02.02.2022
5579 Clear 13 1020 48 10000 1.54 70 20:27 02.02.2022
5580 Clear 13 1022 58 10000 2.57 60 19:46 02.02.2022
5581 Clear 14 1022 62 10000 2.06 180 18:56 02.02.2022
5582 Clear 18 1022 45 10000 2.57 170 18:25 02.02.2022
5583 Clear 19 1021 45 10000 2.06 220 17:22 02.02.2022
5584 Clear 19 1022 45 10000 3.09 220 16:58 02.02.2022
5585 Clear 19 1023 43 10000 5.36 276 15:29 02.02.2022
5586 Clear 19 1025 48 10000 4.02 295 12:47 02.02.2022
5587 Clear 17 1025 55 10000 6.26 306 11:49 02.02.2022
5588 Clear 18 1026 48 10000 4.47 288 11:30 02.02.2022
5589 Clear 11 1021 54 10000 3.09 240 09:18 02.02.2022
5590 Clear 11 1021 49 10000 0.45 292 04:57 02.02.2022
5591 Clear 11 1025 61 10000 0.45 292 22:34 01.02.2022
5592 Clouds 11 1025 58 10000 0.89 269 20:58 01.02.2022
5593 Clouds 12 1024 62 10000 0.89 266 19:39 01.02.2022
5594 Clouds 14 1023 51 10000 0.45 135 17:37 01.02.2022
5595 Clouds 15 1023 47 10000 1.79 59 16:31 01.02.2022
5596 Clouds 15 1025 65 10000 2.68 304 13:27 01.02.2022
5597 Clouds 14 1025 68 10000 1.79 321 12:28 01.02.2022
5598 Clouds 12 1024 76 10000 1.03 0 10:42 01.02.2022
5599 Clouds 10 1020 74 10000 1.34 54 02:24 01.02.2022
5600 Clouds 9 1020 69 10000 0.45 314 23:39 31.01.2022
5601 Clouds 9 1021 79 10000 1.34 303 22:42 31.01.2022
5602 Clouds 9 1020 66 10000 0.89 349 21:36 31.01.2022
5603 Clouds 10 1020 64 10000 0.45 261 20:44 31.01.2022
5604 Clouds 10 1019 62 10000 0.45 327 20:24 31.01.2022
5605 Clouds 12 1018 48 10000 0.45 42 18:54 31.01.2022
5606 Clouds 13 1018 42 10000 0.89 309 18:20 31.01.2022
5607 Clouds 15 1018 36 10000 2.24 35 17:25 31.01.2022
5608 Clouds 16 1020 46 10000 1.79 302 16:25 31.01.2022
5609 Clouds 17 1020 45 10000 4.47 270 14:54 31.01.2022
5610 Clear 18 1019 42 10000 4.12 230 13:43 31.01.2022
5611 Clear 18 1022 40 10000 2.68 319 12:38 31.01.2022
5612 Clear 16 1022 57 10000 3.58 284 11:42 31.01.2022
5613 Clear 14 1022 74 10000 1.79 265 10:49 31.01.2022
5614 Fog 13 1021 60 6000 2.24 62 09:45 31.01.2022
5615 Fog 8 1022 76 10000 0.89 293 08:58 31.01.2022
5616 Fog 6 1022 82 10000 1.79 284 08:39 31.01.2022
5617 Fog 2 1021 88 10000 1.03 0 08:20 31.01.2022
5618 Fog 6 1021 76 50 0.51 0 06:18 31.01.2022
5619 Clear 5 1024 86 10000 2.06 170 00:44 31.01.2022
5620 Clear 9 1022 64 10000 0.45 68 22:40 30.01.2022
5621 Clear 9 1022 65 10000 0.45 112 22:22 30.01.2022
5622 Clear 9 1024 65 10000 0.45 112 21:38 30.01.2022
5623 Clear 9 1024 65 10000 0.45 111 21:18 30.01.2022
5624 Clear 10 1025 67 10000 2.06 210 20:45 30.01.2022
5625 Clear 10 1025 68 10000 2.06 200 20:27 30.01.2022
5626 Clear 12 1025 65 10000 1.34 203 19:24 30.01.2022
5627 Clear 13 1024 61 10000 0.45 217 18:43 30.01.2022
5628 Clear 14 1025 60 10000 2.24 166 18:18 30.01.2022
5629 Clear 15 1026 67 10000 4.02 209 17:22 30.01.2022
5630 Clear 16 1027 57 10000 6.26 211 16:39 30.01.2022
5631 Clear 16 1027 57 10000 6.26 211 16:21 30.01.2022
5632 Clear 17 1027 57 10000 3.58 207 15:50 30.01.2022
5633 Clear 17 1027 57 10000 3.58 207 15:31 30.01.2022
5634 Clear 17 1028 54 10000 3.58 220 14:46 30.01.2022
5635 Clear 16 1028 53 10000 0.89 192 12:47 30.01.2022
5636 Clear 15 1028 51 10000 0.89 194 11:57 30.01.2022
5637 Clear 11 1027 57 10000 0.89 193 10:36 30.01.2022
5638 Clear 8 1029 65 10000 0 0 09:51 30.01.2022
5639 Clear 10 1029 38 10000 2.53 264 08:55 30.01.2022
5640 Clear 7 1029 39 10000 2.08 255 07:28 30.01.2022
5641 Clear 1 1031 86 10000 1.54 30 01:56 30.01.2022
5642 Clear 5 1032 77 10000 1.79 13 00:34 30.01.2022
5643 Clear 6 1032 71 10000 1.34 336 23:20 29.01.2022
5644 Clear 8 1032 67 10000 0.45 281 21:58 29.01.2022
5645 Clear 8 1031 59 10000 0.89 281 21:25 29.01.2022
5646 Clear 8 1031 57 10000 0.45 270 20:35 29.01.2022
5647 Clear 11 1031 52 10000 0.45 270 19:35 29.01.2022
5648 Clear 11 1029 43 10000 2.06 70 18:53 29.01.2022
5649 Clear 13 1031 44 10000 0.45 257 18:26 29.01.2022
5650 Clear 15 1031 44 10000 4.63 60 17:35 29.01.2022
5651 Clouds 17 1031 37 10000 0.89 191 16:37 29.01.2022
5652 Clouds 16 1032 52 10000 2.24 161 14:23 29.01.2022
5653 Clouds 16 1033 49 10000 2.68 192 13:45 29.01.2022
5654 Clouds 17 1032 40 10000 0.89 243 13:24 29.01.2022
5655 Clear 16 1032 40 10000 0.89 227 12:35 29.01.2022
5656 Clear 15 1032 44 10000 0.89 287 11:27 29.01.2022
5657 Clouds 8 1031 56 10000 0.45 112 09:29 29.01.2022
5658 Clear 4 1029 59 10000 1.03 70 06:55 29.01.2022
5659 Clear 8 1029 38 10000 0.45 94 00:49 29.01.2022
5660 Clear 8 1029 36 10000 0.89 69 00:31 29.01.2022
5661 Clear 8 1028 38 10000 0.89 37 22:51 28.01.2022
5662 Clear 7 1028 43 10000 1.34 65 22:26 28.01.2022
5663 Clear 6 1028 44 10000 1.54 50 21:52 28.01.2022
5664 Clear 9 1027 37 10000 0.51 50 20:30 28.01.2022
5665 Clear 9 1027 37 10000 0.51 50 20:30 28.01.2022
5666 Clear 9 1027 37 10000 0.51 50 20:30 28.01.2022
5667 Clear 11 1027 23 10000 0.45 158 19:33 28.01.2022
5668 Clear 12 1025 12 10000 0.45 282 18:46 28.01.2022
5669 Clear 16 1028 20 10000 1.34 38 17:31 28.01.2022
5670 Clear 18 1030 21 10000 3.13 319 15:20 28.01.2022
5671 Clear 17 1031 38 10000 3.13 317 13:52 28.01.2022
5672 Clear 16 1029 45 10000 0.89 205 12:31 28.01.2022
5673 Fog 14 1029 62 10000 0.45 231 11:25 28.01.2022
5674 Fog 8 1028 87 10000 0.51 220 09:52 28.01.2022
5675 Fog 3 1030 86 1000 0 0 08:26 28.01.2022
5676 Fog 3 1029 86 500 1.03 0 07:34 28.01.2022
5677 Fog 3 1029 87 50 0.51 60 05:23 28.01.2022
5678 Fog 3 1029 87 100 0 0 03:45 28.01.2022
5679 Fog 3 1029 87 500 0.51 0 02:22 28.01.2022
5680 Mist 4 1031 84 4500 1.34 330 01:33 28.01.2022
5681 Clear 7 1030 80 10000 1.34 327 23:25 27.01.2022
5682 Clouds 7 1029 81 7000 1.79 5 21:49 27.01.2022
5683 Clear 8 1029 78 10000 0.89 5 21:29 27.01.2022
5684 Clear 9 1029 77 10000 0.45 323 20:44 27.01.2022
5685 Clouds 11 1028 76 10000 0.45 203 18:55 27.01.2022
5686 Clear 13 1028 68 10000 0.45 203 17:56 27.01.2022
5687 Clouds 16 1028 62 10000 0.89 209 15:18 27.01.2022
5688 Clear 16 1029 63 10000 0.89 199 13:36 27.01.2022
5689 Clouds 15 1029 64 10000 0.89 154 12:45 27.01.2022
5690 Fog 10 1029 80 10000 1.03 30 10:24 27.01.2022
5691 Fog 1 1029 93 10000 0 0 08:57 27.01.2022
5692 Fog 1 1029 88 10000 0.51 90 08:34 27.01.2022
5693 Fog 1 1029 89 1500 0.51 0 05:59 27.01.2022
5694 Fog 4 1030 89 6000 1.79 355 02:57 27.01.2022
5695 Clear 7 1029 81 10000 1.34 347 23:32 26.01.2022
5696 Clear 8 1029 80 10000 1.34 355 21:59 26.01.2022
5697 Clear 8 1029 79 10000 0.89 350 21:35 26.01.2022
5698 Clear 8 1030 81 10000 0.45 292 20:41 26.01.2022
5699 Clear 9 1030 80 10000 0.45 292 20:22 26.01.2022
5700 Clear 11 1029 77 10000 0.45 270 19:20 26.01.2022
5701 Clear 12 1028 69 10000 0.45 234 18:45 26.01.2022
5702 Clear 13 1029 65 10000 0.89 231 17:51 26.01.2022
5703 Clear 14 1029 62 10000 1.34 240 17:23 26.01.2022
5704 Clear 15 1030 64 10000 1.79 161 16:33 26.01.2022
5705 Clouds 15 1030 61 10000 2.68 219 15:49 26.01.2022
5706 Clouds 16 1031 55 10000 0.45 176 14:21 26.01.2022
5707 Clouds 14 1031 67 10000 0.89 254 11:54 26.01.2022
5708 Clouds 11 1031 83 10000 0.89 90 10:43 26.01.2022
5709 Clear 7 1030 89 10000 1.54 360 09:48 26.01.2022
5710 Clear 0 1031 100 10000 2.06 40 08:27 26.01.2022
5711 Clouds 4 1029 85 10000 1.54 360 04:24 26.01.2022
5712 Clouds 6 1031 83 10000 2.68 5 23:58 25.01.2022
5713 Clear 7 1031 80 10000 0.45 111 23:20 25.01.2022
5714 Clear 8 1031 78 10000 1.79 360 22:26 25.01.2022
5715 Clear 8 1031 77 10000 1.34 338 21:59 25.01.2022
5716 Clouds 8 1031 77 10000 0.45 9 21:22 25.01.2022
5717 Clouds 8 1031 76 10000 0.45 270 20:44 25.01.2022
5718 Clouds 9 1031 74 10000 0.45 23 19:53 25.01.2022
5719 Clouds 9 1031 74 10000 0.45 23 19:53 25.01.2022
5720 Clouds 11 1031 68 10000 0.89 122 18:43 25.01.2022
5721 Clouds 12 1031 60 10000 0.89 116 17:45 25.01.2022
5722 Clouds 15 1031 55 10000 0.89 128 16:58 25.01.2022
5723 Clouds 14 1032 63 10000 3.13 48 16:34 25.01.2022
5724 Clouds 15 1031 53 10000 0.89 125 15:39 25.01.2022
5725 Clouds 15 1031 53 10000 1.34 43 14:58 25.01.2022
5726 Clouds 15 1032 58 10000 0.89 117 13:47 25.01.2022
5727 Clouds 12 1033 70 10000 0.89 80 10:59 25.01.2022
5728 Clouds 8 1032 87 10000 0.45 68 09:20 25.01.2022
5729 Clouds 7 1031 87 10000 0.89 69 07:31 25.01.2022
5730 Clouds 7 1030 88 10000 0.45 45 06:53 25.01.2022
5731 Clear 6 1031 84 10000 1.34 325 05:23 25.01.2022
5732 Clear 8 1031 81 10000 0.89 5 00:20 25.01.2022
5733 Clouds 8 1031 85 10000 0.89 67 23:36 24.01.2022
5734 Clouds 8 1031 85 10000 0.89 67 23:18 24.01.2022
5735 Clouds 8 1031 85 10000 0.89 74 22:42 24.01.2022
5736 Clear 9 1030 80 10000 0.45 38 21:57 24.01.2022
5737 Clear 9 1030 80 10000 0.45 38 21:57 24.01.2022
5738 Clouds 9 1030 84 10000 0.45 112 21:32 24.01.2022
5739 Clouds 10 1030 80 10000 1.34 11 20:34 24.01.2022
5740 Clouds 10 1030 78 10000 0.45 90 19:58 24.01.2022
5741 Clouds 11 1029 77 10000 0.89 81 19:37 24.01.2022
5742 Clouds 12 1028 72 10000 1.34 89 18:37 24.01.2022
5743 Clouds 13 1028 71 10000 0.89 103 17:24 24.01.2022
5744 Clouds 13 1027 72 10000 1.34 90 16:58 24.01.2022
5745 Clouds 13 1027 72 10000 1.34 78 16:58 24.01.2022
5746 Clouds 14 1027 70 10000 0.89 71 16:30 24.01.2022
5747 Drizzle 13 1027 73 10000 1.34 77 14:54 24.01.2022
5748 Clouds 14 1028 76 10000 0.89 80 13:38 24.01.2022
5749 Clouds 12 1029 81 9000 0.89 114 12:32 24.01.2022
5750 Drizzle 11 1029 86 7000 0.89 47 11:21 24.01.2022
5751 Drizzle 10 1028 81 8000 1.79 20 09:50 24.01.2022
5752 Drizzle 10 1028 82 10000 0.45 23 09:25 24.01.2022
5753 Clouds 8 1025 77 10000 0.89 62 07:28 24.01.2022
5754 Clouds 6 1027 80 10000 1.79 343 01:38 24.01.2022
5755 Clear 7 1027 76 10000 1.79 347 00:47 24.01.2022
5756 Clear 7 1027 75 10000 0.45 292 00:29 24.01.2022
5757 Clouds 8 1027 75 10000 1.34 331 22:46 23.01.2022
5758 Clouds 8 1027 74 10000 1.34 347 21:52 23.01.2022
5759 Clouds 8 1026 73 10000 0.89 360 21:27 23.01.2022
5760 Clouds 9 1026 70 10000 0.89 355 20:55 23.01.2022
5761 Clouds 9 1026 69 10000 0.45 90 20:21 23.01.2022
5762 Clouds 11 1026 66 10000 0.89 68 18:53 23.01.2022
5763 Clouds 11 1026 67 10000 0.45 68 18:22 23.01.2022
5764 Clouds 12 1027 61 10000 0.89 98 16:55 23.01.2022
5765 Clouds 13 1027 56 10000 0.89 208 15:46 23.01.2022
5766 Clouds 13 1027 56 10000 0.89 187 14:50 23.01.2022
5767 Clouds 13 1027 53 10000 0.45 133 14:18 23.01.2022
5768 Clouds 13 1030 59 10000 3.58 116 12:44 23.01.2022
5769 Clouds 13 1030 63 10000 0.89 97 12:19 23.01.2022
5770 Clouds 12 1029 63 10000 0.89 92 11:26 23.01.2022
5771 Clouds 11 1029 68 10000 0.89 51 10:57 23.01.2022
5772 Clouds 9 1029 79 10000 0.89 104 10:25 23.01.2022
5773 Clouds 5 1029 85 10000 1.79 344 09:31 23.01.2022
5774 Clouds 5 1029 85 10000 1.79 344 09:31 23.01.2022
5775 Clouds 3 1028 80 10000 0.51 320 08:33 23.01.2022
5776 Clouds 6 1029 80 10000 1.79 5 03:49 23.01.2022
5777 Clouds 7 1029 75 10000 1.34 348 01:37 23.01.2022
5778 Clouds 8 1030 72 10000 0.45 332 00:47 23.01.2022
5779 Clouds 9 1030 70 10000 0.45 292 23:59 22.01.2022
5780 Clouds 9 1030 70 10000 0.89 344 22:53 22.01.2022
5781 Clouds 9 1030 68 10000 0.89 327 22:19 22.01.2022
5782 Clouds 10 1029 64 10000 0.89 9 20:46 22.01.2022
5783 Clouds 11 1028 45 10000 0.45 52 19:46 22.01.2022
5784 Clouds 11 1028 42 10000 2.57 230 18:38 22.01.2022
5785 Clouds 12 1029 62 10000 3.6 230 17:49 22.01.2022
5786 Clouds 12 1029 57 10000 0.89 255 17:29 22.01.2022
5787 Clouds 12 1030 61 10000 3.13 180 16:54 22.01.2022
5788 Clouds 13 1030 61 10000 1.34 234 15:45 22.01.2022
5789 Clouds 13 1029 52 10000 0.89 246 14:56 22.01.2022
5790 Clouds 13 1030 52 10000 1.79 242 13:31 22.01.2022
5791 Clouds 13 1031 53 10000 0.89 159 12:40 22.01.2022
5792 Clouds 13 1031 54 10000 0.89 172 12:22 22.01.2022
5793 Clouds 11 1031 67 10000 0.89 62 10:55 22.01.2022
5794 Clouds 9 1030 73 10000 0.89 59 10:27 22.01.2022
5795 Clouds 6 1030 81 10000 0.89 72 09:43 22.01.2022
5796 Clouds 4 1029 82 10000 0.51 50 08:51 22.01.2022
5797 Clouds 3 1029 89 10000 1.03 0 07:28 22.01.2022
5798 Clouds 5 1030 85 10000 0.45 346 04:50 22.01.2022
5799 Clouds 8 1029 68 10000 0.45 68 00:57 22.01.2022
5800 Clouds 8 1028 70 10000 0.45 292 23:21 21.01.2022
5801 Clouds 8 1028 70 10000 0.45 36 22:19 21.01.2022
5802 Clouds 8 1028 70 10000 0.45 68 22:19 21.01.2022
5803 Clouds 9 1027 66 10000 0.89 83 19:55 21.01.2022
5804 Clouds 10 1026 67 10000 0.89 112 18:23 21.01.2022
5805 Clouds 10 1025 67 10000 1.79 86 17:18 21.01.2022
5806 Clouds 11 1024 70 10000 2.24 138 15:27 21.01.2022
5807 Clear 11 1025 72 10000 1.79 70 13:18 21.01.2022
5808 Clouds 12 1026 75 10000 5.81 43 12:28 21.01.2022
5809 Clouds 12 1025 74 10000 0.45 208 11:27 21.01.2022
5810 Fog 6 1024 90 10000 0.51 90 09:46 21.01.2022
5811 Fog 2 1023 92 10000 0 0 08:22 21.01.2022
5812 Clouds 4 1025 86 10000 1.34 360 04:37 21.01.2022
5813 Clouds 7 1025 82 10000 0.89 333 23:27 20.01.2022
5814 Clouds 8 1025 79 10000 1.79 355 21:50 20.01.2022
5815 Clouds 8 1025 78 10000 0.89 248 21:32 20.01.2022
5816 Clouds 9 1025 75 10000 0.45 68 20:31 20.01.2022
5817 Clouds 10 1025 71 10000 0.45 60 19:19 20.01.2022
5818 Clouds 11 1025 67 10000 0.45 4 18:18 20.01.2022
5819 Clouds 14 1025 57 10000 1.34 40 16:53 20.01.2022
5820 Clouds 14 1026 60 10000 0.45 156 15:40 20.01.2022
5821 Clouds 14 1027 53 10000 1.79 219 14:40 20.01.2022
5822 Clouds 14 1028 54 10000 1.79 215 13:33 20.01.2022
5823 Clouds 14 1029 53 10000 0 0 12:32 20.01.2022
5824 Clouds 13 1029 57 10000 0.45 319 11:50 20.01.2022
5825 Clouds 10 1028 73 10000 0.89 44 10:38 20.01.2022
5826 Clouds 8 1028 78 10000 0.45 14 09:36 20.01.2022
5827 Clouds 8 1026 77 10000 0.89 69 07:50 20.01.2022
5828 Clouds 7 1029 82 10000 0.89 344 00:46 20.01.2022
5829 Clouds 8 1030 82 10000 0.45 46 22:59 19.01.2022
5830 Clear 7 1029 78 10000 1.34 5 22:21 19.01.2022
5831 Clouds 8 1029 77 10000 0.89 333 21:23 19.01.2022
5832 Clear 9 1029 74 10000 0.45 90 20:46 19.01.2022
5833 Clouds 10 1029 73 10000 0.45 9 19:42 19.01.2022
5834 Clouds 11 1029 66 10000 0.45 68 18:29 19.01.2022
5835 Clouds 13 1028 55 10000 0.45 261 17:45 19.01.2022
5836 Clouds 13 1030 66 10000 1.79 184 16:47 19.01.2022
5837 Clouds 14 1030 58 10000 1.79 225 14:42 19.01.2022
5838 Clouds 13 1032 63 10000 1.34 212 12:43 19.01.2022
5839 Clouds 13 1032 73 10000 0.45 112 11:41 19.01.2022
5840 Fog 8 1032 89 10000 0.45 68 10:23 19.01.2022
5841 Fog 2 1031 92 9000 0.51 80 09:34 19.01.2022
5842 Clouds 0 1031 92 9000 1.03 10 06:56 19.01.2022
5843 Clouds 4 1032 87 10000 0.45 45 02:41 19.01.2022
5844 Clear 6 1032 85 10000 1.34 344 23:20 18.01.2022
5845 Clear 6 1032 84 10000 0.89 5 22:34 18.01.2022
5846 Clear 7 1031 81 10000 0.45 16 21:01 18.01.2022
5847 Clear 9 1031 78 10000 0.45 89 19:55 18.01.2022
5848 Clear 9 1031 75 10000 0.45 128 19:36 18.01.2022
5849 Clear 10 1031 71 10000 2.06 150 18:54 18.01.2022
5850 Clouds 12 1030 63 10000 0.89 207 17:58 18.01.2022
5851 Clouds 14 1030 61 10000 1.34 239 16:58 18.01.2022
5852 Clouds 15 1030 62 10000 1.79 242 15:48 18.01.2022
5853 Clouds 15 1030 62 10000 1.79 242 15:47 18.01.2022
5854 Clouds 14 1031 67 10000 3.58 149 15:22 18.01.2022
5855 Clear 14 1031 61 10000 1.34 195 12:49 18.01.2022
5856 Clear 9 1030 69 10000 0.45 158 10:47 18.01.2022
5857 Clear 2 1031 81 10000 1.03 30 09:21 18.01.2022
5858 Clouds 0 1030 81 10000 0.51 0 07:56 18.01.2022
5859 Clouds 1 1031 81 10000 0.51 50 02:35 18.01.2022
5860 Clouds 4 1032 76 10000 0.45 329 23:47 17.01.2022
5861 Clouds 6 1032 71 10000 0.45 302 22:29 17.01.2022
5862 Clouds 6 1032 70 10000 0.45 265 21:35 17.01.2022
5863 Clear 9 1031 63 10000 0.45 68 20:27 17.01.2022
5864 Clouds 11 1031 57 10000 0.45 68 18:31 17.01.2022
5865 Clouds 12 1031 51 10000 0.89 39 17:51 17.01.2022
5866 Clouds 14 1032 47 10000 1.34 222 16:45 17.01.2022
5867 Clouds 15 1032 40 10000 3.6 250 15:23 17.01.2022
5868 Clouds 15 1032 40 10000 0.89 143 14:57 17.01.2022
5869 Clouds 15 1032 32 10000 1.34 213 13:27 17.01.2022
5870 Clouds 15 1032 37 10000 0.89 211 12:57 17.01.2022
5871 Clouds 14 1033 51 10000 0.45 195 11:49 17.01.2022
5872 Clouds 9 1032 77 10000 0.45 346 10:38 17.01.2022
5873 Clouds 2 1032 92 10000 1.03 30 09:35 17.01.2022
5874 Clouds 0 1031 95 10000 0.51 0 07:47 17.01.2022
5875 Clouds 2 1031 85 10000 1.03 0 07:19 17.01.2022
5876 Clear 5 1032 75 10000 0.45 281 00:57 17.01.2022
5877 Clear 7 1031 74 10000 0.45 267 22:31 16.01.2022
5878 Clouds 8 1031 71 10000 0.51 0 20:40 16.01.2022
5879 Clouds 11 1030 65 10000 0.45 45 18:53 16.01.2022
5880 Clouds 11 1029 63 10000 0.89 38 18:18 16.01.2022
5881 Clouds 13 1029 58 10000 1.34 56 17:25 16.01.2022
5882 Clouds 14 1030 65 10000 1.34 327 16:48 16.01.2022
5883 Clouds 14 1029 57 10000 0.89 211 15:19 16.01.2022
5884 Clouds 14 1029 55 10000 0.89 200 14:28 16.01.2022
5885 Clouds 14 1030 64 10000 2.24 153 12:51 16.01.2022
5886 Clouds 14 1030 64 10000 1.34 211 11:48 16.01.2022
5887 Clouds 11 1030 78 10000 0.89 206 10:58 16.01.2022
5888 Clouds 9 1030 87 10000 1.03 0 10:26 16.01.2022
5889 Clouds 8 1028 89 10000 1.03 0 09:54 16.01.2022
5890 Clouds 2 1029 93 10000 1.03 90 09:22 16.01.2022
5891 Clouds 2 1029 89 10000 0.51 0 08:39 16.01.2022
5892 Clouds 2 1028 87 10000 2.06 60 03:58 16.01.2022
5893 Clear 6 1027 80 10000 0.89 314 23:50 15.01.2022
5894 Clear 6 1027 80 10000 0.89 312 23:50 15.01.2022
5895 Clear 7 1026 78 10000 0.45 304 22:35 15.01.2022
5896 Clear 8 1027 76 10000 0.45 337 21:20 15.01.2022
5897 Clear 9 1027 74 10000 0.45 337 20:40 15.01.2022
5898 Clouds 10 1027 72 10000 0.45 312 19:30 15.01.2022
5899 Clouds 11 1026 68 10000 0.45 286 18:47 15.01.2022
5900 Clouds 13 1025 57 10000 0.89 240 17:30 15.01.2022
5901 Clouds 14 1027 64 10000 0.45 360 16:37 15.01.2022
5902 Clouds 14 1028 62 10000 2.68 147 13:57 15.01.2022
5903 Clouds 13 1029 64 10000 0.89 191 12:20 15.01.2022
5904 Clouds 10 1029 79 10000 0 0 10:43 15.01.2022
5905 Clear 1 1028 86 10000 0.51 20 08:32 15.01.2022
5906 Clouds 5 1030 79 10000 0.89 340 00:35 15.01.2022
5907 Clouds 7 1031 73 10000 1.34 355 21:52 14.01.2022
5908 Clouds 9 1031 69 10000 0.89 337 20:41 14.01.2022
5909 Clouds 9 1031 66 10000 0.45 23 20:21 14.01.2022
5910 Clouds 11 1031 59 10000 0.89 68 18:49 14.01.2022
5911 Clouds 11 1031 58 10000 0.45 23 18:27 14.01.2022
5912 Clouds 14 1032 57 10000 0.45 277 16:50 14.01.2022
5913 Clouds 14 1032 59 10000 1.34 229 15:48 14.01.2022
5914 Clouds 14 1032 52 10000 1.03 0 14:42 14.01.2022
5915 Clouds 14 1033 53 10000 1.03 70 13:37 14.01.2022
5916 Clouds 14 1034 53 10000 1.54 50 12:29 14.01.2022
5917 Clouds 12 1033 59 10000 0.89 64 10:57 14.01.2022
5918 Clouds 8 1033 73 10000 0.45 22 09:44 14.01.2022
5919 Clouds 8 1032 72 10000 0.89 112 08:44 14.01.2022
5920 Clouds 6 1031 75 10000 2.06 360 06:45 14.01.2022
5921 Clouds 10 1033 66 10000 0.89 68 01:33 14.01.2022
5922 Clouds 10 1033 68 10000 0.45 30 23:19 13.01.2022
5923 Clouds 9 1033 68 10000 0.51 0 21:38 13.01.2022
5924 Clouds 9 1033 68 10000 0.51 0 21:19 13.01.2022
5925 Clouds 10 1033 61 10000 0.45 292 19:40 13.01.2022
5926 Clouds 10 1033 63 10000 0.89 44 19:22 13.01.2022
5927 Clouds 10 1033 63 10000 0.89 44 19:22 13.01.2022
5928 Clouds 11 1032 54 10000 0.45 307 17:52 13.01.2022
5929 Clouds 14 1031 46 10000 1.79 20 16:21 13.01.2022
5930 Clouds 14 1032 45 10000 1.79 38 15:37 13.01.2022
5931 Clouds 14 1033 44 10000 3.58 51 14:46 13.01.2022
5932 Clouds 14 1033 52 10000 0.89 277 12:44 13.01.2022
5933 Clouds 9 1033 77 10000 0.45 120 10:25 13.01.2022
5934 Clouds 4 1034 89 10000 1.34 5 09:20 13.01.2022
5935 Clouds 4 1034 89 10000 1.34 5 09:20 13.01.2022
5936 Clouds 2 1032 86 10000 0.51 0 08:27 13.01.2022
5937 Clouds 3 1032 82 10000 0 0 07:23 13.01.2022
5938 Clear 2 1032 86 10000 2.06 40 05:59 13.01.2022
5939 Clear 2 1032 86 10000 2.06 40 05:59 13.01.2022
5940 Clear 3 1033 87 10000 0.89 339 05:19 13.01.2022
5941 Clear 5 1032 79 10000 0 0 01:58 13.01.2022
5942 Clear 6 1032 77 10000 0.45 298 00:54 13.01.2022
5943 Clear 6 1032 79 10000 0.45 5 23:49 12.01.2022
5944 Clear 6 1032 79 10000 0.45 5 23:49 12.01.2022
5945 Clouds 6 1032 74 10000 2.06 60 23:19 12.01.2022
5946 Clouds 7 1031 77 10000 1.79 348 21:57 12.01.2022
5947 Clouds 7 1031 75 10000 0.89 331 21:22 12.01.2022
5948 Clouds 7 1031 75 10000 0.89 331 21:22 12.01.2022
5949 Clouds 8 1031 74 10000 0.45 305 20:56 12.01.2022
5950 Clouds 9 1031 72 10000 0.45 313 19:44 12.01.2022
5951 Clouds 10 1030 68 10000 2.24 39 18:42 12.01.2022
5952 Clouds 12 1029 60 10000 2.24 59 17:22 12.01.2022
5953 Clouds 12 1029 59 10000 1.34 41 16:33 12.01.2022
5954 Clouds 13 1029 56 10000 3.58 58 14:48 12.01.2022
5955 Clouds 14 1029 61 10000 6.17 70 13:24 12.01.2022
5956 Clouds 13 1030 70 10000 2.24 39 11:59 12.01.2022
5957 Clouds 6 1028 89 10000 0.51 260 08:43 12.01.2022
5958 Clouds 6 1027 89 10000 2.57 320 07:50 12.01.2022
5959 Clouds 5 1027 92 10000 1.03 60 07:31 12.01.2022
5960 Clouds 6 1027 87 10000 1.34 346 23:53 11.01.2022
5961 Clear 6 1027 86 10000 1.79 355 22:57 11.01.2022
5962 Clouds 7 1026 84 10000 0.89 355 22:23 11.01.2022
5963 Clouds 7 1026 83 10000 0.89 346 21:25 11.01.2022
5964 Clouds 8 1026 77 10000 1.34 355 20:21 11.01.2022
5965 Clouds 10 1025 70 10000 0.45 55 18:43 11.01.2022
5966 Clouds 12 1024 60 10000 0.45 57 17:42 11.01.2022
5967 Clouds 14 1024 53 10000 0.45 38 16:38 11.01.2022
5968 Clouds 14 1024 50 10000 5.14 70 15:56 11.01.2022
5969 Clouds 15 1024 46 10000 4.63 80 14:43 11.01.2022
5970 Clouds 15 1024 46 10000 4.63 80 14:43 11.01.2022
5971 Clouds 15 1024 42 10000 0.45 193 13:58 11.01.2022
5972 Clouds 15 1024 43 10000 1.79 214 13:39 11.01.2022
5973 Clouds 15 1024 41 10000 0.45 108 13:21 11.01.2022
5974 Clouds 14 1025 43 10000 1.34 336 12:22 11.01.2022
5975 Clouds 11 1024 62 10000 0.89 294 10:24 11.01.2022
5976 Clouds 7 1022 79 10000 1.03 210 07:35 11.01.2022
5977 Clouds 11 1021 65 10000 3.13 23 01:47 11.01.2022
5978 Clouds 11 1021 68 10000 1.34 24 00:22 11.01.2022
5979 Clouds 11 1020 67 10000 1.34 15 23:37 10.01.2022
5980 Clouds 11 1020 67 10000 2.24 323 22:19 10.01.2022
5981 Clouds 11 1020 67 10000 3.13 338 21:55 10.01.2022
5982 Clouds 11 1020 66 10000 1.34 336 21:32 10.01.2022
5983 Clouds 11 1019 68 10000 2.24 32 20:58 10.01.2022
5984 Clouds 11 1019 74 10000 2.68 19 20:29 10.01.2022
5985 Clouds 11 1018 82 10000 0.89 290 19:47 10.01.2022
5986 Clouds 10 1018 86 9000 0.45 263 19:22 10.01.2022
5987 Clouds 10 1018 86 9000 0.89 270 18:54 10.01.2022
5988 Clouds 10 1017 87 9000 0.89 355 18:34 10.01.2022
5989 Clouds 11 1017 85 9000 1.79 30 16:43 10.01.2022
5990 Clouds 11 1016 86 9000 2.24 61 15:55 10.01.2022
5991 Clouds 11 1016 90 10000 2.68 94 14:41 10.01.2022
5992 Clouds 12 1015 87 10000 1.79 97 12:43 10.01.2022
5993 Clouds 12 1015 86 10000 2.24 45 11:40 10.01.2022
5994 Clouds 12 1013 87 10000 1.79 34 10:45 10.01.2022
5995 Clouds 13 1010 84 10000 4.12 60 08:59 10.01.2022
5996 Clouds 13 1009 88 10000 2.06 260 05:51 10.01.2022
5997 Clouds 14 1012 80 10000 2.06 80 01:35 10.01.2022
5998 Clouds 14 1013 79 10000 1.03 0 00:44 10.01.2022
5999 Clouds 13 1013 82 10000 0.89 236 00:19 10.01.2022
6000 Clouds 15 1014 70 10000 0.89 256 22:43 09.01.2022
6001 Clouds 14 1014 73 10000 1.79 196 21:57 09.01.2022
6002 Clouds 14 1014 73 10000 2.24 205 21:37 09.01.2022
6003 Clouds 14 1014 74 10000 2.68 223 21:18 09.01.2022
6004 Clouds 14 1015 74 10000 3.13 215 20:45 09.01.2022
6005 Clouds 14 1015 77 10000 3.13 196 20:26 09.01.2022
6006 Clouds 15 1015 73 10000 3.13 192 19:38 09.01.2022
6007 Clouds 15 1015 71 10000 1.79 190 19:20 09.01.2022
6008 Clouds 15 1014 59 10000 1.79 212 18:37 09.01.2022
6009 Clouds 15 1015 62 10000 1.34 229 17:48 09.01.2022
6010 Clouds 15 1015 62 10000 2.06 230 17:29 09.01.2022
6011 Clouds 16 1015 55 10000 1.79 290 16:43 09.01.2022
6012 Clouds 17 1015 53 10000 6.26 315 15:46 09.01.2022
6013 Clouds 16 1015 53 10000 6.71 268 15:25 09.01.2022
6014 Clouds 15 1016 60 10000 2.68 290 14:39 09.01.2022
6015 Clouds 15 1016 63 10000 5.36 295 13:48 09.01.2022
6016 Clouds 15 1018 58 10000 3.13 360 11:58 09.01.2022
6017 Clouds 15 1017 58 10000 6.26 291 11:28 09.01.2022
6018 Clouds 15 1017 64 10000 3.13 270 09:55 09.01.2022
6019 Clouds 15 1017 64 10000 3.13 301 09:24 09.01.2022
6020 Clouds 15 1015 57 10000 2.57 230 07:54 09.01.2022
6021 Clouds 12 1018 75 10000 3.13 241 01:30 09.01.2022
6022 Clouds 12 1019 73 10000 2.24 229 00:50 09.01.2022
6023 Clouds 9 1019 76 10000 3.09 270 23:36 08.01.2022
6024 Clouds 10 1020 73 10000 1.79 246 22:56 08.01.2022
6025 Clouds 11 1020 70 10000 3.09 240 21:32 08.01.2022
6026 Clouds 12 1022 65 10000 1.34 243 20:44 08.01.2022
6027 Clouds 12 1022 64 10000 1.34 243 20:23 08.01.2022
6028 Clouds 12 1022 65 10000 1.34 232 19:22 08.01.2022
6029 Clouds 13 1022 63 10000 3.13 289 17:43 08.01.2022
6030 Clouds 14 1023 59 10000 3.58 274 16:57 08.01.2022
6031 Clouds 14 1023 59 10000 3.58 265 15:35 08.01.2022
6032 Clouds 14 1024 59 10000 6.26 293 14:33 08.01.2022
6033 Clouds 14 1025 62 10000 5.81 271 12:36 08.01.2022
6034 Clouds 13 1026 69 10000 6.26 286 10:46 08.01.2022
6035 Clouds 12 1025 69 10000 4.92 265 10:24 08.01.2022
6036 Clouds 11 1025 74 10000 3.13 301 09:34 08.01.2022
6037 Clouds 11 1024 69 10000 2.06 290 07:18 08.01.2022
6038 Clouds 8 1025 82 10000 0.45 247 01:52 08.01.2022
6039 Clouds 5 1026 87 10000 0.89 348 00:25 08.01.2022
6040 Clouds 7 1026 81 10000 0.51 0 22:39 07.01.2022
6041 Clouds 8 1026 75 10000 4.02 266 20:56 07.01.2022
6042 Clouds 9 1025 74 10000 1.03 260 19:39 07.01.2022
6043 Clouds 10 1025 68 10000 1.79 292 18:53 07.01.2022
6044 Clouds 10 1025 69 10000 2.68 350 18:30 07.01.2022
6045 Clouds 11 1024 63 10000 1.79 350 17:25 07.01.2022
6046 Clouds 12 1024 58 10000 2.68 329 16:23 07.01.2022
6047 Clouds 13 1023 59 10000 3.58 302 13:53 07.01.2022
6048 Clouds 13 1024 57 10000 4.92 292 13:19 07.01.2022
6049 Clouds 12 1024 60 10000 4.02 317 12:35 07.01.2022
6050 Clouds 4 1024 91 10000 0.45 348 09:21 07.01.2022
6051 Clear 5 1022 86 10000 1.34 355 02:54 07.01.2022
6052 Clear 5 1022 84 10000 1.34 344 01:52 07.01.2022
6053 Clear 5 1022 84 10000 0.89 344 01:27 07.01.2022
6054 Clear 6 1021 82 10000 1.54 60 00:57 07.01.2022
6055 Clear 8 1021 72 10000 2.06 330 22:46 06.01.2022
6056 Clear 8 1020 78 10000 1.34 322 21:23 06.01.2022
6057 Clouds 9 1020 74 10000 0.51 70 20:20 06.01.2022
6058 Clouds 9 1019 73 10000 3.09 340 19:41 06.01.2022
6059 Clouds 11 1018 70 10000 2.24 310 17:54 06.01.2022
6060 Clouds 11 1018 70 10000 2.24 310 17:34 06.01.2022
6061 Clouds 12 1018 70 10000 1.79 277 16:42 06.01.2022
6062 Clouds 12 1017 69 10000 3.13 344 15:46 06.01.2022
6063 Clouds 12 1017 72 10000 3.58 310 15:25 06.01.2022
6064 Clouds 12 1017 71 10000 2.24 257 14:43 06.01.2022
6065 Clouds 12 1017 68 10000 2.68 273 14:18 06.01.2022
6066 Clouds 13 1017 60 10000 0.45 192 12:43 06.01.2022
6067 Clouds 12 1018 69 10000 0.51 330 11:43 06.01.2022
6068 Clouds 12 1018 74 10000 1.03 0 11:22 06.01.2022
6069 Clouds 5 1013 87 9000 1.54 30 08:51 06.01.2022
6070 Clouds 8 1012 76 10000 0.89 337 00:53 06.01.2022
6071 Clouds 10 1012 70 10000 0.45 261 23:38 05.01.2022
6072 Clouds 10 1012 70 10000 0.89 257 22:57 05.01.2022
6073 Clouds 10 1012 69 10000 0.89 341 22:32 05.01.2022
6074 Clouds 11 1012 67 10000 0.45 342 21:48 05.01.2022
6075 Clouds 11 1012 67 10000 0.89 8 21:20 05.01.2022
6076 Clouds 11 1012 75 10000 0.45 226 20:18 05.01.2022
6077 Clouds 11 1011 77 10000 1.34 241 18:44 05.01.2022
6078 Clouds 11 1010 82 10000 0.89 216 17:44 05.01.2022
6079 Clouds 11 1011 85 10000 0.89 250 16:51 05.01.2022
6080 Clouds 11 1010 86 8000 0.45 177 15:26 05.01.2022
6081 Rain 11 1011 82 10000 0.45 267 13:52 05.01.2022
6082 Rain 11 1011 85 9000 2.06 50 13:25 05.01.2022
6083 Rain 11 1011 86 9000 0.89 351 11:36 05.01.2022
6084 Rain 12 1005 79 10000 0.89 4 07:47 05.01.2022
6085 Clouds 12 1004 72 10000 0.89 4 06:25 05.01.2022
6086 Clouds 14 1005 86 10000 0.89 225 00:59 05.01.2022
6087 Clouds 14 1007 82 10000 0.89 169 23:28 04.01.2022
6088 Clouds 14 1007 82 10000 0.45 197 22:58 04.01.2022
6089 Clouds 14 1007 81 10000 1.34 247 21:31 04.01.2022
6090 Clouds 15 1008 87 9000 0.89 271 19:22 04.01.2022
6091 Clouds 16 1008 86 10000 1.34 223 17:54 04.01.2022
6092 Clouds 17 1009 82 10000 1.34 226 16:53 04.01.2022
6093 Clouds 17 1009 81 10000 1.34 245 16:30 04.01.2022
6094 Clouds 18 1010 79 10000 1.34 208 14:54 04.01.2022
6095 Clouds 18 1010 79 9000 1.79 194 14:36 04.01.2022
6096 Clouds 18 1011 78 9000 1.34 225 13:40 04.01.2022
6097 Clouds 16 1013 86 9000 1.34 198 10:52 04.01.2022
6098 Clouds 14 1016 95 9000 3.09 240 09:58 04.01.2022
6099 Clouds 12 1014 86 9000 0.89 96 08:35 04.01.2022
6100 Clouds 12 1018 88 10000 0.45 203 03:39 04.01.2022
6101 Clouds 12 1020 86 10000 0.45 292 00:42 04.01.2022
6102 Clouds 12 1020 87 10000 0.89 282 23:41 03.01.2022
6103 Clouds 12 1020 85 10000 0.89 248 22:21 03.01.2022
6104 Clouds 12 1021 84 10000 0.45 263 21:35 03.01.2022
6105 Clouds 12 1021 85 10000 0.45 253 20:28 03.01.2022
6106 Clouds 12 1021 83 10000 0.89 314 18:54 03.01.2022
6107 Clouds 13 1021 81 10000 0.45 337 18:29 03.01.2022
6108 Clouds 14 1021 76 10000 0.89 279 17:18 03.01.2022
6109 Clouds 15 1022 73 10000 1.34 222 16:28 03.01.2022
6110 Clouds 15 1024 73 10000 1.79 234 14:31 03.01.2022
6111 Clouds 15 1024 73 10000 1.79 252 12:51 03.01.2022
6112 Clouds 14 1024 70 10000 1.34 270 11:50 03.01.2022
6113 Clouds 13 1025 82 10000 0.89 286 10:37 03.01.2022
6114 Clouds 11 1024 87 10000 1.03 0 08:54 03.01.2022
6115 Clouds 11 1025 88 10000 0.45 203 07:52 03.01.2022
6116 Clouds 11 1028 90 8000 0.45 68 02:28 03.01.2022
6117 Clouds 11 1028 90 8000 0.45 21 23:22 02.01.2022
6118 Clouds 11 1028 89 9000 0.45 40 22:56 02.01.2022
6119 Clouds 11 1029 89 10000 0.45 307 21:52 02.01.2022
6120 Clouds 11 1029 92 10000 1.54 240 20:50 02.01.2022
6121 Clouds 12 1029 90 10000 0.45 336 20:29 02.01.2022
6122 Clouds 12 1029 89 10000 0.45 222 19:31 02.01.2022
6123 Clouds 12 1029 90 10000 1.34 209 18:56 02.01.2022
6124 Clouds 13 1027 83 10000 0.45 231 17:57 02.01.2022
6125 Clouds 13 1027 81 10000 0.89 222 17:39 02.01.2022
6126 Clouds 13 1027 81 10000 0.89 236 17:20 02.01.2022
6127 Clouds 15 1026 73 10000 1.34 226 16:28 02.01.2022
6128 Clouds 15 1026 76 10000 1.79 227 14:41 02.01.2022
6129 Clouds 13 1029 88 10000 3.6 220 13:25 02.01.2022
6130 Clouds 13 1030 88 10000 3.09 230 12:32 02.01.2022
6131 Clouds 13 1030 88 10000 3.6 220 11:49 02.01.2022
6132 Clouds 12 1029 94 9000 3.09 250 10:53 02.01.2022
6133 Clouds 11 1029 93 8000 3.09 240 09:57 02.01.2022
6134 Clouds 11 1026 87 10000 1.54 340 07:34 02.01.2022
6135 Clouds 12 1027 89 10000 2.57 240 02:56 02.01.2022
6136 Clouds 12 1028 90 10000 0.45 288 23:42 01.01.2022
6137 Clouds 12 1028 89 10000 2.57 220 23:24 01.01.2022
6138 Clouds 12 1028 90 10000 0.89 257 22:25 01.01.2022
6139 Clouds 12 1027 90 10000 0.45 258 21:46 01.01.2022
6140 Clouds 12 1029 93 10000 3.6 240 21:28 01.01.2022
6141 Clouds 12 1029 93 10000 3.6 240 20:25 01.01.2022
6142 Clouds 13 1029 92 10000 2.24 225 19:34 01.01.2022
6143 Clouds 12 1026 88 10000 0.45 283 18:51 01.01.2022
6144 Clouds 13 1027 83 10000 0.45 250 17:38 01.01.2022
6145 Clouds 15 1027 80 10000 0.89 203 16:34 01.01.2022
6146 Clouds 16 1025 77 10000 0.89 213 15:37 01.01.2022
6147 Clouds 15 1026 72 10000 1.34 217 14:25 01.01.2022
6148 Clouds 15 1026 74 10000 1.79 215 13:41 01.01.2022
6149 Clouds 16 1026 70 8000 0.89 206 12:25 01.01.2022
6150 Clouds 14 1026 83 7000 0.45 68 11:25 01.01.2022
6151 Clouds 12 1029 94 7000 0.51 0 10:56 01.01.2022
6152 Clouds 11 1029 93 7000 2.57 320 09:48 01.01.2022
6153 Clouds 10 1026 88 9000 0.45 349 08:35 01.01.2022
6154 Clouds 10 1026 93 10000 0.45 49 07:57 01.01.2022
6155 Clouds 11 1025 91 10000 0.45 36 07:37 01.01.2022
6156 Clouds 11 1025 88 10000 0.45 46 06:44 01.01.2022
6157 Clouds 11 1027 93 6000 0.45 347 04:40 01.01.2022
6158 Mist 11 1027 93 4000 0.45 347 03:52 01.01.2022
6159 Fog 12 1028 93 300 0.45 5 23:55 31.12.2021
6160 Fog 12 1028 93 600 1.03 0 22:25 31.12.2021
6161 Fog 12 1028 93 600 0.51 0 21:47 31.12.2021
6162 Mist 13 1027 91 4500 0.51 0 19:48 31.12.2021
6163 Mist 13 1027 90 4500 0.45 157 19:28 31.12.2021
6164 Mist 14 1025 87 4500 1.03 0 17:56 31.12.2021
6165 Mist 14 1025 87 4500 1.03 0 17:28 31.12.2021
6166 Mist 14 1025 87 4500 0.45 164 16:52 31.12.2021
6167 Mist 14 1025 85 4500 0.45 181 16:18 31.12.2021
6168 Mist 14 1025 85 4500 0.89 200 15:50 31.12.2021
6169 Mist 14 1027 94 4500 2.57 210 15:27 31.12.2021
6170 Mist 15 1025 83 2000 0.45 211 14:41 31.12.2021
6171 Fog 16 1025 80 900 2.57 220 13:56 31.12.2021
6172 Fog 13 1027 100 900 2.57 220 12:54 31.12.2021
6173 Fog 12 1027 100 500 1.03 0 12:33 31.12.2021
6174 Fog 13 1027 92 500 1.03 200 11:42 31.12.2021
6175 Fog 12 1027 95 1500 0 0 10:58 31.12.2021
6176 Fog 12 1027 87 3000 1.03 360 10:29 31.12.2021
6177 Fog 8 1026 93 500 0.51 0 09:35 31.12.2021
6178 Fog 5 1026 100 5000 1.03 0 08:54 31.12.2021
6179 Fog 7 1026 88 5000 1.54 90 08:23 31.12.2021
6180 Fog 7 1025 100 1000 0.51 30 06:24 31.12.2021
6181 Clouds 11 1025 89 6000 0 0 23:23 30.12.2021
6182 Clear 12 1025 89 10000 0.89 320 22:32 30.12.2021
6183 Clear 13 1024 86 10000 1.79 13 21:41 30.12.2021
6184 Clear 13 1024 86 10000 0.89 333 21:22 30.12.2021
6185 Clear 13 1022 83 10000 0.45 303 20:44 30.12.2021
6186 Clear 13 1022 82 10000 0.45 22 20:24 30.12.2021
6187 Clear 15 1021 79 10000 0.45 327 19:43 30.12.2021
6188 Clear 16 1021 77 10000 1.54 240 18:29 30.12.2021
6189 Clear 16 1018 72 10000 0.45 263 17:45 30.12.2021
6190 Clear 19 1023 72 10000 0.89 144 15:58 30.12.2021
6191 Clear 20 1023 65 10000 0.89 138 15:39 30.12.2021
6192 Clear 20 1023 68 10000 0.89 123 14:37 30.12.2021
6193 Clear 19 1020 69 10000 0.89 195 13:33 30.12.2021
6194 Clear 17 1019 70 10000 0.45 199 12:29 30.12.2021
6195 Fog 13 1023 92 900 0 0 10:50 30.12.2021
6196 Fog 10 1023 89 400 0 0 09:56 30.12.2021
6197 Fog 9 1023 85 150 0 0 08:56 30.12.2021
6198 Fog 8 1022 91 300 0.51 180 06:52 30.12.2021
6199 Fog 8 1022 85 150 1.03 30 03:42 30.12.2021
6200 Mist 8 1022 89 2000 0.51 40 02:47 30.12.2021
6201 Clear 10 1023 89 10000 1.54 80 23:43 29.12.2021
6202 Clear 11 1021 80 10000 0.45 33 23:22 29.12.2021
6203 Clear 12 1021 77 10000 0.45 45 22:21 29.12.2021
6204 Clear 13 1021 78 10000 0.89 52 21:33 29.12.2021
6205 Clear 13 1020 74 10000 0.45 337 20:38 29.12.2021
6206 Clear 14 1020 72 10000 0.45 243 19:48 29.12.2021
6207 Clear 15 1020 67 10000 0.89 301 18:54 29.12.2021
6208 Clear 17 1019 59 10000 0.45 112 17:56 29.12.2021
6209 Clear 17 1020 57 10000 0.45 68 17:28 29.12.2021
6210 Clear 18 1020 72 10000 4.63 210 16:41 29.12.2021
6211 Clear 19 1021 61 10000 1.34 244 16:19 29.12.2021
6212 Clear 20 1021 60 10000 2.24 236 14:24 29.12.2021
6213 Clear 20 1022 60 10000 2.68 205 12:42 29.12.2021
6214 Clear 19 1023 51 10000 2.68 252 11:49 29.12.2021
6215 Clear 17 1020 58 10000 0.89 335 09:59 29.12.2021
6216 Clear 14 1017 67 10000 0.45 292 07:52 29.12.2021
6217 Clear 14 1019 77 10000 1.54 70 06:43 29.12.2021
6218 Clear 14 1019 77 10000 1.54 70 06:23 29.12.2021
6219 Clear 12 1019 94 10000 2.06 150 05:40 29.12.2021
6220 Clear 15 1016 58 10000 0.89 267 03:18 29.12.2021
6221 Clear 19 1018 55 10000 4.12 280 00:24 29.12.2021
6222 Clear 17 1015 58 10000 1.34 215 23:47 28.12.2021
6223 Clear 16 1012 52 10000 0.89 146 22:43 28.12.2021
6224 Clear 15 1012 49 10000 0.89 143 22:24 28.12.2021
6225 Clear 16 1014 53 10000 0.89 270 21:53 28.12.2021
6226 Clouds 16 1014 49 10000 0.89 228 20:47 28.12.2021
6227 Clouds 16 1015 58 10000 0.89 93 19:39 28.12.2021
6228 Clouds 17 1017 67 10000 3.6 230 18:44 28.12.2021
6229 Clouds 17 1013 49 10000 0.89 238 18:23 28.12.2021
6230 Clear 20 1016 56 10000 3.09 270 16:35 28.12.2021
6231 Clear 20 1017 54 10000 1.79 355 15:51 28.12.2021
6232 Clear 20 1017 57 10000 2.68 320 15:25 28.12.2021
6233 Clear 20 1017 60 10000 1.79 332 14:52 28.12.2021
6234 Clear 20 1017 58 10000 1.79 269 14:21 28.12.2021
6235 Clear 20 1017 55 10000 3.13 265 13:51 28.12.2021
6236 Clear 20 1017 55 10000 2.68 340 13:31 28.12.2021
6237 Clear 19 1017 57 10000 2.68 291 12:55 28.12.2021
6238 Clouds 20 1015 47 10000 0.89 271 11:51 28.12.2021
6239 Clouds 16 1014 58 10000 0.45 337 09:30 28.12.2021
6240 Clouds 15 1011 45 10000 3.09 200 07:31 28.12.2021
6241 Clouds 17 1015 66 10000 2.68 267 02:23 28.12.2021
6242 Clouds 15 1013 69 10000 1.34 322 23:26 27.12.2021
6243 Clear 16 1012 67 10000 0.89 359 22:20 27.12.2021
6244 Clear 16 1012 66 10000 1.79 30 21:29 27.12.2021
6245 Clear 16 1011 66 10000 0.45 109 20:24 27.12.2021
6246 Clear 16 1011 66 10000 0.45 317 20:24 27.12.2021
6247 Clear 17 1010 60 10000 0.89 312 19:45 27.12.2021
6248 Clear 17 1010 52 10000 0.45 349 18:56 27.12.2021
6249 Clouds 19 1012 59 10000 1.03 0 17:50 27.12.2021
6250 Clouds 19 1007 50 10000 0.89 4 17:27 27.12.2021
6251 Clouds 21 1010 60 10000 5.66 260 15:53 27.12.2021
6252 Clouds 21 1010 60 10000 6.17 250 14:35 27.12.2021
6253 Clouds 21 1010 64 10000 7.2 250 13:59 27.12.2021
6254 Clouds 20 1010 68 10000 9.26 250 12:49 27.12.2021
6255 Clouds 19 1009 66 10000 1.79 327 10:37 27.12.2021
6256 Clouds 18 1009 70 10000 2.24 267 10:18 27.12.2021
6257 Clouds 17 1007 72 10000 1.79 309 08:42 27.12.2021
6258 Clouds 17 1006 72 10000 2.24 342 08:42 27.12.2021
6259 Clouds 16 1006 75 10000 2.68 300 07:34 27.12.2021
6260 Clouds 14 1009 84 10000 1.79 234 02:29 27.12.2021
6261 Clouds 13 1011 84 10000 0.45 277 00:57 27.12.2021
6262 Clouds 12 1011 82 10000 1.03 0 23:43 26.12.2021
6263 Clouds 12 1011 78 10000 4.93 237 23:19 26.12.2021
6264 Clouds 13 1011 76 10000 1.54 160 21:33 26.12.2021
6265 Clouds 14 1011 70 10000 2.06 210 19:55 26.12.2021
6266 Clouds 14 1010 71 10000 0.89 306 18:39 26.12.2021
6267 Clouds 15 1010 70 10000 0.45 306 18:19 26.12.2021
6268 Clouds 18 1009 59 10000 0.89 23 15:38 26.12.2021
6269 Clouds 18 1009 62 10000 1.34 39 13:49 26.12.2021
6270 Clouds 18 1009 66 10000 1.34 47 13:31 26.12.2021
6271 Clouds 18 1009 75 10000 0.89 50 12:35 26.12.2021
6272 Clouds 17 1009 87 10000 0.45 211 11:20 26.12.2021
6273 Mist 13 1009 93 5000 0.89 320 09:31 26.12.2021
6274 Fog 13 1007 92 5000 1.54 10 08:45 26.12.2021
6275 Clouds 13 1007 92 8000 1.03 0 08:26 26.12.2021
6276 Clouds 14 1007 88 10000 3.09 210 02:19 26.12.2021
6277 Clouds 14 1007 87 10000 0.45 11 00:40 26.12.2021
6278 Clouds 15 1008 87 10000 0.89 251 23:37 25.12.2021
6279 Clouds 14 1008 87 10000 0.89 229 22:39 25.12.2021
6280 Clouds 15 1008 86 10000 1.34 245 22:20 25.12.2021
6281 Clouds 15 1008 86 10000 0.89 234 20:27 25.12.2021
6282 Clouds 15 1008 84 10000 0.45 201 19:19 25.12.2021
6283 Clouds 15 1008 83 10000 0.45 174 18:39 25.12.2021
6284 Clouds 17 1007 71 10000 0.89 112 16:51 25.12.2021
6285 Clouds 17 1008 81 10000 3.13 209 15:48 25.12.2021
6286 Clouds 18 1007 71 10000 1.34 236 14:24 25.12.2021
6287 Clouds 18 1008 67 10000 2.24 230 12:42 25.12.2021
6288 Clouds 17 1009 68 7000 1.34 272 11:21 25.12.2021
6289 Clouds 16 1009 81 10000 1.34 253 09:49 25.12.2021
6290 Clouds 14 1007 91 9000 3.09 230 07:51 25.12.2021
6291 Clouds 14 1009 90 8000 2.57 220 01:45 25.12.2021
6292 Clouds 14 1009 90 7000 0 0 00:27 25.12.2021
6293 Clouds 14 1010 89 7000 1.03 0 22:28 24.12.2021
6294 Clouds 15 1011 88 9000 2.06 180 19:37 24.12.2021
6295 Clouds 15 1011 88 9000 2.06 180 19:19 24.12.2021
6296 Clouds 16 1012 83 9000 0.45 219 16:50 24.12.2021
6297 Clouds 17 1012 82 10000 1.34 204 15:54 24.12.2021
6298 Clouds 17 1012 82 10000 0.89 208 15:34 24.12.2021
6299 Clouds 17 1012 81 10000 1.34 215 14:46 24.12.2021
6300 Clouds 17 1013 82 10000 1.34 211 14:22 24.12.2021
6301 Clouds 16 1014 83 10000 0.89 224 13:37 24.12.2021
6302 Clouds 16 1015 82 10000 1.34 216 12:48 24.12.2021
6303 Clouds 16 1016 85 10000 0.89 222 11:52 24.12.2021
6304 Clouds 16 1016 84 10000 0.89 258 11:26 24.12.2021
6305 Clouds 15 1016 86 10000 0.89 207 10:46 24.12.2021
6306 Clouds 15 1015 86 10000 0.45 231 09:33 24.12.2021
6307 Clouds 14 1015 90 9000 1.34 229 08:23 24.12.2021
6308 Clouds 14 1015 88 9000 1.34 210 07:47 24.12.2021
6309 Clouds 13 1018 85 9000 0.51 0 02:52 24.12.2021
6310 Clouds 14 1019 81 7000 0 0 23:56 23.12.2021
6311 Clouds 14 1020 82 7000 0 0 23:22 23.12.2021
6312 Clouds 14 1020 79 7000 0 0 22:37 23.12.2021
6313 Clouds 14 1020 79 7000 0 0 22:19 23.12.2021
6314 Clouds 14 1020 78 7000 0.45 292 20:59 23.12.2021
6315 Clouds 15 1020 75 7000 0.89 198 20:19 23.12.2021
6316 Clouds 15 1020 85 7000 0.45 236 18:37 23.12.2021
6317 Clouds 15 1019 84 7000 0.89 258 17:57 23.12.2021
6318 Clouds 15 1020 83 7000 0.89 197 16:47 23.12.2021
6319 Clouds 15 1020 83 7000 0.45 188 16:24 23.12.2021
6320 Clouds 15 1019 83 7000 0.89 181 15:31 23.12.2021
6321 Clouds 15 1019 83 7000 0.89 181 15:31 23.12.2021
6322 Clouds 15 1020 83 7000 0.89 199 14:54 23.12.2021
6323 Clouds 15 1020 82 7000 0.89 231 14:36 23.12.2021
6324 Clouds 15 1021 81 7000 0.89 226 13:19 23.12.2021
6325 Clouds 13 1022 89 7000 0.45 68 10:53 23.12.2021
6326 Clouds 13 1021 89 7000 0.51 0 09:47 23.12.2021
6327 Clouds 12 1021 89 7000 1.03 0 09:19 23.12.2021
6328 Clouds 12 1020 89 7000 1.54 20 06:59 23.12.2021
6329 Clouds 12 1021 87 10000 1.54 70 04:35 23.12.2021
6330 Clouds 13 1022 84 10000 2.06 60 23:33 22.12.2021
6331 Clouds 13 1022 83 10000 2.06 50 22:48 22.12.2021
6332 Clouds 13 1022 82 10000 2.57 70 21:57 22.12.2021
6333 Clouds 13 1022 83 10000 0.45 53 21:29 22.12.2021
6334 Clouds 13 1021 83 10000 2.57 60 20:51 22.12.2021
6335 Clouds 14 1021 81 10000 0.45 23 20:33 22.12.2021
6336 Clouds 14 1021 81 10000 0.45 33 19:35 22.12.2021
6337 Clouds 14 1021 80 10000 0.89 14 18:18 22.12.2021
6338 Clouds 14 1021 81 10000 0.89 95 17:35 22.12.2021
6339 Clouds 14 1020 80 10000 0.45 52 15:46 22.12.2021
6340 Clouds 14 1019 82 8000 0.89 72 13:46 22.12.2021
6341 Clouds 14 1020 85 8000 0.45 126 12:44 22.12.2021
6342 Clouds 13 1020 88 6000 2.06 330 10:48 22.12.2021
6343 Clouds 12 1019 90 6000 1.54 60 09:40 22.12.2021
6344 Clouds 11 1019 89 6000 0.45 63 07:48 22.12.2021
6345 Fog 10 1018 89 1000 1.54 80 05:51 22.12.2021
6346 Fog 10 1018 89 1500 1.34 69 05:28 22.12.2021
6347 Clouds 9 1019 88 8000 0.45 33 04:55 22.12.2021
6348 Fog 9 1019 90 8000 0.89 355 04:31 22.12.2021
6349 Fog 10 1019 91 400 1.34 344 03:34 22.12.2021
6350 Clouds 11 1019 89 10000 0.45 5 01:37 22.12.2021
6351 Clouds 12 1020 89 10000 1.34 360 23:47 21.12.2021
6352 Fog 12 1019 91 7000 1.34 346 22:29 21.12.2021
6353 Clouds 12 1020 91 9000 0.89 331 21:53 21.12.2021
6354 Clouds 12 1019 91 9000 0.89 331 21:26 21.12.2021
6355 Clouds 12 1019 89 9000 0.89 11 20:24 21.12.2021
6356 Clouds 13 1019 88 9000 2.06 70 19:52 21.12.2021
6357 Clouds 13 1019 87 10000 0.45 19 19:31 21.12.2021
6358 Clouds 15 1018 84 10000 0.45 31 18:23 21.12.2021
6359 Clouds 15 1018 83 10000 0.45 193 17:52 21.12.2021
6360 Clouds 17 1018 78 10000 0.45 269 16:47 21.12.2021
6361 Clouds 17 1019 86 10000 2.68 189 15:33 21.12.2021
6362 Clouds 18 1019 78 10000 1.34 205 13:55 21.12.2021
6363 Clouds 18 1019 78 10000 0.89 192 13:36 21.12.2021
6364 Clouds 17 1020 81 10000 0.45 196 12:25 21.12.2021
6365 Clouds 13 1019 91 10000 1.03 0 10:38 21.12.2021
6366 Clouds 12 1019 91 10000 0.51 10 09:41 21.12.2021
6367 Clouds 11 1019 89 10000 1.03 0 08:39 21.12.2021
6368 Clouds 11 1018 89 10000 1.03 10 07:42 21.12.2021
6369 Clouds 11 1019 89 10000 0 0 07:19 21.12.2021
6370 Clouds 9 1020 90 10000 1.34 56 03:24 21.12.2021
6371 Clouds 9 1020 89 10000 0.89 315 01:19 21.12.2021
6372 Clouds 9 1020 87 10000 0.45 360 23:54 20.12.2021
6373 Clouds 10 1021 86 10000 0.89 341 22:35 20.12.2021
6374 Clouds 10 1021 85 10000 0.89 5 21:48 20.12.2021
6375 Clouds 10 1021 85 10000 0.45 337 21:24 20.12.2021
6376 Clouds 11 1021 83 10000 0.45 335 20:51 20.12.2021
6377 Clouds 11 1021 83 10000 0.45 319 20:19 20.12.2021
6378 Clouds 12 1020 79 10000 0.45 337 19:36 20.12.2021
6379 Clouds 12 1020 79 10000 0.51 0 19:18 20.12.2021
6380 Clouds 12 1020 77 10000 0.45 337 18:30 20.12.2021
6381 Clouds 13 1020 75 10000 1.34 213 17:49 20.12.2021
6382 Clouds 15 1020 67 10000 0.89 267 16:45 20.12.2021
6383 Clouds 16 1020 66 10000 0.89 268 15:55 20.12.2021
6384 Clouds 16 1020 66 10000 0.89 311 15:31 20.12.2021
6385 Clouds 16 1021 68 10000 1.34 271 13:31 20.12.2021
6386 Clouds 14 1022 76 10000 0.45 229 11:48 20.12.2021
6387 Clouds 11 1022 87 10000 0.45 158 10:36 20.12.2021
6388 Clouds 5 1022 90 10000 1.54 70 09:39 20.12.2021
6389 Clouds 3 1022 94 10000 1.03 30 08:49 20.12.2021
6390 Clouds 3 1022 94 10000 0 0 08:31 20.12.2021
6391 Clouds 4 1022 89 10000 1.03 80 07:32 20.12.2021
6392 Clouds 5 1022 91 10000 1.03 30 06:39 20.12.2021
6393 Clouds 7 1025 88 10000 1.34 360 00:20 20.12.2021
6394 Clouds 8 1023 80 10000 0.45 22 22:56 19.12.2021
6395 Clouds 8 1023 81 10000 0.45 22 22:24 19.12.2021
6396 Clouds 9 1024 79 10000 1.34 334 21:32 19.12.2021
6397 Clouds 10 1023 74 10000 0.89 351 20:42 19.12.2021
6398 Clouds 10 1023 74 10000 0.45 315 20:23 19.12.2021
6399 Clouds 11 1023 69 10000 1.03 0 19:41 19.12.2021
6400 Clouds 13 1023 68 10000 0.89 337 18:37 19.12.2021
6401 Clouds 13 1023 65 10000 0.45 337 17:53 19.12.2021
6402 Clouds 14 1024 62 10000 0.45 337 17:28 19.12.2021
6403 Clouds 15 1024 58 10000 0.89 227 16:27 19.12.2021
6404 Clouds 15 1024 57 10000 0.45 360 15:52 19.12.2021
6405 Clouds 15 1024 57 10000 0.45 337 15:24 19.12.2021
6406 Clouds 15 1025 57 10000 0.89 288 14:45 19.12.2021
6407 Clouds 15 1026 59 10000 0.89 90 13:27 19.12.2021
6408 Clouds 15 1026 63 10000 0.45 149 12:52 19.12.2021
6409 Clouds 14 1028 73 10000 1.54 80 12:29 19.12.2021
6410 Clouds 14 1027 71 10000 0.45 68 11:37 19.12.2021
6411 Clouds 13 1028 77 10000 0.45 68 10:49 19.12.2021
6412 Clouds 12 1027 81 10000 0.89 336 10:22 19.12.2021
6413 Clouds 10 1026 79 10000 0.45 45 08:46 19.12.2021
6414 Clouds 10 1026 82 10000 0.45 68 06:45 19.12.2021
6415 Clouds 9 1029 83 10000 1.03 0 01:51 19.12.2021
6416 Clouds 9 1030 83 10000 1.34 346 00:54 19.12.2021
6417 Clouds 9 1029 81 10000 1.34 332 22:59 18.12.2021
6418 Clouds 9 1029 80 10000 0.89 338 22:24 18.12.2021
6419 Clouds 9 1029 80 10000 0.45 313 21:44 18.12.2021
6420 Clouds 9 1029 80 10000 0.45 22 21:22 18.12.2021
6421 Clear 11 1028 75 10000 0.45 60 20:26 18.12.2021
6422 Clouds 11 1028 78 10000 0.45 29 19:38 18.12.2021
6423 Clouds 12 1028 73 10000 0.89 56 18:25 18.12.2021
6424 Clouds 13 1028 68 10000 0.89 84 17:49 18.12.2021
6425 Clouds 15 1028 63 10000 0.89 118 16:48 18.12.2021
6426 Clouds 15 1028 61 10000 0.45 51 16:20 18.12.2021
6427 Clouds 15 1028 66 10000 1.79 36 14:54 18.12.2021
6428 Clouds 16 1028 62 10000 0.89 98 13:58 18.12.2021
6429 Clouds 15 1029 71 10000 0.89 101 11:57 18.12.2021
6430 Clouds 15 1029 71 10000 0.89 101 11:57 18.12.2021
6431 Clouds 9 1028 89 10000 1.34 351 09:59 18.12.2021
6432 Clouds 8 1028 88 10000 0.89 323 09:32 18.12.2021
6433 Clouds 8 1027 87 10000 1.54 20 08:36 18.12.2021
6434 Clouds 7 1026 87 9000 2.06 40 07:24 18.12.2021
6435 Clouds 8 1028 81 10000 1.34 328 01:46 18.12.2021
6436 Clouds 9 1028 77 10000 0.45 46 23:51 17.12.2021
6437 Clear 11 1028 72 10000 0.45 68 22:51 17.12.2021
6438 Clear 11 1028 70 10000 0.89 51 21:49 17.12.2021
6439 Clear 12 1028 67 10000 0.89 53 20:44 17.12.2021
6440 Clouds 13 1028 70 10000 1.34 51 19:57 17.12.2021
6441 Clouds 13 1027 70 10000 1.34 93 18:40 17.12.2021
6442 Clouds 13 1027 70 10000 1.34 76 18:18 17.12.2021
6443 Clouds 14 1027 68 10000 0.89 56 16:57 17.12.2021
6444 Clouds 14 1027 66 10000 0.89 60 16:28 17.12.2021
6445 Clouds 14 1027 67 10000 1.34 52 15:51 17.12.2021
6446 Clouds 14 1028 67 10000 0.45 45 14:43 17.12.2021
6447 Clouds 13 1028 70 10000 1.34 55 13:55 17.12.2021
6448 Clouds 13 1028 73 10000 0.45 68 12:37 17.12.2021
6449 Fog 11 1029 83 10000 0.89 43 10:42 17.12.2021
6450 Fog 9 1029 88 10000 0.89 105 09:47 17.12.2021
6451 Clouds 7 1028 89 10000 1.34 68 08:43 17.12.2021
6452 Clouds 7 1028 90 10000 0.45 68 08:18 17.12.2021
6453 Clear 8 1028 87 10000 0.89 355 04:57 17.12.2021
6454 Clouds 9 1029 90 10000 0.89 62 00:57 17.12.2021
6455 Clouds 8 1028 89 10000 0.89 338 22:44 16.12.2021
6456 Clouds 9 1027 86 10000 0.45 34 22:22 16.12.2021
6457 Clouds 9 1027 83 10000 0.45 90 21:43 16.12.2021
6458 Clouds 10 1028 83 10000 2.06 30 20:42 16.12.2021
6459 Clouds 11 1028 83 10000 0.45 68 20:21 16.12.2021
6460 Clouds 11 1028 83 10000 0.45 68 20:21 16.12.2021
6461 Clouds 12 1028 80 10000 1.03 80 19:30 16.12.2021
6462 Clouds 12 1028 78 10000 0.45 292 18:33 16.12.2021
6463 Clouds 13 1027 75 10000 1.54 70 17:46 16.12.2021
6464 Clouds 15 1027 70 10000 0.45 117 16:24 16.12.2021
6465 Clouds 15 1028 76 10000 0.89 78 15:38 16.12.2021
6466 Clouds 16 1027 68 10000 1.34 239 13:45 16.12.2021
6467 Clouds 15 1029 78 10000 0.89 188 11:56 16.12.2021
6468 Clouds 14 1029 83 10000 0.89 90 11:18 16.12.2021
6469 Clouds 12 1028 90 10000 0.45 68 10:39 16.12.2021
6470 Clouds 6 1029 93 10000 1.03 50 09:43 16.12.2021
6471 Clouds 4 1028 100 10000 1.54 10 06:23 16.12.2021
6472 Clouds 7 1027 89 10000 0.89 68 04:33 16.12.2021
6473 Clouds 8 1027 86 10000 1.34 355 23:47 15.12.2021
6474 Clouds 9 1027 85 10000 1.34 355 22:50 15.12.2021
6475 Clouds 9 1027 83 10000 0.45 1 22:21 15.12.2021
6476 Clouds 10 1027 82 10000 0.89 341 21:31 15.12.2021
6477 Clouds 10 1026 79 10000 0.45 60 20:51 15.12.2021
6478 Clouds 11 1026 80 10000 1.34 56 19:53 15.12.2021
6479 Clouds 12 1026 75 10000 0.89 118 19:18 15.12.2021
6480 Clouds 12 1026 76 10000 0.89 54 18:19 15.12.2021
6481 Clouds 13 1025 75 10000 0.89 144 17:45 15.12.2021
6482 Clouds 13 1025 73 10000 0.89 108 17:21 15.12.2021
6483 Clouds 15 1024 69 10000 1.34 236 15:49 15.12.2021
6484 Clouds 15 1025 75 10000 0.89 90 15:30 15.12.2021
6485 Clouds 15 1025 76 10000 1.34 74 14:59 15.12.2021
6486 Clouds 15 1026 76 10000 1.34 55 13:45 15.12.2021
6487 Clouds 15 1026 76 10000 0.89 90 11:52 15.12.2021
6488 Clouds 10 1026 91 10000 0.45 68 10:22 15.12.2021
6489 Fog 5 1025 96 10000 1.54 60 08:26 15.12.2021
6490 Clouds 6 1023 86 10000 0.45 68 05:53 15.12.2021
6491 Clear 9 1025 87 10000 0.45 68 00:39 15.12.2021
6492 Clouds 8 1025 87 10000 1.34 5 23:31 14.12.2021
6493 Clouds 9 1025 86 10000 0.45 68 22:44 14.12.2021
6494 Clouds 9 1025 86 10000 1.34 343 21:43 14.12.2021
6495 Clear 10 1025 84 10000 1.34 343 21:43 14.12.2021
6496 Clouds 10 1025 83 10000 1.34 347 20:23 14.12.2021
6497 Clouds 11 1025 81 10000 0.89 343 19:37 14.12.2021
6498 Clouds 12 1025 76 10000 0.45 68 18:39 14.12.2021
6499 Clouds 13 1025 73 10000 0.89 286 17:56 14.12.2021
6500 Clouds 15 1024 69 10000 3.09 220 16:47 14.12.2021
6501 Clouds 16 1026 77 10000 0.89 138 16:29 14.12.2021
6502 Clouds 17 1025 68 10000 1.34 198 14:32 14.12.2021
6503 Clouds 16 1026 71 10000 1.79 232 12:58 14.12.2021
6504 Clouds 16 1027 72 10000 0.45 228 11:51 14.12.2021
6505 Clouds 14 1027 79 10000 0 0 11:22 14.12.2021
6506 Fog 8 1027 99 10000 0 0 09:55 14.12.2021
6507 Fog 8 1028 90 10000 1.34 344 09:19 14.12.2021
6508 Fog 4 1026 95 10000 1.03 0 08:22 14.12.2021
6509 Clear 5 1026 94 7000 0.51 0 07:39 14.12.2021
6510 Clouds 8 1028 91 10000 0.89 341 00:35 14.12.2021
6511 Clear 9 1026 85 10000 1.34 339 22:33 13.12.2021
6512 Clouds 10 1026 86 10000 1.34 360 21:49 13.12.2021
6513 Clouds 10 1026 85 10000 0.45 340 20:58 13.12.2021
6514 Clouds 11 1026 84 10000 0.51 70 20:29 13.12.2021
6515 Clouds 12 1026 81 10000 0.45 337 19:51 13.12.2021
6516 Clouds 14 1025 75 10000 1.34 237 17:55 13.12.2021
6517 Clouds 15 1025 71 10000 0.89 249 17:19 13.12.2021
6518 Clouds 16 1026 75 10000 3.58 229 15:49 13.12.2021
6519 Clouds 17 1026 75 10000 2.68 223 15:18 13.12.2021
6520 Clouds 17 1026 74 10000 1.34 212 13:38 13.12.2021
6521 Clouds 16 1026 77 10000 0.89 172 12:42 13.12.2021
6522 Clouds 15 1027 79 10000 0.89 204 11:54 13.12.2021
6523 Clouds 15 1027 80 10000 1.34 226 11:35 13.12.2021
6524 Clouds 13 1027 87 10000 0.45 234 10:41 13.12.2021
6525 Fog 6 1027 90 400 0.51 0 08:52 13.12.2021
6526 Fog 6 1027 94 500 0 0 07:37 13.12.2021
6527 Fog 6 1026 94 200 0.51 60 05:34 13.12.2021
6528 Clouds 8 1028 92 10000 1.79 348 00:43 13.12.2021
6529 Clouds 10 1027 85 10000 0.45 1 21:59 12.12.2021
6530 Clouds 10 1027 85 10000 1.03 0 21:33 12.12.2021
6531 Clouds 12 1026 81 10000 0.89 1 19:40 12.12.2021
6532 Clouds 13 1025 75 10000 0.89 338 18:35 12.12.2021
6533 Clouds 16 1025 68 10000 0.89 267 16:58 12.12.2021
6534 Clouds 16 1026 74 10000 1.34 208 16:27 12.12.2021
6535 Clouds 16 1026 72 10000 1.79 200 15:41 12.12.2021
6536 Clouds 17 1026 72 10000 1.79 192 15:22 12.12.2021
6537 Clouds 16 1027 70 10000 2.68 167 14:30 12.12.2021
6538 Clouds 16 1027 70 10000 2.68 167 14:30 12.12.2021
6539 Clouds 17 1025 61 10000 1.34 194 12:57 12.12.2021
6540 Clouds 16 1026 60 10000 1.34 183 12:27 12.12.2021
6541 Clouds 16 1026 61 10000 0.89 190 11:44 12.12.2021
6542 Clouds 15 1026 63 10000 1.34 183 11:20 12.12.2021
6543 Clouds 12 1025 81 10000 0 0 10:22 12.12.2021
6544 Clouds 5 1025 94 10000 0.51 0 08:54 12.12.2021
6545 Clouds 5 1025 93 10000 1.54 80 07:31 12.12.2021
6546 Clouds 7 1022 86 10000 1.03 0 05:57 12.12.2021
6547 Clouds 7 1023 87 10000 1.34 342 04:55 12.12.2021
6548 Clouds 8 1023 87 10000 1.34 344 02:58 12.12.2021
6549 Clouds 9 1022 80 9000 1.34 360 23:39 11.12.2021
6550 Clouds 9 1021 82 10000 0.89 347 22:22 11.12.2021
6551 Clouds 9 1021 82 10000 0.45 1 21:51 11.12.2021
6552 Clouds 10 1021 80 10000 1.34 57 20:29 11.12.2021
6553 Clouds 11 1019 75 10000 0.89 14 19:21 11.12.2021
6554 Clouds 12 1019 73 10000 0.45 23 18:52 11.12.2021
6555 Clouds 13 1017 66 10000 0.89 23 18:19 11.12.2021
6556 Clouds 14 1018 63 10000 0.45 23 17:20 11.12.2021
6557 Clouds 15 1019 68 10000 2.24 230 15:53 11.12.2021
6558 Clouds 15 1018 61 10000 1.34 231 15:27 11.12.2021
6559 Clouds 14 1019 65 10000 0.89 134 12:50 11.12.2021
6560 Clouds 14 1019 65 10000 0.89 134 12:50 11.12.2021
6561 Clouds 13 1019 72 10000 0.45 38 11:25 11.12.2021
6562 Clouds 12 1015 72 10000 0.45 45 09:45 11.12.2021
6563 Clouds 12 1014 72 10000 1.54 60 08:23 11.12.2021
6564 Clouds 14 1011 52 10000 2.24 332 02:23 11.12.2021
6565 Clouds 15 1011 49 10000 4.02 77 23:58 10.12.2021
6566 Clouds 15 1011 49 10000 3.13 64 23:20 10.12.2021
6567 Clouds 16 1008 42 10000 4.92 347 21:56 10.12.2021
6568 Clouds 16 1008 41 10000 7.15 1 21:28 10.12.2021
6569 Clouds 17 1008 41 10000 5.36 285 19:21 10.12.2021
6570 Clouds 17 1008 48 10000 3.13 349 18:19 10.12.2021
6571 Clouds 17 1007 52 10000 2.68 349 16:56 10.12.2021
6572 Clouds 18 1006 53 10000 2.68 288 16:28 10.12.2021
6573 Clouds 18 1005 51 10000 3.58 4 15:41 10.12.2021
6574 Clouds 18 1006 51 10000 3.58 341 15:21 10.12.2021
6575 Clouds 18 1006 49 10000 4.92 307 13:52 10.12.2021
6576 Clouds 19 1005 51 10000 4.02 310 13:26 10.12.2021
6577 Clouds 18 1010 64 10000 4.92 290 12:39 10.12.2021
6578 Clouds 18 1007 56 10000 2.68 305 11:29 10.12.2021
6579 Clouds 17 1006 57 10000 1.79 290 10:37 10.12.2021
6580 Clouds 16 1006 60 10000 1.34 270 08:58 10.12.2021
6581 Clouds 16 1006 62 10000 1.79 226 06:56 10.12.2021
6582 Clouds 16 1010 65 10000 1.34 226 02:48 10.12.2021
6583 Clouds 16 1011 68 10000 1.79 262 00:55 10.12.2021
6584 Clouds 15 1012 65 10000 1.79 271 23:23 09.12.2021
6585 Clouds 16 1010 54 10000 1.34 295 22:32 09.12.2021
6586 Clouds 15 1010 57 10000 1.34 268 21:59 09.12.2021
6587 Clouds 15 1012 61 10000 1.34 267 21:20 09.12.2021
6588 Clouds 14 1012 62 10000 0.89 257 20:29 09.12.2021
6589 Clouds 14 1012 56 10000 0.89 234 19:22 09.12.2021
6590 Clouds 14 1013 55 10000 0.89 204 18:50 09.12.2021
6591 Clouds 14 1013 54 10000 1.34 252 17:57 09.12.2021
6592 Clouds 14 1012 51 10000 1.34 295 17:27 09.12.2021
6593 Clouds 14 1012 50 10000 2.24 264 16:57 09.12.2021
6594 Clouds 14 1012 50 10000 2.68 309 15:59 09.12.2021
6595 Clouds 14 1013 48 10000 2.24 353 14:52 09.12.2021
6596 Clouds 13 1013 48 10000 1.34 335 13:50 09.12.2021
6597 Clouds 13 1014 48 10000 2.68 352 12:47 09.12.2021
6598 Clouds 12 1015 52 10000 2.68 342 11:25 09.12.2021
6599 Clouds 12 1015 52 10000 2.24 359 10:19 09.12.2021
6600 Clouds 11 1011 53 10000 2.68 305 06:51 09.12.2021
6601 Clouds 11 1010 46 10000 3.13 307 03:49 09.12.2021
6602 Clouds 12 1011 41 10000 2.68 27 00:24 09.12.2021
6603 Clouds 12 1011 41 10000 1.79 28 23:32 08.12.2021
6604 Clouds 13 1010 40 10000 2.24 13 22:56 08.12.2021
6605 Clouds 13 1010 37 10000 2.24 287 21:50 08.12.2021
6606 Clouds 13 1010 37 10000 2.68 323 21:31 08.12.2021
6607 Clouds 13 1010 38 10000 2.24 293 20:31 08.12.2021
6608 Clouds 13 1009 40 10000 1.79 30 19:55 08.12.2021
6609 Clouds 13 1008 40 10000 2.24 329 18:57 08.12.2021
6610 Clouds 13 1008 45 10000 2.24 320 18:22 08.12.2021
6611 Clouds 12 1007 60 10000 1.79 318 16:49 08.12.2021
6612 Rain 11 1009 69 10000 8.05 231 15:40 08.12.2021
6613 Rain 12 1009 70 10000 8.49 274 15:21 08.12.2021
6614 Clouds 16 1007 47 10000 1.79 328 13:21 08.12.2021
6615 Clouds 14 1008 64 10000 1.34 16 10:42 08.12.2021
6616 Clouds 13 1008 75 10000 0.89 52 09:32 08.12.2021
6617 Clouds 15 1006 69 10000 1.34 358 08:31 08.12.2021
6618 Clouds 16 1006 64 10000 2.68 286 05:37 08.12.2021
6619 Clouds 17 1009 62 10000 4.47 256 00:27 08.12.2021
6620 Clouds 16 1009 69 10000 4.02 274 23:22 07.12.2021
6621 Clouds 15 1011 84 10000 1.34 215 21:25 07.12.2021
6622 Clouds 15 1012 81 10000 0.89 190 20:25 07.12.2021
6623 Clouds 15 1013 80 10000 0.89 204 18:59 07.12.2021
6624 Clouds 15 1013 80 10000 0.89 220 18:23 07.12.2021
6625 Clouds 16 1014 75 10000 0.89 234 17:27 07.12.2021
6626 Clouds 16 1014 74 10000 0.89 257 16:53 07.12.2021
6627 Clouds 17 1015 70 10000 1.34 244 16:25 07.12.2021
6628 Clouds 18 1016 65 10000 1.34 214 14:38 07.12.2021
6629 Clear 18 1017 61 10000 1.79 230 13:40 07.12.2021
6630 Clear 18 1018 53 10000 1.34 212 12:22 07.12.2021
6631 Clear 18 1019 49 10000 0.89 202 11:19 07.12.2021
6632 Clear 14 1018 57 10000 0.89 53 09:36 07.12.2021
6633 Clouds 14 1018 52 10000 0.45 188 07:35 07.12.2021
6634 Clouds 15 1016 58 10000 2.24 15 05:52 07.12.2021
6635 Clouds 15 1019 66 10000 1.34 31 05:26 07.12.2021
6636 Clouds 7 1020 87 10000 1.03 100 23:36 06.12.2021
6637 Clouds 10 1021 81 10000 0.89 304 22:41 06.12.2021
6638 Clouds 11 1020 71 10000 0.51 290 21:59 06.12.2021
6639 Clouds 12 1020 67 10000 0.45 112 21: